<?xml version="1.0" encoding="UTF-8" standalone="no" ?>
<gpx xmlns="http://www.topografix.com/GPX/1/1" xmlns:xsi="http://www.w3.org/2001/XMLSchema-instance" xsi:schemaLocation="http://www.topografix.com/GPX/1/1 http://www.topografix.com/GPX/1/1/gpx.xsd" version="1.1" creator="VisuGPX - https://www.visugpx.com">
  <metadata>
    <name>Castellane à Moustier</name>
    <desc><![CDATA[
Préparation Trans Verdon]]></desc>
  </metadata>
  <trk>
    <name><![CDATA[Tronçon 10 – De Rougon aux Chauvets]]></name>
    <trkseg>
      <trkpt lat="43.84568" lon="6.51377">
        <ele>724</ele>
        <time>2020-03-21T15:29:48.849Z</time>
      </trkpt>
      <trkpt lat="43.84568" lon="6.51377">
        <ele>724</ele>
        <time>2020-03-21T15:29:48.849Z</time>
      </trkpt>
      <trkpt lat="43.8454" lon="6.51295">
        <ele>723</ele>
        <time>2020-03-21T15:29:49.849Z</time>
      </trkpt>
      <trkpt lat="43.84514" lon="6.51223">
        <ele>722</ele>
        <time>2020-03-21T15:29:50.849Z</time>
      </trkpt>
      <trkpt lat="43.84505" lon="6.51149">
        <ele>722</ele>
        <time>2020-03-21T15:29:51.849Z</time>
      </trkpt>
      <trkpt lat="43.84497" lon="6.51109">
        <ele>722</ele>
        <time>2020-03-21T15:29:52.849Z</time>
      </trkpt>
      <trkpt lat="43.8448" lon="6.51038">
        <ele>724</ele>
        <time>2020-03-21T15:29:53.849Z</time>
      </trkpt>
      <trkpt lat="43.84468" lon="6.50987">
        <ele>724</ele>
        <time>2020-03-21T15:29:54.849Z</time>
      </trkpt>
      <trkpt lat="43.84459" lon="6.50973">
        <ele>723</ele>
        <time>2020-03-21T15:29:55.849Z</time>
      </trkpt>
      <trkpt lat="43.8445" lon="6.50976">
        <ele>724</ele>
        <time>2020-03-21T15:29:56.849Z</time>
      </trkpt>
      <trkpt lat="43.84436" lon="6.50978">
        <ele>724</ele>
        <time>2020-03-21T15:29:57.849Z</time>
      </trkpt>
      <trkpt lat="43.8442" lon="6.50966">
        <ele>723</ele>
        <time>2020-03-21T15:29:58.849Z</time>
      </trkpt>
      <trkpt lat="43.84412" lon="6.50947">
        <ele>723</ele>
        <time>2020-03-21T15:29:59.849Z</time>
      </trkpt>
      <trkpt lat="43.84386" lon="6.50887">
        <ele>724</ele>
        <time>2020-03-21T15:30:00.849Z</time>
      </trkpt>
      <trkpt lat="43.84355" lon="6.50818">
        <ele>722</ele>
        <time>2020-03-21T15:30:01.849Z</time>
      </trkpt>
      <trkpt lat="43.8433" lon="6.50761">
        <ele>720</ele>
        <time>2020-03-21T15:30:02.849Z</time>
      </trkpt>
      <trkpt lat="43.84301" lon="6.50697">
        <ele>720</ele>
        <time>2020-03-21T15:30:03.849Z</time>
      </trkpt>
      <trkpt lat="43.8428" lon="6.50648">
        <ele>719</ele>
        <time>2020-03-21T15:30:04.849Z</time>
      </trkpt>
      <trkpt lat="43.84263" lon="6.50608">
        <ele>718</ele>
        <time>2020-03-21T15:30:05.849Z</time>
      </trkpt>
      <trkpt lat="43.84238" lon="6.50547">
        <ele>718</ele>
        <time>2020-03-21T15:30:06.849Z</time>
      </trkpt>
      <trkpt lat="43.84218" lon="6.50496">
        <ele>717</ele>
        <time>2020-03-21T15:30:07.849Z</time>
      </trkpt>
      <trkpt lat="43.84203" lon="6.50461">
        <ele>717</ele>
        <time>2020-03-21T15:30:08.849Z</time>
      </trkpt>
      <trkpt lat="43.84192" lon="6.50434">
        <ele>717</ele>
        <time>2020-03-21T15:30:09.849Z</time>
      </trkpt>
      <trkpt lat="43.84187" lon="6.5042">
        <ele>717</ele>
        <time>2020-03-21T15:30:10.849Z</time>
      </trkpt>
      <trkpt lat="43.84183" lon="6.50412">
        <ele>717</ele>
        <time>2020-03-21T15:30:11.849Z</time>
      </trkpt>
      <trkpt lat="43.84148" lon="6.50329">
        <ele>717</ele>
        <time>2020-03-21T15:30:12.849Z</time>
      </trkpt>
      <trkpt lat="43.84118" lon="6.50257">
        <ele>717</ele>
        <time>2020-03-21T15:30:13.849Z</time>
      </trkpt>
      <trkpt lat="43.84096" lon="6.50205">
        <ele>717</ele>
        <time>2020-03-21T15:30:14.849Z</time>
      </trkpt>
      <trkpt lat="43.84067" lon="6.50134">
        <ele>718</ele>
        <time>2020-03-21T15:30:15.849Z</time>
      </trkpt>
      <trkpt lat="43.84035" lon="6.50062">
        <ele>716</ele>
        <time>2020-03-21T15:30:16.849Z</time>
      </trkpt>
      <trkpt lat="43.84021" lon="6.50043">
        <ele>716</ele>
        <time>2020-03-21T15:30:17.849Z</time>
      </trkpt>
      <trkpt lat="43.83975" lon="6.49983">
        <ele>715</ele>
        <time>2020-03-21T15:30:18.849Z</time>
      </trkpt>
      <trkpt lat="43.83928" lon="6.49932">
        <ele>716</ele>
        <time>2020-03-21T15:30:19.849Z</time>
      </trkpt>
      <trkpt lat="43.83875" lon="6.49878">
        <ele>715</ele>
        <time>2020-03-21T15:30:20.849Z</time>
      </trkpt>
      <trkpt lat="43.83841" lon="6.49842">
        <ele>714</ele>
        <time>2020-03-21T15:30:21.849Z</time>
      </trkpt>
      <trkpt lat="43.83802" lon="6.49801">
        <ele>714</ele>
        <time>2020-03-21T15:30:22.849Z</time>
      </trkpt>
      <trkpt lat="43.83796" lon="6.49789">
        <ele>714</ele>
        <time>2020-03-21T15:30:23.849Z</time>
      </trkpt>
      <trkpt lat="43.83793" lon="6.49783">
        <ele>715</ele>
        <time>2020-03-21T15:30:24.849Z</time>
      </trkpt>
      <trkpt lat="43.83789" lon="6.4977">
        <ele>715</ele>
        <time>2020-03-21T15:30:25.849Z</time>
      </trkpt>
      <trkpt lat="43.83805" lon="6.49761">
        <ele>715</ele>
        <time>2020-03-21T15:30:26.849Z</time>
      </trkpt>
      <trkpt lat="43.83836" lon="6.49764">
        <ele>716</ele>
        <time>2020-03-21T15:30:27.849Z</time>
      </trkpt>
      <trkpt lat="43.83876" lon="6.49771">
        <ele>715</ele>
        <time>2020-03-21T15:30:28.849Z</time>
      </trkpt>
      <trkpt lat="43.83901" lon="6.4977">
        <ele>714</ele>
        <time>2020-03-21T15:30:29.849Z</time>
      </trkpt>
      <trkpt lat="43.8392" lon="6.49761">
        <ele>714</ele>
        <time>2020-03-21T15:30:30.849Z</time>
      </trkpt>
      <trkpt lat="43.83978" lon="6.49726">
        <ele>713</ele>
        <time>2020-03-21T15:30:31.849Z</time>
      </trkpt>
      <trkpt lat="43.84016" lon="6.49705">
        <ele>714</ele>
        <time>2020-03-21T15:30:32.849Z</time>
      </trkpt>
      <trkpt lat="43.84074" lon="6.49673">
        <ele>715</ele>
        <time>2020-03-21T15:30:33.849Z</time>
      </trkpt>
      <trkpt lat="43.84134" lon="6.49637">
        <ele>719</ele>
        <time>2020-03-21T15:30:34.849Z</time>
      </trkpt>
      <trkpt lat="43.84141" lon="6.49634">
        <ele>720</ele>
        <time>2020-03-21T15:30:35.849Z</time>
      </trkpt>
      <trkpt lat="43.84169" lon="6.49636">
        <ele>722</ele>
        <time>2020-03-21T15:30:36.849Z</time>
      </trkpt>
      <trkpt lat="43.84173" lon="6.49638">
        <ele>724</ele>
        <time>2020-03-21T15:30:37.849Z</time>
      </trkpt>
      <trkpt lat="43.84183" lon="6.49637">
        <ele>727</ele>
        <time>2020-03-21T15:30:38.849Z</time>
      </trkpt>
      <trkpt lat="43.84175" lon="6.49627">
        <ele>725</ele>
        <time>2020-03-21T15:30:39.849Z</time>
      </trkpt>
      <trkpt lat="43.84129" lon="6.49575">
        <ele>722</ele>
        <time>2020-03-21T15:30:40.849Z</time>
      </trkpt>
      <trkpt lat="43.84102" lon="6.49536">
        <ele>725</ele>
        <time>2020-03-21T15:30:41.849Z</time>
      </trkpt>
      <trkpt lat="43.84067" lon="6.4949">
        <ele>727</ele>
        <time>2020-03-21T15:30:42.849Z</time>
      </trkpt>
      <trkpt lat="43.84028" lon="6.49443">
        <ele>729</ele>
        <time>2020-03-21T15:30:43.849Z</time>
      </trkpt>
      <trkpt lat="43.84012" lon="6.49426">
        <ele>727</ele>
        <time>2020-03-21T15:30:44.849Z</time>
      </trkpt>
      <trkpt lat="43.83999" lon="6.49406">
        <ele>727</ele>
        <time>2020-03-21T15:30:45.849Z</time>
      </trkpt>
      <trkpt lat="43.83987" lon="6.4938">
        <ele>731</ele>
        <time>2020-03-21T15:30:46.849Z</time>
      </trkpt>
      <trkpt lat="43.83974" lon="6.49352">
        <ele>734</ele>
        <time>2020-03-21T15:30:47.849Z</time>
      </trkpt>
      <trkpt lat="43.8396" lon="6.49324">
        <ele>737</ele>
        <time>2020-03-21T15:30:48.849Z</time>
      </trkpt>
      <trkpt lat="43.83926" lon="6.49279">
        <ele>740</ele>
        <time>2020-03-21T15:30:49.849Z</time>
      </trkpt>
      <trkpt lat="43.83916" lon="6.49271">
        <ele>740</ele>
        <time>2020-03-21T15:30:50.849Z</time>
      </trkpt>
      <trkpt lat="43.83844" lon="6.49222">
        <ele>751</ele>
        <time>2020-03-21T15:30:51.849Z</time>
      </trkpt>
      <trkpt lat="43.83835" lon="6.49215">
        <ele>752</ele>
        <time>2020-03-21T15:30:52.849Z</time>
      </trkpt>
      <trkpt lat="43.83826" lon="6.4921">
        <ele>754</ele>
        <time>2020-03-21T15:30:53.849Z</time>
      </trkpt>
      <trkpt lat="43.83798" lon="6.49185">
        <ele>761</ele>
        <time>2020-03-21T15:30:54.849Z</time>
      </trkpt>
      <trkpt lat="43.83784" lon="6.49146">
        <ele>764</ele>
        <time>2020-03-21T15:30:55.849Z</time>
      </trkpt>
      <trkpt lat="43.83777" lon="6.49129">
        <ele>764</ele>
        <time>2020-03-21T15:30:56.849Z</time>
      </trkpt>
      <trkpt lat="43.83776" lon="6.49121">
        <ele>764</ele>
        <time>2020-03-21T15:30:57.849Z</time>
      </trkpt>
      <trkpt lat="43.83784" lon="6.49083">
        <ele>764</ele>
        <time>2020-03-21T15:30:58.849Z</time>
      </trkpt>
      <trkpt lat="43.83797" lon="6.49051">
        <ele>763</ele>
        <time>2020-03-21T15:30:59.849Z</time>
      </trkpt>
      <trkpt lat="43.838" lon="6.4904">
        <ele>762</ele>
        <time>2020-03-21T15:31:00.849Z</time>
      </trkpt>
      <trkpt lat="43.83802" lon="6.49027">
        <ele>762</ele>
        <time>2020-03-21T15:31:01.849Z</time>
      </trkpt>
      <trkpt lat="43.83811" lon="6.49006">
        <ele>761</ele>
        <time>2020-03-21T15:31:02.849Z</time>
      </trkpt>
      <trkpt lat="43.83818" lon="6.48997">
        <ele>761</ele>
        <time>2020-03-21T15:31:03.849Z</time>
      </trkpt>
      <trkpt lat="43.83827" lon="6.48989">
        <ele>762</ele>
        <time>2020-03-21T15:31:04.849Z</time>
      </trkpt>
      <trkpt lat="43.83851" lon="6.48964">
        <ele>765</ele>
        <time>2020-03-21T15:31:05.849Z</time>
      </trkpt>
      <trkpt lat="43.83864" lon="6.48938">
        <ele>766</ele>
        <time>2020-03-21T15:31:06.849Z</time>
      </trkpt>
      <trkpt lat="43.83868" lon="6.48918">
        <ele>766</ele>
        <time>2020-03-21T15:31:07.849Z</time>
      </trkpt>
      <trkpt lat="43.83856" lon="6.48911">
        <ele>766</ele>
        <time>2020-03-21T15:31:08.849Z</time>
      </trkpt>
      <trkpt lat="43.83836" lon="6.4891">
        <ele>765</ele>
        <time>2020-03-21T15:31:09.849Z</time>
      </trkpt>
      <trkpt lat="43.83828" lon="6.48908">
        <ele>765</ele>
        <time>2020-03-21T15:31:10.849Z</time>
      </trkpt>
      <trkpt lat="43.83809" lon="6.4889">
        <ele>765</ele>
        <time>2020-03-21T15:31:11.849Z</time>
      </trkpt>
      <trkpt lat="43.8378" lon="6.4881">
        <ele>775</ele>
        <time>2020-03-21T15:31:12.849Z</time>
      </trkpt>
      <trkpt lat="43.83777" lon="6.48798">
        <ele>777</ele>
        <time>2020-03-21T15:31:13.849Z</time>
      </trkpt>
      <trkpt lat="43.8375" lon="6.48754">
        <ele>780</ele>
        <time>2020-03-21T15:31:14.849Z</time>
      </trkpt>
      <trkpt lat="43.83711" lon="6.48729">
        <ele>783</ele>
        <time>2020-03-21T15:31:15.849Z</time>
      </trkpt>
      <trkpt lat="43.83666" lon="6.48723">
        <ele>780</ele>
        <time>2020-03-21T15:31:16.849Z</time>
      </trkpt>
      <trkpt lat="43.83655" lon="6.48722">
        <ele>779</ele>
        <time>2020-03-21T15:31:17.849Z</time>
      </trkpt>
      <trkpt lat="43.83629" lon="6.48713">
        <ele>774</ele>
        <time>2020-03-21T15:31:18.849Z</time>
      </trkpt>
      <trkpt lat="43.83624" lon="6.48707">
        <ele>774</ele>
        <time>2020-03-21T15:31:19.849Z</time>
      </trkpt>
      <trkpt lat="43.8363" lon="6.48677">
        <ele>778</ele>
        <time>2020-03-21T15:31:20.849Z</time>
      </trkpt>
      <trkpt lat="43.83636" lon="6.48665">
        <ele>781</ele>
        <time>2020-03-21T15:31:21.849Z</time>
      </trkpt>
      <trkpt lat="43.83658" lon="6.48632">
        <ele>786</ele>
        <time>2020-03-21T15:31:22.849Z</time>
      </trkpt>
      <trkpt lat="43.83666" lon="6.48622">
        <ele>789</ele>
        <time>2020-03-21T15:31:23.849Z</time>
      </trkpt>
      <trkpt lat="43.83682" lon="6.48583">
        <ele>795</ele>
        <time>2020-03-21T15:31:24.849Z</time>
      </trkpt>
      <trkpt lat="43.83685" lon="6.48553">
        <ele>799</ele>
        <time>2020-03-21T15:31:25.849Z</time>
      </trkpt>
      <trkpt lat="43.83681" lon="6.48522">
        <ele>800</ele>
        <time>2020-03-21T15:31:26.849Z</time>
      </trkpt>
      <trkpt lat="43.83671" lon="6.48479">
        <ele>801</ele>
        <time>2020-03-21T15:31:27.849Z</time>
      </trkpt>
      <trkpt lat="43.83668" lon="6.48464">
        <ele>802</ele>
        <time>2020-03-21T15:31:28.849Z</time>
      </trkpt>
      <trkpt lat="43.83655" lon="6.48392">
        <ele>809</ele>
        <time>2020-03-21T15:31:29.849Z</time>
      </trkpt>
      <trkpt lat="43.83628" lon="6.48334">
        <ele>809</ele>
        <time>2020-03-21T15:31:30.849Z</time>
      </trkpt>
      <trkpt lat="43.83605" lon="6.48277">
        <ele>815</ele>
        <time>2020-03-21T15:31:31.849Z</time>
      </trkpt>
      <trkpt lat="43.83585" lon="6.48246">
        <ele>816</ele>
        <time>2020-03-21T15:31:32.849Z</time>
      </trkpt>
      <trkpt lat="43.8356" lon="6.48221">
        <ele>816</ele>
        <time>2020-03-21T15:31:33.849Z</time>
      </trkpt>
      <trkpt lat="43.83516" lon="6.48191">
        <ele>811</ele>
        <time>2020-03-21T15:31:34.849Z</time>
      </trkpt>
      <trkpt lat="43.835" lon="6.48179">
        <ele>810</ele>
        <time>2020-03-21T15:31:35.849Z</time>
      </trkpt>
      <trkpt lat="43.8349" lon="6.48159">
        <ele>812</ele>
        <time>2020-03-21T15:31:36.849Z</time>
      </trkpt>
      <trkpt lat="43.83477" lon="6.48125">
        <ele>815</ele>
        <time>2020-03-21T15:31:37.849Z</time>
      </trkpt>
      <trkpt lat="43.83468" lon="6.48076">
        <ele>821</ele>
        <time>2020-03-21T15:31:38.849Z</time>
      </trkpt>
      <trkpt lat="43.83471" lon="6.48027">
        <ele>826</ele>
        <time>2020-03-21T15:31:39.849Z</time>
      </trkpt>
      <trkpt lat="43.8347" lon="6.48014">
        <ele>827</ele>
        <time>2020-03-21T15:31:40.849Z</time>
      </trkpt>
      <trkpt lat="43.8346" lon="6.47936">
        <ele>831</ele>
        <time>2020-03-21T15:31:41.849Z</time>
      </trkpt>
      <trkpt lat="43.83454" lon="6.47908">
        <ele>831</ele>
        <time>2020-03-21T15:31:42.849Z</time>
      </trkpt>
      <trkpt lat="43.83438" lon="6.47853">
        <ele>832</ele>
        <time>2020-03-21T15:31:43.849Z</time>
      </trkpt>
      <trkpt lat="43.83429" lon="6.47796">
        <ele>837</ele>
        <time>2020-03-21T15:31:44.849Z</time>
      </trkpt>
      <trkpt lat="43.83425" lon="6.4777">
        <ele>839</ele>
        <time>2020-03-21T15:31:45.849Z</time>
      </trkpt>
      <trkpt lat="43.8341" lon="6.47724">
        <ele>838</ele>
        <time>2020-03-21T15:31:46.849Z</time>
      </trkpt>
      <trkpt lat="43.83398" lon="6.47709">
        <ele>834</ele>
        <time>2020-03-21T15:31:47.849Z</time>
      </trkpt>
      <trkpt lat="43.8339" lon="6.47692">
        <ele>832</ele>
        <time>2020-03-21T15:31:48.849Z</time>
      </trkpt>
      <trkpt lat="43.83392" lon="6.47661">
        <ele>836</ele>
        <time>2020-03-21T15:31:49.849Z</time>
      </trkpt>
      <trkpt lat="43.83394" lon="6.4765">
        <ele>838</ele>
        <time>2020-03-21T15:31:50.849Z</time>
      </trkpt>
      <trkpt lat="43.83391" lon="6.47614">
        <ele>841</ele>
        <time>2020-03-21T15:31:51.849Z</time>
      </trkpt>
      <trkpt lat="43.83379" lon="6.47583">
        <ele>838</ele>
        <time>2020-03-21T15:31:52.849Z</time>
      </trkpt>
      <trkpt lat="43.83378" lon="6.47554">
        <ele>838</ele>
        <time>2020-03-21T15:31:53.849Z</time>
      </trkpt>
      <trkpt lat="43.83394" lon="6.475">
        <ele>848</ele>
        <time>2020-03-21T15:31:54.849Z</time>
      </trkpt>
      <trkpt lat="43.83395" lon="6.4744">
        <ele>852</ele>
        <time>2020-03-21T15:31:55.849Z</time>
      </trkpt>
      <trkpt lat="43.83392" lon="6.47395">
        <ele>853</ele>
        <time>2020-03-21T15:31:56.849Z</time>
      </trkpt>
      <trkpt lat="43.83393" lon="6.47385">
        <ele>855</ele>
        <time>2020-03-21T15:31:57.849Z</time>
      </trkpt>
      <trkpt lat="43.83396" lon="6.4733">
        <ele>859</ele>
        <time>2020-03-21T15:31:58.849Z</time>
      </trkpt>
      <trkpt lat="43.83393" lon="6.47306">
        <ele>858</ele>
        <time>2020-03-21T15:31:59.849Z</time>
      </trkpt>
      <trkpt lat="43.83392" lon="6.47252">
        <ele>858</ele>
        <time>2020-03-21T15:32:00.849Z</time>
      </trkpt>
      <trkpt lat="43.83403" lon="6.47183">
        <ele>862</ele>
        <time>2020-03-21T15:32:01.849Z</time>
      </trkpt>
      <trkpt lat="43.83403" lon="6.47173">
        <ele>862</ele>
        <time>2020-03-21T15:32:02.849Z</time>
      </trkpt>
      <trkpt lat="43.83395" lon="6.4713">
        <ele>866</ele>
        <time>2020-03-21T15:32:03.849Z</time>
      </trkpt>
      <trkpt lat="43.83388" lon="6.47115">
        <ele>865</ele>
        <time>2020-03-21T15:32:04.849Z</time>
      </trkpt>
      <trkpt lat="43.83367" lon="6.47076">
        <ele>862</ele>
        <time>2020-03-21T15:32:05.849Z</time>
      </trkpt>
      <trkpt lat="43.83357" lon="6.47061">
        <ele>858</ele>
        <time>2020-03-21T15:32:06.849Z</time>
      </trkpt>
      <trkpt lat="43.83351" lon="6.47042">
        <ele>854</ele>
        <time>2020-03-21T15:32:07.849Z</time>
      </trkpt>
      <trkpt lat="43.83352" lon="6.47007">
        <ele>855</ele>
        <time>2020-03-21T15:32:08.849Z</time>
      </trkpt>
      <trkpt lat="43.83361" lon="6.46968">
        <ele>855</ele>
        <time>2020-03-21T15:32:09.849Z</time>
      </trkpt>
      <trkpt lat="43.83372" lon="6.46906">
        <ele>852</ele>
        <time>2020-03-21T15:32:10.849Z</time>
      </trkpt>
      <trkpt lat="43.83381" lon="6.4684">
        <ele>848</ele>
        <time>2020-03-21T15:32:11.849Z</time>
      </trkpt>
      <trkpt lat="43.83385" lon="6.46821">
        <ele>847</ele>
        <time>2020-03-21T15:32:12.849Z</time>
      </trkpt>
      <trkpt lat="43.83394" lon="6.46805">
        <ele>847</ele>
        <time>2020-03-21T15:32:13.849Z</time>
      </trkpt>
      <trkpt lat="43.83412" lon="6.46795">
        <ele>852</ele>
        <time>2020-03-21T15:32:14.849Z</time>
      </trkpt>
      <trkpt lat="43.83441" lon="6.46778">
        <ele>859</ele>
        <time>2020-03-21T15:32:15.849Z</time>
      </trkpt>
      <trkpt lat="43.83474" lon="6.4677">
        <ele>870</ele>
        <time>2020-03-21T15:32:16.849Z</time>
      </trkpt>
      <trkpt lat="43.83479" lon="6.46767">
        <ele>872</ele>
        <time>2020-03-21T15:32:17.849Z</time>
      </trkpt>
      <trkpt lat="43.83484" lon="6.46759">
        <ele>873</ele>
        <time>2020-03-21T15:32:18.849Z</time>
      </trkpt>
      <trkpt lat="43.83471" lon="6.46739">
        <ele>868</ele>
        <time>2020-03-21T15:32:19.849Z</time>
      </trkpt>
      <trkpt lat="43.83457" lon="6.46711">
        <ele>864</ele>
        <time>2020-03-21T15:32:20.849Z</time>
      </trkpt>
      <trkpt lat="43.83454" lon="6.467">
        <ele>863</ele>
        <time>2020-03-21T15:32:21.849Z</time>
      </trkpt>
      <trkpt lat="43.83452" lon="6.46688">
        <ele>863</ele>
        <time>2020-03-21T15:32:22.849Z</time>
      </trkpt>
      <trkpt lat="43.83451" lon="6.46641">
        <ele>868</ele>
        <time>2020-03-21T15:32:23.849Z</time>
      </trkpt>
      <trkpt lat="43.8345" lon="6.46629">
        <ele>869</ele>
        <time>2020-03-21T15:32:24.849Z</time>
      </trkpt>
      <trkpt lat="43.83435" lon="6.46586">
        <ele>869</ele>
        <time>2020-03-21T15:32:25.849Z</time>
      </trkpt>
      <trkpt lat="43.83425" lon="6.46569">
        <ele>867</ele>
        <time>2020-03-21T15:32:26.849Z</time>
      </trkpt>
      <trkpt lat="43.83412" lon="6.4653">
        <ele>867</ele>
        <time>2020-03-21T15:32:27.849Z</time>
      </trkpt>
      <trkpt lat="43.83411" lon="6.46504">
        <ele>869</ele>
        <time>2020-03-21T15:32:28.849Z</time>
      </trkpt>
      <trkpt lat="43.83409" lon="6.46462">
        <ele>869</ele>
        <time>2020-03-21T15:32:29.849Z</time>
      </trkpt>
      <trkpt lat="43.83411" lon="6.46427">
        <ele>869</ele>
        <time>2020-03-21T15:32:30.849Z</time>
      </trkpt>
      <trkpt lat="43.83412" lon="6.46416">
        <ele>870</ele>
        <time>2020-03-21T15:32:31.849Z</time>
      </trkpt>
      <trkpt lat="43.83413" lon="6.46406">
        <ele>871</ele>
        <time>2020-03-21T15:32:32.849Z</time>
      </trkpt>
      <trkpt lat="43.83414" lon="6.46397">
        <ele>872</ele>
        <time>2020-03-21T15:32:33.849Z</time>
      </trkpt>
      <trkpt lat="43.83413" lon="6.46376">
        <ele>873</ele>
        <time>2020-03-21T15:32:34.849Z</time>
      </trkpt>
      <trkpt lat="43.83407" lon="6.46345">
        <ele>873</ele>
        <time>2020-03-21T15:32:35.849Z</time>
      </trkpt>
      <trkpt lat="43.83397" lon="6.46318">
        <ele>872</ele>
        <time>2020-03-21T15:32:36.849Z</time>
      </trkpt>
      <trkpt lat="43.83395" lon="6.4631">
        <ele>872</ele>
        <time>2020-03-21T15:32:37.849Z</time>
      </trkpt>
      <trkpt lat="43.83377" lon="6.46257">
        <ele>873</ele>
        <time>2020-03-21T15:32:38.849Z</time>
      </trkpt>
      <trkpt lat="43.83367" lon="6.46241">
        <ele>871</ele>
        <time>2020-03-21T15:32:39.849Z</time>
      </trkpt>
      <trkpt lat="43.83352" lon="6.46214">
        <ele>869</ele>
        <time>2020-03-21T15:32:40.849Z</time>
      </trkpt>
      <trkpt lat="43.83348" lon="6.46202">
        <ele>870</ele>
        <time>2020-03-21T15:32:41.849Z</time>
      </trkpt>
      <trkpt lat="43.83347" lon="6.46196">
        <ele>870</ele>
        <time>2020-03-21T15:32:42.849Z</time>
      </trkpt>
      <trkpt lat="43.8334" lon="6.46159">
        <ele>873</ele>
        <time>2020-03-21T15:32:43.849Z</time>
      </trkpt>
      <trkpt lat="43.8334" lon="6.46144">
        <ele>874</ele>
        <time>2020-03-21T15:32:44.849Z</time>
      </trkpt>
      <trkpt lat="43.83341" lon="6.4614">
        <ele>875</ele>
        <time>2020-03-21T15:32:45.849Z</time>
      </trkpt>
      <trkpt lat="43.83345" lon="6.46131">
        <ele>877</ele>
        <time>2020-03-21T15:32:46.849Z</time>
      </trkpt>
      <trkpt lat="43.83344" lon="6.46128">
        <ele>877</ele>
        <time>2020-03-21T15:32:47.849Z</time>
      </trkpt>
      <trkpt lat="43.8334" lon="6.46093">
        <ele>878</ele>
        <time>2020-03-21T15:32:48.849Z</time>
      </trkpt>
      <trkpt lat="43.83326" lon="6.46055">
        <ele>879</ele>
        <time>2020-03-21T15:32:49.849Z</time>
      </trkpt>
      <trkpt lat="43.83308" lon="6.46031">
        <ele>876</ele>
        <time>2020-03-21T15:32:50.849Z</time>
      </trkpt>
      <trkpt lat="43.83302" lon="6.46016">
        <ele>875</ele>
        <time>2020-03-21T15:32:51.849Z</time>
      </trkpt>
      <trkpt lat="43.83292" lon="6.45991">
        <ele>875</ele>
        <time>2020-03-21T15:32:52.849Z</time>
      </trkpt>
      <trkpt lat="43.83285" lon="6.45977">
        <ele>874</ele>
        <time>2020-03-21T15:32:53.849Z</time>
      </trkpt>
      <trkpt lat="43.83273" lon="6.45956">
        <ele>872</ele>
        <time>2020-03-21T15:32:54.849Z</time>
      </trkpt>
      <trkpt lat="43.83274" lon="6.45932">
        <ele>876</ele>
        <time>2020-03-21T15:32:55.849Z</time>
      </trkpt>
      <trkpt lat="43.83282" lon="6.45901">
        <ele>880</ele>
        <time>2020-03-21T15:32:56.849Z</time>
      </trkpt>
      <trkpt lat="43.83286" lon="6.45874">
        <ele>877</ele>
        <time>2020-03-21T15:32:57.849Z</time>
      </trkpt>
      <trkpt lat="43.83294" lon="6.45849">
        <ele>876</ele>
        <time>2020-03-21T15:32:58.849Z</time>
      </trkpt>
      <trkpt lat="43.83303" lon="6.45822">
        <ele>873</ele>
        <time>2020-03-21T15:32:59.849Z</time>
      </trkpt>
      <trkpt lat="43.83312" lon="6.45805">
        <ele>870</ele>
        <time>2020-03-21T15:33:00.849Z</time>
      </trkpt>
      <trkpt lat="43.83316" lon="6.45798">
        <ele>868</ele>
        <time>2020-03-21T15:33:01.849Z</time>
      </trkpt>
      <trkpt lat="43.83344" lon="6.45775">
        <ele>867</ele>
        <time>2020-03-21T15:33:02.849Z</time>
      </trkpt>
      <trkpt lat="43.83352" lon="6.45772">
        <ele>867</ele>
        <time>2020-03-21T15:33:03.849Z</time>
      </trkpt>
      <trkpt lat="43.83398" lon="6.4576">
        <ele>871</ele>
        <time>2020-03-21T15:33:04.849Z</time>
      </trkpt>
      <trkpt lat="43.83433" lon="6.45764">
        <ele>881</ele>
        <time>2020-03-21T15:33:05.849Z</time>
      </trkpt>
      <trkpt lat="43.8344" lon="6.45768">
        <ele>884</ele>
        <time>2020-03-21T15:33:06.849Z</time>
      </trkpt>
      <trkpt lat="43.83462" lon="6.4578">
        <ele>893</ele>
        <time>2020-03-21T15:33:07.849Z</time>
      </trkpt>
      <trkpt lat="43.8347" lon="6.45779">
        <ele>895</ele>
        <time>2020-03-21T15:33:08.849Z</time>
      </trkpt>
      <trkpt lat="43.83506" lon="6.45777">
        <ele>901</ele>
        <time>2020-03-21T15:33:09.849Z</time>
      </trkpt>
      <trkpt lat="43.83517" lon="6.45781">
        <ele>907</ele>
        <time>2020-03-21T15:33:10.849Z</time>
      </trkpt>
      <trkpt lat="43.83524" lon="6.45784">
        <ele>911</ele>
        <time>2020-03-21T15:33:11.849Z</time>
      </trkpt>
      <trkpt lat="43.83525" lon="6.45759">
        <ele>906</ele>
        <time>2020-03-21T15:33:12.849Z</time>
      </trkpt>
      <trkpt lat="43.83523" lon="6.45747">
        <ele>903</ele>
        <time>2020-03-21T15:33:13.849Z</time>
      </trkpt>
      <trkpt lat="43.83514" lon="6.45673">
        <ele>897</ele>
        <time>2020-03-21T15:33:14.849Z</time>
      </trkpt>
      <trkpt lat="43.8351" lon="6.4564">
        <ele>892</ele>
        <time>2020-03-21T15:33:15.849Z</time>
      </trkpt>
      <trkpt lat="43.83511" lon="6.45613">
        <ele>890</ele>
        <time>2020-03-21T15:33:16.849Z</time>
      </trkpt>
      <trkpt lat="43.83529" lon="6.45589">
        <ele>893</ele>
        <time>2020-03-21T15:33:17.849Z</time>
      </trkpt>
      <trkpt lat="43.83542" lon="6.45582">
        <ele>896</ele>
        <time>2020-03-21T15:33:18.849Z</time>
      </trkpt>
      <trkpt lat="43.83548" lon="6.45577">
        <ele>897</ele>
        <time>2020-03-21T15:33:19.849Z</time>
      </trkpt>
      <trkpt lat="43.83582" lon="6.45572">
        <ele>907</ele>
        <time>2020-03-21T15:33:20.849Z</time>
      </trkpt>
      <trkpt lat="43.83604" lon="6.45583">
        <ele>915</ele>
        <time>2020-03-21T15:33:21.849Z</time>
      </trkpt>
      <trkpt lat="43.83611" lon="6.45586">
        <ele>918</ele>
        <time>2020-03-21T15:33:22.849Z</time>
      </trkpt>
      <trkpt lat="43.83634" lon="6.45587">
        <ele>925</ele>
        <time>2020-03-21T15:33:23.849Z</time>
      </trkpt>
      <trkpt lat="43.8365" lon="6.45573">
        <ele>928</ele>
        <time>2020-03-21T15:33:24.849Z</time>
      </trkpt>
      <trkpt lat="43.8366" lon="6.45556">
        <ele>930</ele>
        <time>2020-03-21T15:33:25.849Z</time>
      </trkpt>
      <trkpt lat="43.83661" lon="6.4554">
        <ele>929</ele>
        <time>2020-03-21T15:33:26.849Z</time>
      </trkpt>
      <trkpt lat="43.83643" lon="6.4552">
        <ele>921</ele>
        <time>2020-03-21T15:33:27.849Z</time>
      </trkpt>
      <trkpt lat="43.83629" lon="6.45479">
        <ele>917</ele>
        <time>2020-03-21T15:33:28.849Z</time>
      </trkpt>
      <trkpt lat="43.83622" lon="6.45452">
        <ele>920</ele>
        <time>2020-03-21T15:33:29.849Z</time>
      </trkpt>
      <trkpt lat="43.83581" lon="6.45398">
        <ele>910</ele>
        <time>2020-03-21T15:33:30.849Z</time>
      </trkpt>
      <trkpt lat="43.83576" lon="6.45392">
        <ele>908</ele>
        <time>2020-03-21T15:33:31.849Z</time>
      </trkpt>
      <trkpt lat="43.8357" lon="6.45377">
        <ele>905</ele>
        <time>2020-03-21T15:33:32.849Z</time>
      </trkpt>
      <trkpt lat="43.83575" lon="6.45349">
        <ele>909</ele>
        <time>2020-03-21T15:33:33.849Z</time>
      </trkpt>
      <trkpt lat="43.83598" lon="6.45315">
        <ele>915</ele>
        <time>2020-03-21T15:33:34.849Z</time>
      </trkpt>
      <trkpt lat="43.83633" lon="6.45249">
        <ele>918</ele>
        <time>2020-03-21T15:33:35.849Z</time>
      </trkpt>
      <trkpt lat="43.83658" lon="6.45211">
        <ele>923</ele>
        <time>2020-03-21T15:33:36.849Z</time>
      </trkpt>
      <trkpt lat="43.83679" lon="6.45174">
        <ele>928</ele>
        <time>2020-03-21T15:33:37.849Z</time>
      </trkpt>
      <trkpt lat="43.83683" lon="6.45164">
        <ele>928</ele>
        <time>2020-03-21T15:33:38.849Z</time>
      </trkpt>
      <trkpt lat="43.83712" lon="6.45108">
        <ele>928</ele>
        <time>2020-03-21T15:33:39.849Z</time>
      </trkpt>
      <trkpt lat="43.83746" lon="6.45075">
        <ele>934</ele>
        <time>2020-03-21T15:33:40.849Z</time>
      </trkpt>
      <trkpt lat="43.83763" lon="6.45054">
        <ele>935</ele>
        <time>2020-03-21T15:33:41.849Z</time>
      </trkpt>
      <trkpt lat="43.8378" lon="6.45038">
        <ele>938</ele>
        <time>2020-03-21T15:33:42.849Z</time>
      </trkpt>
      <trkpt lat="43.83809" lon="6.45005">
        <ele>938</ele>
        <time>2020-03-21T15:33:43.849Z</time>
      </trkpt>
      <trkpt lat="43.8382" lon="6.44991">
        <ele>937</ele>
        <time>2020-03-21T15:33:44.849Z</time>
      </trkpt>
      <trkpt lat="43.83838" lon="6.44981">
        <ele>942</ele>
        <time>2020-03-21T15:33:45.849Z</time>
      </trkpt>
      <trkpt lat="43.83846" lon="6.44976">
        <ele>945</ele>
        <time>2020-03-21T15:33:46.849Z</time>
      </trkpt>
      <trkpt lat="43.83876" lon="6.4495">
        <ele>953</ele>
        <time>2020-03-21T15:33:47.849Z</time>
      </trkpt>
      <trkpt lat="43.83887" lon="6.44938">
        <ele>957</ele>
        <time>2020-03-21T15:33:48.849Z</time>
      </trkpt>
      <trkpt lat="43.83892" lon="6.44929">
        <ele>958</ele>
        <time>2020-03-21T15:33:49.849Z</time>
      </trkpt>
      <trkpt lat="43.83894" lon="6.4492">
        <ele>957</ele>
        <time>2020-03-21T15:33:50.849Z</time>
      </trkpt>
      <trkpt lat="43.83894" lon="6.44916">
        <ele>956</ele>
        <time>2020-03-21T15:33:51.849Z</time>
      </trkpt>
      <trkpt lat="43.83895" lon="6.44914">
        <ele>957</ele>
        <time>2020-03-21T15:33:52.849Z</time>
      </trkpt>
      <trkpt lat="43.83894" lon="6.44912">
        <ele>957</ele>
        <time>2020-03-21T15:33:53.849Z</time>
      </trkpt>
      <trkpt lat="43.83894" lon="6.44906">
        <ele>957</ele>
        <time>2020-03-21T15:33:54.849Z</time>
      </trkpt>
      <trkpt lat="43.83895" lon="6.44901">
        <ele>958</ele>
        <time>2020-03-21T15:33:55.849Z</time>
      </trkpt>
      <trkpt lat="43.83894" lon="6.44901">
        <ele>958</ele>
        <time>2020-03-21T15:33:56.849Z</time>
      </trkpt>
      <trkpt lat="43.83893" lon="6.44899">
        <ele>957</ele>
        <time>2020-03-21T15:33:57.849Z</time>
      </trkpt>
      <trkpt lat="43.83891" lon="6.44898">
        <ele>956</ele>
        <time>2020-03-21T15:33:58.849Z</time>
      </trkpt>
      <trkpt lat="43.83889" lon="6.44891">
        <ele>956</ele>
        <time>2020-03-21T15:33:59.849Z</time>
      </trkpt>
      <trkpt lat="43.83889" lon="6.44891">
        <ele>956</ele>
        <time>2020-03-21T15:34:00.849Z</time>
      </trkpt>
      <trkpt lat="43.83887" lon="6.44885">
        <ele>956</ele>
        <time>2020-03-21T15:34:01.849Z</time>
      </trkpt>
      <trkpt lat="43.8388" lon="6.44861">
        <ele>955</ele>
        <time>2020-03-21T15:34:02.849Z</time>
      </trkpt>
      <trkpt lat="43.83879" lon="6.44836">
        <ele>957</ele>
        <time>2020-03-21T15:34:03.849Z</time>
      </trkpt>
      <trkpt lat="43.83875" lon="6.44815">
        <ele>960</ele>
        <time>2020-03-21T15:34:04.849Z</time>
      </trkpt>
      <trkpt lat="43.83866" lon="6.44804">
        <ele>958</ele>
        <time>2020-03-21T15:34:05.849Z</time>
      </trkpt>
      <trkpt lat="43.83857" lon="6.44791">
        <ele>956</ele>
        <time>2020-03-21T15:34:06.849Z</time>
      </trkpt>
      <trkpt lat="43.83853" lon="6.44783">
        <ele>956</ele>
        <time>2020-03-21T15:34:07.849Z</time>
      </trkpt>
      <trkpt lat="43.8384" lon="6.44753">
        <ele>958</ele>
        <time>2020-03-21T15:34:08.849Z</time>
      </trkpt>
      <trkpt lat="43.83831" lon="6.44735">
        <ele>961</ele>
        <time>2020-03-21T15:34:09.849Z</time>
      </trkpt>
      <trkpt lat="43.83827" lon="6.44714">
        <ele>968</ele>
        <time>2020-03-21T15:34:10.849Z</time>
      </trkpt>
      <trkpt lat="43.83817" lon="6.44694">
        <ele>974</ele>
        <time>2020-03-21T15:34:11.849Z</time>
      </trkpt>
      <trkpt lat="43.83807" lon="6.44681">
        <ele>977</ele>
        <time>2020-03-21T15:34:12.849Z</time>
      </trkpt>
      <trkpt lat="43.83796" lon="6.44672">
        <ele>978</ele>
        <time>2020-03-21T15:34:13.849Z</time>
      </trkpt>
      <trkpt lat="43.83771" lon="6.44668">
        <ele>974</ele>
        <time>2020-03-21T15:34:14.849Z</time>
      </trkpt>
      <trkpt lat="43.83747" lon="6.44662">
        <ele>971</ele>
        <time>2020-03-21T15:34:15.849Z</time>
      </trkpt>
      <trkpt lat="43.83743" lon="6.44661">
        <ele>971</ele>
        <time>2020-03-21T15:34:16.849Z</time>
      </trkpt>
      <trkpt lat="43.83725" lon="6.44669">
        <ele>967</ele>
        <time>2020-03-21T15:34:17.849Z</time>
      </trkpt>
      <trkpt lat="43.83712" lon="6.44672">
        <ele>965</ele>
        <time>2020-03-21T15:34:18.849Z</time>
      </trkpt>
      <trkpt lat="43.83708" lon="6.44673">
        <ele>964</ele>
        <time>2020-03-21T15:34:19.849Z</time>
      </trkpt>
      <trkpt lat="43.83693" lon="6.44684">
        <ele>957</ele>
        <time>2020-03-21T15:34:20.849Z</time>
      </trkpt>
      <trkpt lat="43.83682" lon="6.44683">
        <ele>957</ele>
        <time>2020-03-21T15:34:21.849Z</time>
      </trkpt>
      <trkpt lat="43.83663" lon="6.44667">
        <ele>964</ele>
        <time>2020-03-21T15:34:22.849Z</time>
      </trkpt>
      <trkpt lat="43.83652" lon="6.4465">
        <ele>970</ele>
        <time>2020-03-21T15:34:23.849Z</time>
      </trkpt>
      <trkpt lat="43.83635" lon="6.44634">
        <ele>974</ele>
        <time>2020-03-21T15:34:24.849Z</time>
      </trkpt>
      <trkpt lat="43.83625" lon="6.44627">
        <ele>975</ele>
        <time>2020-03-21T15:34:25.849Z</time>
      </trkpt>
      <trkpt lat="43.83602" lon="6.44614">
        <ele>976</ele>
        <time>2020-03-21T15:34:26.849Z</time>
      </trkpt>
      <trkpt lat="43.83579" lon="6.446">
        <ele>977</ele>
        <time>2020-03-21T15:34:27.849Z</time>
      </trkpt>
      <trkpt lat="43.83569" lon="6.44589">
        <ele>981</ele>
        <time>2020-03-21T15:34:28.849Z</time>
      </trkpt>
      <trkpt lat="43.83561" lon="6.44579">
        <ele>982</ele>
        <time>2020-03-21T15:34:29.849Z</time>
      </trkpt>
      <trkpt lat="43.83555" lon="6.44573">
        <ele>981</ele>
        <time>2020-03-21T15:34:30.849Z</time>
      </trkpt>
      <trkpt lat="43.83551" lon="6.44564">
        <ele>980</ele>
        <time>2020-03-21T15:34:31.849Z</time>
      </trkpt>
      <trkpt lat="43.83551" lon="6.44548">
        <ele>978</ele>
        <time>2020-03-21T15:34:32.849Z</time>
      </trkpt>
      <trkpt lat="43.83555" lon="6.44522">
        <ele>976</ele>
        <time>2020-03-21T15:34:33.849Z</time>
      </trkpt>
      <trkpt lat="43.83557" lon="6.44509">
        <ele>976</ele>
        <time>2020-03-21T15:34:34.849Z</time>
      </trkpt>
      <trkpt lat="43.83557" lon="6.445">
        <ele>975</ele>
        <time>2020-03-21T15:34:35.849Z</time>
      </trkpt>
      <trkpt lat="43.83564" lon="6.44475">
        <ele>972</ele>
        <time>2020-03-21T15:34:36.849Z</time>
      </trkpt>
      <trkpt lat="43.83575" lon="6.44441">
        <ele>970</ele>
        <time>2020-03-21T15:34:37.849Z</time>
      </trkpt>
      <trkpt lat="43.83585" lon="6.44411">
        <ele>970</ele>
        <time>2020-03-21T15:34:38.849Z</time>
      </trkpt>
      <trkpt lat="43.83592" lon="6.44382">
        <ele>968</ele>
        <time>2020-03-21T15:34:39.849Z</time>
      </trkpt>
      <trkpt lat="43.83596" lon="6.44364">
        <ele>966</ele>
        <time>2020-03-21T15:34:40.849Z</time>
      </trkpt>
      <trkpt lat="43.83603" lon="6.44337">
        <ele>963</ele>
        <time>2020-03-21T15:34:41.849Z</time>
      </trkpt>
      <trkpt lat="43.83606" lon="6.44322">
        <ele>961</ele>
        <time>2020-03-21T15:34:42.849Z</time>
      </trkpt>
      <trkpt lat="43.8361" lon="6.44313">
        <ele>960</ele>
        <time>2020-03-21T15:34:43.849Z</time>
      </trkpt>
      <trkpt lat="43.83615" lon="6.44301">
        <ele>960</ele>
        <time>2020-03-21T15:34:44.849Z</time>
      </trkpt>
      <trkpt lat="43.83621" lon="6.44296">
        <ele>962</ele>
        <time>2020-03-21T15:34:45.849Z</time>
      </trkpt>
      <trkpt lat="43.83622" lon="6.44294">
        <ele>962</ele>
        <time>2020-03-21T15:34:46.849Z</time>
      </trkpt>
      <trkpt lat="43.83631" lon="6.44282">
        <ele>965</ele>
        <time>2020-03-21T15:34:47.849Z</time>
      </trkpt>
      <trkpt lat="43.83634" lon="6.44278">
        <ele>966</ele>
        <time>2020-03-21T15:34:48.849Z</time>
      </trkpt>
      <trkpt lat="43.83639" lon="6.4427">
        <ele>968</ele>
        <time>2020-03-21T15:34:49.849Z</time>
      </trkpt>
      <trkpt lat="43.83644" lon="6.44256">
        <ele>968</ele>
        <time>2020-03-21T15:34:50.849Z</time>
      </trkpt>
      <trkpt lat="43.83646" lon="6.44237">
        <ele>966</ele>
        <time>2020-03-21T15:34:51.849Z</time>
      </trkpt>
      <trkpt lat="43.83645" lon="6.44211">
        <ele>961</ele>
        <time>2020-03-21T15:34:52.849Z</time>
      </trkpt>
      <trkpt lat="43.83647" lon="6.44199">
        <ele>960</ele>
        <time>2020-03-21T15:34:53.849Z</time>
      </trkpt>
      <trkpt lat="43.83649" lon="6.44186">
        <ele>959</ele>
        <time>2020-03-21T15:34:54.849Z</time>
      </trkpt>
      <trkpt lat="43.83649" lon="6.44179">
        <ele>958</ele>
        <time>2020-03-21T15:34:55.849Z</time>
      </trkpt>
      <trkpt lat="43.83653" lon="6.44132">
        <ele>954</ele>
        <time>2020-03-21T15:34:56.849Z</time>
      </trkpt>
      <trkpt lat="43.83664" lon="6.44071">
        <ele>954</ele>
        <time>2020-03-21T15:34:57.849Z</time>
      </trkpt>
      <trkpt lat="43.83669" lon="6.44051">
        <ele>953</ele>
        <time>2020-03-21T15:34:58.849Z</time>
      </trkpt>
      <trkpt lat="43.83686" lon="6.4403">
        <ele>954</ele>
        <time>2020-03-21T15:34:59.849Z</time>
      </trkpt>
      <trkpt lat="43.83705" lon="6.44016">
        <ele>956</ele>
        <time>2020-03-21T15:35:00.849Z</time>
      </trkpt>
      <trkpt lat="43.8372" lon="6.44007">
        <ele>958</ele>
        <time>2020-03-21T15:35:01.849Z</time>
      </trkpt>
      <trkpt lat="43.83745" lon="6.44002">
        <ele>963</ele>
        <time>2020-03-21T15:35:02.849Z</time>
      </trkpt>
      <trkpt lat="43.83757" lon="6.43985">
        <ele>965</ele>
        <time>2020-03-21T15:35:03.849Z</time>
      </trkpt>
      <trkpt lat="43.83758" lon="6.43978">
        <ele>965</ele>
        <time>2020-03-21T15:35:04.849Z</time>
      </trkpt>
      <trkpt lat="43.83765" lon="6.43935">
        <ele>965</ele>
        <time>2020-03-21T15:35:05.849Z</time>
      </trkpt>
      <trkpt lat="43.83765" lon="6.43896">
        <ele>964</ele>
        <time>2020-03-21T15:35:06.849Z</time>
      </trkpt>
      <trkpt lat="43.83762" lon="6.43871">
        <ele>962</ele>
        <time>2020-03-21T15:35:07.849Z</time>
      </trkpt>
      <trkpt lat="43.83756" lon="6.43834">
        <ele>960</ele>
        <time>2020-03-21T15:35:08.849Z</time>
      </trkpt>
      <trkpt lat="43.83755" lon="6.43805">
        <ele>960</ele>
        <time>2020-03-21T15:35:09.849Z</time>
      </trkpt>
      <trkpt lat="43.83753" lon="6.43774">
        <ele>959</ele>
        <time>2020-03-21T15:35:10.849Z</time>
      </trkpt>
      <trkpt lat="43.83755" lon="6.43756">
        <ele>960</ele>
        <time>2020-03-21T15:35:11.849Z</time>
      </trkpt>
      <trkpt lat="43.83756" lon="6.43747">
        <ele>960</ele>
        <time>2020-03-21T15:35:12.849Z</time>
      </trkpt>
      <trkpt lat="43.83759" lon="6.4374">
        <ele>959</ele>
        <time>2020-03-21T15:35:13.849Z</time>
      </trkpt>
      <trkpt lat="43.83767" lon="6.4373">
        <ele>958</ele>
        <time>2020-03-21T15:35:14.849Z</time>
      </trkpt>
      <trkpt lat="43.83772" lon="6.43728">
        <ele>958</ele>
        <time>2020-03-21T15:35:15.849Z</time>
      </trkpt>
      <trkpt lat="43.83778" lon="6.43716">
        <ele>956</ele>
        <time>2020-03-21T15:35:16.849Z</time>
      </trkpt>
      <trkpt lat="43.83786" lon="6.43706">
        <ele>954</ele>
        <time>2020-03-21T15:35:17.849Z</time>
      </trkpt>
      <trkpt lat="43.83796" lon="6.43693">
        <ele>951</ele>
        <time>2020-03-21T15:35:18.849Z</time>
      </trkpt>
      <trkpt lat="43.83797" lon="6.43692">
        <ele>951</ele>
        <time>2020-03-21T15:35:19.849Z</time>
      </trkpt>
      <trkpt lat="43.83805" lon="6.43685">
        <ele>949</ele>
        <time>2020-03-21T15:35:20.849Z</time>
      </trkpt>
      <trkpt lat="43.83811" lon="6.43682">
        <ele>948</ele>
        <time>2020-03-21T15:35:21.849Z</time>
      </trkpt>
      <trkpt lat="43.83821" lon="6.43672">
        <ele>945</ele>
        <time>2020-03-21T15:35:22.849Z</time>
      </trkpt>
      <trkpt lat="43.83832" lon="6.4366">
        <ele>940</ele>
        <time>2020-03-21T15:35:23.849Z</time>
      </trkpt>
      <trkpt lat="43.83843" lon="6.43652">
        <ele>938</ele>
        <time>2020-03-21T15:35:24.849Z</time>
      </trkpt>
      <trkpt lat="43.83853" lon="6.43649">
        <ele>939</ele>
        <time>2020-03-21T15:35:25.849Z</time>
      </trkpt>
      <trkpt lat="43.83861" lon="6.43646">
        <ele>939</ele>
        <time>2020-03-21T15:35:26.849Z</time>
      </trkpt>
      <trkpt lat="43.8387" lon="6.43642">
        <ele>939</ele>
        <time>2020-03-21T15:35:27.849Z</time>
      </trkpt>
      <trkpt lat="43.83875" lon="6.4364">
        <ele>939</ele>
        <time>2020-03-21T15:35:28.849Z</time>
      </trkpt>
      <trkpt lat="43.83881" lon="6.43638">
        <ele>939</ele>
        <time>2020-03-21T15:35:29.849Z</time>
      </trkpt>
      <trkpt lat="43.83886" lon="6.43636">
        <ele>939</ele>
        <time>2020-03-21T15:35:30.849Z</time>
      </trkpt>
      <trkpt lat="43.83898" lon="6.43625">
        <ele>936</ele>
        <time>2020-03-21T15:35:31.849Z</time>
      </trkpt>
      <trkpt lat="43.83912" lon="6.43614">
        <ele>934</ele>
        <time>2020-03-21T15:35:32.849Z</time>
      </trkpt>
      <trkpt lat="43.83922" lon="6.43607">
        <ele>933</ele>
        <time>2020-03-21T15:35:33.849Z</time>
      </trkpt>
      <trkpt lat="43.83935" lon="6.43598">
        <ele>932</ele>
        <time>2020-03-21T15:35:34.849Z</time>
      </trkpt>
      <trkpt lat="43.83947" lon="6.43584">
        <ele>929</ele>
        <time>2020-03-21T15:35:35.849Z</time>
      </trkpt>
      <trkpt lat="43.83955" lon="6.43575">
        <ele>928</ele>
        <time>2020-03-21T15:35:36.849Z</time>
      </trkpt>
      <trkpt lat="43.83964" lon="6.43564">
        <ele>927</ele>
        <time>2020-03-21T15:35:37.849Z</time>
      </trkpt>
      <trkpt lat="43.83972" lon="6.43555">
        <ele>927</ele>
        <time>2020-03-21T15:35:38.849Z</time>
      </trkpt>
      <trkpt lat="43.8398" lon="6.43545">
        <ele>926</ele>
        <time>2020-03-21T15:35:39.849Z</time>
      </trkpt>
      <trkpt lat="43.83985" lon="6.43537">
        <ele>925</ele>
        <time>2020-03-21T15:35:40.849Z</time>
      </trkpt>
      <trkpt lat="43.83987" lon="6.43533">
        <ele>924</ele>
        <time>2020-03-21T15:35:41.849Z</time>
      </trkpt>
      <trkpt lat="43.83994" lon="6.43523">
        <ele>923</ele>
        <time>2020-03-21T15:35:42.849Z</time>
      </trkpt>
      <trkpt lat="43.84002" lon="6.43508">
        <ele>921</ele>
        <time>2020-03-21T15:35:43.849Z</time>
      </trkpt>
      <trkpt lat="43.84006" lon="6.43494">
        <ele>920</ele>
        <time>2020-03-21T15:35:44.849Z</time>
      </trkpt>
      <trkpt lat="43.84006" lon="6.43484">
        <ele>919</ele>
        <time>2020-03-21T15:35:45.849Z</time>
      </trkpt>
      <trkpt lat="43.84004" lon="6.43473">
        <ele>917</ele>
        <time>2020-03-21T15:35:46.849Z</time>
      </trkpt>
      <trkpt lat="43.84004" lon="6.43471">
        <ele>917</ele>
        <time>2020-03-21T15:35:47.849Z</time>
      </trkpt>
      <trkpt lat="43.83999" lon="6.4346">
        <ele>914</ele>
        <time>2020-03-21T15:35:48.849Z</time>
      </trkpt>
      <trkpt lat="43.83994" lon="6.43448">
        <ele>911</ele>
        <time>2020-03-21T15:35:49.849Z</time>
      </trkpt>
      <trkpt lat="43.83989" lon="6.43437">
        <ele>908</ele>
        <time>2020-03-21T15:35:50.849Z</time>
      </trkpt>
      <trkpt lat="43.83985" lon="6.43428">
        <ele>906</ele>
        <time>2020-03-21T15:35:51.849Z</time>
      </trkpt>
      <trkpt lat="43.83981" lon="6.43418">
        <ele>904</ele>
        <time>2020-03-21T15:35:52.849Z</time>
      </trkpt>
      <trkpt lat="43.83976" lon="6.43408">
        <ele>903</ele>
        <time>2020-03-21T15:35:53.849Z</time>
      </trkpt>
      <trkpt lat="43.83976" lon="6.43407">
        <ele>903</ele>
        <time>2020-03-21T15:35:54.849Z</time>
      </trkpt>
      <trkpt lat="43.83972" lon="6.43399">
        <ele>903</ele>
        <time>2020-03-21T15:35:55.849Z</time>
      </trkpt>
      <trkpt lat="43.83967" lon="6.43404">
        <ele>901</ele>
        <time>2020-03-21T15:35:56.849Z</time>
      </trkpt>
      <trkpt lat="43.83965" lon="6.4341">
        <ele>899</ele>
        <time>2020-03-21T15:35:57.849Z</time>
      </trkpt>
      <trkpt lat="43.83965" lon="6.43421">
        <ele>898</ele>
        <time>2020-03-21T15:35:58.849Z</time>
      </trkpt>
      <trkpt lat="43.83963" lon="6.43423">
        <ele>898</ele>
        <time>2020-03-21T15:35:59.849Z</time>
      </trkpt>
      <trkpt lat="43.83958" lon="6.43437">
        <ele>898</ele>
        <time>2020-03-21T15:36:00.849Z</time>
      </trkpt>
      <trkpt lat="43.83952" lon="6.4345">
        <ele>897</ele>
        <time>2020-03-21T15:36:01.849Z</time>
      </trkpt>
      <trkpt lat="43.83946" lon="6.43464">
        <ele>897</ele>
        <time>2020-03-21T15:36:02.849Z</time>
      </trkpt>
      <trkpt lat="43.83939" lon="6.43483">
        <ele>896</ele>
        <time>2020-03-21T15:36:03.849Z</time>
      </trkpt>
      <trkpt lat="43.83932" lon="6.43491">
        <ele>895</ele>
        <time>2020-03-21T15:36:04.849Z</time>
      </trkpt>
      <trkpt lat="43.83923" lon="6.43497">
        <ele>893</ele>
        <time>2020-03-21T15:36:05.849Z</time>
      </trkpt>
      <trkpt lat="43.83919" lon="6.43499">
        <ele>892</ele>
        <time>2020-03-21T15:36:06.849Z</time>
      </trkpt>
      <trkpt lat="43.83911" lon="6.43496">
        <ele>890</ele>
        <time>2020-03-21T15:36:07.849Z</time>
      </trkpt>
      <trkpt lat="43.83912" lon="6.43488">
        <ele>889</ele>
        <time>2020-03-21T15:36:08.849Z</time>
      </trkpt>
      <trkpt lat="43.83917" lon="6.4347">
        <ele>888</ele>
        <time>2020-03-21T15:36:09.849Z</time>
      </trkpt>
      <trkpt lat="43.83916" lon="6.43463">
        <ele>887</ele>
        <time>2020-03-21T15:36:10.849Z</time>
      </trkpt>
      <trkpt lat="43.83914" lon="6.43449">
        <ele>885</ele>
        <time>2020-03-21T15:36:11.849Z</time>
      </trkpt>
      <trkpt lat="43.83913" lon="6.43432">
        <ele>883</ele>
        <time>2020-03-21T15:36:12.849Z</time>
      </trkpt>
      <trkpt lat="43.83914" lon="6.43429">
        <ele>883</ele>
        <time>2020-03-21T15:36:13.849Z</time>
      </trkpt>
      <trkpt lat="43.83913" lon="6.4342">
        <ele>881</ele>
        <time>2020-03-21T15:36:14.849Z</time>
      </trkpt>
      <trkpt lat="43.83908" lon="6.43412">
        <ele>881</ele>
        <time>2020-03-21T15:36:15.849Z</time>
      </trkpt>
      <trkpt lat="43.83905" lon="6.4341">
        <ele>880</ele>
        <time>2020-03-21T15:36:16.849Z</time>
      </trkpt>
      <trkpt lat="43.83897" lon="6.43408">
        <ele>879</ele>
        <time>2020-03-21T15:36:17.849Z</time>
      </trkpt>
      <trkpt lat="43.8389" lon="6.43408">
        <ele>877</ele>
        <time>2020-03-21T15:36:18.849Z</time>
      </trkpt>
      <trkpt lat="43.8389" lon="6.43408">
        <ele>877</ele>
        <time>2020-03-21T15:36:19.849Z</time>
      </trkpt>
      <trkpt lat="43.83885" lon="6.43404">
        <ele>876</ele>
        <time>2020-03-21T15:36:20.849Z</time>
      </trkpt>
      <trkpt lat="43.83876" lon="6.43388">
        <ele>877</ele>
        <time>2020-03-21T15:36:21.849Z</time>
      </trkpt>
      <trkpt lat="43.83854" lon="6.43351">
        <ele>878</ele>
        <time>2020-03-21T15:36:22.849Z</time>
      </trkpt>
      <trkpt lat="43.83845" lon="6.4334">
        <ele>877</ele>
        <time>2020-03-21T15:36:23.849Z</time>
      </trkpt>
      <trkpt lat="43.83821" lon="6.43296">
        <ele>880</ele>
        <time>2020-03-21T15:36:24.849Z</time>
      </trkpt>
      <trkpt lat="43.83778" lon="6.43227">
        <ele>879</ele>
        <time>2020-03-21T15:36:25.849Z</time>
      </trkpt>
      <trkpt lat="43.8376" lon="6.43202">
        <ele>876</ele>
        <time>2020-03-21T15:36:26.849Z</time>
      </trkpt>
      <trkpt lat="43.83747" lon="6.43175">
        <ele>877</ele>
        <time>2020-03-21T15:36:27.849Z</time>
      </trkpt>
      <trkpt lat="43.83729" lon="6.43139">
        <ele>878</ele>
        <time>2020-03-21T15:36:28.849Z</time>
      </trkpt>
      <trkpt lat="43.83712" lon="6.43121">
        <ele>875</ele>
        <time>2020-03-21T15:36:29.849Z</time>
      </trkpt>
      <trkpt lat="43.83709" lon="6.43116">
        <ele>874</ele>
        <time>2020-03-21T15:36:30.849Z</time>
      </trkpt>
      <trkpt lat="43.83704" lon="6.43087">
        <ele>878</ele>
        <time>2020-03-21T15:36:31.849Z</time>
      </trkpt>
      <trkpt lat="43.83707" lon="6.43056">
        <ele>880</ele>
        <time>2020-03-21T15:36:32.849Z</time>
      </trkpt>
      <trkpt lat="43.83707" lon="6.43034">
        <ele>880</ele>
        <time>2020-03-21T15:36:33.849Z</time>
      </trkpt>
      <trkpt lat="43.83708" lon="6.43013">
        <ele>880</ele>
        <time>2020-03-21T15:36:34.849Z</time>
      </trkpt>
      <trkpt lat="43.83709" lon="6.4299">
        <ele>880</ele>
        <time>2020-03-21T15:36:35.849Z</time>
      </trkpt>
      <trkpt lat="43.83709" lon="6.42958">
        <ele>879</ele>
        <time>2020-03-21T15:36:36.849Z</time>
      </trkpt>
      <trkpt lat="43.83711" lon="6.42925">
        <ele>878</ele>
        <time>2020-03-21T15:36:37.849Z</time>
      </trkpt>
      <trkpt lat="43.83713" lon="6.42886">
        <ele>875</ele>
        <time>2020-03-21T15:36:38.849Z</time>
      </trkpt>
      <trkpt lat="43.83712" lon="6.42855">
        <ele>871</ele>
        <time>2020-03-21T15:36:39.849Z</time>
      </trkpt>
      <trkpt lat="43.83712" lon="6.42849">
        <ele>870</ele>
        <time>2020-03-21T15:36:40.849Z</time>
      </trkpt>
      <trkpt lat="43.8372" lon="6.42811">
        <ele>867</ele>
        <time>2020-03-21T15:36:41.849Z</time>
      </trkpt>
      <trkpt lat="43.83724" lon="6.42806">
        <ele>867</ele>
        <time>2020-03-21T15:36:42.849Z</time>
      </trkpt>
      <trkpt lat="43.83742" lon="6.4279">
        <ele>871</ele>
        <time>2020-03-21T15:36:43.849Z</time>
      </trkpt>
      <trkpt lat="43.83755" lon="6.42764">
        <ele>870</ele>
        <time>2020-03-21T15:36:44.849Z</time>
      </trkpt>
      <trkpt lat="43.83769" lon="6.42748">
        <ele>870</ele>
        <time>2020-03-21T15:36:45.849Z</time>
      </trkpt>
      <trkpt lat="43.83773" lon="6.42746">
        <ele>871</ele>
        <time>2020-03-21T15:36:46.849Z</time>
      </trkpt>
      <trkpt lat="43.83794" lon="6.42737">
        <ele>875</ele>
        <time>2020-03-21T15:36:47.849Z</time>
      </trkpt>
      <trkpt lat="43.83816" lon="6.42726">
        <ele>880</ele>
        <time>2020-03-21T15:36:48.849Z</time>
      </trkpt>
      <trkpt lat="43.83828" lon="6.42719">
        <ele>882</ele>
        <time>2020-03-21T15:36:49.849Z</time>
      </trkpt>
      <trkpt lat="43.8384" lon="6.42708">
        <ele>885</ele>
        <time>2020-03-21T15:36:50.849Z</time>
      </trkpt>
      <trkpt lat="43.83843" lon="6.42705">
        <ele>885</ele>
        <time>2020-03-21T15:36:51.849Z</time>
      </trkpt>
      <trkpt lat="43.83846" lon="6.42687">
        <ele>883</ele>
        <time>2020-03-21T15:36:52.849Z</time>
      </trkpt>
      <trkpt lat="43.83839" lon="6.42672">
        <ele>878</ele>
        <time>2020-03-21T15:36:53.849Z</time>
      </trkpt>
      <trkpt lat="43.83834" lon="6.42646">
        <ele>870</ele>
        <time>2020-03-21T15:36:54.849Z</time>
      </trkpt>
      <trkpt lat="43.83832" lon="6.42623">
        <ele>863</ele>
        <time>2020-03-21T15:36:55.849Z</time>
      </trkpt>
      <trkpt lat="43.83831" lon="6.42606">
        <ele>859</ele>
        <time>2020-03-21T15:36:56.849Z</time>
      </trkpt>
      <trkpt lat="43.83839" lon="6.42595">
        <ele>860</ele>
        <time>2020-03-21T15:36:57.849Z</time>
      </trkpt>
      <trkpt lat="43.83858" lon="6.42591">
        <ele>867</ele>
        <time>2020-03-21T15:36:58.849Z</time>
      </trkpt>
      <trkpt lat="43.83862" lon="6.42591">
        <ele>868</ele>
        <time>2020-03-21T15:36:59.849Z</time>
      </trkpt>
      <trkpt lat="43.83883" lon="6.42587">
        <ele>876</ele>
        <time>2020-03-21T15:37:00.849Z</time>
      </trkpt>
      <trkpt lat="43.83889" lon="6.42587">
        <ele>879</ele>
        <time>2020-03-21T15:37:01.849Z</time>
      </trkpt>
      <trkpt lat="43.83895" lon="6.4258">
        <ele>879</ele>
        <time>2020-03-21T15:37:02.849Z</time>
      </trkpt>
      <trkpt lat="43.83896" lon="6.42575">
        <ele>879</ele>
        <time>2020-03-21T15:37:03.849Z</time>
      </trkpt>
      <trkpt lat="43.83898" lon="6.42567">
        <ele>877</ele>
        <time>2020-03-21T15:37:04.849Z</time>
      </trkpt>
      <trkpt lat="43.83894" lon="6.42559">
        <ele>874</ele>
        <time>2020-03-21T15:37:05.849Z</time>
      </trkpt>
      <trkpt lat="43.83897" lon="6.42545">
        <ele>872</ele>
        <time>2020-03-21T15:37:06.849Z</time>
      </trkpt>
      <trkpt lat="43.83896" lon="6.42537">
        <ele>869</ele>
        <time>2020-03-21T15:37:07.849Z</time>
      </trkpt>
      <trkpt lat="43.83894" lon="6.42523">
        <ele>865</ele>
        <time>2020-03-21T15:37:08.849Z</time>
      </trkpt>
      <trkpt lat="43.83892" lon="6.42513">
        <ele>862</ele>
        <time>2020-03-21T15:37:09.849Z</time>
      </trkpt>
      <trkpt lat="43.83891" lon="6.425">
        <ele>858</ele>
        <time>2020-03-21T15:37:10.849Z</time>
      </trkpt>
      <trkpt lat="43.83895" lon="6.42485">
        <ele>859</ele>
        <time>2020-03-21T15:37:11.849Z</time>
      </trkpt>
      <trkpt lat="43.83907" lon="6.42474">
        <ele>861</ele>
        <time>2020-03-21T15:37:12.849Z</time>
      </trkpt>
      <trkpt lat="43.83925" lon="6.42462">
        <ele>866</ele>
        <time>2020-03-21T15:37:13.849Z</time>
      </trkpt>
      <trkpt lat="43.8394" lon="6.4246">
        <ele>871</ele>
        <time>2020-03-21T15:37:14.849Z</time>
      </trkpt>
      <trkpt lat="43.83941" lon="6.4246">
        <ele>872</ele>
        <time>2020-03-21T15:37:15.849Z</time>
      </trkpt>
      <trkpt lat="43.83944" lon="6.42449">
        <ele>871</ele>
        <time>2020-03-21T15:37:16.849Z</time>
      </trkpt>
      <trkpt lat="43.83952" lon="6.4242">
        <ele>871</ele>
        <time>2020-03-21T15:37:17.849Z</time>
      </trkpt>
      <trkpt lat="43.8396" lon="6.42413">
        <ele>875</ele>
        <time>2020-03-21T15:37:18.849Z</time>
      </trkpt>
      <trkpt lat="43.83967" lon="6.42399">
        <ele>884</ele>
        <time>2020-03-21T15:37:19.849Z</time>
      </trkpt>
      <trkpt lat="43.83964" lon="6.42382">
        <ele>889</ele>
        <time>2020-03-21T15:37:20.849Z</time>
      </trkpt>
      <trkpt lat="43.83952" lon="6.42376">
        <ele>885</ele>
        <time>2020-03-21T15:37:21.849Z</time>
      </trkpt>
      <trkpt lat="43.83928" lon="6.42374">
        <ele>875</ele>
        <time>2020-03-21T15:37:22.849Z</time>
      </trkpt>
      <trkpt lat="43.83919" lon="6.42362">
        <ele>875</ele>
        <time>2020-03-21T15:37:23.849Z</time>
      </trkpt>
      <trkpt lat="43.83907" lon="6.4234">
        <ele>879</ele>
        <time>2020-03-21T15:37:24.849Z</time>
      </trkpt>
      <trkpt lat="43.83898" lon="6.42328">
        <ele>882</ele>
        <time>2020-03-21T15:37:25.849Z</time>
      </trkpt>
      <trkpt lat="43.83874" lon="6.42308">
        <ele>888</ele>
        <time>2020-03-21T15:37:26.849Z</time>
      </trkpt>
      <trkpt lat="43.8384" lon="6.42302">
        <ele>884</ele>
        <time>2020-03-21T15:37:27.849Z</time>
      </trkpt>
      <trkpt lat="43.83827" lon="6.42305">
        <ele>881</ele>
        <time>2020-03-21T15:37:28.849Z</time>
      </trkpt>
      <trkpt lat="43.83815" lon="6.42306">
        <ele>879</ele>
        <time>2020-03-21T15:37:29.849Z</time>
      </trkpt>
      <trkpt lat="43.83807" lon="6.42304">
        <ele>880</ele>
        <time>2020-03-21T15:37:30.849Z</time>
      </trkpt>
      <trkpt lat="43.83814" lon="6.42292">
        <ele>884</ele>
        <time>2020-03-21T15:37:31.849Z</time>
      </trkpt>
      <trkpt lat="43.83817" lon="6.42279">
        <ele>889</ele>
        <time>2020-03-21T15:37:32.849Z</time>
      </trkpt>
      <trkpt lat="43.83796" lon="6.42264">
        <ele>892</ele>
        <time>2020-03-21T15:37:33.849Z</time>
      </trkpt>
      <trkpt lat="43.83777" lon="6.42252">
        <ele>894</ele>
        <time>2020-03-21T15:37:34.849Z</time>
      </trkpt>
      <trkpt lat="43.83765" lon="6.42242">
        <ele>895</ele>
        <time>2020-03-21T15:37:35.849Z</time>
      </trkpt>
      <trkpt lat="43.8375" lon="6.42219">
        <ele>899</ele>
        <time>2020-03-21T15:37:36.849Z</time>
      </trkpt>
      <trkpt lat="43.83741" lon="6.42207">
        <ele>900</ele>
        <time>2020-03-21T15:37:37.849Z</time>
      </trkpt>
      <trkpt lat="43.83726" lon="6.4221">
        <ele>897</ele>
        <time>2020-03-21T15:37:38.849Z</time>
      </trkpt>
      <trkpt lat="43.83718" lon="6.42216">
        <ele>895</ele>
        <time>2020-03-21T15:37:39.849Z</time>
      </trkpt>
      <trkpt lat="43.83718" lon="6.42217">
        <ele>895</ele>
        <time>2020-03-21T15:37:40.849Z</time>
      </trkpt>
      <trkpt lat="43.83714" lon="6.42223">
        <ele>893</ele>
        <time>2020-03-21T15:37:41.849Z</time>
      </trkpt>
      <trkpt lat="43.83705" lon="6.42226">
        <ele>891</ele>
        <time>2020-03-21T15:37:42.849Z</time>
      </trkpt>
      <trkpt lat="43.83695" lon="6.42216">
        <ele>891</ele>
        <time>2020-03-21T15:37:43.849Z</time>
      </trkpt>
      <trkpt lat="43.83686" lon="6.422">
        <ele>892</ele>
        <time>2020-03-21T15:37:44.849Z</time>
      </trkpt>
      <trkpt lat="43.83675" lon="6.42179">
        <ele>893</ele>
        <time>2020-03-21T15:37:45.849Z</time>
      </trkpt>
      <trkpt lat="43.83669" lon="6.4216">
        <ele>894</ele>
        <time>2020-03-21T15:37:46.849Z</time>
      </trkpt>
      <trkpt lat="43.83665" lon="6.42135">
        <ele>897</ele>
        <time>2020-03-21T15:37:47.849Z</time>
      </trkpt>
      <trkpt lat="43.83669" lon="6.42096">
        <ele>905</ele>
        <time>2020-03-21T15:37:48.849Z</time>
      </trkpt>
      <trkpt lat="43.83671" lon="6.42078">
        <ele>909</ele>
        <time>2020-03-21T15:37:49.849Z</time>
      </trkpt>
      <trkpt lat="43.83675" lon="6.42057">
        <ele>917</ele>
        <time>2020-03-21T15:37:50.849Z</time>
      </trkpt>
      <trkpt lat="43.83673" lon="6.42044">
        <ele>919</ele>
        <time>2020-03-21T15:37:51.849Z</time>
      </trkpt>
      <trkpt lat="43.83661" lon="6.42032">
        <ele>919</ele>
        <time>2020-03-21T15:37:52.849Z</time>
      </trkpt>
      <trkpt lat="43.8363" lon="6.42017">
        <ele>918</ele>
        <time>2020-03-21T15:37:53.849Z</time>
      </trkpt>
      <trkpt lat="43.83591" lon="6.42009">
        <ele>914</ele>
        <time>2020-03-21T15:37:54.849Z</time>
      </trkpt>
      <trkpt lat="43.83583" lon="6.42007">
        <ele>914</ele>
        <time>2020-03-21T15:37:55.849Z</time>
      </trkpt>
      <trkpt lat="43.83559" lon="6.41989">
        <ele>911</ele>
        <time>2020-03-21T15:37:56.849Z</time>
      </trkpt>
      <trkpt lat="43.83548" lon="6.41948">
        <ele>919</ele>
        <time>2020-03-21T15:37:57.849Z</time>
      </trkpt>
      <trkpt lat="43.83547" lon="6.41937">
        <ele>921</ele>
        <time>2020-03-21T15:37:58.849Z</time>
      </trkpt>
      <trkpt lat="43.83536" lon="6.419">
        <ele>927</ele>
        <time>2020-03-21T15:37:59.849Z</time>
      </trkpt>
      <trkpt lat="43.83506" lon="6.41854">
        <ele>929</ele>
        <time>2020-03-21T15:38:00.849Z</time>
      </trkpt>
      <trkpt lat="43.83487" lon="6.41824">
        <ele>930</ele>
        <time>2020-03-21T15:38:01.849Z</time>
      </trkpt>
      <trkpt lat="43.83478" lon="6.41797">
        <ele>935</ele>
        <time>2020-03-21T15:38:02.849Z</time>
      </trkpt>
      <trkpt lat="43.83464" lon="6.41761">
        <ele>942</ele>
        <time>2020-03-21T15:38:03.849Z</time>
      </trkpt>
      <trkpt lat="43.83444" lon="6.41719">
        <ele>947</ele>
        <time>2020-03-21T15:38:04.849Z</time>
      </trkpt>
      <trkpt lat="43.83433" lon="6.41713">
        <ele>944</ele>
        <time>2020-03-21T15:38:05.849Z</time>
      </trkpt>
      <trkpt lat="43.83416" lon="6.41686">
        <ele>945</ele>
        <time>2020-03-21T15:38:06.849Z</time>
      </trkpt>
      <trkpt lat="43.834" lon="6.41647">
        <ele>950</ele>
        <time>2020-03-21T15:38:07.849Z</time>
      </trkpt>
      <trkpt lat="43.83387" lon="6.41622">
        <ele>952</ele>
        <time>2020-03-21T15:38:08.849Z</time>
      </trkpt>
      <trkpt lat="43.83379" lon="6.41606">
        <ele>953</ele>
        <time>2020-03-21T15:38:09.849Z</time>
      </trkpt>
      <trkpt lat="43.83371" lon="6.41592">
        <ele>953</ele>
        <time>2020-03-21T15:38:10.849Z</time>
      </trkpt>
      <trkpt lat="43.83364" lon="6.41562">
        <ele>957</ele>
        <time>2020-03-21T15:38:11.849Z</time>
      </trkpt>
      <trkpt lat="43.83363" lon="6.41533">
        <ele>963</ele>
        <time>2020-03-21T15:38:12.849Z</time>
      </trkpt>
      <trkpt lat="43.83359" lon="6.41503">
        <ele>967</ele>
        <time>2020-03-21T15:38:13.849Z</time>
      </trkpt>
      <trkpt lat="43.83358" lon="6.41447">
        <ele>974</ele>
        <time>2020-03-21T15:38:14.849Z</time>
      </trkpt>
      <trkpt lat="43.83356" lon="6.41426">
        <ele>975</ele>
        <time>2020-03-21T15:38:15.849Z</time>
      </trkpt>
      <trkpt lat="43.83348" lon="6.41374">
        <ele>979</ele>
        <time>2020-03-21T15:38:16.849Z</time>
      </trkpt>
      <trkpt lat="43.83338" lon="6.41344">
        <ele>978</ele>
        <time>2020-03-21T15:38:17.849Z</time>
      </trkpt>
      <trkpt lat="43.83327" lon="6.41306">
        <ele>977</ele>
        <time>2020-03-21T15:38:18.849Z</time>
      </trkpt>
      <trkpt lat="43.83317" lon="6.41267">
        <ele>975</ele>
        <time>2020-03-21T15:38:19.849Z</time>
      </trkpt>
      <trkpt lat="43.83317" lon="6.41251">
        <ele>977</ele>
        <time>2020-03-21T15:38:20.849Z</time>
      </trkpt>
      <trkpt lat="43.83319" lon="6.41233">
        <ele>977</ele>
        <time>2020-03-21T15:38:21.849Z</time>
      </trkpt>
      <trkpt lat="43.83325" lon="6.41216">
        <ele>979</ele>
        <time>2020-03-21T15:38:22.849Z</time>
      </trkpt>
      <trkpt lat="43.83337" lon="6.41182">
        <ele>984</ele>
        <time>2020-03-21T15:38:23.849Z</time>
      </trkpt>
      <trkpt lat="43.83339" lon="6.41137">
        <ele>991</ele>
        <time>2020-03-21T15:38:24.849Z</time>
      </trkpt>
      <trkpt lat="43.83337" lon="6.4111">
        <ele>995</ele>
        <time>2020-03-21T15:38:25.849Z</time>
      </trkpt>
      <trkpt lat="43.83327" lon="6.41083">
        <ele>995</ele>
        <time>2020-03-21T15:38:26.849Z</time>
      </trkpt>
      <trkpt lat="43.83297" lon="6.41052">
        <ele>994</ele>
        <time>2020-03-21T15:38:27.849Z</time>
      </trkpt>
      <trkpt lat="43.83264" lon="6.4102">
        <ele>996</ele>
        <time>2020-03-21T15:38:28.849Z</time>
      </trkpt>
      <trkpt lat="43.8323" lon="6.40989">
        <ele>995</ele>
        <time>2020-03-21T15:38:29.849Z</time>
      </trkpt>
      <trkpt lat="43.83202" lon="6.40959">
        <ele>990</ele>
        <time>2020-03-21T15:38:30.849Z</time>
      </trkpt>
      <trkpt lat="43.83192" lon="6.4093">
        <ele>993</ele>
        <time>2020-03-21T15:38:31.849Z</time>
      </trkpt>
      <trkpt lat="43.83189" lon="6.40909">
        <ele>997</ele>
        <time>2020-03-21T15:38:32.849Z</time>
      </trkpt>
      <trkpt lat="43.83182" lon="6.40868">
        <ele>1000</ele>
        <time>2020-03-21T15:38:33.849Z</time>
      </trkpt>
      <trkpt lat="43.83182" lon="6.40858">
        <ele>1002</ele>
        <time>2020-03-21T15:38:34.849Z</time>
      </trkpt>
      <trkpt lat="43.83184" lon="6.40806">
        <ele>1011</ele>
        <time>2020-03-21T15:38:35.849Z</time>
      </trkpt>
      <trkpt lat="43.83185" lon="6.40727">
        <ele>1027</ele>
        <time>2020-03-21T15:38:36.849Z</time>
      </trkpt>
      <trkpt lat="43.83175" lon="6.40695">
        <ele>1029</ele>
        <time>2020-03-21T15:38:37.849Z</time>
      </trkpt>
      <trkpt lat="43.83171" lon="6.40688">
        <ele>1028</ele>
        <time>2020-03-21T15:38:38.849Z</time>
      </trkpt>
      <trkpt lat="43.83151" lon="6.40633">
        <ele>1039</ele>
        <time>2020-03-21T15:38:39.849Z</time>
      </trkpt>
      <trkpt lat="43.83132" lon="6.406">
        <ele>1047</ele>
        <time>2020-03-21T15:38:40.849Z</time>
      </trkpt>
      <trkpt lat="43.8311" lon="6.40596">
        <ele>1045</ele>
        <time>2020-03-21T15:38:41.849Z</time>
      </trkpt>
      <trkpt lat="43.83106" lon="6.40597">
        <ele>1044</ele>
        <time>2020-03-21T15:38:42.849Z</time>
      </trkpt>
      <trkpt lat="43.83097" lon="6.40596">
        <ele>1043</ele>
        <time>2020-03-21T15:38:43.849Z</time>
      </trkpt>
      <trkpt lat="43.83094" lon="6.40594">
        <ele>1044</ele>
        <time>2020-03-21T15:38:44.849Z</time>
      </trkpt>
      <trkpt lat="43.83083" lon="6.40596">
        <ele>1042</ele>
        <time>2020-03-21T15:38:45.849Z</time>
      </trkpt>
      <trkpt lat="43.83047" lon="6.40605">
        <ele>1049</ele>
        <time>2020-03-21T15:38:46.849Z</time>
      </trkpt>
      <trkpt lat="43.83019" lon="6.40625">
        <ele>1050</ele>
        <time>2020-03-21T15:38:47.849Z</time>
      </trkpt>
      <trkpt lat="43.82988" lon="6.40659">
        <ele>1049</ele>
        <time>2020-03-21T15:38:48.849Z</time>
      </trkpt>
      <trkpt lat="43.82963" lon="6.40687">
        <ele>1051</ele>
        <time>2020-03-21T15:38:49.849Z</time>
      </trkpt>
      <trkpt lat="43.82936" lon="6.40711">
        <ele>1055</ele>
        <time>2020-03-21T15:38:50.849Z</time>
      </trkpt>
      <trkpt lat="43.8292" lon="6.40728">
        <ele>1057</ele>
        <time>2020-03-21T15:38:51.849Z</time>
      </trkpt>
      <trkpt lat="43.82892" lon="6.40742">
        <ele>1057</ele>
        <time>2020-03-21T15:38:52.849Z</time>
      </trkpt>
      <trkpt lat="43.82878" lon="6.40743">
        <ele>1059</ele>
        <time>2020-03-21T15:38:53.849Z</time>
      </trkpt>
      <trkpt lat="43.82864" lon="6.40745">
        <ele>1060</ele>
        <time>2020-03-21T15:38:54.849Z</time>
      </trkpt>
      <trkpt lat="43.82856" lon="6.40748">
        <ele>1060</ele>
        <time>2020-03-21T15:38:55.849Z</time>
      </trkpt>
      <trkpt lat="43.8285" lon="6.40749">
        <ele>1061</ele>
        <time>2020-03-21T15:38:56.849Z</time>
      </trkpt>
      <trkpt lat="43.82848" lon="6.40748">
        <ele>1062</ele>
        <time>2020-03-21T15:38:57.849Z</time>
      </trkpt>
      <trkpt lat="43.82838" lon="6.4074">
        <ele>1065</ele>
        <time>2020-03-21T15:38:58.849Z</time>
      </trkpt>
      <trkpt lat="43.82833" lon="6.40736">
        <ele>1067</ele>
        <time>2020-03-21T15:38:59.849Z</time>
      </trkpt>
      <trkpt lat="43.82818" lon="6.40709">
        <ele>1074</ele>
        <time>2020-03-21T15:39:00.849Z</time>
      </trkpt>
      <trkpt lat="43.82804" lon="6.40696">
        <ele>1078</ele>
        <time>2020-03-21T15:39:01.849Z</time>
      </trkpt>
      <trkpt lat="43.82781" lon="6.40701">
        <ele>1077</ele>
        <time>2020-03-21T15:39:02.849Z</time>
      </trkpt>
      <trkpt lat="43.82763" lon="6.40704">
        <ele>1076</ele>
        <time>2020-03-21T15:39:03.849Z</time>
      </trkpt>
      <trkpt lat="43.82753" lon="6.40703">
        <ele>1076</ele>
        <time>2020-03-21T15:39:04.849Z</time>
      </trkpt>
      <trkpt lat="43.82741" lon="6.40689">
        <ele>1079</ele>
        <time>2020-03-21T15:39:05.849Z</time>
      </trkpt>
      <trkpt lat="43.8273" lon="6.40664">
        <ele>1085</ele>
        <time>2020-03-21T15:39:06.849Z</time>
      </trkpt>
      <trkpt lat="43.82731" lon="6.40651">
        <ele>1088</ele>
        <time>2020-03-21T15:39:07.849Z</time>
      </trkpt>
      <trkpt lat="43.82748" lon="6.40651">
        <ele>1089</ele>
        <time>2020-03-21T15:39:08.849Z</time>
      </trkpt>
      <trkpt lat="43.82766" lon="6.40641">
        <ele>1091</ele>
        <time>2020-03-21T15:39:09.849Z</time>
      </trkpt>
      <trkpt lat="43.82769" lon="6.4063">
        <ele>1094</ele>
        <time>2020-03-21T15:39:10.849Z</time>
      </trkpt>
      <trkpt lat="43.82768" lon="6.40627">
        <ele>1095</ele>
        <time>2020-03-21T15:39:11.849Z</time>
      </trkpt>
      <trkpt lat="43.82746" lon="6.40615">
        <ele>1097</ele>
        <time>2020-03-21T15:39:12.849Z</time>
      </trkpt>
      <trkpt lat="43.82734" lon="6.40604">
        <ele>1101</ele>
        <time>2020-03-21T15:39:13.849Z</time>
      </trkpt>
      <trkpt lat="43.82726" lon="6.406">
        <ele>1102</ele>
        <time>2020-03-21T15:39:14.849Z</time>
      </trkpt>
      <trkpt lat="43.82696" lon="6.40593">
        <ele>1105</ele>
        <time>2020-03-21T15:39:15.849Z</time>
      </trkpt>
      <trkpt lat="43.82674" lon="6.40597">
        <ele>1105</ele>
        <time>2020-03-21T15:39:16.849Z</time>
      </trkpt>
      <trkpt lat="43.8266" lon="6.40597">
        <ele>1105</ele>
        <time>2020-03-21T15:39:17.849Z</time>
      </trkpt>
      <trkpt lat="43.82654" lon="6.40595">
        <ele>1106</ele>
        <time>2020-03-21T15:39:18.849Z</time>
      </trkpt>
      <trkpt lat="43.82628" lon="6.40573">
        <ele>1113</ele>
        <time>2020-03-21T15:39:19.849Z</time>
      </trkpt>
      <trkpt lat="43.82613" lon="6.40559">
        <ele>1117</ele>
        <time>2020-03-21T15:39:20.849Z</time>
      </trkpt>
      <trkpt lat="43.82606" lon="6.40556">
        <ele>1118</ele>
        <time>2020-03-21T15:39:21.849Z</time>
      </trkpt>
      <trkpt lat="43.82564" lon="6.40536">
        <ele>1122</ele>
        <time>2020-03-21T15:39:22.849Z</time>
      </trkpt>
      <trkpt lat="43.82558" lon="6.40534">
        <ele>1122</ele>
        <time>2020-03-21T15:39:23.849Z</time>
      </trkpt>
      <trkpt lat="43.82529" lon="6.40512">
        <ele>1125</ele>
        <time>2020-03-21T15:39:24.849Z</time>
      </trkpt>
      <trkpt lat="43.82526" lon="6.40506">
        <ele>1127</ele>
        <time>2020-03-21T15:39:25.849Z</time>
      </trkpt>
      <trkpt lat="43.8252" lon="6.40486">
        <ele>1133</ele>
        <time>2020-03-21T15:39:26.849Z</time>
      </trkpt>
      <trkpt lat="43.82506" lon="6.40481">
        <ele>1132</ele>
        <time>2020-03-21T15:39:27.849Z</time>
      </trkpt>
      <trkpt lat="43.82483" lon="6.40465">
        <ele>1135</ele>
        <time>2020-03-21T15:39:28.849Z</time>
      </trkpt>
      <trkpt lat="43.8247" lon="6.40453">
        <ele>1137</ele>
        <time>2020-03-21T15:39:29.849Z</time>
      </trkpt>
      <trkpt lat="43.82431" lon="6.4043">
        <ele>1139</ele>
        <time>2020-03-21T15:39:30.849Z</time>
      </trkpt>
      <trkpt lat="43.82403" lon="6.40411">
        <ele>1141</ele>
        <time>2020-03-21T15:39:31.849Z</time>
      </trkpt>
      <trkpt lat="43.82398" lon="6.40408">
        <ele>1141</ele>
        <time>2020-03-21T15:39:32.849Z</time>
      </trkpt>
      <trkpt lat="43.82372" lon="6.40391">
        <ele>1143</ele>
        <time>2020-03-21T15:39:33.849Z</time>
      </trkpt>
      <trkpt lat="43.82368" lon="6.40389">
        <ele>1143</ele>
        <time>2020-03-21T15:39:34.849Z</time>
      </trkpt>
      <trkpt lat="43.82354" lon="6.40378">
        <ele>1144</ele>
        <time>2020-03-21T15:39:35.849Z</time>
      </trkpt>
      <trkpt lat="43.82343" lon="6.40365">
        <ele>1145</ele>
        <time>2020-03-21T15:39:36.849Z</time>
      </trkpt>
      <trkpt lat="43.82337" lon="6.40352">
        <ele>1146</ele>
        <time>2020-03-21T15:39:37.849Z</time>
      </trkpt>
      <trkpt lat="43.82332" lon="6.40335">
        <ele>1148</ele>
        <time>2020-03-21T15:39:38.849Z</time>
      </trkpt>
      <trkpt lat="43.82327" lon="6.40318">
        <ele>1149</ele>
        <time>2020-03-21T15:39:39.849Z</time>
      </trkpt>
      <trkpt lat="43.82322" lon="6.40296">
        <ele>1152</ele>
        <time>2020-03-21T15:39:40.849Z</time>
      </trkpt>
      <trkpt lat="43.82317" lon="6.40278">
        <ele>1153</ele>
        <time>2020-03-21T15:39:41.849Z</time>
      </trkpt>
      <trkpt lat="43.82315" lon="6.40271">
        <ele>1154</ele>
        <time>2020-03-21T15:39:42.849Z</time>
      </trkpt>
      <trkpt lat="43.82313" lon="6.40261">
        <ele>1155</ele>
        <time>2020-03-21T15:39:43.849Z</time>
      </trkpt>
      <trkpt lat="43.82306" lon="6.40243">
        <ele>1157</ele>
        <time>2020-03-21T15:39:44.849Z</time>
      </trkpt>
      <trkpt lat="43.82309" lon="6.40234">
        <ele>1159</ele>
        <time>2020-03-21T15:39:45.849Z</time>
      </trkpt>
      <trkpt lat="43.82315" lon="6.40237">
        <ele>1160</ele>
        <time>2020-03-21T15:39:46.849Z</time>
      </trkpt>
      <trkpt lat="43.82341" lon="6.40251">
        <ele>1162</ele>
        <time>2020-03-21T15:39:47.849Z</time>
      </trkpt>
      <trkpt lat="43.82354" lon="6.40259">
        <ele>1164</ele>
        <time>2020-03-21T15:39:48.849Z</time>
      </trkpt>
      <trkpt lat="43.82362" lon="6.40262">
        <ele>1166</ele>
        <time>2020-03-21T15:39:49.849Z</time>
      </trkpt>
      <trkpt lat="43.8236" lon="6.4026">
        <ele>1165</ele>
        <time>2020-03-21T15:39:50.849Z</time>
      </trkpt>
      <trkpt lat="43.8236" lon="6.40259">
        <ele>1166</ele>
        <time>2020-03-21T15:39:51.849Z</time>
      </trkpt>
      <trkpt lat="43.82357" lon="6.4025">
        <ele>1167</ele>
        <time>2020-03-21T15:39:52.849Z</time>
      </trkpt>
      <trkpt lat="43.82356" lon="6.40246">
        <ele>1167</ele>
        <time>2020-03-21T15:39:53.849Z</time>
      </trkpt>
      <trkpt lat="43.82351" lon="6.40229">
        <ele>1169</ele>
        <time>2020-03-21T15:39:54.849Z</time>
      </trkpt>
      <trkpt lat="43.82348" lon="6.4022">
        <ele>1170</ele>
        <time>2020-03-21T15:39:55.849Z</time>
      </trkpt>
      <trkpt lat="43.82337" lon="6.40182">
        <ele>1176</ele>
        <time>2020-03-21T15:39:56.849Z</time>
      </trkpt>
      <trkpt lat="43.82333" lon="6.40166">
        <ele>1178</ele>
        <time>2020-03-21T15:39:57.849Z</time>
      </trkpt>
      <trkpt lat="43.82326" lon="6.40136">
        <ele>1180</ele>
        <time>2020-03-21T15:39:58.849Z</time>
      </trkpt>
      <trkpt lat="43.82321" lon="6.40113">
        <ele>1183</ele>
        <time>2020-03-21T15:39:59.849Z</time>
      </trkpt>
      <trkpt lat="43.8232" lon="6.40109">
        <ele>1183</ele>
        <time>2020-03-21T15:40:00.849Z</time>
      </trkpt>
      <trkpt lat="43.82318" lon="6.40099">
        <ele>1184</ele>
        <time>2020-03-21T15:40:01.849Z</time>
      </trkpt>
      <trkpt lat="43.82311" lon="6.40062">
        <ele>1189</ele>
        <time>2020-03-21T15:40:02.849Z</time>
      </trkpt>
      <trkpt lat="43.82306" lon="6.40036">
        <ele>1193</ele>
        <time>2020-03-21T15:40:03.849Z</time>
      </trkpt>
      <trkpt lat="43.82305" lon="6.40031">
        <ele>1194</ele>
        <time>2020-03-21T15:40:04.849Z</time>
      </trkpt>
      <trkpt lat="43.82301" lon="6.40011">
        <ele>1197</ele>
        <time>2020-03-21T15:40:05.849Z</time>
      </trkpt>
      <trkpt lat="43.82297" lon="6.39999">
        <ele>1199</ele>
        <time>2020-03-21T15:40:06.849Z</time>
      </trkpt>
      <trkpt lat="43.82296" lon="6.39986">
        <ele>1201</ele>
        <time>2020-03-21T15:40:07.849Z</time>
      </trkpt>
      <trkpt lat="43.82295" lon="6.39984">
        <ele>1202</ele>
        <time>2020-03-21T15:40:08.849Z</time>
      </trkpt>
      <trkpt lat="43.82293" lon="6.3998">
        <ele>1202</ele>
        <time>2020-03-21T15:40:09.849Z</time>
      </trkpt>
      <trkpt lat="43.82288" lon="6.39963">
        <ele>1205</ele>
        <time>2020-03-21T15:40:10.849Z</time>
      </trkpt>
      <trkpt lat="43.82284" lon="6.39948">
        <ele>1207</ele>
        <time>2020-03-21T15:40:11.849Z</time>
      </trkpt>
      <trkpt lat="43.8228" lon="6.39933">
        <ele>1210</ele>
        <time>2020-03-21T15:40:12.849Z</time>
      </trkpt>
      <trkpt lat="43.82279" lon="6.39927">
        <ele>1211</ele>
        <time>2020-03-21T15:40:13.849Z</time>
      </trkpt>
      <trkpt lat="43.82276" lon="6.39916">
        <ele>1212</ele>
        <time>2020-03-21T15:40:14.849Z</time>
      </trkpt>
      <trkpt lat="43.82274" lon="6.39914">
        <ele>1212</ele>
        <time>2020-03-21T15:40:15.849Z</time>
      </trkpt>
      <trkpt lat="43.82272" lon="6.39912">
        <ele>1212</ele>
        <time>2020-03-21T15:40:16.849Z</time>
      </trkpt>
      <trkpt lat="43.82262" lon="6.3991">
        <ele>1211</ele>
        <time>2020-03-21T15:40:17.849Z</time>
      </trkpt>
      <trkpt lat="43.82255" lon="6.39907">
        <ele>1210</ele>
        <time>2020-03-21T15:40:18.849Z</time>
      </trkpt>
      <trkpt lat="43.82252" lon="6.39891">
        <ele>1213</ele>
        <time>2020-03-21T15:40:19.849Z</time>
      </trkpt>
      <trkpt lat="43.82244" lon="6.39893">
        <ele>1213</ele>
        <time>2020-03-21T15:40:20.849Z</time>
      </trkpt>
      <trkpt lat="43.82237" lon="6.39908">
        <ele>1211</ele>
        <time>2020-03-21T15:40:21.849Z</time>
      </trkpt>
      <trkpt lat="43.82225" lon="6.39922">
        <ele>1209</ele>
        <time>2020-03-21T15:40:22.849Z</time>
      </trkpt>
      <trkpt lat="43.82196" lon="6.39935">
        <ele>1210</ele>
        <time>2020-03-21T15:40:23.849Z</time>
      </trkpt>
      <trkpt lat="43.82185" lon="6.39934">
        <ele>1211</ele>
        <time>2020-03-21T15:40:24.849Z</time>
      </trkpt>
      <trkpt lat="43.82156" lon="6.39916">
        <ele>1217</ele>
        <time>2020-03-21T15:40:25.849Z</time>
      </trkpt>
      <trkpt lat="43.82132" lon="6.39906">
        <ele>1220</ele>
        <time>2020-03-21T15:40:26.849Z</time>
      </trkpt>
      <trkpt lat="43.82119" lon="6.39909">
        <ele>1220</ele>
        <time>2020-03-21T15:40:27.849Z</time>
      </trkpt>
      <trkpt lat="43.82108" lon="6.39913">
        <ele>1220</ele>
        <time>2020-03-21T15:40:28.849Z</time>
      </trkpt>
      <trkpt lat="43.82102" lon="6.39914">
        <ele>1220</ele>
        <time>2020-03-21T15:40:29.849Z</time>
      </trkpt>
      <trkpt lat="43.82076" lon="6.39907">
        <ele>1222</ele>
        <time>2020-03-21T15:40:30.849Z</time>
      </trkpt>
      <trkpt lat="43.82072" lon="6.39904">
        <ele>1222</ele>
        <time>2020-03-21T15:40:31.849Z</time>
      </trkpt>
      <trkpt lat="43.82061" lon="6.39894">
        <ele>1223</ele>
        <time>2020-03-21T15:40:32.849Z</time>
      </trkpt>
      <trkpt lat="43.82056" lon="6.39891">
        <ele>1224</ele>
        <time>2020-03-21T15:40:33.849Z</time>
      </trkpt>
      <trkpt lat="43.82029" lon="6.39866">
        <ele>1227</ele>
        <time>2020-03-21T15:40:34.849Z</time>
      </trkpt>
      <trkpt lat="43.82015" lon="6.39849">
        <ele>1230</ele>
        <time>2020-03-21T15:40:35.849Z</time>
      </trkpt>
      <trkpt lat="43.82002" lon="6.39828">
        <ele>1233</ele>
        <time>2020-03-21T15:40:36.849Z</time>
      </trkpt>
      <trkpt lat="43.81985" lon="6.39809">
        <ele>1236</ele>
        <time>2020-03-21T15:40:37.849Z</time>
      </trkpt>
      <trkpt lat="43.81977" lon="6.39797">
        <ele>1238</ele>
        <time>2020-03-21T15:40:38.849Z</time>
      </trkpt>
      <trkpt lat="43.81964" lon="6.39763">
        <ele>1243</ele>
        <time>2020-03-21T15:40:39.849Z</time>
      </trkpt>
      <trkpt lat="43.81956" lon="6.39752">
        <ele>1244</ele>
        <time>2020-03-21T15:40:40.849Z</time>
      </trkpt>
      <trkpt lat="43.81937" lon="6.39732">
        <ele>1244</ele>
        <time>2020-03-21T15:40:41.849Z</time>
      </trkpt>
      <trkpt lat="43.81932" lon="6.3973">
        <ele>1244</ele>
        <time>2020-03-21T15:40:42.849Z</time>
      </trkpt>
      <trkpt lat="43.81912" lon="6.3972">
        <ele>1243</ele>
        <time>2020-03-21T15:40:43.849Z</time>
      </trkpt>
      <trkpt lat="43.819" lon="6.39693">
        <ele>1244</ele>
        <time>2020-03-21T15:40:44.849Z</time>
      </trkpt>
      <trkpt lat="43.81895" lon="6.39674">
        <ele>1244</ele>
        <time>2020-03-21T15:40:45.849Z</time>
      </trkpt>
      <trkpt lat="43.81892" lon="6.39648">
        <ele>1245</ele>
        <time>2020-03-21T15:40:46.849Z</time>
      </trkpt>
      <trkpt lat="43.8189" lon="6.39624">
        <ele>1245</ele>
        <time>2020-03-21T15:40:47.849Z</time>
      </trkpt>
      <trkpt lat="43.8189" lon="6.39599">
        <ele>1246</ele>
        <time>2020-03-21T15:40:48.849Z</time>
      </trkpt>
      <trkpt lat="43.81891" lon="6.39579">
        <ele>1247</ele>
        <time>2020-03-21T15:40:49.849Z</time>
      </trkpt>
      <trkpt lat="43.81889" lon="6.39574">
        <ele>1247</ele>
        <time>2020-03-21T15:40:50.849Z</time>
      </trkpt>
      <trkpt lat="43.81887" lon="6.39572">
        <ele>1246</ele>
        <time>2020-03-21T15:40:51.849Z</time>
      </trkpt>
      <trkpt lat="43.81885" lon="6.39569">
        <ele>1246</ele>
        <time>2020-03-21T15:40:52.849Z</time>
      </trkpt>
      <trkpt lat="43.81883" lon="6.39555">
        <ele>1246</ele>
        <time>2020-03-21T15:40:53.849Z</time>
      </trkpt>
      <trkpt lat="43.81878" lon="6.39535">
        <ele>1245</ele>
        <time>2020-03-21T15:40:54.849Z</time>
      </trkpt>
      <trkpt lat="43.81872" lon="6.39515">
        <ele>1244</ele>
        <time>2020-03-21T15:40:55.849Z</time>
      </trkpt>
      <trkpt lat="43.81867" lon="6.395">
        <ele>1243</ele>
        <time>2020-03-21T15:40:56.849Z</time>
      </trkpt>
      <trkpt lat="43.81867" lon="6.39494">
        <ele>1242</ele>
        <time>2020-03-21T15:40:57.849Z</time>
      </trkpt>
      <trkpt lat="43.81865" lon="6.39489">
        <ele>1242</ele>
        <time>2020-03-21T15:40:58.849Z</time>
      </trkpt>
      <trkpt lat="43.8186" lon="6.3948">
        <ele>1241</ele>
        <time>2020-03-21T15:40:59.849Z</time>
      </trkpt>
      <trkpt lat="43.81853" lon="6.39473">
        <ele>1239</ele>
        <time>2020-03-21T15:41:00.849Z</time>
      </trkpt>
      <trkpt lat="43.81844" lon="6.39466">
        <ele>1237</ele>
        <time>2020-03-21T15:41:01.849Z</time>
      </trkpt>
      <trkpt lat="43.81833" lon="6.39461">
        <ele>1235</ele>
        <time>2020-03-21T15:41:02.849Z</time>
      </trkpt>
      <trkpt lat="43.81825" lon="6.39463">
        <ele>1234</ele>
        <time>2020-03-21T15:41:03.849Z</time>
      </trkpt>
      <trkpt lat="43.81815" lon="6.39464">
        <ele>1232</ele>
        <time>2020-03-21T15:41:04.849Z</time>
      </trkpt>
      <trkpt lat="43.81803" lon="6.39456">
        <ele>1230</ele>
        <time>2020-03-21T15:41:05.849Z</time>
      </trkpt>
      <trkpt lat="43.81797" lon="6.39446">
        <ele>1229</ele>
        <time>2020-03-21T15:41:06.849Z</time>
      </trkpt>
      <trkpt lat="43.81796" lon="6.39422">
        <ele>1228</ele>
        <time>2020-03-21T15:41:07.849Z</time>
      </trkpt>
      <trkpt lat="43.81794" lon="6.394">
        <ele>1228</ele>
        <time>2020-03-21T15:41:08.849Z</time>
      </trkpt>
      <trkpt lat="43.81788" lon="6.39386">
        <ele>1227</ele>
        <time>2020-03-21T15:41:09.849Z</time>
      </trkpt>
      <trkpt lat="43.81785" lon="6.39382">
        <ele>1227</ele>
        <time>2020-03-21T15:41:10.849Z</time>
      </trkpt>
      <trkpt lat="43.81774" lon="6.39376">
        <ele>1225</ele>
        <time>2020-03-21T15:41:11.849Z</time>
      </trkpt>
      <trkpt lat="43.81754" lon="6.39378">
        <ele>1222</ele>
        <time>2020-03-21T15:41:12.849Z</time>
      </trkpt>
      <trkpt lat="43.81741" lon="6.39377">
        <ele>1221</ele>
        <time>2020-03-21T15:41:13.849Z</time>
      </trkpt>
      <trkpt lat="43.81724" lon="6.39377">
        <ele>1220</ele>
        <time>2020-03-21T15:41:14.849Z</time>
      </trkpt>
      <trkpt lat="43.81707" lon="6.39383">
        <ele>1218</ele>
        <time>2020-03-21T15:41:15.849Z</time>
      </trkpt>
      <trkpt lat="43.81689" lon="6.39398">
        <ele>1217</ele>
        <time>2020-03-21T15:41:16.849Z</time>
      </trkpt>
      <trkpt lat="43.81667" lon="6.3941">
        <ele>1215</ele>
        <time>2020-03-21T15:41:17.849Z</time>
      </trkpt>
      <trkpt lat="43.81646" lon="6.39425">
        <ele>1214</ele>
        <time>2020-03-21T15:41:18.849Z</time>
      </trkpt>
      <trkpt lat="43.81632" lon="6.39435">
        <ele>1213</ele>
        <time>2020-03-21T15:41:19.849Z</time>
      </trkpt>
      <trkpt lat="43.81615" lon="6.39432">
        <ele>1212</ele>
        <time>2020-03-21T15:41:20.849Z</time>
      </trkpt>
      <trkpt lat="43.81599" lon="6.39423">
        <ele>1211</ele>
        <time>2020-03-21T15:41:21.849Z</time>
      </trkpt>
      <trkpt lat="43.81574" lon="6.39413">
        <ele>1210</ele>
        <time>2020-03-21T15:41:22.849Z</time>
      </trkpt>
      <trkpt lat="43.81541" lon="6.39387">
        <ele>1209</ele>
        <time>2020-03-21T15:41:23.849Z</time>
      </trkpt>
      <trkpt lat="43.81528" lon="6.3938">
        <ele>1208</ele>
        <time>2020-03-21T15:41:24.849Z</time>
      </trkpt>
      <trkpt lat="43.81495" lon="6.39366">
        <ele>1208</ele>
        <time>2020-03-21T15:41:25.849Z</time>
      </trkpt>
      <trkpt lat="43.81491" lon="6.39366">
        <ele>1208</ele>
        <time>2020-03-21T15:41:26.849Z</time>
      </trkpt>
      <trkpt lat="43.81453" lon="6.39376">
        <ele>1206</ele>
        <time>2020-03-21T15:41:27.849Z</time>
      </trkpt>
      <trkpt lat="43.81399" lon="6.39391">
        <ele>1205</ele>
        <time>2020-03-21T15:41:28.849Z</time>
      </trkpt>
      <trkpt lat="43.81362" lon="6.39397">
        <ele>1204</ele>
        <time>2020-03-21T15:41:29.849Z</time>
      </trkpt>
      <trkpt lat="43.81319" lon="6.39385">
        <ele>1204</ele>
        <time>2020-03-21T15:41:30.849Z</time>
      </trkpt>
      <trkpt lat="43.81285" lon="6.39374">
        <ele>1203</ele>
        <time>2020-03-21T15:41:31.849Z</time>
      </trkpt>
      <trkpt lat="43.81248" lon="6.39352">
        <ele>1203</ele>
        <time>2020-03-21T15:41:32.849Z</time>
      </trkpt>
      <trkpt lat="43.8121" lon="6.39321">
        <ele>1204</ele>
        <time>2020-03-21T15:41:33.849Z</time>
      </trkpt>
      <trkpt lat="43.81179" lon="6.39303">
        <ele>1205</ele>
        <time>2020-03-21T15:41:34.849Z</time>
      </trkpt>
      <trkpt lat="43.81175" lon="6.393">
        <ele>1205</ele>
        <time>2020-03-21T15:41:35.849Z</time>
      </trkpt>
      <trkpt lat="43.81135" lon="6.39273">
        <ele>1204</ele>
        <time>2020-03-21T15:41:36.849Z</time>
      </trkpt>
      <trkpt lat="43.81106" lon="6.39255">
        <ele>1203</ele>
        <time>2020-03-21T15:41:37.849Z</time>
      </trkpt>
      <trkpt lat="43.81065" lon="6.3924">
        <ele>1202</ele>
        <time>2020-03-21T15:41:38.849Z</time>
      </trkpt>
      <trkpt lat="43.81036" lon="6.39232">
        <ele>1203</ele>
        <time>2020-03-21T15:41:39.849Z</time>
      </trkpt>
      <trkpt lat="43.8102" lon="6.39219">
        <ele>1203</ele>
        <time>2020-03-21T15:41:40.849Z</time>
      </trkpt>
      <trkpt lat="43.81006" lon="6.39214">
        <ele>1203</ele>
        <time>2020-03-21T15:41:41.849Z</time>
      </trkpt>
      <trkpt lat="43.8098" lon="6.39204">
        <ele>1205</ele>
        <time>2020-03-21T15:41:42.849Z</time>
      </trkpt>
      <trkpt lat="43.80963" lon="6.392">
        <ele>1206</ele>
        <time>2020-03-21T15:41:43.849Z</time>
      </trkpt>
      <trkpt lat="43.80944" lon="6.39186">
        <ele>1208</ele>
        <time>2020-03-21T15:41:44.849Z</time>
      </trkpt>
      <trkpt lat="43.8093" lon="6.39175">
        <ele>1208</ele>
        <time>2020-03-21T15:41:45.849Z</time>
      </trkpt>
      <trkpt lat="43.80921" lon="6.39169">
        <ele>1209</ele>
        <time>2020-03-21T15:41:46.849Z</time>
      </trkpt>
      <trkpt lat="43.80908" lon="6.39144">
        <ele>1209</ele>
        <time>2020-03-21T15:41:47.849Z</time>
      </trkpt>
      <trkpt lat="43.80898" lon="6.39113">
        <ele>1209</ele>
        <time>2020-03-21T15:41:48.849Z</time>
      </trkpt>
      <trkpt lat="43.80886" lon="6.39093">
        <ele>1209</ele>
        <time>2020-03-21T15:41:49.849Z</time>
      </trkpt>
      <trkpt lat="43.80867" lon="6.3906">
        <ele>1209</ele>
        <time>2020-03-21T15:41:50.849Z</time>
      </trkpt>
      <trkpt lat="43.80863" lon="6.39055">
        <ele>1209</ele>
        <time>2020-03-21T15:41:51.849Z</time>
      </trkpt>
      <trkpt lat="43.80847" lon="6.39049">
        <ele>1209</ele>
        <time>2020-03-21T15:41:52.849Z</time>
      </trkpt>
      <trkpt lat="43.80832" lon="6.39026">
        <ele>1209</ele>
        <time>2020-03-21T15:41:53.849Z</time>
      </trkpt>
      <trkpt lat="43.80832" lon="6.38999">
        <ele>1209</ele>
        <time>2020-03-21T15:41:54.849Z</time>
      </trkpt>
      <trkpt lat="43.80826" lon="6.38992">
        <ele>1210</ele>
        <time>2020-03-21T15:41:55.849Z</time>
      </trkpt>
      <trkpt lat="43.80807" lon="6.39005">
        <ele>1210</ele>
        <time>2020-03-21T15:41:56.849Z</time>
      </trkpt>
      <trkpt lat="43.80791" lon="6.39014">
        <ele>1211</ele>
        <time>2020-03-21T15:41:57.849Z</time>
      </trkpt>
      <trkpt lat="43.8078" lon="6.39022">
        <ele>1212</ele>
        <time>2020-03-21T15:41:58.849Z</time>
      </trkpt>
      <trkpt lat="43.80767" lon="6.39039">
        <ele>1213</ele>
        <time>2020-03-21T15:41:59.849Z</time>
      </trkpt>
      <trkpt lat="43.80764" lon="6.39046">
        <ele>1214</ele>
        <time>2020-03-21T15:42:00.849Z</time>
      </trkpt>
      <trkpt lat="43.80764" lon="6.39046">
        <ele>1214</ele>
        <time>2020-03-21T15:42:01.849Z</time>
      </trkpt>
      <trkpt lat="43.8076" lon="6.39044">
        <ele>1214</ele>
        <time>2020-03-21T15:42:02.849Z</time>
      </trkpt>
      <trkpt lat="43.8075" lon="6.39046">
        <ele>1215</ele>
        <time>2020-03-21T15:42:03.849Z</time>
      </trkpt>
      <trkpt lat="43.80737" lon="6.3905">
        <ele>1213</ele>
        <time>2020-03-21T15:42:04.849Z</time>
      </trkpt>
      <trkpt lat="43.80713" lon="6.39051">
        <ele>1211</ele>
        <time>2020-03-21T15:42:05.849Z</time>
      </trkpt>
      <trkpt lat="43.80691" lon="6.39055">
        <ele>1208</ele>
        <time>2020-03-21T15:42:06.849Z</time>
      </trkpt>
      <trkpt lat="43.80674" lon="6.39066">
        <ele>1208</ele>
        <time>2020-03-21T15:42:07.849Z</time>
      </trkpt>
      <trkpt lat="43.80641" lon="6.39093">
        <ele>1208</ele>
        <time>2020-03-21T15:42:08.849Z</time>
      </trkpt>
      <trkpt lat="43.80622" lon="6.39114">
        <ele>1208</ele>
        <time>2020-03-21T15:42:09.849Z</time>
      </trkpt>
      <trkpt lat="43.80602" lon="6.39134">
        <ele>1209</ele>
        <time>2020-03-21T15:42:10.849Z</time>
      </trkpt>
      <trkpt lat="43.80584" lon="6.39157">
        <ele>1210</ele>
        <time>2020-03-21T15:42:11.849Z</time>
      </trkpt>
      <trkpt lat="43.80571" lon="6.39177">
        <ele>1210</ele>
        <time>2020-03-21T15:42:12.849Z</time>
      </trkpt>
      <trkpt lat="43.80563" lon="6.39192">
        <ele>1210</ele>
        <time>2020-03-21T15:42:13.849Z</time>
      </trkpt>
      <trkpt lat="43.80553" lon="6.39206">
        <ele>1209</ele>
        <time>2020-03-21T15:42:14.849Z</time>
      </trkpt>
      <trkpt lat="43.80543" lon="6.39223">
        <ele>1208</ele>
        <time>2020-03-21T15:42:15.849Z</time>
      </trkpt>
      <trkpt lat="43.80532" lon="6.39244">
        <ele>1208</ele>
        <time>2020-03-21T15:42:16.849Z</time>
      </trkpt>
      <trkpt lat="43.80521" lon="6.39269">
        <ele>1207</ele>
        <time>2020-03-21T15:42:17.849Z</time>
      </trkpt>
      <trkpt lat="43.80507" lon="6.39291">
        <ele>1204</ele>
        <time>2020-03-21T15:42:18.849Z</time>
      </trkpt>
      <trkpt lat="43.80494" lon="6.39312">
        <ele>1201</ele>
        <time>2020-03-21T15:42:19.849Z</time>
      </trkpt>
      <trkpt lat="43.80484" lon="6.39333">
        <ele>1200</ele>
        <time>2020-03-21T15:42:20.849Z</time>
      </trkpt>
      <trkpt lat="43.80473" lon="6.39354">
        <ele>1197</ele>
        <time>2020-03-21T15:42:21.849Z</time>
      </trkpt>
      <trkpt lat="43.80464" lon="6.39374">
        <ele>1194</ele>
        <time>2020-03-21T15:42:22.849Z</time>
      </trkpt>
      <trkpt lat="43.8046" lon="6.39385">
        <ele>1193</ele>
        <time>2020-03-21T15:42:23.849Z</time>
      </trkpt>
      <trkpt lat="43.80453" lon="6.39404">
        <ele>1191</ele>
        <time>2020-03-21T15:42:24.849Z</time>
      </trkpt>
      <trkpt lat="43.80449" lon="6.39418">
        <ele>1190</ele>
        <time>2020-03-21T15:42:25.849Z</time>
      </trkpt>
      <trkpt lat="43.80447" lon="6.39434">
        <ele>1187</ele>
        <time>2020-03-21T15:42:26.849Z</time>
      </trkpt>
      <trkpt lat="43.80446" lon="6.39452">
        <ele>1184</ele>
        <time>2020-03-21T15:42:27.849Z</time>
      </trkpt>
      <trkpt lat="43.8044" lon="6.39467">
        <ele>1180</ele>
        <time>2020-03-21T15:42:28.849Z</time>
      </trkpt>
      <trkpt lat="43.80439" lon="6.39469">
        <ele>1179</ele>
        <time>2020-03-21T15:42:29.849Z</time>
      </trkpt>
      <trkpt lat="43.80438" lon="6.39478">
        <ele>1177</ele>
        <time>2020-03-21T15:42:30.849Z</time>
      </trkpt>
      <trkpt lat="43.80437" lon="6.39487">
        <ele>1176</ele>
        <time>2020-03-21T15:42:31.849Z</time>
      </trkpt>
      <trkpt lat="43.80436" lon="6.39498">
        <ele>1174</ele>
        <time>2020-03-21T15:42:32.849Z</time>
      </trkpt>
      <trkpt lat="43.80441" lon="6.39504">
        <ele>1174</ele>
        <time>2020-03-21T15:42:33.849Z</time>
      </trkpt>
      <trkpt lat="43.80452" lon="6.39511">
        <ele>1175</ele>
        <time>2020-03-21T15:42:34.849Z</time>
      </trkpt>
      <trkpt lat="43.80466" lon="6.39519">
        <ele>1177</ele>
        <time>2020-03-21T15:42:35.849Z</time>
      </trkpt>
      <trkpt lat="43.80474" lon="6.39527">
        <ele>1177</ele>
        <time>2020-03-21T15:42:36.849Z</time>
      </trkpt>
      <trkpt lat="43.80482" lon="6.39539">
        <ele>1175</ele>
        <time>2020-03-21T15:42:37.849Z</time>
      </trkpt>
      <trkpt lat="43.80495" lon="6.39545">
        <ele>1177</ele>
        <time>2020-03-21T15:42:38.849Z</time>
      </trkpt>
      <trkpt lat="43.80503" lon="6.39551">
        <ele>1178</ele>
        <time>2020-03-21T15:42:39.849Z</time>
      </trkpt>
      <trkpt lat="43.80507" lon="6.39562">
        <ele>1176</ele>
        <time>2020-03-21T15:42:40.849Z</time>
      </trkpt>
      <trkpt lat="43.80511" lon="6.3957">
        <ele>1175</ele>
        <time>2020-03-21T15:42:41.849Z</time>
      </trkpt>
      <trkpt lat="43.80511" lon="6.3957">
        <ele>1175</ele>
        <time>2020-03-21T15:42:42.849Z</time>
      </trkpt>
      <trkpt lat="43.80514" lon="6.39575">
        <ele>1175</ele>
        <time>2020-03-21T15:42:43.849Z</time>
      </trkpt>
      <trkpt lat="43.80519" lon="6.39581">
        <ele>1175</ele>
        <time>2020-03-21T15:42:44.849Z</time>
      </trkpt>
      <trkpt lat="43.80522" lon="6.39588">
        <ele>1174</ele>
        <time>2020-03-21T15:42:45.849Z</time>
      </trkpt>
      <trkpt lat="43.80522" lon="6.39591">
        <ele>1173</ele>
        <time>2020-03-21T15:42:46.849Z</time>
      </trkpt>
      <trkpt lat="43.80518" lon="6.39592">
        <ele>1171</ele>
        <time>2020-03-21T15:42:47.849Z</time>
      </trkpt>
      <trkpt lat="43.80515" lon="6.39589">
        <ele>1171</ele>
        <time>2020-03-21T15:42:48.849Z</time>
      </trkpt>
      <trkpt lat="43.80512" lon="6.39586">
        <ele>1171</ele>
        <time>2020-03-21T15:42:49.849Z</time>
      </trkpt>
      <trkpt lat="43.80508" lon="6.39585">
        <ele>1170</ele>
        <time>2020-03-21T15:42:50.849Z</time>
      </trkpt>
      <trkpt lat="43.80507" lon="6.39586">
        <ele>1169</ele>
        <time>2020-03-21T15:42:51.849Z</time>
      </trkpt>
      <trkpt lat="43.80504" lon="6.39595">
        <ele>1164</ele>
        <time>2020-03-21T15:42:52.849Z</time>
      </trkpt>
      <trkpt lat="43.80507" lon="6.39605">
        <ele>1162</ele>
        <time>2020-03-21T15:42:53.849Z</time>
      </trkpt>
      <trkpt lat="43.80512" lon="6.39614">
        <ele>1161</ele>
        <time>2020-03-21T15:42:54.849Z</time>
      </trkpt>
      <trkpt lat="43.80517" lon="6.39622">
        <ele>1160</ele>
        <time>2020-03-21T15:42:55.849Z</time>
      </trkpt>
      <trkpt lat="43.80522" lon="6.3963">
        <ele>1160</ele>
        <time>2020-03-21T15:42:56.849Z</time>
      </trkpt>
      <trkpt lat="43.80527" lon="6.3964">
        <ele>1159</ele>
        <time>2020-03-21T15:42:57.849Z</time>
      </trkpt>
      <trkpt lat="43.80531" lon="6.39651">
        <ele>1157</ele>
        <time>2020-03-21T15:42:58.849Z</time>
      </trkpt>
      <trkpt lat="43.80537" lon="6.39665">
        <ele>1156</ele>
        <time>2020-03-21T15:42:59.849Z</time>
      </trkpt>
      <trkpt lat="43.80541" lon="6.39679">
        <ele>1154</ele>
        <time>2020-03-21T15:43:00.849Z</time>
      </trkpt>
      <trkpt lat="43.80545" lon="6.39692">
        <ele>1153</ele>
        <time>2020-03-21T15:43:01.849Z</time>
      </trkpt>
      <trkpt lat="43.80548" lon="6.39704">
        <ele>1153</ele>
        <time>2020-03-21T15:43:02.849Z</time>
      </trkpt>
      <trkpt lat="43.80551" lon="6.39715">
        <ele>1152</ele>
        <time>2020-03-21T15:43:03.849Z</time>
      </trkpt>
      <trkpt lat="43.80551" lon="6.39716">
        <ele>1151</ele>
        <time>2020-03-21T15:43:04.849Z</time>
      </trkpt>
      <trkpt lat="43.80552" lon="6.39728">
        <ele>1150</ele>
        <time>2020-03-21T15:43:05.849Z</time>
      </trkpt>
      <trkpt lat="43.80554" lon="6.3974">
        <ele>1148</ele>
        <time>2020-03-21T15:43:06.849Z</time>
      </trkpt>
      <trkpt lat="43.80557" lon="6.39752">
        <ele>1147</ele>
        <time>2020-03-21T15:43:07.849Z</time>
      </trkpt>
      <trkpt lat="43.80558" lon="6.39765">
        <ele>1147</ele>
        <time>2020-03-21T15:43:08.849Z</time>
      </trkpt>
      <trkpt lat="43.80557" lon="6.39782">
        <ele>1145</ele>
        <time>2020-03-21T15:43:09.849Z</time>
      </trkpt>
      <trkpt lat="43.80555" lon="6.39788">
        <ele>1144</ele>
        <time>2020-03-21T15:43:10.849Z</time>
      </trkpt>
      <trkpt lat="43.80555" lon="6.39794">
        <ele>1143</ele>
        <time>2020-03-21T15:43:11.849Z</time>
      </trkpt>
      <trkpt lat="43.80555" lon="6.39796">
        <ele>1143</ele>
        <time>2020-03-21T15:43:12.849Z</time>
      </trkpt>
      <trkpt lat="43.80555" lon="6.39806">
        <ele>1142</ele>
        <time>2020-03-21T15:43:13.849Z</time>
      </trkpt>
      <trkpt lat="43.80555" lon="6.39814">
        <ele>1141</ele>
        <time>2020-03-21T15:43:14.849Z</time>
      </trkpt>
      <trkpt lat="43.80553" lon="6.39819">
        <ele>1140</ele>
        <time>2020-03-21T15:43:15.849Z</time>
      </trkpt>
      <trkpt lat="43.8055" lon="6.39829">
        <ele>1138</ele>
        <time>2020-03-21T15:43:16.849Z</time>
      </trkpt>
      <trkpt lat="43.8055" lon="6.39837">
        <ele>1137</ele>
        <time>2020-03-21T15:43:17.849Z</time>
      </trkpt>
      <trkpt lat="43.80547" lon="6.39847">
        <ele>1136</ele>
        <time>2020-03-21T15:43:18.849Z</time>
      </trkpt>
      <trkpt lat="43.80546" lon="6.39854">
        <ele>1135</ele>
        <time>2020-03-21T15:43:19.849Z</time>
      </trkpt>
      <trkpt lat="43.80545" lon="6.39857">
        <ele>1135</ele>
        <time>2020-03-21T15:43:20.849Z</time>
      </trkpt>
      <trkpt lat="43.80542" lon="6.3987">
        <ele>1133</ele>
        <time>2020-03-21T15:43:21.849Z</time>
      </trkpt>
      <trkpt lat="43.80538" lon="6.39888">
        <ele>1131</ele>
        <time>2020-03-21T15:43:22.849Z</time>
      </trkpt>
      <trkpt lat="43.80538" lon="6.3989">
        <ele>1131</ele>
        <time>2020-03-21T15:43:23.849Z</time>
      </trkpt>
      <trkpt lat="43.80536" lon="6.39901">
        <ele>1130</ele>
        <time>2020-03-21T15:43:24.849Z</time>
      </trkpt>
      <trkpt lat="43.80528" lon="6.399">
        <ele>1126</ele>
        <time>2020-03-21T15:43:25.849Z</time>
      </trkpt>
      <trkpt lat="43.80527" lon="6.39897">
        <ele>1126</ele>
        <time>2020-03-21T15:43:26.849Z</time>
      </trkpt>
      <trkpt lat="43.80527" lon="6.39888">
        <ele>1126</ele>
        <time>2020-03-21T15:43:27.849Z</time>
      </trkpt>
      <trkpt lat="43.80526" lon="6.39879">
        <ele>1125</ele>
        <time>2020-03-21T15:43:28.849Z</time>
      </trkpt>
      <trkpt lat="43.80524" lon="6.39862">
        <ele>1124</ele>
        <time>2020-03-21T15:43:29.849Z</time>
      </trkpt>
      <trkpt lat="43.80524" lon="6.39861">
        <ele>1124</ele>
        <time>2020-03-21T15:43:30.849Z</time>
      </trkpt>
      <trkpt lat="43.80522" lon="6.3985">
        <ele>1123</ele>
        <time>2020-03-21T15:43:31.849Z</time>
      </trkpt>
      <trkpt lat="43.80521" lon="6.39842">
        <ele>1122</ele>
        <time>2020-03-21T15:43:32.849Z</time>
      </trkpt>
      <trkpt lat="43.80516" lon="6.39841">
        <ele>1120</ele>
        <time>2020-03-21T15:43:33.849Z</time>
      </trkpt>
      <trkpt lat="43.80515" lon="6.39845">
        <ele>1119</ele>
        <time>2020-03-21T15:43:34.849Z</time>
      </trkpt>
      <trkpt lat="43.8051" lon="6.39857">
        <ele>1117</ele>
        <time>2020-03-21T15:43:35.849Z</time>
      </trkpt>
      <trkpt lat="43.80506" lon="6.3987">
        <ele>1115</ele>
        <time>2020-03-21T15:43:36.849Z</time>
      </trkpt>
      <trkpt lat="43.80503" lon="6.39881">
        <ele>1113</ele>
        <time>2020-03-21T15:43:37.849Z</time>
      </trkpt>
      <trkpt lat="43.80499" lon="6.3989">
        <ele>1111</ele>
        <time>2020-03-21T15:43:38.849Z</time>
      </trkpt>
      <trkpt lat="43.80494" lon="6.39901">
        <ele>1109</ele>
        <time>2020-03-21T15:43:39.849Z</time>
      </trkpt>
      <trkpt lat="43.80491" lon="6.39911">
        <ele>1108</ele>
        <time>2020-03-21T15:43:40.849Z</time>
      </trkpt>
      <trkpt lat="43.80486" lon="6.39925">
        <ele>1107</ele>
        <time>2020-03-21T15:43:41.849Z</time>
      </trkpt>
      <trkpt lat="43.80486" lon="6.39927">
        <ele>1106</ele>
        <time>2020-03-21T15:43:42.849Z</time>
      </trkpt>
      <trkpt lat="43.80483" lon="6.39935">
        <ele>1105</ele>
        <time>2020-03-21T15:43:43.849Z</time>
      </trkpt>
      <trkpt lat="43.8048" lon="6.39941">
        <ele>1105</ele>
        <time>2020-03-21T15:43:44.849Z</time>
      </trkpt>
      <trkpt lat="43.80475" lon="6.39951">
        <ele>1103</ele>
        <time>2020-03-21T15:43:45.849Z</time>
      </trkpt>
      <trkpt lat="43.80468" lon="6.3996">
        <ele>1101</ele>
        <time>2020-03-21T15:43:46.849Z</time>
      </trkpt>
      <trkpt lat="43.8046" lon="6.39976">
        <ele>1098</ele>
        <time>2020-03-21T15:43:47.849Z</time>
      </trkpt>
      <trkpt lat="43.80456" lon="6.39984">
        <ele>1097</ele>
        <time>2020-03-21T15:43:48.849Z</time>
      </trkpt>
      <trkpt lat="43.80453" lon="6.39987">
        <ele>1095</ele>
        <time>2020-03-21T15:43:49.849Z</time>
      </trkpt>
      <trkpt lat="43.8045" lon="6.39993">
        <ele>1095</ele>
        <time>2020-03-21T15:43:50.849Z</time>
      </trkpt>
      <trkpt lat="43.80445" lon="6.40008">
        <ele>1093</ele>
        <time>2020-03-21T15:43:51.849Z</time>
      </trkpt>
      <trkpt lat="43.80443" lon="6.40014">
        <ele>1093</ele>
        <time>2020-03-21T15:43:52.849Z</time>
      </trkpt>
      <trkpt lat="43.80441" lon="6.4002">
        <ele>1092</ele>
        <time>2020-03-21T15:43:53.849Z</time>
      </trkpt>
      <trkpt lat="43.80434" lon="6.40037">
        <ele>1090</ele>
        <time>2020-03-21T15:43:54.849Z</time>
      </trkpt>
      <trkpt lat="43.80432" lon="6.4004">
        <ele>1089</ele>
        <time>2020-03-21T15:43:55.849Z</time>
      </trkpt>
      <trkpt lat="43.80423" lon="6.40063">
        <ele>1086</ele>
        <time>2020-03-21T15:43:56.849Z</time>
      </trkpt>
      <trkpt lat="43.80423" lon="6.40065">
        <ele>1086</ele>
        <time>2020-03-21T15:43:57.849Z</time>
      </trkpt>
      <trkpt lat="43.80417" lon="6.40079">
        <ele>1083</ele>
        <time>2020-03-21T15:43:58.849Z</time>
      </trkpt>
      <trkpt lat="43.80411" lon="6.40089">
        <ele>1082</ele>
        <time>2020-03-21T15:43:59.849Z</time>
      </trkpt>
      <trkpt lat="43.80407" lon="6.40099">
        <ele>1081</ele>
        <time>2020-03-21T15:44:00.849Z</time>
      </trkpt>
      <trkpt lat="43.804" lon="6.40104">
        <ele>1079</ele>
        <time>2020-03-21T15:44:01.849Z</time>
      </trkpt>
      <trkpt lat="43.80398" lon="6.40103">
        <ele>1079</ele>
        <time>2020-03-21T15:44:02.849Z</time>
      </trkpt>
      <trkpt lat="43.80391" lon="6.40087">
        <ele>1075</ele>
        <time>2020-03-21T15:44:03.849Z</time>
      </trkpt>
      <trkpt lat="43.80386" lon="6.40077">
        <ele>1073</ele>
        <time>2020-03-21T15:44:04.849Z</time>
      </trkpt>
      <trkpt lat="43.80382" lon="6.40071">
        <ele>1072</ele>
        <time>2020-03-21T15:44:05.849Z</time>
      </trkpt>
      <trkpt lat="43.8038" lon="6.40068">
        <ele>1071</ele>
        <time>2020-03-21T15:44:06.849Z</time>
      </trkpt>
      <trkpt lat="43.80373" lon="6.40057">
        <ele>1068</ele>
        <time>2020-03-21T15:44:07.849Z</time>
      </trkpt>
      <trkpt lat="43.80369" lon="6.40049">
        <ele>1066</ele>
        <time>2020-03-21T15:44:08.849Z</time>
      </trkpt>
      <trkpt lat="43.80363" lon="6.40042">
        <ele>1064</ele>
        <time>2020-03-21T15:44:09.849Z</time>
      </trkpt>
      <trkpt lat="43.80356" lon="6.40028">
        <ele>1061</ele>
        <time>2020-03-21T15:44:10.849Z</time>
      </trkpt>
      <trkpt lat="43.8035" lon="6.40023">
        <ele>1058</ele>
        <time>2020-03-21T15:44:11.849Z</time>
      </trkpt>
      <trkpt lat="43.80345" lon="6.40028">
        <ele>1057</ele>
        <time>2020-03-21T15:44:12.849Z</time>
      </trkpt>
      <trkpt lat="43.80338" lon="6.40043">
        <ele>1056</ele>
        <time>2020-03-21T15:44:13.849Z</time>
      </trkpt>
      <trkpt lat="43.80331" lon="6.40057">
        <ele>1054</ele>
        <time>2020-03-21T15:44:14.849Z</time>
      </trkpt>
      <trkpt lat="43.80325" lon="6.40068">
        <ele>1054</ele>
        <time>2020-03-21T15:44:15.849Z</time>
      </trkpt>
      <trkpt lat="43.8032" lon="6.40079">
        <ele>1053</ele>
        <time>2020-03-21T15:44:16.849Z</time>
      </trkpt>
      <trkpt lat="43.80318" lon="6.40086">
        <ele>1053</ele>
        <time>2020-03-21T15:44:17.849Z</time>
      </trkpt>
      <trkpt lat="43.80316" lon="6.40105">
        <ele>1052</ele>
        <time>2020-03-21T15:44:18.849Z</time>
      </trkpt>
      <trkpt lat="43.80316" lon="6.40112">
        <ele>1052</ele>
        <time>2020-03-21T15:44:19.849Z</time>
      </trkpt>
      <trkpt lat="43.80312" lon="6.40121">
        <ele>1050</ele>
        <time>2020-03-21T15:44:20.849Z</time>
      </trkpt>
      <trkpt lat="43.80306" lon="6.4013">
        <ele>1048</ele>
        <time>2020-03-21T15:44:21.849Z</time>
      </trkpt>
      <trkpt lat="43.80298" lon="6.40137">
        <ele>1046</ele>
        <time>2020-03-21T15:44:22.849Z</time>
      </trkpt>
      <trkpt lat="43.80297" lon="6.40138">
        <ele>1046</ele>
        <time>2020-03-21T15:44:23.849Z</time>
      </trkpt>
      <trkpt lat="43.80289" lon="6.40137">
        <ele>1044</ele>
        <time>2020-03-21T15:44:24.849Z</time>
      </trkpt>
      <trkpt lat="43.80288" lon="6.40134">
        <ele>1044</ele>
        <time>2020-03-21T15:44:25.849Z</time>
      </trkpt>
      <trkpt lat="43.80283" lon="6.40124">
        <ele>1043</ele>
        <time>2020-03-21T15:44:26.849Z</time>
      </trkpt>
      <trkpt lat="43.80278" lon="6.40111">
        <ele>1042</ele>
        <time>2020-03-21T15:44:27.849Z</time>
      </trkpt>
      <trkpt lat="43.80275" lon="6.40102">
        <ele>1042</ele>
        <time>2020-03-21T15:44:28.849Z</time>
      </trkpt>
      <trkpt lat="43.80274" lon="6.40099">
        <ele>1042</ele>
        <time>2020-03-21T15:44:29.849Z</time>
      </trkpt>
      <trkpt lat="43.8027" lon="6.40089">
        <ele>1041</ele>
        <time>2020-03-21T15:44:30.849Z</time>
      </trkpt>
      <trkpt lat="43.80267" lon="6.40078">
        <ele>1039</ele>
        <time>2020-03-21T15:44:31.849Z</time>
      </trkpt>
      <trkpt lat="43.80265" lon="6.40066">
        <ele>1038</ele>
        <time>2020-03-21T15:44:32.849Z</time>
      </trkpt>
      <trkpt lat="43.80263" lon="6.40059">
        <ele>1036</ele>
        <time>2020-03-21T15:44:33.849Z</time>
      </trkpt>
      <trkpt lat="43.80261" lon="6.40054">
        <ele>1035</ele>
        <time>2020-03-21T15:44:34.849Z</time>
      </trkpt>
      <trkpt lat="43.80261" lon="6.40054">
        <ele>1035</ele>
        <time>2020-03-21T15:44:35.849Z</time>
      </trkpt>
      <trkpt lat="43.80254" lon="6.40052">
        <ele>1033</ele>
        <time>2020-03-21T15:44:36.849Z</time>
      </trkpt>
      <trkpt lat="43.80244" lon="6.40059">
        <ele>1031</ele>
        <time>2020-03-21T15:44:37.849Z</time>
      </trkpt>
      <trkpt lat="43.80233" lon="6.40067">
        <ele>1030</ele>
        <time>2020-03-21T15:44:38.849Z</time>
      </trkpt>
      <trkpt lat="43.80225" lon="6.40076">
        <ele>1029</ele>
        <time>2020-03-21T15:44:39.849Z</time>
      </trkpt>
      <trkpt lat="43.80215" lon="6.40081">
        <ele>1027</ele>
        <time>2020-03-21T15:44:40.849Z</time>
      </trkpt>
      <trkpt lat="43.80211" lon="6.40086">
        <ele>1026</ele>
        <time>2020-03-21T15:44:41.849Z</time>
      </trkpt>
      <trkpt lat="43.80201" lon="6.40092">
        <ele>1023</ele>
        <time>2020-03-21T15:44:42.849Z</time>
      </trkpt>
      <trkpt lat="43.80194" lon="6.40097">
        <ele>1021</ele>
        <time>2020-03-21T15:44:43.849Z</time>
      </trkpt>
      <trkpt lat="43.80192" lon="6.40098">
        <ele>1021</ele>
        <time>2020-03-21T15:44:44.849Z</time>
      </trkpt>
      <trkpt lat="43.8019" lon="6.40098">
        <ele>1020</ele>
        <time>2020-03-21T15:44:45.849Z</time>
      </trkpt>
      <trkpt lat="43.80188" lon="6.401">
        <ele>1020</ele>
        <time>2020-03-21T15:44:46.849Z</time>
      </trkpt>
      <trkpt lat="43.80181" lon="6.40103">
        <ele>1018</ele>
        <time>2020-03-21T15:44:47.849Z</time>
      </trkpt>
      <trkpt lat="43.80178" lon="6.40103">
        <ele>1017</ele>
        <time>2020-03-21T15:44:48.849Z</time>
      </trkpt>
      <trkpt lat="43.80174" lon="6.40105">
        <ele>1016</ele>
        <time>2020-03-21T15:44:49.849Z</time>
      </trkpt>
      <trkpt lat="43.80172" lon="6.40105">
        <ele>1015</ele>
        <time>2020-03-21T15:44:50.849Z</time>
      </trkpt>
      <trkpt lat="43.80162" lon="6.40109">
        <ele>1013</ele>
        <time>2020-03-21T15:44:51.849Z</time>
      </trkpt>
      <trkpt lat="43.80154" lon="6.40114">
        <ele>1011</ele>
        <time>2020-03-21T15:44:52.849Z</time>
      </trkpt>
      <trkpt lat="43.80147" lon="6.40115">
        <ele>1009</ele>
        <time>2020-03-21T15:44:53.849Z</time>
      </trkpt>
      <trkpt lat="43.80142" lon="6.40117">
        <ele>1008</ele>
        <time>2020-03-21T15:44:54.849Z</time>
      </trkpt>
      <trkpt lat="43.80138" lon="6.40117">
        <ele>1008</ele>
        <time>2020-03-21T15:44:55.849Z</time>
      </trkpt>
      <trkpt lat="43.80132" lon="6.40117">
        <ele>1006</ele>
        <time>2020-03-21T15:44:56.849Z</time>
      </trkpt>
      <trkpt lat="43.8013" lon="6.40115">
        <ele>1006</ele>
        <time>2020-03-21T15:44:57.849Z</time>
      </trkpt>
      <trkpt lat="43.80128" lon="6.4011">
        <ele>1005</ele>
        <time>2020-03-21T15:44:58.849Z</time>
      </trkpt>
      <trkpt lat="43.80125" lon="6.4011">
        <ele>1005</ele>
        <time>2020-03-21T15:44:59.849Z</time>
      </trkpt>
      <trkpt lat="43.8012" lon="6.40113">
        <ele>1004</ele>
        <time>2020-03-21T15:45:00.849Z</time>
      </trkpt>
      <trkpt lat="43.80116" lon="6.40117">
        <ele>1003</ele>
        <time>2020-03-21T15:45:01.849Z</time>
      </trkpt>
      <trkpt lat="43.80109" lon="6.40121">
        <ele>1002</ele>
        <time>2020-03-21T15:45:02.849Z</time>
      </trkpt>
      <trkpt lat="43.80104" lon="6.40125">
        <ele>1001</ele>
        <time>2020-03-21T15:45:03.849Z</time>
      </trkpt>
      <trkpt lat="43.80099" lon="6.40128">
        <ele>1001</ele>
        <time>2020-03-21T15:45:04.849Z</time>
      </trkpt>
      <trkpt lat="43.80097" lon="6.40127">
        <ele>1000</ele>
        <time>2020-03-21T15:45:05.849Z</time>
      </trkpt>
      <trkpt lat="43.80089" lon="6.40128">
        <ele>999</ele>
        <time>2020-03-21T15:45:06.849Z</time>
      </trkpt>
      <trkpt lat="43.80088" lon="6.40128">
        <ele>999</ele>
        <time>2020-03-21T15:45:07.849Z</time>
      </trkpt>
      <trkpt lat="43.8008" lon="6.40125">
        <ele>996</ele>
        <time>2020-03-21T15:45:08.849Z</time>
      </trkpt>
      <trkpt lat="43.80071" lon="6.40122">
        <ele>991</ele>
        <time>2020-03-21T15:45:09.849Z</time>
      </trkpt>
      <trkpt lat="43.80066" lon="6.4012">
        <ele>988</ele>
        <time>2020-03-21T15:45:10.849Z</time>
      </trkpt>
      <trkpt lat="43.80058" lon="6.40121">
        <ele>984</ele>
        <time>2020-03-21T15:45:11.849Z</time>
      </trkpt>
      <trkpt lat="43.80051" lon="6.40119">
        <ele>980</ele>
        <time>2020-03-21T15:45:12.849Z</time>
      </trkpt>
      <trkpt lat="43.80041" lon="6.40117">
        <ele>975</ele>
        <time>2020-03-21T15:45:13.849Z</time>
      </trkpt>
      <trkpt lat="43.80029" lon="6.40116">
        <ele>970</ele>
        <time>2020-03-21T15:45:14.849Z</time>
      </trkpt>
      <trkpt lat="43.80016" lon="6.40115">
        <ele>963</ele>
        <time>2020-03-21T15:45:15.849Z</time>
      </trkpt>
      <trkpt lat="43.80007" lon="6.40116">
        <ele>958</ele>
        <time>2020-03-21T15:45:16.849Z</time>
      </trkpt>
      <trkpt lat="43.79995" lon="6.40125">
        <ele>953</ele>
        <time>2020-03-21T15:45:17.849Z</time>
      </trkpt>
      <trkpt lat="43.79987" lon="6.40139">
        <ele>949</ele>
        <time>2020-03-21T15:45:18.849Z</time>
      </trkpt>
      <trkpt lat="43.79982" lon="6.40152">
        <ele>946</ele>
        <time>2020-03-21T15:45:19.849Z</time>
      </trkpt>
      <trkpt lat="43.79976" lon="6.4016">
        <ele>945</ele>
        <time>2020-03-21T15:45:20.849Z</time>
      </trkpt>
      <trkpt lat="43.79965" lon="6.40169">
        <ele>942</ele>
        <time>2020-03-21T15:45:21.849Z</time>
      </trkpt>
      <trkpt lat="43.79957" lon="6.40171">
        <ele>941</ele>
        <time>2020-03-21T15:45:22.849Z</time>
      </trkpt>
      <trkpt lat="43.79949" lon="6.4017">
        <ele>940</ele>
        <time>2020-03-21T15:45:23.849Z</time>
      </trkpt>
      <trkpt lat="43.79943" lon="6.4017">
        <ele>939</ele>
        <time>2020-03-21T15:45:24.849Z</time>
      </trkpt>
      <trkpt lat="43.79941" lon="6.40169">
        <ele>939</ele>
        <time>2020-03-21T15:45:25.849Z</time>
      </trkpt>
      <trkpt lat="43.79939" lon="6.40169">
        <ele>939</ele>
        <time>2020-03-21T15:45:26.849Z</time>
      </trkpt>
      <trkpt lat="43.79934" lon="6.40176">
        <ele>937</ele>
        <time>2020-03-21T15:45:27.849Z</time>
      </trkpt>
      <trkpt lat="43.79932" lon="6.40177">
        <ele>937</ele>
        <time>2020-03-21T15:45:28.849Z</time>
      </trkpt>
      <trkpt lat="43.79928" lon="6.40171">
        <ele>938</ele>
        <time>2020-03-21T15:45:29.849Z</time>
      </trkpt>
      <trkpt lat="43.7993" lon="6.40166">
        <ele>938</ele>
        <time>2020-03-21T15:45:30.849Z</time>
      </trkpt>
      <trkpt lat="43.79925" lon="6.40164">
        <ele>938</ele>
        <time>2020-03-21T15:45:31.849Z</time>
      </trkpt>
      <trkpt lat="43.79921" lon="6.40163">
        <ele>938</ele>
        <time>2020-03-21T15:45:32.849Z</time>
      </trkpt>
      <trkpt lat="43.7992" lon="6.40163">
        <ele>938</ele>
        <time>2020-03-21T15:45:33.849Z</time>
      </trkpt>
      <trkpt lat="43.79922" lon="6.40153">
        <ele>939</ele>
        <time>2020-03-21T15:45:34.849Z</time>
      </trkpt>
      <trkpt lat="43.79921" lon="6.40163">
        <ele>938</ele>
        <time>2020-03-21T15:37:31.391Z</time>
      </trkpt>
      <trkpt lat="43.79921" lon="6.40163">
        <ele>938</ele>
        <time>2020-03-21T15:37:31.391Z</time>
      </trkpt>
      <trkpt lat="43.7992" lon="6.40163">
        <ele>938</ele>
        <time>2020-03-21T15:37:32.391Z</time>
      </trkpt>
      <trkpt lat="43.79922" lon="6.40153">
        <ele>939</ele>
        <time>2020-03-21T15:37:33.391Z</time>
      </trkpt>
      <trkpt lat="43.79922" lon="6.40153">
        <ele>939</ele>
        <time>2020-03-21T15:37:34.391Z</time>
      </trkpt>
      <trkpt lat="43.79922" lon="6.40137">
        <ele>940</ele>
        <time>2020-03-21T15:37:35.391Z</time>
      </trkpt>
      <trkpt lat="43.79923" lon="6.40119">
        <ele>942</ele>
        <time>2020-03-21T15:37:36.391Z</time>
      </trkpt>
      <trkpt lat="43.79923" lon="6.40116">
        <ele>942</ele>
        <time>2020-03-21T15:37:37.391Z</time>
      </trkpt>
      <trkpt lat="43.79924" lon="6.40103">
        <ele>944</ele>
        <time>2020-03-21T15:37:38.391Z</time>
      </trkpt>
      <trkpt lat="43.79924" lon="6.40091">
        <ele>945</ele>
        <time>2020-03-21T15:37:39.391Z</time>
      </trkpt>
      <trkpt lat="43.79924" lon="6.40089">
        <ele>945</ele>
        <time>2020-03-21T15:37:40.391Z</time>
      </trkpt>
      <trkpt lat="43.79925" lon="6.40086">
        <ele>945</ele>
        <time>2020-03-21T15:37:41.391Z</time>
      </trkpt>
      <trkpt lat="43.7993" lon="6.40074">
        <ele>946</ele>
        <time>2020-03-21T15:37:42.391Z</time>
      </trkpt>
      <trkpt lat="43.79943" lon="6.40057">
        <ele>949</ele>
        <time>2020-03-21T15:37:43.391Z</time>
      </trkpt>
      <trkpt lat="43.7996" lon="6.40045">
        <ele>952</ele>
        <time>2020-03-21T15:37:44.391Z</time>
      </trkpt>
      <trkpt lat="43.79974" lon="6.40032">
        <ele>956</ele>
        <time>2020-03-21T15:37:45.391Z</time>
      </trkpt>
      <trkpt lat="43.79977" lon="6.40023">
        <ele>956</ele>
        <time>2020-03-21T15:37:46.391Z</time>
      </trkpt>
      <trkpt lat="43.79978" lon="6.40012">
        <ele>957</ele>
        <time>2020-03-21T15:37:47.391Z</time>
      </trkpt>
      <trkpt lat="43.79982" lon="6.39999">
        <ele>958</ele>
        <time>2020-03-21T15:37:48.391Z</time>
      </trkpt>
      <trkpt lat="43.79994" lon="6.39957">
        <ele>956</ele>
        <time>2020-03-21T15:37:49.391Z</time>
      </trkpt>
      <trkpt lat="43.80004" lon="6.39923">
        <ele>955</ele>
        <time>2020-03-21T15:37:50.391Z</time>
      </trkpt>
      <trkpt lat="43.80011" lon="6.39896">
        <ele>954</ele>
        <time>2020-03-21T15:37:51.391Z</time>
      </trkpt>
      <trkpt lat="43.80004" lon="6.39867">
        <ele>950</ele>
        <time>2020-03-21T15:37:52.391Z</time>
      </trkpt>
      <trkpt lat="43.79992" lon="6.39843">
        <ele>946</ele>
        <time>2020-03-21T15:37:53.391Z</time>
      </trkpt>
      <trkpt lat="43.79976" lon="6.39831">
        <ele>941</ele>
        <time>2020-03-21T15:37:54.391Z</time>
      </trkpt>
      <trkpt lat="43.79955" lon="6.39815">
        <ele>935</ele>
        <time>2020-03-21T15:37:55.391Z</time>
      </trkpt>
      <trkpt lat="43.79943" lon="6.39799">
        <ele>931</ele>
        <time>2020-03-21T15:37:56.391Z</time>
      </trkpt>
      <trkpt lat="43.79936" lon="6.39773">
        <ele>928</ele>
        <time>2020-03-21T15:37:57.391Z</time>
      </trkpt>
      <trkpt lat="43.79933" lon="6.3977">
        <ele>927</ele>
        <time>2020-03-21T15:37:58.391Z</time>
      </trkpt>
      <trkpt lat="43.79916" lon="6.39762">
        <ele>923</ele>
        <time>2020-03-21T15:37:59.391Z</time>
      </trkpt>
      <trkpt lat="43.79896" lon="6.39748">
        <ele>917</ele>
        <time>2020-03-21T15:38:00.391Z</time>
      </trkpt>
      <trkpt lat="43.7988" lon="6.39739">
        <ele>914</ele>
        <time>2020-03-21T15:38:01.391Z</time>
      </trkpt>
      <trkpt lat="43.79868" lon="6.39736">
        <ele>911</ele>
        <time>2020-03-21T15:38:02.391Z</time>
      </trkpt>
      <trkpt lat="43.79855" lon="6.39744">
        <ele>907</ele>
        <time>2020-03-21T15:38:03.391Z</time>
      </trkpt>
      <trkpt lat="43.79848" lon="6.3975">
        <ele>905</ele>
        <time>2020-03-21T15:38:04.391Z</time>
      </trkpt>
      <trkpt lat="43.79845" lon="6.39748">
        <ele>904</ele>
        <time>2020-03-21T15:38:05.391Z</time>
      </trkpt>
      <trkpt lat="43.79838" lon="6.39738">
        <ele>903</ele>
        <time>2020-03-21T15:38:06.391Z</time>
      </trkpt>
      <trkpt lat="43.79836" lon="6.39729">
        <ele>903</ele>
        <time>2020-03-21T15:38:07.391Z</time>
      </trkpt>
      <trkpt lat="43.79835" lon="6.39728">
        <ele>902</ele>
        <time>2020-03-21T15:38:08.391Z</time>
      </trkpt>
      <trkpt lat="43.79828" lon="6.39717">
        <ele>901</ele>
        <time>2020-03-21T15:38:09.391Z</time>
      </trkpt>
      <trkpt lat="43.79825" lon="6.39703">
        <ele>901</ele>
        <time>2020-03-21T15:38:10.391Z</time>
      </trkpt>
      <trkpt lat="43.79819" lon="6.39686">
        <ele>900</ele>
        <time>2020-03-21T15:38:11.391Z</time>
      </trkpt>
      <trkpt lat="43.79818" lon="6.39683">
        <ele>900</ele>
        <time>2020-03-21T15:38:12.391Z</time>
      </trkpt>
      <trkpt lat="43.79814" lon="6.39674">
        <ele>899</ele>
        <time>2020-03-21T15:38:13.391Z</time>
      </trkpt>
      <trkpt lat="43.7981" lon="6.39662">
        <ele>899</ele>
        <time>2020-03-21T15:38:14.391Z</time>
      </trkpt>
      <trkpt lat="43.79806" lon="6.39649">
        <ele>898</ele>
        <time>2020-03-21T15:38:15.391Z</time>
      </trkpt>
      <trkpt lat="43.79805" lon="6.39645">
        <ele>898</ele>
        <time>2020-03-21T15:38:16.391Z</time>
      </trkpt>
      <trkpt lat="43.79803" lon="6.39637">
        <ele>898</ele>
        <time>2020-03-21T15:38:17.391Z</time>
      </trkpt>
      <trkpt lat="43.79799" lon="6.39628">
        <ele>898</ele>
        <time>2020-03-21T15:38:18.391Z</time>
      </trkpt>
      <trkpt lat="43.79796" lon="6.39619">
        <ele>897</ele>
        <time>2020-03-21T15:38:19.391Z</time>
      </trkpt>
      <trkpt lat="43.79795" lon="6.39618">
        <ele>897</ele>
        <time>2020-03-21T15:38:20.391Z</time>
      </trkpt>
      <trkpt lat="43.79786" lon="6.39611">
        <ele>895</ele>
        <time>2020-03-21T15:38:21.391Z</time>
      </trkpt>
      <trkpt lat="43.79778" lon="6.39606">
        <ele>893</ele>
        <time>2020-03-21T15:38:22.391Z</time>
      </trkpt>
      <trkpt lat="43.79773" lon="6.39597">
        <ele>892</ele>
        <time>2020-03-21T15:38:23.391Z</time>
      </trkpt>
      <trkpt lat="43.79767" lon="6.39586">
        <ele>891</ele>
        <time>2020-03-21T15:38:24.391Z</time>
      </trkpt>
      <trkpt lat="43.7976" lon="6.39578">
        <ele>890</ele>
        <time>2020-03-21T15:38:25.391Z</time>
      </trkpt>
      <trkpt lat="43.79756" lon="6.39568">
        <ele>889</ele>
        <time>2020-03-21T15:38:26.391Z</time>
      </trkpt>
      <trkpt lat="43.79756" lon="6.39566">
        <ele>889</ele>
        <time>2020-03-21T15:38:27.391Z</time>
      </trkpt>
      <trkpt lat="43.79752" lon="6.39557">
        <ele>888</ele>
        <time>2020-03-21T15:38:28.391Z</time>
      </trkpt>
      <trkpt lat="43.79749" lon="6.39553">
        <ele>887</ele>
        <time>2020-03-21T15:38:29.391Z</time>
      </trkpt>
      <trkpt lat="43.7974" lon="6.39545">
        <ele>885</ele>
        <time>2020-03-21T15:38:30.391Z</time>
      </trkpt>
      <trkpt lat="43.79734" lon="6.39539">
        <ele>883</ele>
        <time>2020-03-21T15:38:31.391Z</time>
      </trkpt>
      <trkpt lat="43.79726" lon="6.39532">
        <ele>881</ele>
        <time>2020-03-21T15:38:32.391Z</time>
      </trkpt>
      <trkpt lat="43.79719" lon="6.39526">
        <ele>880</ele>
        <time>2020-03-21T15:38:33.391Z</time>
      </trkpt>
      <trkpt lat="43.79711" lon="6.39517">
        <ele>878</ele>
        <time>2020-03-21T15:38:34.391Z</time>
      </trkpt>
      <trkpt lat="43.79702" lon="6.39504">
        <ele>876</ele>
        <time>2020-03-21T15:38:35.391Z</time>
      </trkpt>
      <trkpt lat="43.79688" lon="6.39487">
        <ele>872</ele>
        <time>2020-03-21T15:38:36.391Z</time>
      </trkpt>
      <trkpt lat="43.79676" lon="6.39473">
        <ele>869</ele>
        <time>2020-03-21T15:38:37.391Z</time>
      </trkpt>
      <trkpt lat="43.79664" lon="6.39461">
        <ele>867</ele>
        <time>2020-03-21T15:38:38.391Z</time>
      </trkpt>
      <trkpt lat="43.79657" lon="6.39452">
        <ele>865</ele>
        <time>2020-03-21T15:38:39.391Z</time>
      </trkpt>
      <trkpt lat="43.79651" lon="6.39441">
        <ele>864</ele>
        <time>2020-03-21T15:38:40.391Z</time>
      </trkpt>
      <trkpt lat="43.7965" lon="6.39429">
        <ele>865</ele>
        <time>2020-03-21T15:38:41.391Z</time>
      </trkpt>
      <trkpt lat="43.7965" lon="6.39417">
        <ele>865</ele>
        <time>2020-03-21T15:38:42.391Z</time>
      </trkpt>
      <trkpt lat="43.7965" lon="6.39407">
        <ele>866</ele>
        <time>2020-03-21T15:38:43.391Z</time>
      </trkpt>
      <trkpt lat="43.7965" lon="6.39394">
        <ele>866</ele>
        <time>2020-03-21T15:38:44.391Z</time>
      </trkpt>
      <trkpt lat="43.79648" lon="6.39382">
        <ele>866</ele>
        <time>2020-03-21T15:38:45.391Z</time>
      </trkpt>
      <trkpt lat="43.79649" lon="6.39381">
        <ele>866</ele>
        <time>2020-03-21T15:38:46.391Z</time>
      </trkpt>
      <trkpt lat="43.79647" lon="6.39354">
        <ele>867</ele>
        <time>2020-03-21T15:38:47.391Z</time>
      </trkpt>
      <trkpt lat="43.79644" lon="6.3933">
        <ele>867</ele>
        <time>2020-03-21T15:38:48.391Z</time>
      </trkpt>
      <trkpt lat="43.79641" lon="6.3931">
        <ele>866</ele>
        <time>2020-03-21T15:38:49.391Z</time>
      </trkpt>
      <trkpt lat="43.79634" lon="6.39285">
        <ele>865</ele>
        <time>2020-03-21T15:38:50.391Z</time>
      </trkpt>
      <trkpt lat="43.79629" lon="6.39262">
        <ele>864</ele>
        <time>2020-03-21T15:38:51.391Z</time>
      </trkpt>
      <trkpt lat="43.79627" lon="6.39237">
        <ele>862</ele>
        <time>2020-03-21T15:38:52.391Z</time>
      </trkpt>
      <trkpt lat="43.79631" lon="6.39225">
        <ele>861</ele>
        <time>2020-03-21T15:38:53.391Z</time>
      </trkpt>
      <trkpt lat="43.79634" lon="6.39208">
        <ele>859</ele>
        <time>2020-03-21T15:38:54.391Z</time>
      </trkpt>
      <trkpt lat="43.79647" lon="6.39202">
        <ele>859</ele>
        <time>2020-03-21T15:38:55.391Z</time>
      </trkpt>
      <trkpt lat="43.79663" lon="6.39186">
        <ele>858</ele>
        <time>2020-03-21T15:38:56.391Z</time>
      </trkpt>
      <trkpt lat="43.7967" lon="6.39173">
        <ele>857</ele>
        <time>2020-03-21T15:38:57.391Z</time>
      </trkpt>
      <trkpt lat="43.79672" lon="6.39159">
        <ele>855</ele>
        <time>2020-03-21T15:38:58.391Z</time>
      </trkpt>
      <trkpt lat="43.79671" lon="6.39139">
        <ele>852</ele>
        <time>2020-03-21T15:38:59.391Z</time>
      </trkpt>
      <trkpt lat="43.79673" lon="6.39113">
        <ele>848</ele>
        <time>2020-03-21T15:39:00.391Z</time>
      </trkpt>
      <trkpt lat="43.79679" lon="6.39089">
        <ele>846</ele>
        <time>2020-03-21T15:39:01.391Z</time>
      </trkpt>
      <trkpt lat="43.79682" lon="6.39065">
        <ele>842</ele>
        <time>2020-03-21T15:39:02.391Z</time>
      </trkpt>
      <trkpt lat="43.79689" lon="6.39034">
        <ele>838</ele>
        <time>2020-03-21T15:39:03.391Z</time>
      </trkpt>
      <trkpt lat="43.79696" lon="6.39014">
        <ele>836</ele>
        <time>2020-03-21T15:39:04.391Z</time>
      </trkpt>
      <trkpt lat="43.79701" lon="6.38988">
        <ele>833</ele>
        <time>2020-03-21T15:39:05.391Z</time>
      </trkpt>
      <trkpt lat="43.79709" lon="6.38956">
        <ele>830</ele>
        <time>2020-03-21T15:39:06.391Z</time>
      </trkpt>
      <trkpt lat="43.79719" lon="6.38936">
        <ele>829</ele>
        <time>2020-03-21T15:39:07.391Z</time>
      </trkpt>
      <trkpt lat="43.79729" lon="6.38912">
        <ele>828</ele>
        <time>2020-03-21T15:39:08.391Z</time>
      </trkpt>
      <trkpt lat="43.79737" lon="6.3889">
        <ele>826</ele>
        <time>2020-03-21T15:39:09.391Z</time>
      </trkpt>
      <trkpt lat="43.79749" lon="6.38871">
        <ele>826</ele>
        <time>2020-03-21T15:39:10.391Z</time>
      </trkpt>
      <trkpt lat="43.79753" lon="6.38851">
        <ele>824</ele>
        <time>2020-03-21T15:39:11.391Z</time>
      </trkpt>
      <trkpt lat="43.79755" lon="6.38828">
        <ele>821</ele>
        <time>2020-03-21T15:39:12.391Z</time>
      </trkpt>
      <trkpt lat="43.79738" lon="6.38832">
        <ele>817</ele>
        <time>2020-03-21T15:39:13.391Z</time>
      </trkpt>
      <trkpt lat="43.79717" lon="6.3885">
        <ele>814</ele>
        <time>2020-03-21T15:39:14.391Z</time>
      </trkpt>
      <trkpt lat="43.79723" lon="6.38828">
        <ele>812</ele>
        <time>2020-03-21T15:39:15.391Z</time>
      </trkpt>
      <trkpt lat="43.79728" lon="6.38784">
        <ele>806</ele>
        <time>2020-03-21T15:39:16.391Z</time>
      </trkpt>
      <trkpt lat="43.79728" lon="6.38783">
        <ele>806</ele>
        <time>2020-03-21T15:39:17.391Z</time>
      </trkpt>
      <trkpt lat="43.7973" lon="6.38769">
        <ele>804</ele>
        <time>2020-03-21T15:39:18.391Z</time>
      </trkpt>
      <trkpt lat="43.79729" lon="6.38753">
        <ele>801</ele>
        <time>2020-03-21T15:39:19.391Z</time>
      </trkpt>
      <trkpt lat="43.79725" lon="6.38736">
        <ele>798</ele>
        <time>2020-03-21T15:39:20.391Z</time>
      </trkpt>
      <trkpt lat="43.79725" lon="6.38734">
        <ele>798</ele>
        <time>2020-03-21T15:39:21.391Z</time>
      </trkpt>
      <trkpt lat="43.79727" lon="6.38719">
        <ele>796</ele>
        <time>2020-03-21T15:39:22.391Z</time>
      </trkpt>
      <trkpt lat="43.79726" lon="6.38699">
        <ele>793</ele>
        <time>2020-03-21T15:39:23.391Z</time>
      </trkpt>
      <trkpt lat="43.79724" lon="6.38686">
        <ele>791</ele>
        <time>2020-03-21T15:39:24.391Z</time>
      </trkpt>
      <trkpt lat="43.79724" lon="6.38683">
        <ele>790</ele>
        <time>2020-03-21T15:39:25.391Z</time>
      </trkpt>
      <trkpt lat="43.79722" lon="6.38668">
        <ele>788</ele>
        <time>2020-03-21T15:39:26.391Z</time>
      </trkpt>
      <trkpt lat="43.79722" lon="6.38667">
        <ele>787</ele>
        <time>2020-03-21T15:39:27.391Z</time>
      </trkpt>
      <trkpt lat="43.79723" lon="6.38658">
        <ele>786</ele>
        <time>2020-03-21T15:39:28.391Z</time>
      </trkpt>
      <trkpt lat="43.79726" lon="6.38649">
        <ele>786</ele>
        <time>2020-03-21T15:39:29.391Z</time>
      </trkpt>
      <trkpt lat="43.79728" lon="6.38646">
        <ele>786</ele>
        <time>2020-03-21T15:39:30.391Z</time>
      </trkpt>
      <trkpt lat="43.79729" lon="6.38645">
        <ele>786</ele>
        <time>2020-03-21T15:39:31.391Z</time>
      </trkpt>
      <trkpt lat="43.79733" lon="6.38636">
        <ele>786</ele>
        <time>2020-03-21T15:39:32.391Z</time>
      </trkpt>
      <trkpt lat="43.79736" lon="6.38623">
        <ele>785</ele>
        <time>2020-03-21T15:39:33.391Z</time>
      </trkpt>
      <trkpt lat="43.79739" lon="6.38609">
        <ele>784</ele>
        <time>2020-03-21T15:39:34.391Z</time>
      </trkpt>
      <trkpt lat="43.79739" lon="6.38598">
        <ele>782</ele>
        <time>2020-03-21T15:39:35.391Z</time>
      </trkpt>
      <trkpt lat="43.7974" lon="6.38587">
        <ele>781</ele>
        <time>2020-03-21T15:39:36.391Z</time>
      </trkpt>
      <trkpt lat="43.79742" lon="6.38579">
        <ele>781</ele>
        <time>2020-03-21T15:39:37.391Z</time>
      </trkpt>
      <trkpt lat="43.79745" lon="6.38565">
        <ele>780</ele>
        <time>2020-03-21T15:39:38.391Z</time>
      </trkpt>
      <trkpt lat="43.79746" lon="6.38549">
        <ele>778</ele>
        <time>2020-03-21T15:39:39.391Z</time>
      </trkpt>
      <trkpt lat="43.79749" lon="6.38535">
        <ele>777</ele>
        <time>2020-03-21T15:39:40.391Z</time>
      </trkpt>
      <trkpt lat="43.79755" lon="6.38519">
        <ele>777</ele>
        <time>2020-03-21T15:39:41.391Z</time>
      </trkpt>
      <trkpt lat="43.79756" lon="6.38513">
        <ele>776</ele>
        <time>2020-03-21T15:39:42.391Z</time>
      </trkpt>
      <trkpt lat="43.79755" lon="6.38494">
        <ele>774</ele>
        <time>2020-03-21T15:39:43.391Z</time>
      </trkpt>
      <trkpt lat="43.79754" lon="6.38485">
        <ele>773</ele>
        <time>2020-03-21T15:39:44.391Z</time>
      </trkpt>
      <trkpt lat="43.79752" lon="6.38471">
        <ele>772</ele>
        <time>2020-03-21T15:39:45.391Z</time>
      </trkpt>
      <trkpt lat="43.79749" lon="6.38453">
        <ele>770</ele>
        <time>2020-03-21T15:39:46.391Z</time>
      </trkpt>
      <trkpt lat="43.7974" lon="6.3843">
        <ele>767</ele>
        <time>2020-03-21T15:39:47.391Z</time>
      </trkpt>
      <trkpt lat="43.79735" lon="6.38422">
        <ele>765</ele>
        <time>2020-03-21T15:39:48.391Z</time>
      </trkpt>
      <trkpt lat="43.79729" lon="6.38412">
        <ele>763</ele>
        <time>2020-03-21T15:39:49.391Z</time>
      </trkpt>
      <trkpt lat="43.79714" lon="6.38398">
        <ele>760</ele>
        <time>2020-03-21T15:39:50.391Z</time>
      </trkpt>
      <trkpt lat="43.79711" lon="6.38394">
        <ele>759</ele>
        <time>2020-03-21T15:39:51.391Z</time>
      </trkpt>
      <trkpt lat="43.79697" lon="6.38385">
        <ele>755</ele>
        <time>2020-03-21T15:39:52.391Z</time>
      </trkpt>
      <trkpt lat="43.79682" lon="6.38379">
        <ele>752</ele>
        <time>2020-03-21T15:39:53.391Z</time>
      </trkpt>
      <trkpt lat="43.79672" lon="6.38377">
        <ele>750</ele>
        <time>2020-03-21T15:39:54.391Z</time>
      </trkpt>
      <trkpt lat="43.79659" lon="6.38374">
        <ele>747</ele>
        <time>2020-03-21T15:39:55.391Z</time>
      </trkpt>
      <trkpt lat="43.79647" lon="6.38368">
        <ele>743</ele>
        <time>2020-03-21T15:39:56.391Z</time>
      </trkpt>
      <trkpt lat="43.79635" lon="6.38356">
        <ele>739</ele>
        <time>2020-03-21T15:39:57.391Z</time>
      </trkpt>
      <trkpt lat="43.7963" lon="6.38344">
        <ele>737</ele>
        <time>2020-03-21T15:39:58.391Z</time>
      </trkpt>
      <trkpt lat="43.79632" lon="6.38326">
        <ele>737</ele>
        <time>2020-03-21T15:39:59.391Z</time>
      </trkpt>
      <trkpt lat="43.79639" lon="6.38304">
        <ele>739</ele>
        <time>2020-03-21T15:40:00.391Z</time>
      </trkpt>
      <trkpt lat="43.79648" lon="6.38276">
        <ele>741</ele>
        <time>2020-03-21T15:40:01.391Z</time>
      </trkpt>
      <trkpt lat="43.79648" lon="6.38274">
        <ele>741</ele>
        <time>2020-03-21T15:40:02.391Z</time>
      </trkpt>
      <trkpt lat="43.7964" lon="6.38265">
        <ele>739</ele>
        <time>2020-03-21T15:40:03.391Z</time>
      </trkpt>
      <trkpt lat="43.79639" lon="6.38263">
        <ele>739</ele>
        <time>2020-03-21T15:40:04.391Z</time>
      </trkpt>
      <trkpt lat="43.79625" lon="6.38254">
        <ele>736</ele>
        <time>2020-03-21T15:40:05.391Z</time>
      </trkpt>
      <trkpt lat="43.79609" lon="6.38245">
        <ele>733</ele>
        <time>2020-03-21T15:40:06.391Z</time>
      </trkpt>
      <trkpt lat="43.79599" lon="6.38241">
        <ele>731</ele>
        <time>2020-03-21T15:40:07.391Z</time>
      </trkpt>
      <trkpt lat="43.79598" lon="6.38241">
        <ele>731</ele>
        <time>2020-03-21T15:40:08.391Z</time>
      </trkpt>
      <trkpt lat="43.79593" lon="6.3824">
        <ele>730</ele>
        <time>2020-03-21T15:40:09.391Z</time>
      </trkpt>
      <trkpt lat="43.79588" lon="6.38232">
        <ele>729</ele>
        <time>2020-03-21T15:40:10.391Z</time>
      </trkpt>
      <trkpt lat="43.79584" lon="6.38212">
        <ele>730</ele>
        <time>2020-03-21T15:40:11.391Z</time>
      </trkpt>
      <trkpt lat="43.79577" lon="6.38191">
        <ele>731</ele>
        <time>2020-03-21T15:40:12.391Z</time>
      </trkpt>
      <trkpt lat="43.79571" lon="6.38174">
        <ele>732</ele>
        <time>2020-03-21T15:40:13.391Z</time>
      </trkpt>
      <trkpt lat="43.7957" lon="6.38171">
        <ele>732</ele>
        <time>2020-03-21T15:40:14.391Z</time>
      </trkpt>
      <trkpt lat="43.79563" lon="6.38159">
        <ele>733</ele>
        <time>2020-03-21T15:40:15.391Z</time>
      </trkpt>
      <trkpt lat="43.79556" lon="6.38146">
        <ele>733</ele>
        <time>2020-03-21T15:40:16.391Z</time>
      </trkpt>
      <trkpt lat="43.79551" lon="6.38136">
        <ele>733</ele>
        <time>2020-03-21T15:40:17.391Z</time>
      </trkpt>
      <trkpt lat="43.7955" lon="6.38134">
        <ele>733</ele>
        <time>2020-03-21T15:40:18.391Z</time>
      </trkpt>
      <trkpt lat="43.7954" lon="6.38122">
        <ele>733</ele>
        <time>2020-03-21T15:40:19.391Z</time>
      </trkpt>
      <trkpt lat="43.79535" lon="6.38114">
        <ele>733</ele>
        <time>2020-03-21T15:40:20.391Z</time>
      </trkpt>
      <trkpt lat="43.79526" lon="6.381">
        <ele>732</ele>
        <time>2020-03-21T15:40:21.391Z</time>
      </trkpt>
      <trkpt lat="43.79517" lon="6.3808">
        <ele>732</ele>
        <time>2020-03-21T15:40:22.391Z</time>
      </trkpt>
      <trkpt lat="43.79514" lon="6.38075">
        <ele>732</ele>
        <time>2020-03-21T15:40:23.391Z</time>
      </trkpt>
      <trkpt lat="43.79514" lon="6.38073">
        <ele>732</ele>
        <time>2020-03-21T15:40:24.391Z</time>
      </trkpt>
      <trkpt lat="43.7951" lon="6.38061">
        <ele>732</ele>
        <time>2020-03-21T15:40:25.391Z</time>
      </trkpt>
      <trkpt lat="43.79504" lon="6.38043">
        <ele>731</ele>
        <time>2020-03-21T15:40:26.391Z</time>
      </trkpt>
      <trkpt lat="43.79493" lon="6.38022">
        <ele>730</ele>
        <time>2020-03-21T15:40:27.391Z</time>
      </trkpt>
      <trkpt lat="43.79484" lon="6.38006">
        <ele>729</ele>
        <time>2020-03-21T15:40:28.391Z</time>
      </trkpt>
      <trkpt lat="43.79478" lon="6.37986">
        <ele>729</ele>
        <time>2020-03-21T15:40:29.391Z</time>
      </trkpt>
      <trkpt lat="43.79475" lon="6.37973">
        <ele>728</ele>
        <time>2020-03-21T15:40:30.391Z</time>
      </trkpt>
      <trkpt lat="43.79477" lon="6.37952">
        <ele>729</ele>
        <time>2020-03-21T15:40:31.391Z</time>
      </trkpt>
      <trkpt lat="43.79474" lon="6.37944">
        <ele>729</ele>
        <time>2020-03-21T15:40:32.391Z</time>
      </trkpt>
      <trkpt lat="43.79466" lon="6.37929">
        <ele>727</ele>
        <time>2020-03-21T15:40:33.391Z</time>
      </trkpt>
      <trkpt lat="43.79458" lon="6.37914">
        <ele>725</ele>
        <time>2020-03-21T15:40:34.391Z</time>
      </trkpt>
      <trkpt lat="43.79456" lon="6.37889">
        <ele>725</ele>
        <time>2020-03-21T15:40:35.391Z</time>
      </trkpt>
      <trkpt lat="43.79456" lon="6.37863">
        <ele>724</ele>
        <time>2020-03-21T15:40:36.391Z</time>
      </trkpt>
      <trkpt lat="43.79456" lon="6.37844">
        <ele>724</ele>
        <time>2020-03-21T15:40:37.391Z</time>
      </trkpt>
      <trkpt lat="43.79452" lon="6.37832">
        <ele>723</ele>
        <time>2020-03-21T15:40:38.391Z</time>
      </trkpt>
      <trkpt lat="43.79449" lon="6.37814">
        <ele>722</ele>
        <time>2020-03-21T15:40:39.391Z</time>
      </trkpt>
      <trkpt lat="43.79447" lon="6.37796">
        <ele>721</ele>
        <time>2020-03-21T15:40:40.391Z</time>
      </trkpt>
      <trkpt lat="43.79442" lon="6.37777">
        <ele>719</ele>
        <time>2020-03-21T15:40:41.391Z</time>
      </trkpt>
      <trkpt lat="43.79439" lon="6.3777">
        <ele>718</ele>
        <time>2020-03-21T15:40:42.391Z</time>
      </trkpt>
      <trkpt lat="43.79428" lon="6.37761">
        <ele>714</ele>
        <time>2020-03-21T15:40:43.391Z</time>
      </trkpt>
      <trkpt lat="43.79425" lon="6.3775">
        <ele>712</ele>
        <time>2020-03-21T15:40:44.391Z</time>
      </trkpt>
      <trkpt lat="43.79421" lon="6.37745">
        <ele>711</ele>
        <time>2020-03-21T15:40:45.391Z</time>
      </trkpt>
      <trkpt lat="43.79415" lon="6.3774">
        <ele>709</ele>
        <time>2020-03-21T15:40:46.391Z</time>
      </trkpt>
      <trkpt lat="43.79404" lon="6.37738">
        <ele>708</ele>
        <time>2020-03-21T15:40:47.391Z</time>
      </trkpt>
      <trkpt lat="43.79396" lon="6.37735">
        <ele>707</ele>
        <time>2020-03-21T15:40:48.391Z</time>
      </trkpt>
      <trkpt lat="43.79387" lon="6.37734">
        <ele>706</ele>
        <time>2020-03-21T15:40:49.391Z</time>
      </trkpt>
      <trkpt lat="43.79382" lon="6.37731">
        <ele>705</ele>
        <time>2020-03-21T15:40:50.391Z</time>
      </trkpt>
      <trkpt lat="43.7937" lon="6.37733">
        <ele>704</ele>
        <time>2020-03-21T15:40:51.391Z</time>
      </trkpt>
      <trkpt lat="43.79366" lon="6.37732">
        <ele>703</ele>
        <time>2020-03-21T15:40:52.391Z</time>
      </trkpt>
      <trkpt lat="43.79356" lon="6.37728">
        <ele>702</ele>
        <time>2020-03-21T15:40:53.391Z</time>
      </trkpt>
      <trkpt lat="43.7935" lon="6.37727">
        <ele>701</ele>
        <time>2020-03-21T15:40:54.391Z</time>
      </trkpt>
      <trkpt lat="43.79343" lon="6.37728">
        <ele>700</ele>
        <time>2020-03-21T15:40:55.391Z</time>
      </trkpt>
      <trkpt lat="43.79332" lon="6.37725">
        <ele>699</ele>
        <time>2020-03-21T15:40:56.391Z</time>
      </trkpt>
      <trkpt lat="43.79318" lon="6.37725">
        <ele>699</ele>
        <time>2020-03-21T15:40:57.391Z</time>
      </trkpt>
      <trkpt lat="43.79308" lon="6.37722">
        <ele>698</ele>
        <time>2020-03-21T15:40:58.391Z</time>
      </trkpt>
      <trkpt lat="43.79298" lon="6.37721">
        <ele>698</ele>
        <time>2020-03-21T15:40:59.391Z</time>
      </trkpt>
      <trkpt lat="43.79281" lon="6.37715">
        <ele>697</ele>
        <time>2020-03-21T15:41:00.391Z</time>
      </trkpt>
      <trkpt lat="43.79276" lon="6.37712">
        <ele>697</ele>
        <time>2020-03-21T15:41:01.391Z</time>
      </trkpt>
      <trkpt lat="43.7927" lon="6.37697">
        <ele>697</ele>
        <time>2020-03-21T15:41:02.391Z</time>
      </trkpt>
      <trkpt lat="43.79276" lon="6.37675">
        <ele>698</ele>
        <time>2020-03-21T15:41:03.391Z</time>
      </trkpt>
      <trkpt lat="43.79282" lon="6.37652">
        <ele>698</ele>
        <time>2020-03-21T15:41:04.391Z</time>
      </trkpt>
      <trkpt lat="43.79287" lon="6.3763">
        <ele>698</ele>
        <time>2020-03-21T15:41:05.391Z</time>
      </trkpt>
      <trkpt lat="43.79298" lon="6.37606">
        <ele>699</ele>
        <time>2020-03-21T15:41:06.391Z</time>
      </trkpt>
      <trkpt lat="43.793" lon="6.37597">
        <ele>699</ele>
        <time>2020-03-21T15:41:07.391Z</time>
      </trkpt>
      <trkpt lat="43.79306" lon="6.37581">
        <ele>699</ele>
        <time>2020-03-21T15:41:08.391Z</time>
      </trkpt>
      <trkpt lat="43.79307" lon="6.37562">
        <ele>699</ele>
        <time>2020-03-21T15:41:09.391Z</time>
      </trkpt>
      <trkpt lat="43.79309" lon="6.3754">
        <ele>700</ele>
        <time>2020-03-21T15:41:10.391Z</time>
      </trkpt>
      <trkpt lat="43.7932" lon="6.37519">
        <ele>700</ele>
        <time>2020-03-21T15:41:11.391Z</time>
      </trkpt>
      <trkpt lat="43.79324" lon="6.3751">
        <ele>700</ele>
        <time>2020-03-21T15:41:12.391Z</time>
      </trkpt>
      <trkpt lat="43.7933" lon="6.375">
        <ele>700</ele>
        <time>2020-03-21T15:41:13.391Z</time>
      </trkpt>
      <trkpt lat="43.79335" lon="6.37494">
        <ele>700</ele>
        <time>2020-03-21T15:41:14.391Z</time>
      </trkpt>
      <trkpt lat="43.79328" lon="6.37484">
        <ele>701</ele>
        <time>2020-03-21T15:41:15.391Z</time>
      </trkpt>
      <trkpt lat="43.79321" lon="6.37476">
        <ele>702</ele>
        <time>2020-03-21T15:41:16.391Z</time>
      </trkpt>
      <trkpt lat="43.7932" lon="6.37475">
        <ele>702</ele>
        <time>2020-03-21T15:41:17.391Z</time>
      </trkpt>
      <trkpt lat="43.7932" lon="6.37472">
        <ele>702</ele>
        <time>2020-03-21T15:41:18.391Z</time>
      </trkpt>
      <trkpt lat="43.79314" lon="6.37453">
        <ele>704</ele>
        <time>2020-03-21T15:41:19.391Z</time>
      </trkpt>
      <trkpt lat="43.793" lon="6.3744">
        <ele>706</ele>
        <time>2020-03-21T15:41:20.391Z</time>
      </trkpt>
      <trkpt lat="43.79299" lon="6.37438">
        <ele>706</ele>
        <time>2020-03-21T15:41:21.391Z</time>
      </trkpt>
      <trkpt lat="43.79294" lon="6.37437">
        <ele>706</ele>
        <time>2020-03-21T15:41:22.391Z</time>
      </trkpt>
      <trkpt lat="43.7926" lon="6.37428">
        <ele>709</ele>
        <time>2020-03-21T15:41:23.391Z</time>
      </trkpt>
      <trkpt lat="43.7925" lon="6.37434">
        <ele>709</ele>
        <time>2020-03-21T15:41:24.391Z</time>
      </trkpt>
      <trkpt lat="43.79248" lon="6.37448">
        <ele>707</ele>
        <time>2020-03-21T15:41:25.391Z</time>
      </trkpt>
      <trkpt lat="43.79251" lon="6.37461">
        <ele>705</ele>
        <time>2020-03-21T15:41:26.391Z</time>
      </trkpt>
      <trkpt lat="43.79234" lon="6.37455">
        <ele>707</ele>
        <time>2020-03-21T15:41:27.391Z</time>
      </trkpt>
      <trkpt lat="43.79218" lon="6.37436">
        <ele>711</ele>
        <time>2020-03-21T15:41:28.391Z</time>
      </trkpt>
      <trkpt lat="43.79202" lon="6.37398">
        <ele>717</ele>
        <time>2020-03-21T15:41:29.391Z</time>
      </trkpt>
      <trkpt lat="43.79186" lon="6.37367">
        <ele>722</ele>
        <time>2020-03-21T15:41:30.391Z</time>
      </trkpt>
      <trkpt lat="43.79171" lon="6.37351">
        <ele>725</ele>
        <time>2020-03-21T15:41:31.391Z</time>
      </trkpt>
      <trkpt lat="43.79152" lon="6.37317">
        <ele>731</ele>
        <time>2020-03-21T15:41:32.391Z</time>
      </trkpt>
      <trkpt lat="43.7913" lon="6.37274">
        <ele>739</ele>
        <time>2020-03-21T15:41:33.391Z</time>
      </trkpt>
      <trkpt lat="43.79119" lon="6.37245">
        <ele>743</ele>
        <time>2020-03-21T15:41:34.391Z</time>
      </trkpt>
      <trkpt lat="43.79104" lon="6.37223">
        <ele>746</ele>
        <time>2020-03-21T15:41:35.391Z</time>
      </trkpt>
      <trkpt lat="43.79093" lon="6.37211">
        <ele>747</ele>
        <time>2020-03-21T15:41:36.391Z</time>
      </trkpt>
      <trkpt lat="43.79083" lon="6.37187">
        <ele>749</ele>
        <time>2020-03-21T15:41:37.391Z</time>
      </trkpt>
      <trkpt lat="43.79065" lon="6.37179">
        <ele>751</ele>
        <time>2020-03-21T15:41:38.391Z</time>
      </trkpt>
      <trkpt lat="43.79055" lon="6.37183">
        <ele>751</ele>
        <time>2020-03-21T15:41:39.391Z</time>
      </trkpt>
      <trkpt lat="43.79046" lon="6.3717">
        <ele>753</ele>
        <time>2020-03-21T15:41:40.391Z</time>
      </trkpt>
      <trkpt lat="43.79036" lon="6.37167">
        <ele>754</ele>
        <time>2020-03-21T15:41:41.391Z</time>
      </trkpt>
      <trkpt lat="43.79026" lon="6.37162">
        <ele>755</ele>
        <time>2020-03-21T15:41:42.391Z</time>
      </trkpt>
      <trkpt lat="43.79018" lon="6.37161">
        <ele>756</ele>
        <time>2020-03-21T15:41:43.391Z</time>
      </trkpt>
      <trkpt lat="43.79016" lon="6.37158">
        <ele>756</ele>
        <time>2020-03-21T15:41:44.391Z</time>
      </trkpt>
      <trkpt lat="43.79005" lon="6.37142">
        <ele>760</ele>
        <time>2020-03-21T15:41:45.391Z</time>
      </trkpt>
      <trkpt lat="43.79002" lon="6.37139">
        <ele>761</ele>
        <time>2020-03-21T15:41:46.391Z</time>
      </trkpt>
      <trkpt lat="43.78994" lon="6.37119">
        <ele>765</ele>
        <time>2020-03-21T15:41:47.391Z</time>
      </trkpt>
      <trkpt lat="43.7899" lon="6.37113">
        <ele>767</ele>
        <time>2020-03-21T15:41:48.391Z</time>
      </trkpt>
      <trkpt lat="43.78975" lon="6.371">
        <ele>772</ele>
        <time>2020-03-21T15:41:49.391Z</time>
      </trkpt>
      <trkpt lat="43.7897" lon="6.371">
        <ele>773</ele>
        <time>2020-03-21T15:41:50.391Z</time>
      </trkpt>
      <trkpt lat="43.78967" lon="6.371">
        <ele>773</ele>
        <time>2020-03-21T15:41:51.391Z</time>
      </trkpt>
      <trkpt lat="43.78953" lon="6.37097">
        <ele>776</ele>
        <time>2020-03-21T15:41:52.391Z</time>
      </trkpt>
      <trkpt lat="43.7894" lon="6.37098">
        <ele>778</ele>
        <time>2020-03-21T15:41:53.391Z</time>
      </trkpt>
      <trkpt lat="43.78932" lon="6.3709">
        <ele>780</ele>
        <time>2020-03-21T15:41:54.391Z</time>
      </trkpt>
      <trkpt lat="43.7893" lon="6.37083">
        <ele>782</ele>
        <time>2020-03-21T15:41:55.391Z</time>
      </trkpt>
      <trkpt lat="43.78918" lon="6.37075">
        <ele>787</ele>
        <time>2020-03-21T15:41:56.391Z</time>
      </trkpt>
      <trkpt lat="43.78892" lon="6.37073">
        <ele>790</ele>
        <time>2020-03-21T15:41:57.391Z</time>
      </trkpt>
      <trkpt lat="43.78877" lon="6.37075">
        <ele>790</ele>
        <time>2020-03-21T15:41:58.391Z</time>
      </trkpt>
      <trkpt lat="43.78864" lon="6.37074">
        <ele>792</ele>
        <time>2020-03-21T15:41:59.391Z</time>
      </trkpt>
      <trkpt lat="43.78843" lon="6.37065">
        <ele>796</ele>
        <time>2020-03-21T15:42:00.391Z</time>
      </trkpt>
      <trkpt lat="43.78836" lon="6.37059">
        <ele>798</ele>
        <time>2020-03-21T15:42:01.391Z</time>
      </trkpt>
      <trkpt lat="43.78824" lon="6.37052">
        <ele>799</ele>
        <time>2020-03-21T15:42:02.391Z</time>
      </trkpt>
      <trkpt lat="43.7881" lon="6.37048">
        <ele>799</ele>
        <time>2020-03-21T15:42:03.391Z</time>
      </trkpt>
      <trkpt lat="43.78787" lon="6.37029">
        <ele>803</ele>
        <time>2020-03-21T15:42:04.391Z</time>
      </trkpt>
      <trkpt lat="43.78777" lon="6.37023">
        <ele>804</ele>
        <time>2020-03-21T15:42:05.391Z</time>
      </trkpt>
      <trkpt lat="43.78764" lon="6.37029">
        <ele>801</ele>
        <time>2020-03-21T15:42:06.391Z</time>
      </trkpt>
      <trkpt lat="43.78756" lon="6.37027">
        <ele>801</ele>
        <time>2020-03-21T15:42:07.391Z</time>
      </trkpt>
      <trkpt lat="43.78751" lon="6.37024">
        <ele>802</ele>
        <time>2020-03-21T15:42:08.391Z</time>
      </trkpt>
      <trkpt lat="43.78738" lon="6.37016">
        <ele>804</ele>
        <time>2020-03-21T15:42:09.391Z</time>
      </trkpt>
      <trkpt lat="43.78722" lon="6.36999">
        <ele>809</ele>
        <time>2020-03-21T15:42:10.391Z</time>
      </trkpt>
      <trkpt lat="43.78714" lon="6.36984">
        <ele>811</ele>
        <time>2020-03-21T15:42:11.391Z</time>
      </trkpt>
      <trkpt lat="43.78704" lon="6.36967">
        <ele>814</ele>
        <time>2020-03-21T15:42:12.391Z</time>
      </trkpt>
      <trkpt lat="43.78699" lon="6.36954">
        <ele>816</ele>
        <time>2020-03-21T15:42:13.391Z</time>
      </trkpt>
      <trkpt lat="43.78693" lon="6.3693">
        <ele>819</ele>
        <time>2020-03-21T15:42:14.391Z</time>
      </trkpt>
      <trkpt lat="43.78681" lon="6.36918">
        <ele>821</ele>
        <time>2020-03-21T15:42:15.391Z</time>
      </trkpt>
      <trkpt lat="43.78679" lon="6.36915">
        <ele>821</ele>
        <time>2020-03-21T15:42:16.391Z</time>
      </trkpt>
      <trkpt lat="43.78666" lon="6.36901">
        <ele>823</ele>
        <time>2020-03-21T15:42:17.391Z</time>
      </trkpt>
      <trkpt lat="43.78655" lon="6.36888">
        <ele>824</ele>
        <time>2020-03-21T15:42:18.391Z</time>
      </trkpt>
      <trkpt lat="43.7864" lon="6.36856">
        <ele>828</ele>
        <time>2020-03-21T15:42:19.391Z</time>
      </trkpt>
      <trkpt lat="43.78635" lon="6.36829">
        <ele>831</ele>
        <time>2020-03-21T15:42:20.391Z</time>
      </trkpt>
      <trkpt lat="43.78631" lon="6.36815">
        <ele>832</ele>
        <time>2020-03-21T15:42:21.391Z</time>
      </trkpt>
      <trkpt lat="43.78621" lon="6.36795">
        <ele>833</ele>
        <time>2020-03-21T15:42:22.391Z</time>
      </trkpt>
      <trkpt lat="43.78613" lon="6.36783">
        <ele>834</ele>
        <time>2020-03-21T15:42:23.391Z</time>
      </trkpt>
      <trkpt lat="43.78605" lon="6.36774">
        <ele>834</ele>
        <time>2020-03-21T15:42:24.391Z</time>
      </trkpt>
      <trkpt lat="43.78597" lon="6.36763">
        <ele>835</ele>
        <time>2020-03-21T15:42:25.391Z</time>
      </trkpt>
      <trkpt lat="43.78595" lon="6.36759">
        <ele>835</ele>
        <time>2020-03-21T15:42:26.391Z</time>
      </trkpt>
      <trkpt lat="43.78581" lon="6.36733">
        <ele>836</ele>
        <time>2020-03-21T15:42:27.391Z</time>
      </trkpt>
      <trkpt lat="43.78574" lon="6.3671">
        <ele>838</ele>
        <time>2020-03-21T15:42:28.391Z</time>
      </trkpt>
      <trkpt lat="43.7857" lon="6.36692">
        <ele>839</ele>
        <time>2020-03-21T15:42:29.391Z</time>
      </trkpt>
      <trkpt lat="43.78563" lon="6.36667">
        <ele>840</ele>
        <time>2020-03-21T15:42:30.391Z</time>
      </trkpt>
      <trkpt lat="43.78559" lon="6.36655">
        <ele>841</ele>
        <time>2020-03-21T15:42:31.391Z</time>
      </trkpt>
      <trkpt lat="43.78556" lon="6.36626">
        <ele>845</ele>
        <time>2020-03-21T15:42:32.391Z</time>
      </trkpt>
      <trkpt lat="43.78555" lon="6.36624">
        <ele>845</ele>
        <time>2020-03-21T15:42:33.391Z</time>
      </trkpt>
      <trkpt lat="43.7855" lon="6.36608">
        <ele>846</ele>
        <time>2020-03-21T15:42:34.391Z</time>
      </trkpt>
      <trkpt lat="43.78551" lon="6.36584">
        <ele>849</ele>
        <time>2020-03-21T15:42:35.391Z</time>
      </trkpt>
      <trkpt lat="43.78546" lon="6.36572">
        <ele>850</ele>
        <time>2020-03-21T15:42:36.391Z</time>
      </trkpt>
      <trkpt lat="43.7853" lon="6.36565">
        <ele>848</ele>
        <time>2020-03-21T15:42:37.391Z</time>
      </trkpt>
      <trkpt lat="43.78529" lon="6.36562">
        <ele>849</ele>
        <time>2020-03-21T15:42:38.391Z</time>
      </trkpt>
      <trkpt lat="43.78521" lon="6.36554">
        <ele>848</ele>
        <time>2020-03-21T15:42:39.391Z</time>
      </trkpt>
      <trkpt lat="43.78517" lon="6.36548">
        <ele>849</ele>
        <time>2020-03-21T15:42:40.391Z</time>
      </trkpt>
      <trkpt lat="43.78514" lon="6.36545">
        <ele>849</ele>
        <time>2020-03-21T15:42:41.391Z</time>
      </trkpt>
      <trkpt lat="43.78499" lon="6.36529">
        <ele>849</ele>
        <time>2020-03-21T15:42:42.391Z</time>
      </trkpt>
      <trkpt lat="43.78478" lon="6.36514">
        <ele>848</ele>
        <time>2020-03-21T15:42:43.391Z</time>
      </trkpt>
      <trkpt lat="43.78463" lon="6.36498">
        <ele>848</ele>
        <time>2020-03-21T15:42:44.391Z</time>
      </trkpt>
      <trkpt lat="43.78441" lon="6.36471">
        <ele>850</ele>
        <time>2020-03-21T15:42:45.391Z</time>
      </trkpt>
      <trkpt lat="43.78428" lon="6.36447">
        <ele>852</ele>
        <time>2020-03-21T15:42:46.391Z</time>
      </trkpt>
      <trkpt lat="43.7842" lon="6.36434">
        <ele>853</ele>
        <time>2020-03-21T15:42:47.391Z</time>
      </trkpt>
      <trkpt lat="43.78401" lon="6.36392">
        <ele>855</ele>
        <time>2020-03-21T15:42:48.391Z</time>
      </trkpt>
      <trkpt lat="43.78382" lon="6.36355">
        <ele>855</ele>
        <time>2020-03-21T15:42:49.391Z</time>
      </trkpt>
      <trkpt lat="43.78376" lon="6.36333">
        <ele>856</ele>
        <time>2020-03-21T15:42:50.391Z</time>
      </trkpt>
      <trkpt lat="43.78376" lon="6.36308">
        <ele>858</ele>
        <time>2020-03-21T15:42:51.391Z</time>
      </trkpt>
      <trkpt lat="43.78378" lon="6.36279">
        <ele>862</ele>
        <time>2020-03-21T15:42:52.391Z</time>
      </trkpt>
      <trkpt lat="43.78379" lon="6.36253">
        <ele>865</ele>
        <time>2020-03-21T15:42:53.391Z</time>
      </trkpt>
      <trkpt lat="43.78376" lon="6.3624">
        <ele>866</ele>
        <time>2020-03-21T15:42:54.391Z</time>
      </trkpt>
      <trkpt lat="43.78371" lon="6.36214">
        <ele>867</ele>
        <time>2020-03-21T15:42:55.391Z</time>
      </trkpt>
      <trkpt lat="43.78367" lon="6.36189">
        <ele>868</ele>
        <time>2020-03-21T15:42:56.391Z</time>
      </trkpt>
      <trkpt lat="43.78351" lon="6.36167">
        <ele>866</ele>
        <time>2020-03-21T15:42:57.391Z</time>
      </trkpt>
      <trkpt lat="43.78339" lon="6.36139">
        <ele>867</ele>
        <time>2020-03-21T15:42:58.391Z</time>
      </trkpt>
      <trkpt lat="43.78336" lon="6.36132">
        <ele>868</ele>
        <time>2020-03-21T15:42:59.391Z</time>
      </trkpt>
      <trkpt lat="43.78329" lon="6.36103">
        <ele>870</ele>
        <time>2020-03-21T15:43:00.391Z</time>
      </trkpt>
      <trkpt lat="43.78327" lon="6.36099">
        <ele>871</ele>
        <time>2020-03-21T15:43:01.391Z</time>
      </trkpt>
      <trkpt lat="43.78318" lon="6.36091">
        <ele>870</ele>
        <time>2020-03-21T15:43:02.391Z</time>
      </trkpt>
      <trkpt lat="43.78306" lon="6.3608">
        <ele>869</ele>
        <time>2020-03-21T15:43:03.391Z</time>
      </trkpt>
      <trkpt lat="43.78302" lon="6.36073">
        <ele>870</ele>
        <time>2020-03-21T15:43:04.391Z</time>
      </trkpt>
      <trkpt lat="43.78296" lon="6.36057">
        <ele>871</ele>
        <time>2020-03-21T15:43:05.391Z</time>
      </trkpt>
      <trkpt lat="43.7829" lon="6.36041">
        <ele>872</ele>
        <time>2020-03-21T15:43:06.391Z</time>
      </trkpt>
      <trkpt lat="43.78281" lon="6.36015">
        <ele>874</ele>
        <time>2020-03-21T15:43:07.391Z</time>
      </trkpt>
      <trkpt lat="43.78281" lon="6.36009">
        <ele>875</ele>
        <time>2020-03-21T15:43:08.391Z</time>
      </trkpt>
      <trkpt lat="43.78271" lon="6.35981">
        <ele>876</ele>
        <time>2020-03-21T15:43:09.391Z</time>
      </trkpt>
      <trkpt lat="43.78258" lon="6.35953">
        <ele>876</ele>
        <time>2020-03-21T15:43:10.391Z</time>
      </trkpt>
      <trkpt lat="43.78256" lon="6.35948">
        <ele>876</ele>
        <time>2020-03-21T15:43:11.391Z</time>
      </trkpt>
      <trkpt lat="43.78247" lon="6.35917">
        <ele>878</ele>
        <time>2020-03-21T15:43:12.391Z</time>
      </trkpt>
      <trkpt lat="43.7824" lon="6.35897">
        <ele>878</ele>
        <time>2020-03-21T15:43:13.391Z</time>
      </trkpt>
      <trkpt lat="43.78231" lon="6.35875">
        <ele>879</ele>
        <time>2020-03-21T15:43:14.391Z</time>
      </trkpt>
      <trkpt lat="43.78228" lon="6.35867">
        <ele>879</ele>
        <time>2020-03-21T15:43:15.391Z</time>
      </trkpt>
      <trkpt lat="43.78222" lon="6.35827">
        <ele>881</ele>
        <time>2020-03-21T15:43:16.391Z</time>
      </trkpt>
      <trkpt lat="43.78222" lon="6.35812">
        <ele>882</ele>
        <time>2020-03-21T15:43:17.391Z</time>
      </trkpt>
      <trkpt lat="43.78219" lon="6.3577">
        <ele>885</ele>
        <time>2020-03-21T15:43:18.391Z</time>
      </trkpt>
      <trkpt lat="43.78211" lon="6.35739">
        <ele>885</ele>
        <time>2020-03-21T15:43:19.391Z</time>
      </trkpt>
      <trkpt lat="43.78207" lon="6.35712">
        <ele>886</ele>
        <time>2020-03-21T15:43:20.391Z</time>
      </trkpt>
      <trkpt lat="43.78206" lon="6.35684">
        <ele>887</ele>
        <time>2020-03-21T15:43:21.391Z</time>
      </trkpt>
      <trkpt lat="43.78198" lon="6.35652">
        <ele>887</ele>
        <time>2020-03-21T15:43:22.391Z</time>
      </trkpt>
      <trkpt lat="43.78175" lon="6.35608">
        <ele>887</ele>
        <time>2020-03-21T15:43:23.391Z</time>
      </trkpt>
      <trkpt lat="43.7816" lon="6.35561">
        <ele>889</ele>
        <time>2020-03-21T15:43:24.391Z</time>
      </trkpt>
      <trkpt lat="43.78142" lon="6.35486">
        <ele>893</ele>
        <time>2020-03-21T15:43:25.391Z</time>
      </trkpt>
      <trkpt lat="43.78124" lon="6.35423">
        <ele>895</ele>
        <time>2020-03-21T15:43:26.391Z</time>
      </trkpt>
      <trkpt lat="43.7811" lon="6.35388">
        <ele>895</ele>
        <time>2020-03-21T15:43:27.391Z</time>
      </trkpt>
      <trkpt lat="43.78107" lon="6.35374">
        <ele>895</ele>
        <time>2020-03-21T15:43:28.391Z</time>
      </trkpt>
      <trkpt lat="43.78104" lon="6.35351">
        <ele>896</ele>
        <time>2020-03-21T15:43:29.391Z</time>
      </trkpt>
      <trkpt lat="43.78094" lon="6.3532">
        <ele>896</ele>
        <time>2020-03-21T15:43:30.391Z</time>
      </trkpt>
      <trkpt lat="43.78091" lon="6.35298">
        <ele>896</ele>
        <time>2020-03-21T15:43:31.391Z</time>
      </trkpt>
      <trkpt lat="43.78087" lon="6.35268">
        <ele>897</ele>
        <time>2020-03-21T15:43:32.391Z</time>
      </trkpt>
      <trkpt lat="43.78081" lon="6.35246">
        <ele>897</ele>
        <time>2020-03-21T15:43:33.391Z</time>
      </trkpt>
      <trkpt lat="43.7807" lon="6.3522">
        <ele>897</ele>
        <time>2020-03-21T15:43:34.391Z</time>
      </trkpt>
      <trkpt lat="43.78064" lon="6.35199">
        <ele>897</ele>
        <time>2020-03-21T15:43:35.391Z</time>
      </trkpt>
      <trkpt lat="43.78057" lon="6.35176">
        <ele>898</ele>
        <time>2020-03-21T15:43:36.391Z</time>
      </trkpt>
      <trkpt lat="43.78047" lon="6.35155">
        <ele>897</ele>
        <time>2020-03-21T15:43:37.391Z</time>
      </trkpt>
      <trkpt lat="43.78045" lon="6.35124">
        <ele>896</ele>
        <time>2020-03-21T15:43:38.391Z</time>
      </trkpt>
      <trkpt lat="43.78039" lon="6.3505">
        <ele>898</ele>
        <time>2020-03-21T15:43:39.391Z</time>
      </trkpt>
      <trkpt lat="43.78035" lon="6.3497">
        <ele>901</ele>
        <time>2020-03-21T15:43:40.391Z</time>
      </trkpt>
      <trkpt lat="43.78038" lon="6.34936">
        <ele>903</ele>
        <time>2020-03-21T15:43:41.391Z</time>
      </trkpt>
      <trkpt lat="43.78049" lon="6.34899">
        <ele>905</ele>
        <time>2020-03-21T15:43:42.391Z</time>
      </trkpt>
      <trkpt lat="43.78068" lon="6.34856">
        <ele>905</ele>
        <time>2020-03-21T15:43:43.391Z</time>
      </trkpt>
      <trkpt lat="43.78091" lon="6.34804">
        <ele>906</ele>
        <time>2020-03-21T15:43:44.391Z</time>
      </trkpt>
      <trkpt lat="43.7811" lon="6.34762">
        <ele>906</ele>
        <time>2020-03-21T15:43:45.391Z</time>
      </trkpt>
      <trkpt lat="43.78117" lon="6.34745">
        <ele>906</ele>
        <time>2020-03-21T15:43:46.391Z</time>
      </trkpt>
      <trkpt lat="43.78119" lon="6.34739">
        <ele>906</ele>
        <time>2020-03-21T15:43:47.391Z</time>
      </trkpt>
      <trkpt lat="43.78121" lon="6.34736">
        <ele>906</ele>
        <time>2020-03-21T15:43:48.391Z</time>
      </trkpt>
      <trkpt lat="43.78085" lon="6.34729">
        <ele>904</ele>
        <time>2020-03-21T15:43:49.391Z</time>
      </trkpt>
      <trkpt lat="43.78055" lon="6.34709">
        <ele>903</ele>
        <time>2020-03-21T15:43:50.391Z</time>
      </trkpt>
      <trkpt lat="43.78032" lon="6.34717">
        <ele>902</ele>
        <time>2020-03-21T15:43:51.391Z</time>
      </trkpt>
      <trkpt lat="43.78011" lon="6.34709">
        <ele>901</ele>
        <time>2020-03-21T15:43:52.391Z</time>
      </trkpt>
      <trkpt lat="43.77987" lon="6.34731">
        <ele>901</ele>
        <time>2020-03-21T15:43:53.391Z</time>
      </trkpt>
      <trkpt lat="43.77958" lon="6.34718">
        <ele>901</ele>
        <time>2020-03-21T15:43:54.391Z</time>
      </trkpt>
      <trkpt lat="43.7794" lon="6.34716">
        <ele>901</ele>
        <time>2020-03-21T15:43:55.391Z</time>
      </trkpt>
      <trkpt lat="43.77916" lon="6.34601">
        <ele>902</ele>
        <time>2020-03-21T15:43:56.391Z</time>
      </trkpt>
      <trkpt lat="43.77923" lon="6.34532">
        <ele>904</ele>
        <time>2020-03-21T15:43:57.391Z</time>
      </trkpt>
      <trkpt lat="43.77923" lon="6.34414">
        <ele>910</ele>
        <time>2020-03-21T15:43:58.391Z</time>
      </trkpt>
      <trkpt lat="43.77906" lon="6.3433">
        <ele>914</ele>
        <time>2020-03-21T15:43:59.391Z</time>
      </trkpt>
      <trkpt lat="43.77893" lon="6.34226">
        <ele>920</ele>
        <time>2020-03-21T15:44:00.391Z</time>
      </trkpt>
      <trkpt lat="43.77879" lon="6.34162">
        <ele>924</ele>
        <time>2020-03-21T15:44:01.391Z</time>
      </trkpt>
      <trkpt lat="43.77887" lon="6.34111">
        <ele>927</ele>
        <time>2020-03-21T15:44:02.391Z</time>
      </trkpt>
      <trkpt lat="43.77908" lon="6.34055">
        <ele>932</ele>
        <time>2020-03-21T15:44:03.391Z</time>
      </trkpt>
      <trkpt lat="43.77923" lon="6.34037">
        <ele>933</ele>
        <time>2020-03-21T15:44:04.391Z</time>
      </trkpt>
      <trkpt lat="43.77952" lon="6.34026">
        <ele>934</ele>
        <time>2020-03-21T15:44:05.391Z</time>
      </trkpt>
      <trkpt lat="43.77974" lon="6.34023">
        <ele>935</ele>
        <time>2020-03-21T15:44:06.391Z</time>
      </trkpt>
      <trkpt lat="43.77984" lon="6.34054">
        <ele>935</ele>
        <time>2020-03-21T15:44:07.391Z</time>
      </trkpt>
      <trkpt lat="43.7799" lon="6.34095">
        <ele>935</ele>
        <time>2020-03-21T15:44:08.391Z</time>
      </trkpt>
      <trkpt lat="43.78003" lon="6.34142">
        <ele>934</ele>
        <time>2020-03-21T15:44:09.391Z</time>
      </trkpt>
      <trkpt lat="43.78013" lon="6.34173">
        <ele>933</ele>
        <time>2020-03-21T15:44:10.391Z</time>
      </trkpt>
      <trkpt lat="43.78021" lon="6.34199">
        <ele>931</ele>
        <time>2020-03-21T15:44:11.391Z</time>
      </trkpt>
      <trkpt lat="43.78026" lon="6.34221">
        <ele>929</ele>
        <time>2020-03-21T15:44:12.391Z</time>
      </trkpt>
      <trkpt lat="43.78031" lon="6.34248">
        <ele>927</ele>
        <time>2020-03-21T15:44:13.391Z</time>
      </trkpt>
      <trkpt lat="43.78044" lon="6.34294">
        <ele>922</ele>
        <time>2020-03-21T15:44:14.391Z</time>
      </trkpt>
      <trkpt lat="43.78088" lon="6.34364">
        <ele>916</ele>
        <time>2020-03-21T15:44:15.391Z</time>
      </trkpt>
      <trkpt lat="43.78141" lon="6.34431">
        <ele>910</ele>
        <time>2020-03-21T15:44:16.391Z</time>
      </trkpt>
      <trkpt lat="43.78173" lon="6.34472">
        <ele>909</ele>
        <time>2020-03-21T15:44:17.391Z</time>
      </trkpt>
      <trkpt lat="43.78207" lon="6.34517">
        <ele>911</ele>
        <time>2020-03-21T15:44:18.391Z</time>
      </trkpt>
      <trkpt lat="43.78211" lon="6.34524">
        <ele>911</ele>
        <time>2020-03-21T15:44:19.391Z</time>
      </trkpt>
      <trkpt lat="43.78239" lon="6.34535">
        <ele>913</ele>
        <time>2020-03-21T15:44:20.391Z</time>
      </trkpt>
      <trkpt lat="43.78256" lon="6.34535">
        <ele>914</ele>
        <time>2020-03-21T15:44:21.391Z</time>
      </trkpt>
      <trkpt lat="43.78262" lon="6.34515">
        <ele>915</ele>
        <time>2020-03-21T15:44:22.391Z</time>
      </trkpt>
      <trkpt lat="43.78287" lon="6.34505">
        <ele>917</ele>
        <time>2020-03-21T15:44:23.391Z</time>
      </trkpt>
      <trkpt lat="43.78328" lon="6.34537">
        <ele>917</ele>
        <time>2020-03-21T15:44:24.391Z</time>
      </trkpt>
      <trkpt lat="43.78351" lon="6.34538">
        <ele>918</ele>
        <time>2020-03-21T15:44:25.391Z</time>
      </trkpt>
      <trkpt lat="43.78372" lon="6.34544">
        <ele>920</ele>
        <time>2020-03-21T15:44:26.391Z</time>
      </trkpt>
      <trkpt lat="43.78388" lon="6.34544">
        <ele>921</ele>
        <time>2020-03-21T15:44:27.391Z</time>
      </trkpt>
      <trkpt lat="43.78411" lon="6.34533">
        <ele>923</ele>
        <time>2020-03-21T15:44:28.391Z</time>
      </trkpt>
      <trkpt lat="43.78438" lon="6.34504">
        <ele>925</ele>
        <time>2020-03-21T15:44:29.391Z</time>
      </trkpt>
      <trkpt lat="43.78469" lon="6.34486">
        <ele>928</ele>
        <time>2020-03-21T15:44:30.391Z</time>
      </trkpt>
      <trkpt lat="43.7851" lon="6.34482">
        <ele>931</ele>
        <time>2020-03-21T15:44:31.391Z</time>
      </trkpt>
      <trkpt lat="43.7854" lon="6.34467">
        <ele>930</ele>
        <time>2020-03-21T15:44:32.391Z</time>
      </trkpt>
      <trkpt lat="43.78568" lon="6.3444">
        <ele>929</ele>
        <time>2020-03-21T15:44:33.391Z</time>
      </trkpt>
      <trkpt lat="43.78599" lon="6.34433">
        <ele>929</ele>
        <time>2020-03-21T15:44:34.391Z</time>
      </trkpt>
      <trkpt lat="43.78627" lon="6.34449">
        <ele>931</ele>
        <time>2020-03-21T15:44:35.391Z</time>
      </trkpt>
      <trkpt lat="43.78674" lon="6.34457">
        <ele>932</ele>
        <time>2020-03-21T15:44:36.391Z</time>
      </trkpt>
      <trkpt lat="43.787" lon="6.34455">
        <ele>934</ele>
        <time>2020-03-21T15:44:37.391Z</time>
      </trkpt>
      <trkpt lat="43.78714" lon="6.34454">
        <ele>935</ele>
        <time>2020-03-21T15:44:38.391Z</time>
      </trkpt>
      <trkpt lat="43.7874" lon="6.34453">
        <ele>937</ele>
        <time>2020-03-21T15:44:39.391Z</time>
      </trkpt>
      <trkpt lat="43.78767" lon="6.34426">
        <ele>938</ele>
        <time>2020-03-21T15:44:40.391Z</time>
      </trkpt>
      <trkpt lat="43.78799" lon="6.34421">
        <ele>941</ele>
        <time>2020-03-21T15:44:41.391Z</time>
      </trkpt>
      <trkpt lat="43.78845" lon="6.34422">
        <ele>945</ele>
        <time>2020-03-21T15:44:42.391Z</time>
      </trkpt>
      <trkpt lat="43.78883" lon="6.34419">
        <ele>948</ele>
        <time>2020-03-21T15:44:43.391Z</time>
      </trkpt>
      <trkpt lat="43.78911" lon="6.34407">
        <ele>950</ele>
        <time>2020-03-21T15:44:44.391Z</time>
      </trkpt>
      <trkpt lat="43.78937" lon="6.34424">
        <ele>955</ele>
        <time>2020-03-21T15:44:45.391Z</time>
      </trkpt>
      <trkpt lat="43.78968" lon="6.34396">
        <ele>959</ele>
        <time>2020-03-21T15:44:46.391Z</time>
      </trkpt>
      <trkpt lat="43.79" lon="6.34389">
        <ele>964</ele>
        <time>2020-03-21T15:44:47.391Z</time>
      </trkpt>
      <trkpt lat="43.79033" lon="6.34406">
        <ele>965</ele>
        <time>2020-03-21T15:44:48.391Z</time>
      </trkpt>
      <trkpt lat="43.7906" lon="6.34432">
        <ele>968</ele>
        <time>2020-03-21T15:44:49.391Z</time>
      </trkpt>
      <trkpt lat="43.79092" lon="6.34462">
        <ele>971</ele>
        <time>2020-03-21T15:44:50.391Z</time>
      </trkpt>
      <trkpt lat="43.79092" lon="6.34532">
        <ele>974</ele>
        <time>2020-03-21T15:44:51.391Z</time>
      </trkpt>
      <trkpt lat="43.79086" lon="6.34627">
        <ele>978</ele>
        <time>2020-03-21T15:44:52.391Z</time>
      </trkpt>
      <trkpt lat="43.79092" lon="6.34698">
        <ele>980</ele>
        <time>2020-03-21T15:44:53.391Z</time>
      </trkpt>
      <trkpt lat="43.79109" lon="6.34754">
        <ele>978</ele>
        <time>2020-03-21T15:44:54.391Z</time>
      </trkpt>
      <trkpt lat="43.79109" lon="6.34829">
        <ele>979</ele>
        <time>2020-03-21T15:44:55.391Z</time>
      </trkpt>
      <trkpt lat="43.79141" lon="6.34967">
        <ele>983</ele>
        <time>2020-03-21T15:44:56.391Z</time>
      </trkpt>
      <trkpt lat="43.7917" lon="6.35058">
        <ele>981</ele>
        <time>2020-03-21T15:44:57.391Z</time>
      </trkpt>
      <trkpt lat="43.79205" lon="6.35095">
        <ele>982</ele>
        <time>2020-03-21T15:44:58.391Z</time>
      </trkpt>
      <trkpt lat="43.79224" lon="6.35141">
        <ele>983</ele>
        <time>2020-03-21T15:44:59.391Z</time>
      </trkpt>
      <trkpt lat="43.79225" lon="6.35204">
        <ele>988</ele>
        <time>2020-03-21T15:45:00.391Z</time>
      </trkpt>
      <trkpt lat="43.79253" lon="6.3527">
        <ele>990</ele>
        <time>2020-03-21T15:45:01.391Z</time>
      </trkpt>
      <trkpt lat="43.79301" lon="6.35351">
        <ele>993</ele>
        <time>2020-03-21T15:45:02.391Z</time>
      </trkpt>
      <trkpt lat="43.79363" lon="6.35405">
        <ele>996</ele>
        <time>2020-03-21T15:45:03.391Z</time>
      </trkpt>
      <trkpt lat="43.79412" lon="6.35444">
        <ele>996</ele>
        <time>2020-03-21T15:45:04.391Z</time>
      </trkpt>
      <trkpt lat="43.79441" lon="6.35471">
        <ele>995</ele>
        <time>2020-03-21T15:45:05.391Z</time>
      </trkpt>
      <trkpt lat="43.79475" lon="6.35485">
        <ele>992</ele>
        <time>2020-03-21T15:45:06.391Z</time>
      </trkpt>
      <trkpt lat="43.79488" lon="6.35475">
        <ele>991</ele>
        <time>2020-03-21T15:45:07.391Z</time>
      </trkpt>
      <trkpt lat="43.7951" lon="6.35407">
        <ele>995</ele>
        <time>2020-03-21T15:45:08.391Z</time>
      </trkpt>
      <trkpt lat="43.7952" lon="6.35333">
        <ele>1000</ele>
        <time>2020-03-21T15:45:09.391Z</time>
      </trkpt>
      <trkpt lat="43.7952" lon="6.35312">
        <ele>1001</ele>
        <time>2020-03-21T15:45:10.391Z</time>
      </trkpt>
      <trkpt lat="43.79537" lon="6.35289">
        <ele>1006</ele>
        <time>2020-03-21T15:45:11.391Z</time>
      </trkpt>
      <trkpt lat="43.79544" lon="6.35273">
        <ele>1009</ele>
        <time>2020-03-21T15:45:12.391Z</time>
      </trkpt>
      <trkpt lat="43.79544" lon="6.35247">
        <ele>1011</ele>
        <time>2020-03-21T15:45:13.391Z</time>
      </trkpt>
      <trkpt lat="43.7955" lon="6.35227">
        <ele>1015</ele>
        <time>2020-03-21T15:45:14.391Z</time>
      </trkpt>
      <trkpt lat="43.79551" lon="6.35194">
        <ele>1019</ele>
        <time>2020-03-21T15:45:15.391Z</time>
      </trkpt>
      <trkpt lat="43.79543" lon="6.35176">
        <ele>1020</ele>
        <time>2020-03-21T15:45:16.391Z</time>
      </trkpt>
      <trkpt lat="43.79563" lon="6.35156">
        <ele>1026</ele>
        <time>2020-03-21T15:45:17.391Z</time>
      </trkpt>
      <trkpt lat="43.79578" lon="6.35147">
        <ele>1029</ele>
        <time>2020-03-21T15:45:18.391Z</time>
      </trkpt>
      <trkpt lat="43.79589" lon="6.35126">
        <ele>1036</ele>
        <time>2020-03-21T15:45:19.391Z</time>
      </trkpt>
      <trkpt lat="43.79602" lon="6.35102">
        <ele>1042</ele>
        <time>2020-03-21T15:45:20.391Z</time>
      </trkpt>
      <trkpt lat="43.79612" lon="6.35092">
        <ele>1044</ele>
        <time>2020-03-21T15:45:21.391Z</time>
      </trkpt>
      <trkpt lat="43.79618" lon="6.35054">
        <ele>1050</ele>
        <time>2020-03-21T15:45:22.391Z</time>
      </trkpt>
      <trkpt lat="43.79635" lon="6.35035">
        <ele>1052</ele>
        <time>2020-03-21T15:45:23.391Z</time>
      </trkpt>
      <trkpt lat="43.79641" lon="6.3501">
        <ele>1054</ele>
        <time>2020-03-21T15:45:24.391Z</time>
      </trkpt>
      <trkpt lat="43.79663" lon="6.34976">
        <ele>1054</ele>
        <time>2020-03-21T15:45:25.391Z</time>
      </trkpt>
      <trkpt lat="43.79676" lon="6.34955">
        <ele>1053</ele>
        <time>2020-03-21T15:45:26.391Z</time>
      </trkpt>
      <trkpt lat="43.79699" lon="6.3493">
        <ele>1050</ele>
        <time>2020-03-21T15:45:27.391Z</time>
      </trkpt>
      <trkpt lat="43.79723" lon="6.3491">
        <ele>1045</ele>
        <time>2020-03-21T15:45:28.391Z</time>
      </trkpt>
      <trkpt lat="43.79737" lon="6.34876">
        <ele>1044</ele>
        <time>2020-03-21T15:45:29.391Z</time>
      </trkpt>
      <trkpt lat="43.79756" lon="6.34842">
        <ele>1041</ele>
        <time>2020-03-21T15:45:30.391Z</time>
      </trkpt>
      <trkpt lat="43.7978" lon="6.34835">
        <ele>1039</ele>
        <time>2020-03-21T15:45:31.391Z</time>
      </trkpt>
      <trkpt lat="43.79795" lon="6.34828">
        <ele>1037</ele>
        <time>2020-03-21T15:45:32.391Z</time>
      </trkpt>
      <trkpt lat="43.79806" lon="6.34805">
        <ele>1037</ele>
        <time>2020-03-21T15:45:33.391Z</time>
      </trkpt>
      <trkpt lat="43.79824" lon="6.34779">
        <ele>1035</ele>
        <time>2020-03-21T15:45:34.391Z</time>
      </trkpt>
      <trkpt lat="43.79838" lon="6.34758">
        <ele>1034</ele>
        <time>2020-03-21T15:45:35.391Z</time>
      </trkpt>
      <trkpt lat="43.79855" lon="6.34733">
        <ele>1033</ele>
        <time>2020-03-21T15:45:36.391Z</time>
      </trkpt>
      <trkpt lat="43.79892" lon="6.34699">
        <ele>1030</ele>
        <time>2020-03-21T15:45:37.391Z</time>
      </trkpt>
      <trkpt lat="43.79904" lon="6.34687">
        <ele>1028</ele>
        <time>2020-03-21T15:45:38.391Z</time>
      </trkpt>
      <trkpt lat="43.79924" lon="6.34642">
        <ele>1026</ele>
        <time>2020-03-21T15:45:39.391Z</time>
      </trkpt>
      <trkpt lat="43.79948" lon="6.3459">
        <ele>1026</ele>
        <time>2020-03-21T15:45:40.391Z</time>
      </trkpt>
      <trkpt lat="43.79956" lon="6.3457">
        <ele>1025</ele>
        <time>2020-03-21T15:45:41.391Z</time>
      </trkpt>
      <trkpt lat="43.7996" lon="6.34547">
        <ele>1025</ele>
        <time>2020-03-21T15:45:42.391Z</time>
      </trkpt>
      <trkpt lat="43.79962" lon="6.34522">
        <ele>1024</ele>
        <time>2020-03-21T15:45:43.391Z</time>
      </trkpt>
      <trkpt lat="43.79966" lon="6.34495">
        <ele>1024</ele>
        <time>2020-03-21T15:45:44.391Z</time>
      </trkpt>
      <trkpt lat="43.79958" lon="6.34462">
        <ele>1022</ele>
        <time>2020-03-21T15:45:45.391Z</time>
      </trkpt>
      <trkpt lat="43.79949" lon="6.34447">
        <ele>1022</ele>
        <time>2020-03-21T15:45:46.391Z</time>
      </trkpt>
      <trkpt lat="43.79952" lon="6.34403">
        <ele>1020</ele>
        <time>2020-03-21T15:45:47.391Z</time>
      </trkpt>
      <trkpt lat="43.79951" lon="6.34371">
        <ele>1019</ele>
        <time>2020-03-21T15:45:48.391Z</time>
      </trkpt>
      <trkpt lat="43.79949" lon="6.34337">
        <ele>1019</ele>
        <time>2020-03-21T15:45:49.391Z</time>
      </trkpt>
      <trkpt lat="43.79947" lon="6.34313">
        <ele>1018</ele>
        <time>2020-03-21T15:45:50.391Z</time>
      </trkpt>
      <trkpt lat="43.79945" lon="6.34281">
        <ele>1018</ele>
        <time>2020-03-21T15:45:51.391Z</time>
      </trkpt>
      <trkpt lat="43.79942" lon="6.34257">
        <ele>1017</ele>
        <time>2020-03-21T15:45:52.391Z</time>
      </trkpt>
      <trkpt lat="43.79943" lon="6.34232">
        <ele>1017</ele>
        <time>2020-03-21T15:45:53.391Z</time>
      </trkpt>
      <trkpt lat="43.79925" lon="6.34207">
        <ele>1019</ele>
        <time>2020-03-21T15:45:54.391Z</time>
      </trkpt>
      <trkpt lat="43.79932" lon="6.34176">
        <ele>1018</ele>
        <time>2020-03-21T15:45:55.391Z</time>
      </trkpt>
      <trkpt lat="43.79942" lon="6.34137">
        <ele>1017</ele>
        <time>2020-03-21T15:45:56.391Z</time>
      </trkpt>
      <trkpt lat="43.79952" lon="6.3409">
        <ele>1016</ele>
        <time>2020-03-21T15:45:57.391Z</time>
      </trkpt>
      <trkpt lat="43.79962" lon="6.34037">
        <ele>1017</ele>
        <time>2020-03-21T15:45:58.391Z</time>
      </trkpt>
      <trkpt lat="43.79973" lon="6.34003">
        <ele>1016</ele>
        <time>2020-03-21T15:45:59.391Z</time>
      </trkpt>
      <trkpt lat="43.79982" lon="6.33961">
        <ele>1017</ele>
        <time>2020-03-21T15:46:00.391Z</time>
      </trkpt>
      <trkpt lat="43.79998" lon="6.33933">
        <ele>1016</ele>
        <time>2020-03-21T15:46:01.391Z</time>
      </trkpt>
      <trkpt lat="43.80015" lon="6.33903">
        <ele>1016</ele>
        <time>2020-03-21T15:46:02.391Z</time>
      </trkpt>
      <trkpt lat="43.80014" lon="6.33872">
        <ele>1016</ele>
        <time>2020-03-21T15:46:03.391Z</time>
      </trkpt>
      <trkpt lat="43.80045" lon="6.33874">
        <ele>1012</ele>
        <time>2020-03-21T15:46:04.391Z</time>
      </trkpt>
      <trkpt lat="43.80064" lon="6.33882">
        <ele>1011</ele>
        <time>2020-03-21T15:46:05.391Z</time>
      </trkpt>
      <trkpt lat="43.80078" lon="6.33915">
        <ele>1010</ele>
        <time>2020-03-21T15:46:06.391Z</time>
      </trkpt>
      <trkpt lat="43.80109" lon="6.33926">
        <ele>1009</ele>
        <time>2020-03-21T15:46:07.391Z</time>
      </trkpt>
      <trkpt lat="43.80134" lon="6.33925">
        <ele>1009</ele>
        <time>2020-03-21T15:46:08.391Z</time>
      </trkpt>
      <trkpt lat="43.8016" lon="6.33915">
        <ele>1009</ele>
        <time>2020-03-21T15:46:09.391Z</time>
      </trkpt>
      <trkpt lat="43.8019" lon="6.33921">
        <ele>1008</ele>
        <time>2020-03-21T15:46:10.391Z</time>
      </trkpt>
      <trkpt lat="43.80219" lon="6.33927">
        <ele>1006</ele>
        <time>2020-03-21T15:46:11.391Z</time>
      </trkpt>
      <trkpt lat="43.80244" lon="6.33932">
        <ele>1005</ele>
        <time>2020-03-21T15:46:12.391Z</time>
      </trkpt>
      <trkpt lat="43.80279" lon="6.33931">
        <ele>1004</ele>
        <time>2020-03-21T15:46:13.391Z</time>
      </trkpt>
      <trkpt lat="43.80309" lon="6.33941">
        <ele>1003</ele>
        <time>2020-03-21T15:46:14.391Z</time>
      </trkpt>
      <trkpt lat="43.80331" lon="6.33913">
        <ele>1002</ele>
        <time>2020-03-21T15:46:15.391Z</time>
      </trkpt>
      <trkpt lat="43.80345" lon="6.33896">
        <ele>1001</ele>
        <time>2020-03-21T15:46:16.391Z</time>
      </trkpt>
      <trkpt lat="43.80361" lon="6.33882">
        <ele>1000</ele>
        <time>2020-03-21T15:46:17.391Z</time>
      </trkpt>
      <trkpt lat="43.8039" lon="6.33875">
        <ele>999</ele>
        <time>2020-03-21T15:46:18.391Z</time>
      </trkpt>
      <trkpt lat="43.80415" lon="6.3387">
        <ele>999</ele>
        <time>2020-03-21T15:46:19.391Z</time>
      </trkpt>
      <trkpt lat="43.80443" lon="6.33873">
        <ele>1000</ele>
        <time>2020-03-21T15:46:20.391Z</time>
      </trkpt>
      <trkpt lat="43.80455" lon="6.33885">
        <ele>1001</ele>
        <time>2020-03-21T15:46:21.391Z</time>
      </trkpt>
      <trkpt lat="43.80459" lon="6.33929">
        <ele>1002</ele>
        <time>2020-03-21T15:46:22.391Z</time>
      </trkpt>
      <trkpt lat="43.80462" lon="6.33958">
        <ele>1001</ele>
        <time>2020-03-21T15:46:23.391Z</time>
      </trkpt>
      <trkpt lat="43.80472" lon="6.3396">
        <ele>1001</ele>
        <time>2020-03-21T15:46:24.391Z</time>
      </trkpt>
      <trkpt lat="43.80493" lon="6.3397">
        <ele>1001</ele>
        <time>2020-03-21T15:46:25.391Z</time>
      </trkpt>
      <trkpt lat="43.80514" lon="6.33973">
        <ele>1002</ele>
        <time>2020-03-21T15:46:26.391Z</time>
      </trkpt>
      <trkpt lat="43.80537" lon="6.33995">
        <ele>1004</ele>
        <time>2020-03-21T15:46:27.391Z</time>
      </trkpt>
      <trkpt lat="43.80546" lon="6.33982">
        <ele>1005</ele>
        <time>2020-03-21T15:46:28.391Z</time>
      </trkpt>
      <trkpt lat="43.80563" lon="6.33913">
        <ele>1007</ele>
        <time>2020-03-21T15:46:29.391Z</time>
      </trkpt>
      <trkpt lat="43.80565" lon="6.33879">
        <ele>1007</ele>
        <time>2020-03-21T15:46:30.391Z</time>
      </trkpt>
      <trkpt lat="43.80568" lon="6.33849">
        <ele>1008</ele>
        <time>2020-03-21T15:46:31.391Z</time>
      </trkpt>
      <trkpt lat="43.80581" lon="6.33802">
        <ele>1008</ele>
        <time>2020-03-21T15:46:32.391Z</time>
      </trkpt>
      <trkpt lat="43.80602" lon="6.33742">
        <ele>1009</ele>
        <time>2020-03-21T15:46:33.391Z</time>
      </trkpt>
      <trkpt lat="43.80616" lon="6.337">
        <ele>1009</ele>
        <time>2020-03-21T15:46:34.391Z</time>
      </trkpt>
      <trkpt lat="43.80634" lon="6.33652">
        <ele>1008</ele>
        <time>2020-03-21T15:46:35.391Z</time>
      </trkpt>
      <trkpt lat="43.8065" lon="6.3361">
        <ele>1008</ele>
        <time>2020-03-21T15:46:36.391Z</time>
      </trkpt>
      <trkpt lat="43.80668" lon="6.33565">
        <ele>1009</ele>
        <time>2020-03-21T15:46:37.391Z</time>
      </trkpt>
      <trkpt lat="43.8068" lon="6.33528">
        <ele>1010</ele>
        <time>2020-03-21T15:46:38.391Z</time>
      </trkpt>
      <trkpt lat="43.80688" lon="6.335">
        <ele>1012</ele>
        <time>2020-03-21T15:46:39.391Z</time>
      </trkpt>
      <trkpt lat="43.807" lon="6.33485">
        <ele>1013</ele>
        <time>2020-03-21T15:46:40.391Z</time>
      </trkpt>
      <trkpt lat="43.80714" lon="6.33471">
        <ele>1015</ele>
        <time>2020-03-21T15:46:41.391Z</time>
      </trkpt>
      <trkpt lat="43.80725" lon="6.33458">
        <ele>1016</ele>
        <time>2020-03-21T15:46:42.391Z</time>
      </trkpt>
      <trkpt lat="43.80741" lon="6.3344">
        <ele>1018</ele>
        <time>2020-03-21T15:46:43.391Z</time>
      </trkpt>
      <trkpt lat="43.80754" lon="6.33427">
        <ele>1019</ele>
        <time>2020-03-21T15:46:44.391Z</time>
      </trkpt>
      <trkpt lat="43.80771" lon="6.33412">
        <ele>1021</ele>
        <time>2020-03-21T15:46:45.391Z</time>
      </trkpt>
      <trkpt lat="43.80786" lon="6.33401">
        <ele>1022</ele>
        <time>2020-03-21T15:46:46.391Z</time>
      </trkpt>
      <trkpt lat="43.80801" lon="6.33391">
        <ele>1024</ele>
        <time>2020-03-21T15:46:47.391Z</time>
      </trkpt>
      <trkpt lat="43.80814" lon="6.33383">
        <ele>1025</ele>
        <time>2020-03-21T15:46:48.391Z</time>
      </trkpt>
      <trkpt lat="43.80831" lon="6.33371">
        <ele>1026</ele>
        <time>2020-03-21T15:46:49.391Z</time>
      </trkpt>
      <trkpt lat="43.80849" lon="6.33357">
        <ele>1028</ele>
        <time>2020-03-21T15:46:50.391Z</time>
      </trkpt>
      <trkpt lat="43.80865" lon="6.33345">
        <ele>1030</ele>
        <time>2020-03-21T15:46:51.391Z</time>
      </trkpt>
      <trkpt lat="43.80879" lon="6.33334">
        <ele>1031</ele>
        <time>2020-03-21T15:46:52.391Z</time>
      </trkpt>
      <trkpt lat="43.80897" lon="6.33323">
        <ele>1033</ele>
        <time>2020-03-21T15:46:53.391Z</time>
      </trkpt>
      <trkpt lat="43.8091" lon="6.33318">
        <ele>1035</ele>
        <time>2020-03-21T15:46:54.391Z</time>
      </trkpt>
      <trkpt lat="43.8092" lon="6.33307">
        <ele>1036</ele>
        <time>2020-03-21T15:46:55.391Z</time>
      </trkpt>
      <trkpt lat="43.80922" lon="6.33303">
        <ele>1036</ele>
        <time>2020-03-21T15:46:56.391Z</time>
      </trkpt>
      <trkpt lat="43.80928" lon="6.33303">
        <ele>1037</ele>
        <time>2020-03-21T15:46:57.391Z</time>
      </trkpt>
      <trkpt lat="43.80935" lon="6.33305">
        <ele>1038</ele>
        <time>2020-03-21T15:46:58.391Z</time>
      </trkpt>
      <trkpt lat="43.80951" lon="6.33305">
        <ele>1040</ele>
        <time>2020-03-21T15:46:59.391Z</time>
      </trkpt>
      <trkpt lat="43.80962" lon="6.33313">
        <ele>1042</ele>
        <time>2020-03-21T15:47:00.391Z</time>
      </trkpt>
      <trkpt lat="43.80972" lon="6.33324">
        <ele>1043</ele>
        <time>2020-03-21T15:47:01.391Z</time>
      </trkpt>
      <trkpt lat="43.80986" lon="6.3334">
        <ele>1044</ele>
        <time>2020-03-21T15:47:02.391Z</time>
      </trkpt>
      <trkpt lat="43.80998" lon="6.33357">
        <ele>1045</ele>
        <time>2020-03-21T15:47:03.391Z</time>
      </trkpt>
      <trkpt lat="43.81006" lon="6.33368">
        <ele>1046</ele>
        <time>2020-03-21T15:47:04.391Z</time>
      </trkpt>
      <trkpt lat="43.81015" lon="6.33379">
        <ele>1048</ele>
        <time>2020-03-21T15:47:05.391Z</time>
      </trkpt>
      <trkpt lat="43.81023" lon="6.33387">
        <ele>1050</ele>
        <time>2020-03-21T15:47:06.391Z</time>
      </trkpt>
      <trkpt lat="43.81031" lon="6.33395">
        <ele>1052</ele>
        <time>2020-03-21T15:47:07.391Z</time>
      </trkpt>
      <trkpt lat="43.81041" lon="6.33407">
        <ele>1055</ele>
        <time>2020-03-21T15:47:08.391Z</time>
      </trkpt>
      <trkpt lat="43.81048" lon="6.33421">
        <ele>1057</ele>
        <time>2020-03-21T15:47:09.391Z</time>
      </trkpt>
      <trkpt lat="43.81055" lon="6.33434">
        <ele>1059</ele>
        <time>2020-03-21T15:47:10.391Z</time>
      </trkpt>
      <trkpt lat="43.81061" lon="6.33451">
        <ele>1062</ele>
        <time>2020-03-21T15:47:11.391Z</time>
      </trkpt>
      <trkpt lat="43.81065" lon="6.33466">
        <ele>1064</ele>
        <time>2020-03-21T15:47:12.391Z</time>
      </trkpt>
      <trkpt lat="43.81069" lon="6.33481">
        <ele>1067</ele>
        <time>2020-03-21T15:47:13.391Z</time>
      </trkpt>
      <trkpt lat="43.81072" lon="6.33497">
        <ele>1069</ele>
        <time>2020-03-21T15:47:14.391Z</time>
      </trkpt>
      <trkpt lat="43.81076" lon="6.33513">
        <ele>1070</ele>
        <time>2020-03-21T15:47:15.391Z</time>
      </trkpt>
      <trkpt lat="43.8108" lon="6.33524">
        <ele>1071</ele>
        <time>2020-03-21T15:47:16.391Z</time>
      </trkpt>
      <trkpt lat="43.81084" lon="6.33537">
        <ele>1072</ele>
        <time>2020-03-21T15:47:17.391Z</time>
      </trkpt>
      <trkpt lat="43.81088" lon="6.33548">
        <ele>1074</ele>
        <time>2020-03-21T15:47:18.391Z</time>
      </trkpt>
      <trkpt lat="43.81094" lon="6.33564">
        <ele>1076</ele>
        <time>2020-03-21T15:47:19.391Z</time>
      </trkpt>
      <trkpt lat="43.811" lon="6.33582">
        <ele>1078</ele>
        <time>2020-03-21T15:47:20.391Z</time>
      </trkpt>
      <trkpt lat="43.81104" lon="6.33597">
        <ele>1081</ele>
        <time>2020-03-21T15:47:21.391Z</time>
      </trkpt>
      <trkpt lat="43.81107" lon="6.33609">
        <ele>1083</ele>
        <time>2020-03-21T15:47:22.391Z</time>
      </trkpt>
      <trkpt lat="43.81105" lon="6.33625">
        <ele>1084</ele>
        <time>2020-03-21T15:47:23.391Z</time>
      </trkpt>
      <trkpt lat="43.81105" lon="6.33629">
        <ele>1084</ele>
        <time>2020-03-21T15:47:24.391Z</time>
      </trkpt>
      <trkpt lat="43.81109" lon="6.33636">
        <ele>1086</ele>
        <time>2020-03-21T15:47:25.391Z</time>
      </trkpt>
      <trkpt lat="43.81114" lon="6.3363">
        <ele>1088</ele>
        <time>2020-03-21T15:47:26.391Z</time>
      </trkpt>
      <trkpt lat="43.81115" lon="6.33625">
        <ele>1088</ele>
        <time>2020-03-21T15:47:27.391Z</time>
      </trkpt>
      <trkpt lat="43.81115" lon="6.336">
        <ele>1086</ele>
        <time>2020-03-21T15:47:28.391Z</time>
      </trkpt>
      <trkpt lat="43.81112" lon="6.33575">
        <ele>1084</ele>
        <time>2020-03-21T15:47:29.391Z</time>
      </trkpt>
      <trkpt lat="43.81108" lon="6.33557">
        <ele>1082</ele>
        <time>2020-03-21T15:47:30.391Z</time>
      </trkpt>
      <trkpt lat="43.81105" lon="6.33539">
        <ele>1081</ele>
        <time>2020-03-21T15:47:31.391Z</time>
      </trkpt>
      <trkpt lat="43.81103" lon="6.33522">
        <ele>1081</ele>
        <time>2020-03-21T15:47:32.391Z</time>
      </trkpt>
      <trkpt lat="43.81102" lon="6.33502">
        <ele>1081</ele>
        <time>2020-03-21T15:47:33.391Z</time>
      </trkpt>
      <trkpt lat="43.81105" lon="6.33488">
        <ele>1081</ele>
        <time>2020-03-21T15:47:34.391Z</time>
      </trkpt>
      <trkpt lat="43.81106" lon="6.33486">
        <ele>1081</ele>
        <time>2020-03-21T15:47:35.391Z</time>
      </trkpt>
      <trkpt lat="43.81111" lon="6.33476">
        <ele>1083</ele>
        <time>2020-03-21T15:47:36.391Z</time>
      </trkpt>
      <trkpt lat="43.81116" lon="6.33476">
        <ele>1085</ele>
        <time>2020-03-21T15:47:37.391Z</time>
      </trkpt>
      <trkpt lat="43.81123" lon="6.33488">
        <ele>1089</ele>
        <time>2020-03-21T15:47:38.391Z</time>
      </trkpt>
      <trkpt lat="43.81124" lon="6.33501">
        <ele>1090</ele>
        <time>2020-03-21T15:47:39.391Z</time>
      </trkpt>
      <trkpt lat="43.8113" lon="6.33514">
        <ele>1093</ele>
        <time>2020-03-21T15:47:40.391Z</time>
      </trkpt>
      <trkpt lat="43.81138" lon="6.33527">
        <ele>1096</ele>
        <time>2020-03-21T15:47:41.391Z</time>
      </trkpt>
      <trkpt lat="43.81149" lon="6.3354">
        <ele>1102</ele>
        <time>2020-03-21T15:47:42.391Z</time>
      </trkpt>
      <trkpt lat="43.81159" lon="6.33559">
        <ele>1107</ele>
        <time>2020-03-21T15:47:43.391Z</time>
      </trkpt>
      <trkpt lat="43.81161" lon="6.33577">
        <ele>1108</ele>
        <time>2020-03-21T15:47:44.391Z</time>
      </trkpt>
      <trkpt lat="43.81158" lon="6.3359">
        <ele>1107</ele>
        <time>2020-03-21T15:47:45.391Z</time>
      </trkpt>
      <trkpt lat="43.81154" lon="6.33599">
        <ele>1105</ele>
        <time>2020-03-21T15:47:46.391Z</time>
      </trkpt>
      <trkpt lat="43.81153" lon="6.33604">
        <ele>1105</ele>
        <time>2020-03-21T15:47:47.391Z</time>
      </trkpt>
      <trkpt lat="43.81153" lon="6.33628">
        <ele>1105</ele>
        <time>2020-03-21T15:47:48.391Z</time>
      </trkpt>
      <trkpt lat="43.81155" lon="6.33642">
        <ele>1106</ele>
        <time>2020-03-21T15:47:49.391Z</time>
      </trkpt>
      <trkpt lat="43.81154" lon="6.33655">
        <ele>1106</ele>
        <time>2020-03-21T15:47:50.391Z</time>
      </trkpt>
      <trkpt lat="43.81158" lon="6.33671">
        <ele>1108</ele>
        <time>2020-03-21T15:47:51.391Z</time>
      </trkpt>
      <trkpt lat="43.8116" lon="6.3368">
        <ele>1109</ele>
        <time>2020-03-21T15:47:52.391Z</time>
      </trkpt>
      <trkpt lat="43.8116" lon="6.33698">
        <ele>1110</ele>
        <time>2020-03-21T15:47:53.391Z</time>
      </trkpt>
      <trkpt lat="43.8116" lon="6.33711">
        <ele>1111</ele>
        <time>2020-03-21T15:47:54.391Z</time>
      </trkpt>
      <trkpt lat="43.81163" lon="6.33722">
        <ele>1113</ele>
        <time>2020-03-21T15:47:55.391Z</time>
      </trkpt>
      <trkpt lat="43.81166" lon="6.33738">
        <ele>1114</ele>
        <time>2020-03-21T15:47:56.391Z</time>
      </trkpt>
      <trkpt lat="43.81167" lon="6.33756">
        <ele>1116</ele>
        <time>2020-03-21T15:47:57.391Z</time>
      </trkpt>
      <trkpt lat="43.81168" lon="6.33773">
        <ele>1118</ele>
        <time>2020-03-21T15:47:58.391Z</time>
      </trkpt>
      <trkpt lat="43.8117" lon="6.33786">
        <ele>1119</ele>
        <time>2020-03-21T15:47:59.391Z</time>
      </trkpt>
      <trkpt lat="43.8117" lon="6.33788">
        <ele>1119</ele>
        <time>2020-03-21T15:48:00.391Z</time>
      </trkpt>
      <trkpt lat="43.81174" lon="6.33794">
        <ele>1121</ele>
        <time>2020-03-21T15:48:01.391Z</time>
      </trkpt>
      <trkpt lat="43.81175" lon="6.33799">
        <ele>1121</ele>
        <time>2020-03-21T15:48:02.391Z</time>
      </trkpt>
      <trkpt lat="43.81175" lon="6.33809">
        <ele>1122</ele>
        <time>2020-03-21T15:48:03.391Z</time>
      </trkpt>
      <trkpt lat="43.8118" lon="6.33809">
        <ele>1123</ele>
        <time>2020-03-21T15:48:04.391Z</time>
      </trkpt>
      <trkpt lat="43.81184" lon="6.33797">
        <ele>1123</ele>
        <time>2020-03-21T15:48:05.391Z</time>
      </trkpt>
      <trkpt lat="43.81188" lon="6.33792">
        <ele>1124</ele>
        <time>2020-03-21T15:48:06.391Z</time>
      </trkpt>
      <trkpt lat="43.81197" lon="6.33778">
        <ele>1125</ele>
        <time>2020-03-21T15:48:07.391Z</time>
      </trkpt>
      <trkpt lat="43.81204" lon="6.33769">
        <ele>1125</ele>
        <time>2020-03-21T15:48:08.391Z</time>
      </trkpt>
      <trkpt lat="43.81205" lon="6.33767">
        <ele>1126</ele>
        <time>2020-03-21T15:48:09.391Z</time>
      </trkpt>
      <trkpt lat="43.81213" lon="6.33752">
        <ele>1127</ele>
        <time>2020-03-21T15:48:10.391Z</time>
      </trkpt>
      <trkpt lat="43.81219" lon="6.33734">
        <ele>1128</ele>
        <time>2020-03-21T15:48:11.391Z</time>
      </trkpt>
      <trkpt lat="43.81222" lon="6.33718">
        <ele>1129</ele>
        <time>2020-03-21T15:48:12.391Z</time>
      </trkpt>
      <trkpt lat="43.81226" lon="6.33705">
        <ele>1130</ele>
        <time>2020-03-21T15:48:13.391Z</time>
      </trkpt>
      <trkpt lat="43.81227" lon="6.33701">
        <ele>1130</ele>
        <time>2020-03-21T15:48:14.391Z</time>
      </trkpt>
      <trkpt lat="43.81229" lon="6.33693">
        <ele>1131</ele>
        <time>2020-03-21T15:48:15.391Z</time>
      </trkpt>
      <trkpt lat="43.81237" lon="6.33691">
        <ele>1133</ele>
        <time>2020-03-21T15:48:16.391Z</time>
      </trkpt>
      <trkpt lat="43.81243" lon="6.33703">
        <ele>1135</ele>
        <time>2020-03-21T15:48:17.391Z</time>
      </trkpt>
      <trkpt lat="43.81248" lon="6.33717">
        <ele>1136</ele>
        <time>2020-03-21T15:48:18.391Z</time>
      </trkpt>
      <trkpt lat="43.81251" lon="6.33726">
        <ele>1137</ele>
        <time>2020-03-21T15:48:19.391Z</time>
      </trkpt>
      <trkpt lat="43.81257" lon="6.33745">
        <ele>1135</ele>
        <time>2020-03-21T15:48:20.391Z</time>
      </trkpt>
      <trkpt lat="43.81263" lon="6.33761">
        <ele>1134</ele>
        <time>2020-03-21T15:48:21.391Z</time>
      </trkpt>
      <trkpt lat="43.81267" lon="6.33779">
        <ele>1134</ele>
        <time>2020-03-21T15:48:22.391Z</time>
      </trkpt>
      <trkpt lat="43.81267" lon="6.33785">
        <ele>1134</ele>
        <time>2020-03-21T15:48:23.391Z</time>
      </trkpt>
      <trkpt lat="43.81274" lon="6.33788">
        <ele>1133</ele>
        <time>2020-03-21T15:48:24.391Z</time>
      </trkpt>
      <trkpt lat="43.81278" lon="6.33791">
        <ele>1132</ele>
        <time>2020-03-21T15:48:25.391Z</time>
      </trkpt>
      <trkpt lat="43.81288" lon="6.33801">
        <ele>1130</ele>
        <time>2020-03-21T15:48:26.391Z</time>
      </trkpt>
      <trkpt lat="43.81295" lon="6.33796">
        <ele>1128</ele>
        <time>2020-03-21T15:48:27.391Z</time>
      </trkpt>
      <trkpt lat="43.81297" lon="6.33794">
        <ele>1128</ele>
        <time>2020-03-21T15:48:28.391Z</time>
      </trkpt>
      <trkpt lat="43.81302" lon="6.33788">
        <ele>1128</ele>
        <time>2020-03-21T15:48:29.391Z</time>
      </trkpt>
      <trkpt lat="43.81314" lon="6.33769">
        <ele>1126</ele>
        <time>2020-03-21T15:48:30.391Z</time>
      </trkpt>
      <trkpt lat="43.81316" lon="6.33764">
        <ele>1126</ele>
        <time>2020-03-21T15:48:31.391Z</time>
      </trkpt>
      <trkpt lat="43.81317" lon="6.33763">
        <ele>1126</ele>
        <time>2020-03-21T15:48:32.391Z</time>
      </trkpt>
      <trkpt lat="43.81318" lon="6.33761">
        <ele>1126</ele>
        <time>2020-03-21T15:48:33.391Z</time>
      </trkpt>
      <trkpt lat="43.81321" lon="6.33754">
        <ele>1126</ele>
        <time>2020-03-21T15:48:34.391Z</time>
      </trkpt>
      <trkpt lat="43.81328" lon="6.33738">
        <ele>1128</ele>
        <time>2020-03-21T15:48:35.391Z</time>
      </trkpt>
      <trkpt lat="43.81334" lon="6.33725">
        <ele>1129</ele>
        <time>2020-03-21T15:48:36.391Z</time>
      </trkpt>
      <trkpt lat="43.81337" lon="6.3372">
        <ele>1128</ele>
        <time>2020-03-21T15:48:37.391Z</time>
      </trkpt>
      <trkpt lat="43.8135" lon="6.33685">
        <ele>1127</ele>
        <time>2020-03-21T15:48:38.391Z</time>
      </trkpt>
      <trkpt lat="43.81356" lon="6.33672">
        <ele>1126</ele>
        <time>2020-03-21T15:48:39.391Z</time>
      </trkpt>
      <trkpt lat="43.81367" lon="6.33655">
        <ele>1124</ele>
        <time>2020-03-21T15:48:40.391Z</time>
      </trkpt>
      <trkpt lat="43.81374" lon="6.33644">
        <ele>1123</ele>
        <time>2020-03-21T15:48:41.391Z</time>
      </trkpt>
      <trkpt lat="43.81387" lon="6.33621">
        <ele>1122</ele>
        <time>2020-03-21T15:48:42.391Z</time>
      </trkpt>
      <trkpt lat="43.8141" lon="6.33592">
        <ele>1120</ele>
        <time>2020-03-21T15:48:43.391Z</time>
      </trkpt>
      <trkpt lat="43.81437" lon="6.3356">
        <ele>1120</ele>
        <time>2020-03-21T15:48:44.391Z</time>
      </trkpt>
      <trkpt lat="43.81443" lon="6.33554">
        <ele>1120</ele>
        <time>2020-03-21T15:48:45.391Z</time>
      </trkpt>
      <trkpt lat="43.8148" lon="6.33523">
        <ele>1116</ele>
        <time>2020-03-21T15:48:46.391Z</time>
      </trkpt>
      <trkpt lat="43.81493" lon="6.33511">
        <ele>1115</ele>
        <time>2020-03-21T15:48:47.391Z</time>
      </trkpt>
      <trkpt lat="43.81527" lon="6.33496">
        <ele>1109</ele>
        <time>2020-03-21T15:48:48.391Z</time>
      </trkpt>
      <trkpt lat="43.81554" lon="6.33487">
        <ele>1102</ele>
        <time>2020-03-21T15:48:49.391Z</time>
      </trkpt>
      <trkpt lat="43.81568" lon="6.33478">
        <ele>1101</ele>
        <time>2020-03-21T15:48:50.391Z</time>
      </trkpt>
      <trkpt lat="43.81574" lon="6.33472">
        <ele>1101</ele>
        <time>2020-03-21T15:48:51.391Z</time>
      </trkpt>
      <trkpt lat="43.81617" lon="6.33423">
        <ele>1106</ele>
        <time>2020-03-21T15:48:52.391Z</time>
      </trkpt>
      <trkpt lat="43.81638" lon="6.33401">
        <ele>1110</ele>
        <time>2020-03-21T15:48:53.391Z</time>
      </trkpt>
      <trkpt lat="43.81654" lon="6.33395">
        <ele>1109</ele>
        <time>2020-03-21T15:48:54.391Z</time>
      </trkpt>
      <trkpt lat="43.81688" lon="6.33398">
        <ele>1101</ele>
        <time>2020-03-21T15:48:55.391Z</time>
      </trkpt>
      <trkpt lat="43.81708" lon="6.33392">
        <ele>1101</ele>
        <time>2020-03-21T15:48:56.391Z</time>
      </trkpt>
      <trkpt lat="43.81732" lon="6.33388">
        <ele>1100</ele>
        <time>2020-03-21T15:48:57.391Z</time>
      </trkpt>
      <trkpt lat="43.81756" lon="6.3338">
        <ele>1101</ele>
        <time>2020-03-21T15:48:58.391Z</time>
      </trkpt>
      <trkpt lat="43.81765" lon="6.33375">
        <ele>1101</ele>
        <time>2020-03-21T15:48:59.391Z</time>
      </trkpt>
      <trkpt lat="43.81779" lon="6.33367">
        <ele>1100</ele>
        <time>2020-03-21T15:49:00.391Z</time>
      </trkpt>
      <trkpt lat="43.81794" lon="6.33354">
        <ele>1102</ele>
        <time>2020-03-21T15:49:01.391Z</time>
      </trkpt>
      <trkpt lat="43.8181" lon="6.33335">
        <ele>1107</ele>
        <time>2020-03-21T15:49:02.391Z</time>
      </trkpt>
      <trkpt lat="43.8181" lon="6.33334">
        <ele>1108</ele>
        <time>2020-03-21T15:49:03.391Z</time>
      </trkpt>
      <trkpt lat="43.81811" lon="6.33333">
        <ele>1108</ele>
        <time>2020-03-21T15:49:04.391Z</time>
      </trkpt>
      <trkpt lat="43.81814" lon="6.33331">
        <ele>1108</ele>
        <time>2020-03-21T15:49:05.391Z</time>
      </trkpt>
      <trkpt lat="43.81822" lon="6.33324">
        <ele>1110</ele>
        <time>2020-03-21T15:49:06.391Z</time>
      </trkpt>
      <trkpt lat="43.81835" lon="6.33315">
        <ele>1111</ele>
        <time>2020-03-21T15:49:07.391Z</time>
      </trkpt>
      <trkpt lat="43.81833" lon="6.33313">
        <ele>1115</ele>
        <time>2020-03-21T15:49:08.391Z</time>
      </trkpt>
      <trkpt lat="43.81834" lon="6.33304">
        <ele>1122</ele>
        <time>2020-03-21T15:49:09.391Z</time>
      </trkpt>
      <trkpt lat="43.81841" lon="6.3329">
        <ele>1128</ele>
        <time>2020-03-21T15:49:10.391Z</time>
      </trkpt>
      <trkpt lat="43.81849" lon="6.33275">
        <ele>1131</ele>
        <time>2020-03-21T15:49:11.391Z</time>
      </trkpt>
      <trkpt lat="43.81857" lon="6.33262">
        <ele>1132</ele>
        <time>2020-03-21T15:49:12.391Z</time>
      </trkpt>
      <trkpt lat="43.81872" lon="6.33244">
        <ele>1127</ele>
        <time>2020-03-21T15:49:13.391Z</time>
      </trkpt>
      <trkpt lat="43.81885" lon="6.33226">
        <ele>1122</ele>
        <time>2020-03-21T15:49:14.391Z</time>
      </trkpt>
      <trkpt lat="43.81895" lon="6.33214">
        <ele>1117</ele>
        <time>2020-03-21T15:49:15.391Z</time>
      </trkpt>
      <trkpt lat="43.81896" lon="6.33214">
        <ele>1116</ele>
        <time>2020-03-21T15:49:16.391Z</time>
      </trkpt>
      <trkpt lat="43.81902" lon="6.33211">
        <ele>1110</ele>
        <time>2020-03-21T15:49:17.391Z</time>
      </trkpt>
      <trkpt lat="43.81911" lon="6.33197">
        <ele>1107</ele>
        <time>2020-03-21T15:49:18.391Z</time>
      </trkpt>
      <trkpt lat="43.81923" lon="6.33174">
        <ele>1110</ele>
        <time>2020-03-21T15:49:19.391Z</time>
      </trkpt>
      <trkpt lat="43.81934" lon="6.33153">
        <ele>1117</ele>
        <time>2020-03-21T15:49:20.391Z</time>
      </trkpt>
      <trkpt lat="43.8195" lon="6.33126">
        <ele>1122</ele>
        <time>2020-03-21T15:49:21.391Z</time>
      </trkpt>
      <trkpt lat="43.81965" lon="6.33103">
        <ele>1121</ele>
        <time>2020-03-21T15:49:22.391Z</time>
      </trkpt>
      <trkpt lat="43.81984" lon="6.33077">
        <ele>1113</ele>
        <time>2020-03-21T15:49:23.391Z</time>
      </trkpt>
      <trkpt lat="43.82012" lon="6.33039">
        <ele>1102</ele>
        <time>2020-03-21T15:49:24.391Z</time>
      </trkpt>
      <trkpt lat="43.82022" lon="6.33018">
        <ele>1104</ele>
        <time>2020-03-21T15:49:25.391Z</time>
      </trkpt>
      <trkpt lat="43.82042" lon="6.32981">
        <ele>1105</ele>
        <time>2020-03-21T15:49:26.391Z</time>
      </trkpt>
      <trkpt lat="43.82055" lon="6.32955">
        <ele>1106</ele>
        <time>2020-03-21T15:49:27.391Z</time>
      </trkpt>
      <trkpt lat="43.82071" lon="6.32932">
        <ele>1103</ele>
        <time>2020-03-21T15:49:28.391Z</time>
      </trkpt>
      <trkpt lat="43.82083" lon="6.32911">
        <ele>1102</ele>
        <time>2020-03-21T15:49:29.391Z</time>
      </trkpt>
      <trkpt lat="43.82102" lon="6.32889">
        <ele>1101</ele>
        <time>2020-03-21T15:49:30.391Z</time>
      </trkpt>
      <trkpt lat="43.82119" lon="6.32875">
        <ele>1098</ele>
        <time>2020-03-21T15:49:31.391Z</time>
      </trkpt>
      <trkpt lat="43.82136" lon="6.32855">
        <ele>1096</ele>
        <time>2020-03-21T15:49:32.391Z</time>
      </trkpt>
      <trkpt lat="43.82144" lon="6.32845">
        <ele>1096</ele>
        <time>2020-03-21T15:49:33.391Z</time>
      </trkpt>
      <trkpt lat="43.82155" lon="6.32828">
        <ele>1098</ele>
        <time>2020-03-21T15:49:34.391Z</time>
      </trkpt>
      <trkpt lat="43.8217" lon="6.32811">
        <ele>1098</ele>
        <time>2020-03-21T15:49:35.391Z</time>
      </trkpt>
      <trkpt lat="43.82182" lon="6.32799">
        <ele>1098</ele>
        <time>2020-03-21T15:49:36.391Z</time>
      </trkpt>
      <trkpt lat="43.82197" lon="6.32783">
        <ele>1098</ele>
        <time>2020-03-21T15:49:37.391Z</time>
      </trkpt>
      <trkpt lat="43.82205" lon="6.32774">
        <ele>1098</ele>
        <time>2020-03-21T15:49:38.391Z</time>
      </trkpt>
      <trkpt lat="43.82219" lon="6.32762">
        <ele>1097</ele>
        <time>2020-03-21T15:49:39.391Z</time>
      </trkpt>
      <trkpt lat="43.8223" lon="6.32756">
        <ele>1094</ele>
        <time>2020-03-21T15:49:40.391Z</time>
      </trkpt>
      <trkpt lat="43.8225" lon="6.32742">
        <ele>1091</ele>
        <time>2020-03-21T15:49:41.391Z</time>
      </trkpt>
      <trkpt lat="43.8226" lon="6.32737">
        <ele>1091</ele>
        <time>2020-03-21T15:49:42.391Z</time>
      </trkpt>
      <trkpt lat="43.82291" lon="6.32716">
        <ele>1091</ele>
        <time>2020-03-21T15:49:43.391Z</time>
      </trkpt>
      <trkpt lat="43.82314" lon="6.32699">
        <ele>1091</ele>
        <time>2020-03-21T15:49:44.391Z</time>
      </trkpt>
      <trkpt lat="43.82339" lon="6.32674">
        <ele>1091</ele>
        <time>2020-03-21T15:49:45.391Z</time>
      </trkpt>
      <trkpt lat="43.82348" lon="6.32663">
        <ele>1092</ele>
        <time>2020-03-21T15:49:46.391Z</time>
      </trkpt>
      <trkpt lat="43.82363" lon="6.32645">
        <ele>1093</ele>
        <time>2020-03-21T15:49:47.391Z</time>
      </trkpt>
      <trkpt lat="43.82387" lon="6.3262">
        <ele>1093</ele>
        <time>2020-03-21T15:49:48.391Z</time>
      </trkpt>
      <trkpt lat="43.82414" lon="6.32593">
        <ele>1092</ele>
        <time>2020-03-21T15:49:49.391Z</time>
      </trkpt>
      <trkpt lat="43.82435" lon="6.3257">
        <ele>1090</ele>
        <time>2020-03-21T15:49:50.391Z</time>
      </trkpt>
      <trkpt lat="43.82442" lon="6.32562">
        <ele>1089</ele>
        <time>2020-03-21T15:49:51.391Z</time>
      </trkpt>
      <trkpt lat="43.8246" lon="6.32537">
        <ele>1089</ele>
        <time>2020-03-21T15:49:52.391Z</time>
      </trkpt>
      <trkpt lat="43.82466" lon="6.32525">
        <ele>1090</ele>
        <time>2020-03-21T15:49:53.391Z</time>
      </trkpt>
      <trkpt lat="43.82487" lon="6.32479">
        <ele>1095</ele>
        <time>2020-03-21T15:49:54.391Z</time>
      </trkpt>
      <trkpt lat="43.82499" lon="6.32462">
        <ele>1096</ele>
        <time>2020-03-21T15:49:55.391Z</time>
      </trkpt>
      <trkpt lat="43.82516" lon="6.32447">
        <ele>1095</ele>
        <time>2020-03-21T15:49:56.391Z</time>
      </trkpt>
      <trkpt lat="43.82555" lon="6.32425">
        <ele>1089</ele>
        <time>2020-03-21T15:49:57.391Z</time>
      </trkpt>
      <trkpt lat="43.82585" lon="6.32406">
        <ele>1087</ele>
        <time>2020-03-21T15:49:58.391Z</time>
      </trkpt>
      <trkpt lat="43.82589" lon="6.32402">
        <ele>1087</ele>
        <time>2020-03-21T15:49:59.391Z</time>
      </trkpt>
      <trkpt lat="43.82616" lon="6.32383">
        <ele>1086</ele>
        <time>2020-03-21T15:50:00.391Z</time>
      </trkpt>
      <trkpt lat="43.82626" lon="6.32374">
        <ele>1086</ele>
        <time>2020-03-21T15:50:01.391Z</time>
      </trkpt>
      <trkpt lat="43.8265" lon="6.32351">
        <ele>1085</ele>
        <time>2020-03-21T15:50:02.391Z</time>
      </trkpt>
      <trkpt lat="43.82668" lon="6.32331">
        <ele>1085</ele>
        <time>2020-03-21T15:50:03.391Z</time>
      </trkpt>
      <trkpt lat="43.82699" lon="6.32304">
        <ele>1084</ele>
        <time>2020-03-21T15:50:04.391Z</time>
      </trkpt>
      <trkpt lat="43.82709" lon="6.32292">
        <ele>1085</ele>
        <time>2020-03-21T15:50:05.391Z</time>
      </trkpt>
      <trkpt lat="43.82735" lon="6.32261">
        <ele>1085</ele>
        <time>2020-03-21T15:50:06.391Z</time>
      </trkpt>
      <trkpt lat="43.82759" lon="6.32238">
        <ele>1084</ele>
        <time>2020-03-21T15:50:07.391Z</time>
      </trkpt>
      <trkpt lat="43.82784" lon="6.32219">
        <ele>1083</ele>
        <time>2020-03-21T15:50:08.391Z</time>
      </trkpt>
      <trkpt lat="43.82816" lon="6.32188">
        <ele>1081</ele>
        <time>2020-03-21T15:50:09.391Z</time>
      </trkpt>
      <trkpt lat="43.82845" lon="6.32149">
        <ele>1082</ele>
        <time>2020-03-21T15:50:10.391Z</time>
      </trkpt>
      <trkpt lat="43.8287" lon="6.32112">
        <ele>1085</ele>
        <time>2020-03-21T15:50:11.391Z</time>
      </trkpt>
      <trkpt lat="43.82893" lon="6.3208">
        <ele>1086</ele>
        <time>2020-03-21T15:50:12.391Z</time>
      </trkpt>
      <trkpt lat="43.82917" lon="6.32062">
        <ele>1084</ele>
        <time>2020-03-21T15:50:13.391Z</time>
      </trkpt>
      <trkpt lat="43.82938" lon="6.32051">
        <ele>1084</ele>
        <time>2020-03-21T15:50:14.391Z</time>
      </trkpt>
      <trkpt lat="43.82947" lon="6.32047">
        <ele>1084</ele>
        <time>2020-03-21T15:50:15.391Z</time>
      </trkpt>
      <trkpt lat="43.82964" lon="6.32038">
        <ele>1083</ele>
        <time>2020-03-21T15:50:16.391Z</time>
      </trkpt>
      <trkpt lat="43.82975" lon="6.32035">
        <ele>1082</ele>
        <time>2020-03-21T15:50:17.391Z</time>
      </trkpt>
      <trkpt lat="43.83003" lon="6.3203">
        <ele>1078</ele>
        <time>2020-03-21T15:50:18.391Z</time>
      </trkpt>
      <trkpt lat="43.83023" lon="6.32036">
        <ele>1074</ele>
        <time>2020-03-21T15:50:19.391Z</time>
      </trkpt>
      <trkpt lat="43.83049" lon="6.32034">
        <ele>1072</ele>
        <time>2020-03-21T15:50:20.391Z</time>
      </trkpt>
      <trkpt lat="43.8306" lon="6.32021">
        <ele>1073</ele>
        <time>2020-03-21T15:50:21.391Z</time>
      </trkpt>
      <trkpt lat="43.83074" lon="6.31996">
        <ele>1076</ele>
        <time>2020-03-21T15:50:22.391Z</time>
      </trkpt>
      <trkpt lat="43.83083" lon="6.31974">
        <ele>1080</ele>
        <time>2020-03-21T15:50:23.391Z</time>
      </trkpt>
      <trkpt lat="43.83096" lon="6.31948">
        <ele>1083</ele>
        <time>2020-03-21T15:50:24.391Z</time>
      </trkpt>
      <trkpt lat="43.83103" lon="6.31925">
        <ele>1085</ele>
        <time>2020-03-21T15:50:25.391Z</time>
      </trkpt>
      <trkpt lat="43.83115" lon="6.319">
        <ele>1086</ele>
        <time>2020-03-21T15:50:26.391Z</time>
      </trkpt>
      <trkpt lat="43.83132" lon="6.31876">
        <ele>1086</ele>
        <time>2020-03-21T15:50:27.391Z</time>
      </trkpt>
      <trkpt lat="43.83159" lon="6.31847">
        <ele>1085</ele>
        <time>2020-03-21T15:50:28.391Z</time>
      </trkpt>
      <trkpt lat="43.83169" lon="6.31838">
        <ele>1084</ele>
        <time>2020-03-21T15:50:29.391Z</time>
      </trkpt>
      <trkpt lat="43.83198" lon="6.31813">
        <ele>1084</ele>
        <time>2020-03-21T15:50:30.391Z</time>
      </trkpt>
      <trkpt lat="43.8323" lon="6.31783">
        <ele>1083</ele>
        <time>2020-03-21T15:50:31.391Z</time>
      </trkpt>
      <trkpt lat="43.83257" lon="6.31752">
        <ele>1082</ele>
        <time>2020-03-21T15:50:32.391Z</time>
      </trkpt>
      <trkpt lat="43.83282" lon="6.31729">
        <ele>1084</ele>
        <time>2020-03-21T15:50:33.391Z</time>
      </trkpt>
      <trkpt lat="43.83287" lon="6.31724">
        <ele>1083</ele>
        <time>2020-03-21T15:50:34.391Z</time>
      </trkpt>
      <trkpt lat="43.83307" lon="6.3171">
        <ele>1080</ele>
        <time>2020-03-21T15:50:35.391Z</time>
      </trkpt>
      <trkpt lat="43.83326" lon="6.3169">
        <ele>1075</ele>
        <time>2020-03-21T15:50:36.391Z</time>
      </trkpt>
      <trkpt lat="43.83335" lon="6.31679">
        <ele>1073</ele>
        <time>2020-03-21T15:50:37.391Z</time>
      </trkpt>
      <trkpt lat="43.83346" lon="6.31648">
        <ele>1076</ele>
        <time>2020-03-21T15:50:38.391Z</time>
      </trkpt>
      <trkpt lat="43.83343" lon="6.31632">
        <ele>1077</ele>
        <time>2020-03-21T15:50:39.391Z</time>
      </trkpt>
      <trkpt lat="43.83345" lon="6.31616">
        <ele>1079</ele>
        <time>2020-03-21T15:50:40.391Z</time>
      </trkpt>
      <trkpt lat="43.83351" lon="6.3161">
        <ele>1079</ele>
        <time>2020-03-21T15:50:41.391Z</time>
      </trkpt>
      <trkpt lat="43.83362" lon="6.31593">
        <ele>1080</ele>
        <time>2020-03-21T15:50:42.391Z</time>
      </trkpt>
      <trkpt lat="43.83369" lon="6.31587">
        <ele>1080</ele>
        <time>2020-03-21T15:50:43.391Z</time>
      </trkpt>
      <trkpt lat="43.83377" lon="6.31576">
        <ele>1081</ele>
        <time>2020-03-21T15:50:44.391Z</time>
      </trkpt>
      <trkpt lat="43.83378" lon="6.31575">
        <ele>1082</ele>
        <time>2020-03-21T15:50:45.391Z</time>
      </trkpt>
      <trkpt lat="43.83382" lon="6.3157">
        <ele>1082</ele>
        <time>2020-03-21T15:50:46.391Z</time>
      </trkpt>
      <trkpt lat="43.83393" lon="6.31571">
        <ele>1081</ele>
        <time>2020-03-21T15:50:47.391Z</time>
      </trkpt>
      <trkpt lat="43.83396" lon="6.31573">
        <ele>1081</ele>
        <time>2020-03-21T15:50:48.391Z</time>
      </trkpt>
      <trkpt lat="43.83411" lon="6.31579">
        <ele>1079</ele>
        <time>2020-03-21T15:50:49.391Z</time>
      </trkpt>
      <trkpt lat="43.83418" lon="6.31579">
        <ele>1079</ele>
        <time>2020-03-21T15:50:50.391Z</time>
      </trkpt>
      <trkpt lat="43.8343" lon="6.31577">
        <ele>1081</ele>
        <time>2020-03-21T15:50:51.391Z</time>
      </trkpt>
      <trkpt lat="43.83441" lon="6.31573">
        <ele>1083</ele>
        <time>2020-03-21T15:50:52.391Z</time>
      </trkpt>
      <trkpt lat="43.83453" lon="6.31571">
        <ele>1084</ele>
        <time>2020-03-21T15:50:53.391Z</time>
      </trkpt>
      <trkpt lat="43.83464" lon="6.3157">
        <ele>1086</ele>
        <time>2020-03-21T15:50:54.391Z</time>
      </trkpt>
      <trkpt lat="43.83477" lon="6.31567">
        <ele>1087</ele>
        <time>2020-03-21T15:50:55.391Z</time>
      </trkpt>
      <trkpt lat="43.83492" lon="6.31564">
        <ele>1089</ele>
        <time>2020-03-21T15:50:56.391Z</time>
      </trkpt>
      <trkpt lat="43.83505" lon="6.31558">
        <ele>1090</ele>
        <time>2020-03-21T15:50:57.391Z</time>
      </trkpt>
      <trkpt lat="43.83517" lon="6.31549">
        <ele>1092</ele>
        <time>2020-03-21T15:50:58.391Z</time>
      </trkpt>
      <trkpt lat="43.83526" lon="6.3154">
        <ele>1093</ele>
        <time>2020-03-21T15:50:59.391Z</time>
      </trkpt>
      <trkpt lat="43.83536" lon="6.31532">
        <ele>1095</ele>
        <time>2020-03-21T15:51:00.391Z</time>
      </trkpt>
      <trkpt lat="43.83549" lon="6.31526">
        <ele>1097</ele>
        <time>2020-03-21T15:51:01.391Z</time>
      </trkpt>
      <trkpt lat="43.83557" lon="6.31516">
        <ele>1099</ele>
        <time>2020-03-21T15:51:02.391Z</time>
      </trkpt>
      <trkpt lat="43.83566" lon="6.31501">
        <ele>1100</ele>
        <time>2020-03-21T15:51:03.391Z</time>
      </trkpt>
      <trkpt lat="43.83572" lon="6.3149">
        <ele>1100</ele>
        <time>2020-03-21T15:51:04.391Z</time>
      </trkpt>
      <trkpt lat="43.83573" lon="6.31489">
        <ele>1101</ele>
        <time>2020-03-21T15:51:05.391Z</time>
      </trkpt>
      <trkpt lat="43.83576" lon="6.31496">
        <ele>1102</ele>
        <time>2020-03-21T15:51:06.391Z</time>
      </trkpt>
      <trkpt lat="43.83571" lon="6.31515">
        <ele>1102</ele>
        <time>2020-03-21T15:51:07.391Z</time>
      </trkpt>
      <trkpt lat="43.83569" lon="6.3153">
        <ele>1103</ele>
        <time>2020-03-21T15:51:08.391Z</time>
      </trkpt>
      <trkpt lat="43.83571" lon="6.31547">
        <ele>1104</ele>
        <time>2020-03-21T15:51:09.391Z</time>
      </trkpt>
      <trkpt lat="43.83574" lon="6.31554">
        <ele>1105</ele>
        <time>2020-03-21T15:51:10.391Z</time>
      </trkpt>
      <trkpt lat="43.83583" lon="6.31561">
        <ele>1107</ele>
        <time>2020-03-21T15:51:11.391Z</time>
      </trkpt>
      <trkpt lat="43.8359" lon="6.31562">
        <ele>1108</ele>
        <time>2020-03-21T15:51:12.391Z</time>
      </trkpt>
      <trkpt lat="43.8361" lon="6.31562">
        <ele>1112</ele>
        <time>2020-03-21T15:51:13.391Z</time>
      </trkpt>
      <trkpt lat="43.83619" lon="6.31563">
        <ele>1114</ele>
        <time>2020-03-21T15:51:14.391Z</time>
      </trkpt>
      <trkpt lat="43.83629" lon="6.31563">
        <ele>1116</ele>
        <time>2020-03-21T15:51:15.391Z</time>
      </trkpt>
      <trkpt lat="43.83638" lon="6.31564">
        <ele>1117</ele>
        <time>2020-03-21T15:51:16.391Z</time>
      </trkpt>
      <trkpt lat="43.83651" lon="6.31568">
        <ele>1119</ele>
        <time>2020-03-21T15:51:17.391Z</time>
      </trkpt>
      <trkpt lat="43.8366" lon="6.31574">
        <ele>1121</ele>
        <time>2020-03-21T15:51:18.391Z</time>
      </trkpt>
      <trkpt lat="43.83666" lon="6.31582">
        <ele>1121</ele>
        <time>2020-03-21T15:51:19.391Z</time>
      </trkpt>
      <trkpt lat="43.83672" lon="6.31596">
        <ele>1122</ele>
        <time>2020-03-21T15:51:20.391Z</time>
      </trkpt>
      <trkpt lat="43.83675" lon="6.31612">
        <ele>1123</ele>
        <time>2020-03-21T15:51:21.391Z</time>
      </trkpt>
      <trkpt lat="43.83677" lon="6.31616">
        <ele>1124</ele>
        <time>2020-03-21T15:51:22.391Z</time>
      </trkpt>
      <trkpt lat="43.83682" lon="6.31618">
        <ele>1125</ele>
        <time>2020-03-21T15:51:23.391Z</time>
      </trkpt>
      <trkpt lat="43.83696" lon="6.31617">
        <ele>1127</ele>
        <time>2020-03-21T15:51:24.391Z</time>
      </trkpt>
      <trkpt lat="43.83704" lon="6.31616">
        <ele>1128</ele>
        <time>2020-03-21T15:51:25.391Z</time>
      </trkpt>
      <trkpt lat="43.83709" lon="6.31614">
        <ele>1128</ele>
        <time>2020-03-21T15:51:26.391Z</time>
      </trkpt>
      <trkpt lat="43.83711" lon="6.31613">
        <ele>1129</ele>
        <time>2020-03-21T15:51:27.391Z</time>
      </trkpt>
      <trkpt lat="43.83715" lon="6.31612">
        <ele>1129</ele>
        <time>2020-03-21T15:51:28.391Z</time>
      </trkpt>
      <trkpt lat="43.83718" lon="6.31612">
        <ele>1130</ele>
        <time>2020-03-21T15:51:29.391Z</time>
      </trkpt>
      <trkpt lat="43.83721" lon="6.31609">
        <ele>1130</ele>
        <time>2020-03-21T15:51:30.391Z</time>
      </trkpt>
      <trkpt lat="43.8373" lon="6.31603">
        <ele>1131</ele>
        <time>2020-03-21T15:51:31.391Z</time>
      </trkpt>
      <trkpt lat="43.83739" lon="6.31595">
        <ele>1131</ele>
        <time>2020-03-21T15:51:32.391Z</time>
      </trkpt>
      <trkpt lat="43.8374" lon="6.31595">
        <ele>1132</ele>
        <time>2020-03-21T15:51:33.391Z</time>
      </trkpt>
      <trkpt lat="43.83747" lon="6.31595">
        <ele>1132</ele>
        <time>2020-03-21T15:51:34.391Z</time>
      </trkpt>
      <trkpt lat="43.83751" lon="6.31599">
        <ele>1133</ele>
        <time>2020-03-21T15:51:35.391Z</time>
      </trkpt>
      <trkpt lat="43.83756" lon="6.31613">
        <ele>1134</ele>
        <time>2020-03-21T15:51:36.391Z</time>
      </trkpt>
      <trkpt lat="43.83761" lon="6.31622">
        <ele>1135</ele>
        <time>2020-03-21T15:51:37.391Z</time>
      </trkpt>
      <trkpt lat="43.83767" lon="6.31631">
        <ele>1136</ele>
        <time>2020-03-21T15:51:38.391Z</time>
      </trkpt>
      <trkpt lat="43.83774" lon="6.31642">
        <ele>1137</ele>
        <time>2020-03-21T15:51:39.391Z</time>
      </trkpt>
      <trkpt lat="43.8378" lon="6.31655">
        <ele>1137</ele>
        <time>2020-03-21T15:51:40.391Z</time>
      </trkpt>
      <trkpt lat="43.83782" lon="6.31667">
        <ele>1138</ele>
        <time>2020-03-21T15:51:41.391Z</time>
      </trkpt>
      <trkpt lat="43.83782" lon="6.31675">
        <ele>1139</ele>
        <time>2020-03-21T15:51:42.391Z</time>
      </trkpt>
      <trkpt lat="43.83785" lon="6.31679">
        <ele>1139</ele>
        <time>2020-03-21T15:51:43.391Z</time>
      </trkpt>
      <trkpt lat="43.83786" lon="6.31688">
        <ele>1140</ele>
        <time>2020-03-21T15:51:44.391Z</time>
      </trkpt>
      <trkpt lat="43.83787" lon="6.31696">
        <ele>1141</ele>
        <time>2020-03-21T15:51:45.391Z</time>
      </trkpt>
      <trkpt lat="43.83791" lon="6.31713">
        <ele>1142</ele>
        <time>2020-03-21T15:51:46.391Z</time>
      </trkpt>
      <trkpt lat="43.83795" lon="6.31724">
        <ele>1143</ele>
        <time>2020-03-21T15:51:47.391Z</time>
      </trkpt>
      <trkpt lat="43.83795" lon="6.31733">
        <ele>1143</ele>
        <time>2020-03-21T15:51:48.391Z</time>
      </trkpt>
      <trkpt lat="43.83792" lon="6.31758">
        <ele>1146</ele>
        <time>2020-03-21T15:51:49.391Z</time>
      </trkpt>
      <trkpt lat="43.83782" lon="6.31776">
        <ele>1147</ele>
        <time>2020-03-21T15:51:50.391Z</time>
      </trkpt>
      <trkpt lat="43.83781" lon="6.31799">
        <ele>1148</ele>
        <time>2020-03-21T15:51:51.391Z</time>
      </trkpt>
      <trkpt lat="43.83778" lon="6.31821">
        <ele>1150</ele>
        <time>2020-03-21T15:51:52.391Z</time>
      </trkpt>
      <trkpt lat="43.83768" lon="6.3185">
        <ele>1152</ele>
        <time>2020-03-21T15:51:53.391Z</time>
      </trkpt>
      <trkpt lat="43.83757" lon="6.31875">
        <ele>1155</ele>
        <time>2020-03-21T15:51:54.391Z</time>
      </trkpt>
      <trkpt lat="43.83752" lon="6.31894">
        <ele>1157</ele>
        <time>2020-03-21T15:51:55.391Z</time>
      </trkpt>
      <trkpt lat="43.83745" lon="6.31917">
        <ele>1158</ele>
        <time>2020-03-21T15:51:56.391Z</time>
      </trkpt>
      <trkpt lat="43.83735" lon="6.31939">
        <ele>1159</ele>
        <time>2020-03-21T15:51:57.391Z</time>
      </trkpt>
      <trkpt lat="43.83726" lon="6.31968">
        <ele>1162</ele>
        <time>2020-03-21T15:51:58.391Z</time>
      </trkpt>
      <trkpt lat="43.83716" lon="6.31993">
        <ele>1164</ele>
        <time>2020-03-21T15:51:59.391Z</time>
      </trkpt>
      <trkpt lat="43.83705" lon="6.32016">
        <ele>1165</ele>
        <time>2020-03-21T15:52:00.391Z</time>
      </trkpt>
      <trkpt lat="43.83692" lon="6.32033">
        <ele>1166</ele>
        <time>2020-03-21T15:52:01.391Z</time>
      </trkpt>
      <trkpt lat="43.83679" lon="6.32039">
        <ele>1165</ele>
        <time>2020-03-21T15:52:02.391Z</time>
      </trkpt>
      <trkpt lat="43.83666" lon="6.32046">
        <ele>1164</ele>
        <time>2020-03-21T15:52:03.391Z</time>
      </trkpt>
      <trkpt lat="43.83655" lon="6.32063">
        <ele>1164</ele>
        <time>2020-03-21T15:52:04.391Z</time>
      </trkpt>
      <trkpt lat="43.83654" lon="6.32078">
        <ele>1165</ele>
        <time>2020-03-21T15:52:05.391Z</time>
      </trkpt>
      <trkpt lat="43.83663" lon="6.32082">
        <ele>1168</ele>
        <time>2020-03-21T15:52:06.391Z</time>
      </trkpt>
      <trkpt lat="43.83675" lon="6.32076">
        <ele>1169</ele>
        <time>2020-03-21T15:52:07.391Z</time>
      </trkpt>
      <trkpt lat="43.8369" lon="6.32074">
        <ele>1170</ele>
        <time>2020-03-21T15:52:08.391Z</time>
      </trkpt>
      <trkpt lat="43.83705" lon="6.32069">
        <ele>1171</ele>
        <time>2020-03-21T15:52:09.391Z</time>
      </trkpt>
      <trkpt lat="43.83727" lon="6.32054">
        <ele>1172</ele>
        <time>2020-03-21T15:52:10.391Z</time>
      </trkpt>
      <trkpt lat="43.83741" lon="6.32039">
        <ele>1172</ele>
        <time>2020-03-21T15:52:11.391Z</time>
      </trkpt>
      <trkpt lat="43.83753" lon="6.32026">
        <ele>1172</ele>
        <time>2020-03-21T15:52:12.391Z</time>
      </trkpt>
      <trkpt lat="43.83767" lon="6.32017">
        <ele>1171</ele>
        <time>2020-03-21T15:52:13.391Z</time>
      </trkpt>
      <trkpt lat="43.83777" lon="6.32026">
        <ele>1172</ele>
        <time>2020-03-21T15:52:14.391Z</time>
      </trkpt>
      <trkpt lat="43.83777" lon="6.32039">
        <ele>1173</ele>
        <time>2020-03-21T15:52:15.391Z</time>
      </trkpt>
      <trkpt lat="43.83772" lon="6.32062">
        <ele>1176</ele>
        <time>2020-03-21T15:52:16.391Z</time>
      </trkpt>
      <trkpt lat="43.83762" lon="6.32086">
        <ele>1178</ele>
        <time>2020-03-21T15:52:17.391Z</time>
      </trkpt>
      <trkpt lat="43.83751" lon="6.32113">
        <ele>1181</ele>
        <time>2020-03-21T15:52:18.391Z</time>
      </trkpt>
      <trkpt lat="43.83746" lon="6.32124">
        <ele>1181</ele>
        <time>2020-03-21T15:52:19.391Z</time>
      </trkpt>
      <trkpt lat="43.83744" lon="6.32138">
        <ele>1183</ele>
        <time>2020-03-21T15:52:20.391Z</time>
      </trkpt>
      <trkpt lat="43.83744" lon="6.32162">
        <ele>1185</ele>
        <time>2020-03-21T15:52:21.391Z</time>
      </trkpt>
      <trkpt lat="43.83742" lon="6.32174">
        <ele>1186</ele>
        <time>2020-03-21T15:52:22.391Z</time>
      </trkpt>
      <trkpt lat="43.83741" lon="6.32192">
        <ele>1188</ele>
        <time>2020-03-21T15:52:23.391Z</time>
      </trkpt>
      <trkpt lat="43.8374" lon="6.3221">
        <ele>1189</ele>
        <time>2020-03-21T15:52:24.391Z</time>
      </trkpt>
      <trkpt lat="43.83739" lon="6.32228">
        <ele>1191</ele>
        <time>2020-03-21T15:52:25.391Z</time>
      </trkpt>
      <trkpt lat="43.83734" lon="6.32248">
        <ele>1191</ele>
        <time>2020-03-21T15:52:26.391Z</time>
      </trkpt>
      <trkpt lat="43.83728" lon="6.32271">
        <ele>1191</ele>
        <time>2020-03-21T15:52:27.391Z</time>
      </trkpt>
      <trkpt lat="43.83725" lon="6.32298">
        <ele>1192</ele>
        <time>2020-03-21T15:52:28.391Z</time>
      </trkpt>
      <trkpt lat="43.83725" lon="6.32331">
        <ele>1193</ele>
        <time>2020-03-21T15:52:29.391Z</time>
      </trkpt>
      <trkpt lat="43.83726" lon="6.3236">
        <ele>1196</ele>
        <time>2020-03-21T15:52:30.391Z</time>
      </trkpt>
      <trkpt lat="43.83727" lon="6.3239">
        <ele>1199</ele>
        <time>2020-03-21T15:52:31.391Z</time>
      </trkpt>
      <trkpt lat="43.83728" lon="6.32424">
        <ele>1202</ele>
        <time>2020-03-21T15:52:32.391Z</time>
      </trkpt>
      <trkpt lat="43.83731" lon="6.32456">
        <ele>1205</ele>
        <time>2020-03-21T15:52:33.391Z</time>
      </trkpt>
      <trkpt lat="43.83733" lon="6.32486">
        <ele>1208</ele>
        <time>2020-03-21T15:52:34.391Z</time>
      </trkpt>
      <trkpt lat="43.83735" lon="6.32521">
        <ele>1211</ele>
        <time>2020-03-21T15:52:35.391Z</time>
      </trkpt>
      <trkpt lat="43.83738" lon="6.32545">
        <ele>1213</ele>
        <time>2020-03-21T15:52:36.391Z</time>
      </trkpt>
      <trkpt lat="43.8374" lon="6.32569">
        <ele>1215</ele>
        <time>2020-03-21T15:52:37.391Z</time>
      </trkpt>
      <trkpt lat="43.83742" lon="6.32594">
        <ele>1217</ele>
        <time>2020-03-21T15:52:38.391Z</time>
      </trkpt>
      <trkpt lat="43.83748" lon="6.32616">
        <ele>1219</ele>
        <time>2020-03-21T15:52:39.391Z</time>
      </trkpt>
      <trkpt lat="43.83752" lon="6.32636">
        <ele>1221</ele>
        <time>2020-03-21T15:52:40.391Z</time>
      </trkpt>
      <trkpt lat="43.83753" lon="6.32655">
        <ele>1222</ele>
        <time>2020-03-21T15:52:41.391Z</time>
      </trkpt>
      <trkpt lat="43.83753" lon="6.32681">
        <ele>1224</ele>
        <time>2020-03-21T15:52:42.391Z</time>
      </trkpt>
      <trkpt lat="43.83753" lon="6.32694">
        <ele>1226</ele>
        <time>2020-03-21T15:52:43.391Z</time>
      </trkpt>
      <trkpt lat="43.83753" lon="6.32709">
        <ele>1227</ele>
        <time>2020-03-21T15:52:44.391Z</time>
      </trkpt>
      <trkpt lat="43.83749" lon="6.32725">
        <ele>1227</ele>
        <time>2020-03-21T15:52:45.391Z</time>
      </trkpt>
      <trkpt lat="43.83744" lon="6.32741">
        <ele>1228</ele>
        <time>2020-03-21T15:52:46.391Z</time>
      </trkpt>
      <trkpt lat="43.8374" lon="6.32753">
        <ele>1230</ele>
        <time>2020-03-21T15:52:47.391Z</time>
      </trkpt>
      <trkpt lat="43.83746" lon="6.3276">
        <ele>1231</ele>
        <time>2020-03-21T15:52:48.391Z</time>
      </trkpt>
      <trkpt lat="43.8375" lon="6.32753">
        <ele>1230</ele>
        <time>2020-03-21T15:52:49.391Z</time>
      </trkpt>
      <trkpt lat="43.83762" lon="6.32726">
        <ele>1232</ele>
        <time>2020-03-21T15:52:50.391Z</time>
      </trkpt>
      <trkpt lat="43.83772" lon="6.3269">
        <ele>1230</ele>
        <time>2020-03-21T15:52:51.391Z</time>
      </trkpt>
      <trkpt lat="43.83776" lon="6.32665">
        <ele>1228</ele>
        <time>2020-03-21T15:52:52.391Z</time>
      </trkpt>
      <trkpt lat="43.83787" lon="6.32639">
        <ele>1229</ele>
        <time>2020-03-21T15:52:53.391Z</time>
      </trkpt>
      <trkpt lat="43.83805" lon="6.32624">
        <ele>1231</ele>
        <time>2020-03-21T15:52:54.391Z</time>
      </trkpt>
      <trkpt lat="43.83822" lon="6.32619">
        <ele>1235</ele>
        <time>2020-03-21T15:52:55.391Z</time>
      </trkpt>
      <trkpt lat="43.83847" lon="6.32615">
        <ele>1237</ele>
        <time>2020-03-21T15:52:56.391Z</time>
      </trkpt>
      <trkpt lat="43.83875" lon="6.32604">
        <ele>1238</ele>
        <time>2020-03-21T15:52:57.391Z</time>
      </trkpt>
      <trkpt lat="43.839" lon="6.32582">
        <ele>1236</ele>
        <time>2020-03-21T15:52:58.391Z</time>
      </trkpt>
      <trkpt lat="43.83924" lon="6.32569">
        <ele>1236</ele>
        <time>2020-03-21T15:52:59.391Z</time>
      </trkpt>
      <trkpt lat="43.83956" lon="6.3257">
        <ele>1242</ele>
        <time>2020-03-21T15:53:00.391Z</time>
      </trkpt>
      <trkpt lat="43.83988" lon="6.3257">
        <ele>1248</ele>
        <time>2020-03-21T15:53:01.391Z</time>
      </trkpt>
      <trkpt lat="43.84006" lon="6.32557">
        <ele>1252</ele>
        <time>2020-03-21T15:53:02.391Z</time>
      </trkpt>
      <trkpt lat="43.8401" lon="6.32535">
        <ele>1253</ele>
        <time>2020-03-21T15:53:03.391Z</time>
      </trkpt>
      <trkpt lat="43.84008" lon="6.32525">
        <ele>1252</ele>
        <time>2020-03-21T15:53:04.391Z</time>
      </trkpt>
      <trkpt lat="43.83997" lon="6.32483">
        <ele>1248</ele>
        <time>2020-03-21T15:53:05.391Z</time>
      </trkpt>
      <trkpt lat="43.83987" lon="6.32446">
        <ele>1246</ele>
        <time>2020-03-21T15:53:06.391Z</time>
      </trkpt>
      <trkpt lat="43.83986" lon="6.32413">
        <ele>1246</ele>
        <time>2020-03-21T15:53:07.391Z</time>
      </trkpt>
      <trkpt lat="43.83997" lon="6.32378">
        <ele>1249</ele>
        <time>2020-03-21T15:53:08.391Z</time>
      </trkpt>
      <trkpt lat="43.84018" lon="6.32327">
        <ele>1251</ele>
        <time>2020-03-21T15:53:09.391Z</time>
      </trkpt>
      <trkpt lat="43.8402" lon="6.32295">
        <ele>1250</ele>
        <time>2020-03-21T15:53:10.391Z</time>
      </trkpt>
      <trkpt lat="43.84024" lon="6.32267">
        <ele>1249</ele>
        <time>2020-03-21T15:53:11.391Z</time>
      </trkpt>
      <trkpt lat="43.84039" lon="6.32241">
        <ele>1252</ele>
        <time>2020-03-21T15:53:12.391Z</time>
      </trkpt>
      <trkpt lat="43.84039" lon="6.32241">
        <ele>1252</ele>
        <time>2020-03-21T15:41:28.294Z</time>
      </trkpt>
      <trkpt lat="43.84039" lon="6.32241">
        <ele>1252</ele>
        <time>2020-03-21T15:41:28.294Z</time>
      </trkpt>
      <trkpt lat="43.84048" lon="6.32228">
        <ele>1254</ele>
        <time>2020-03-21T15:41:29.294Z</time>
      </trkpt>
      <trkpt lat="43.84048" lon="6.32228">
        <ele>1254</ele>
        <time>2020-03-21T15:41:30.294Z</time>
      </trkpt>
      <trkpt lat="43.84048" lon="6.32228">
        <ele>1254</ele>
        <time>2020-03-21T15:41:31.294Z</time>
      </trkpt>
      <trkpt lat="43.84049" lon="6.32212">
        <ele>1254</ele>
        <time>2020-03-21T15:41:32.294Z</time>
      </trkpt>
      <trkpt lat="43.8405" lon="6.32201">
        <ele>1254</ele>
        <time>2020-03-21T15:41:33.294Z</time>
      </trkpt>
      <trkpt lat="43.84047" lon="6.32153">
        <ele>1253</ele>
        <time>2020-03-21T15:41:34.294Z</time>
      </trkpt>
      <trkpt lat="43.84043" lon="6.32102">
        <ele>1253</ele>
        <time>2020-03-21T15:41:35.294Z</time>
      </trkpt>
      <trkpt lat="43.84037" lon="6.32062">
        <ele>1251</ele>
        <time>2020-03-21T15:41:36.294Z</time>
      </trkpt>
      <trkpt lat="43.84033" lon="6.32033">
        <ele>1249</ele>
        <time>2020-03-21T15:41:37.294Z</time>
      </trkpt>
      <trkpt lat="43.84025" lon="6.31991">
        <ele>1245</ele>
        <time>2020-03-21T15:41:38.294Z</time>
      </trkpt>
      <trkpt lat="43.84023" lon="6.31976">
        <ele>1243</ele>
        <time>2020-03-21T15:41:39.294Z</time>
      </trkpt>
      <trkpt lat="43.84024" lon="6.31938">
        <ele>1239</ele>
        <time>2020-03-21T15:41:40.294Z</time>
      </trkpt>
      <trkpt lat="43.84028" lon="6.31923">
        <ele>1239</ele>
        <time>2020-03-21T15:41:41.294Z</time>
      </trkpt>
      <trkpt lat="43.8404" lon="6.31896">
        <ele>1237</ele>
        <time>2020-03-21T15:41:42.294Z</time>
      </trkpt>
      <trkpt lat="43.84078" lon="6.31861">
        <ele>1238</ele>
        <time>2020-03-21T15:41:43.294Z</time>
      </trkpt>
      <trkpt lat="43.8412" lon="6.3184">
        <ele>1236</ele>
        <time>2020-03-21T15:41:44.294Z</time>
      </trkpt>
      <trkpt lat="43.84153" lon="6.3183">
        <ele>1236</ele>
        <time>2020-03-21T15:41:45.294Z</time>
      </trkpt>
      <trkpt lat="43.84199" lon="6.31832">
        <ele>1235</ele>
        <time>2020-03-21T15:41:46.294Z</time>
      </trkpt>
      <trkpt lat="43.8422" lon="6.31837">
        <ele>1235</ele>
        <time>2020-03-21T15:41:47.294Z</time>
      </trkpt>
      <trkpt lat="43.84262" lon="6.31844">
        <ele>1234</ele>
        <time>2020-03-21T15:41:48.294Z</time>
      </trkpt>
      <trkpt lat="43.84308" lon="6.31828">
        <ele>1229</ele>
        <time>2020-03-21T15:41:49.294Z</time>
      </trkpt>
      <trkpt lat="43.84341" lon="6.31804">
        <ele>1221</ele>
        <time>2020-03-21T15:41:50.294Z</time>
      </trkpt>
      <trkpt lat="43.84382" lon="6.31786">
        <ele>1216</ele>
        <time>2020-03-21T15:41:51.294Z</time>
      </trkpt>
      <trkpt lat="43.84415" lon="6.31788">
        <ele>1216</ele>
        <time>2020-03-21T15:41:52.294Z</time>
      </trkpt>
      <trkpt lat="43.84441" lon="6.31776">
        <ele>1216</ele>
        <time>2020-03-21T15:41:53.294Z</time>
      </trkpt>
      <trkpt lat="43.84445" lon="6.31767">
        <ele>1214</ele>
        <time>2020-03-21T15:41:54.294Z</time>
      </trkpt>
      <trkpt lat="43.84453" lon="6.31738">
        <ele>1209</ele>
        <time>2020-03-21T15:41:55.294Z</time>
      </trkpt>
      <trkpt lat="43.84472" lon="6.31722">
        <ele>1208</ele>
        <time>2020-03-21T15:41:56.294Z</time>
      </trkpt>
      <trkpt lat="43.84489" lon="6.31726">
        <ele>1211</ele>
        <time>2020-03-21T15:41:57.294Z</time>
      </trkpt>
      <trkpt lat="43.84516" lon="6.31733">
        <ele>1214</ele>
        <time>2020-03-21T15:41:58.294Z</time>
      </trkpt>
      <trkpt lat="43.84527" lon="6.31717">
        <ele>1212</ele>
        <time>2020-03-21T15:41:59.294Z</time>
      </trkpt>
      <trkpt lat="43.8454" lon="6.31688">
        <ele>1209</ele>
        <time>2020-03-21T15:42:00.294Z</time>
      </trkpt>
      <trkpt lat="43.84544" lon="6.31684">
        <ele>1208</ele>
        <time>2020-03-21T15:42:01.294Z</time>
      </trkpt>
      <trkpt lat="43.84552" lon="6.31677">
        <ele>1208</ele>
        <time>2020-03-21T15:42:02.294Z</time>
      </trkpt>
      <trkpt lat="43.84564" lon="6.3167">
        <ele>1207</ele>
        <time>2020-03-21T15:42:03.294Z</time>
      </trkpt>
      <trkpt lat="43.84603" lon="6.31661">
        <ele>1206</ele>
        <time>2020-03-21T15:42:04.294Z</time>
      </trkpt>
      <trkpt lat="43.8462" lon="6.31658">
        <ele>1205</ele>
        <time>2020-03-21T15:42:05.294Z</time>
      </trkpt>
      <trkpt lat="43.84633" lon="6.31657">
        <ele>1204</ele>
        <time>2020-03-21T15:42:06.294Z</time>
      </trkpt>
      <trkpt lat="43.84666" lon="6.31667">
        <ele>1205</ele>
        <time>2020-03-21T15:42:07.294Z</time>
      </trkpt>
      <trkpt lat="43.84697" lon="6.31682">
        <ele>1209</ele>
        <time>2020-03-21T15:42:08.294Z</time>
      </trkpt>
      <trkpt lat="43.8473" lon="6.31715">
        <ele>1213</ele>
        <time>2020-03-21T15:42:09.294Z</time>
      </trkpt>
      <trkpt lat="43.84756" lon="6.31726">
        <ele>1215</ele>
        <time>2020-03-21T15:42:10.294Z</time>
      </trkpt>
      <trkpt lat="43.84765" lon="6.31718">
        <ele>1216</ele>
        <time>2020-03-21T15:42:11.294Z</time>
      </trkpt>
      <trkpt lat="43.84765" lon="6.31697">
        <ele>1215</ele>
        <time>2020-03-21T15:42:12.294Z</time>
      </trkpt>
      <trkpt lat="43.84763" lon="6.3169">
        <ele>1214</ele>
        <time>2020-03-21T15:42:13.294Z</time>
      </trkpt>
      <trkpt lat="43.84748" lon="6.3164">
        <ele>1209</ele>
        <time>2020-03-21T15:42:14.294Z</time>
      </trkpt>
      <trkpt lat="43.84729" lon="6.31594">
        <ele>1205</ele>
        <time>2020-03-21T15:42:15.294Z</time>
      </trkpt>
      <trkpt lat="43.84724" lon="6.31578">
        <ele>1204</ele>
        <time>2020-03-21T15:42:16.294Z</time>
      </trkpt>
      <trkpt lat="43.84729" lon="6.31551">
        <ele>1204</ele>
        <time>2020-03-21T15:42:17.294Z</time>
      </trkpt>
      <trkpt lat="43.84748" lon="6.31529">
        <ele>1207</ele>
        <time>2020-03-21T15:42:18.294Z</time>
      </trkpt>
      <trkpt lat="43.84752" lon="6.31524">
        <ele>1208</ele>
        <time>2020-03-21T15:42:19.294Z</time>
      </trkpt>
      <trkpt lat="43.84765" lon="6.3151">
        <ele>1209</ele>
        <time>2020-03-21T15:42:20.294Z</time>
      </trkpt>
      <trkpt lat="43.84778" lon="6.31498">
        <ele>1210</ele>
        <time>2020-03-21T15:42:21.294Z</time>
      </trkpt>
      <trkpt lat="43.84798" lon="6.31487">
        <ele>1211</ele>
        <time>2020-03-21T15:42:22.294Z</time>
      </trkpt>
      <trkpt lat="43.84822" lon="6.31471">
        <ele>1213</ele>
        <time>2020-03-21T15:42:23.294Z</time>
      </trkpt>
      <trkpt lat="43.8484" lon="6.31444">
        <ele>1213</ele>
        <time>2020-03-21T15:42:24.294Z</time>
      </trkpt>
      <trkpt lat="43.84854" lon="6.31379">
        <ele>1208</ele>
        <time>2020-03-21T15:42:25.294Z</time>
      </trkpt>
      <trkpt lat="43.84856" lon="6.31372">
        <ele>1207</ele>
        <time>2020-03-21T15:42:26.294Z</time>
      </trkpt>
      <trkpt lat="43.84877" lon="6.31318">
        <ele>1207</ele>
        <time>2020-03-21T15:42:27.294Z</time>
      </trkpt>
      <trkpt lat="43.84908" lon="6.31269">
        <ele>1210</ele>
        <time>2020-03-21T15:42:28.294Z</time>
      </trkpt>
      <trkpt lat="43.84916" lon="6.31241">
        <ele>1210</ele>
        <time>2020-03-21T15:42:29.294Z</time>
      </trkpt>
      <trkpt lat="43.84922" lon="6.31164">
        <ele>1208</ele>
        <time>2020-03-21T15:42:30.294Z</time>
      </trkpt>
      <trkpt lat="43.84927" lon="6.31145">
        <ele>1208</ele>
        <time>2020-03-21T15:42:31.294Z</time>
      </trkpt>
      <trkpt lat="43.84941" lon="6.31124">
        <ele>1210</ele>
        <time>2020-03-21T15:42:32.294Z</time>
      </trkpt>
      <trkpt lat="43.84961" lon="6.31111">
        <ele>1213</ele>
        <time>2020-03-21T15:42:33.294Z</time>
      </trkpt>
      <trkpt lat="43.84993" lon="6.31103">
        <ele>1219</ele>
        <time>2020-03-21T15:42:34.294Z</time>
      </trkpt>
      <trkpt lat="43.85008" lon="6.31085">
        <ele>1219</ele>
        <time>2020-03-21T15:42:35.294Z</time>
      </trkpt>
      <trkpt lat="43.85003" lon="6.31069">
        <ele>1221</ele>
        <time>2020-03-21T15:42:36.294Z</time>
      </trkpt>
      <trkpt lat="43.84991" lon="6.31062">
        <ele>1220</ele>
        <time>2020-03-21T15:42:37.294Z</time>
      </trkpt>
      <trkpt lat="43.84982" lon="6.31056">
        <ele>1219</ele>
        <time>2020-03-21T15:42:38.294Z</time>
      </trkpt>
      <trkpt lat="43.84958" lon="6.31035">
        <ele>1218</ele>
        <time>2020-03-21T15:42:39.294Z</time>
      </trkpt>
      <trkpt lat="43.84935" lon="6.31029">
        <ele>1215</ele>
        <time>2020-03-21T15:42:40.294Z</time>
      </trkpt>
      <trkpt lat="43.84921" lon="6.31018">
        <ele>1214</ele>
        <time>2020-03-21T15:42:41.294Z</time>
      </trkpt>
      <trkpt lat="43.84912" lon="6.31001">
        <ele>1216</ele>
        <time>2020-03-21T15:42:42.294Z</time>
      </trkpt>
      <trkpt lat="43.84896" lon="6.30979">
        <ele>1217</ele>
        <time>2020-03-21T15:42:43.294Z</time>
      </trkpt>
      <trkpt lat="43.84873" lon="6.30951">
        <ele>1218</ele>
        <time>2020-03-21T15:42:44.294Z</time>
      </trkpt>
      <trkpt lat="43.84866" lon="6.30926">
        <ele>1221</ele>
        <time>2020-03-21T15:42:45.294Z</time>
      </trkpt>
      <trkpt lat="43.84859" lon="6.30902">
        <ele>1223</ele>
        <time>2020-03-21T15:42:46.294Z</time>
      </trkpt>
      <trkpt lat="43.84852" lon="6.30879">
        <ele>1224</ele>
        <time>2020-03-21T15:42:47.294Z</time>
      </trkpt>
      <trkpt lat="43.84844" lon="6.30852">
        <ele>1226</ele>
        <time>2020-03-21T15:42:48.294Z</time>
      </trkpt>
      <trkpt lat="43.84831" lon="6.30835">
        <ele>1225</ele>
        <time>2020-03-21T15:42:49.294Z</time>
      </trkpt>
      <trkpt lat="43.84821" lon="6.30824">
        <ele>1227</ele>
        <time>2020-03-21T15:42:50.294Z</time>
      </trkpt>
      <trkpt lat="43.8482" lon="6.30818">
        <ele>1228</ele>
        <time>2020-03-21T15:42:51.294Z</time>
      </trkpt>
      <trkpt lat="43.8483" lon="6.30811">
        <ele>1229</ele>
        <time>2020-03-21T15:42:52.294Z</time>
      </trkpt>
      <trkpt lat="43.84834" lon="6.30813">
        <ele>1229</ele>
        <time>2020-03-21T15:42:53.294Z</time>
      </trkpt>
      <trkpt lat="43.84849" lon="6.30828">
        <ele>1230</ele>
        <time>2020-03-21T15:42:54.294Z</time>
      </trkpt>
      <trkpt lat="43.84862" lon="6.30844">
        <ele>1231</ele>
        <time>2020-03-21T15:42:55.294Z</time>
      </trkpt>
      <trkpt lat="43.84863" lon="6.30846">
        <ele>1231</ele>
        <time>2020-03-21T15:42:56.294Z</time>
      </trkpt>
      <trkpt lat="43.84869" lon="6.30853">
        <ele>1232</ele>
        <time>2020-03-21T15:42:57.294Z</time>
      </trkpt>
      <trkpt lat="43.84886" lon="6.30868">
        <ele>1234</ele>
        <time>2020-03-21T15:42:58.294Z</time>
      </trkpt>
      <trkpt lat="43.84888" lon="6.30869">
        <ele>1234</ele>
        <time>2020-03-21T15:42:59.294Z</time>
      </trkpt>
      <trkpt lat="43.84902" lon="6.30885">
        <ele>1235</ele>
        <time>2020-03-21T15:43:00.294Z</time>
      </trkpt>
      <trkpt lat="43.84913" lon="6.30903">
        <ele>1235</ele>
        <time>2020-03-21T15:43:01.294Z</time>
      </trkpt>
      <trkpt lat="43.8493" lon="6.30915">
        <ele>1237</ele>
        <time>2020-03-21T15:43:02.294Z</time>
      </trkpt>
      <trkpt lat="43.84948" lon="6.30921">
        <ele>1241</ele>
        <time>2020-03-21T15:43:03.294Z</time>
      </trkpt>
      <trkpt lat="43.8496" lon="6.30925">
        <ele>1242</ele>
        <time>2020-03-21T15:43:04.294Z</time>
      </trkpt>
      <trkpt lat="43.84972" lon="6.30933">
        <ele>1244</ele>
        <time>2020-03-21T15:43:05.294Z</time>
      </trkpt>
      <trkpt lat="43.84976" lon="6.30935">
        <ele>1244</ele>
        <time>2020-03-21T15:43:06.294Z</time>
      </trkpt>
      <trkpt lat="43.84981" lon="6.30929">
        <ele>1246</ele>
        <time>2020-03-21T15:43:07.294Z</time>
      </trkpt>
      <trkpt lat="43.84976" lon="6.3092">
        <ele>1247</ele>
        <time>2020-03-21T15:43:08.294Z</time>
      </trkpt>
      <trkpt lat="43.84959" lon="6.30904">
        <ele>1247</ele>
        <time>2020-03-21T15:43:09.294Z</time>
      </trkpt>
      <trkpt lat="43.84944" lon="6.30884">
        <ele>1246</ele>
        <time>2020-03-21T15:43:10.294Z</time>
      </trkpt>
      <trkpt lat="43.84935" lon="6.30865">
        <ele>1247</ele>
        <time>2020-03-21T15:43:11.294Z</time>
      </trkpt>
      <trkpt lat="43.84928" lon="6.30838">
        <ele>1250</ele>
        <time>2020-03-21T15:43:12.294Z</time>
      </trkpt>
      <trkpt lat="43.8492" lon="6.30812">
        <ele>1252</ele>
        <time>2020-03-21T15:43:13.294Z</time>
      </trkpt>
      <trkpt lat="43.84909" lon="6.30784">
        <ele>1255</ele>
        <time>2020-03-21T15:43:14.294Z</time>
      </trkpt>
      <trkpt lat="43.84897" lon="6.30754">
        <ele>1257</ele>
        <time>2020-03-21T15:43:15.294Z</time>
      </trkpt>
      <trkpt lat="43.84888" lon="6.30735">
        <ele>1259</ele>
        <time>2020-03-21T15:43:16.294Z</time>
      </trkpt>
      <trkpt lat="43.84874" lon="6.30716">
        <ele>1260</ele>
        <time>2020-03-21T15:43:17.294Z</time>
      </trkpt>
      <trkpt lat="43.84858" lon="6.30692">
        <ele>1262</ele>
        <time>2020-03-21T15:43:18.294Z</time>
      </trkpt>
      <trkpt lat="43.84844" lon="6.30684">
        <ele>1261</ele>
        <time>2020-03-21T15:43:19.294Z</time>
      </trkpt>
      <trkpt lat="43.84827" lon="6.30681">
        <ele>1260</ele>
        <time>2020-03-21T15:43:20.294Z</time>
      </trkpt>
      <trkpt lat="43.84819" lon="6.30669">
        <ele>1263</ele>
        <time>2020-03-21T15:43:21.294Z</time>
      </trkpt>
      <trkpt lat="43.84812" lon="6.30647">
        <ele>1269</ele>
        <time>2020-03-21T15:43:22.294Z</time>
      </trkpt>
      <trkpt lat="43.84799" lon="6.30626">
        <ele>1274</ele>
        <time>2020-03-21T15:43:23.294Z</time>
      </trkpt>
      <trkpt lat="43.84784" lon="6.3062">
        <ele>1275</ele>
        <time>2020-03-21T15:43:24.294Z</time>
      </trkpt>
      <trkpt lat="43.84765" lon="6.30631">
        <ele>1272</ele>
        <time>2020-03-21T15:43:25.294Z</time>
      </trkpt>
      <trkpt lat="43.84741" lon="6.30646">
        <ele>1270</ele>
        <time>2020-03-21T15:43:26.294Z</time>
      </trkpt>
      <trkpt lat="43.84723" lon="6.30655">
        <ele>1270</ele>
        <time>2020-03-21T15:43:27.294Z</time>
      </trkpt>
      <trkpt lat="43.84703" lon="6.30675">
        <ele>1270</ele>
        <time>2020-03-21T15:43:28.294Z</time>
      </trkpt>
      <trkpt lat="43.84686" lon="6.30691">
        <ele>1270</ele>
        <time>2020-03-21T15:43:29.294Z</time>
      </trkpt>
      <trkpt lat="43.84667" lon="6.30703">
        <ele>1271</ele>
        <time>2020-03-21T15:43:30.294Z</time>
      </trkpt>
      <trkpt lat="43.8465" lon="6.3071">
        <ele>1269</ele>
        <time>2020-03-21T15:43:31.294Z</time>
      </trkpt>
      <trkpt lat="43.84635" lon="6.3071">
        <ele>1268</ele>
        <time>2020-03-21T15:43:32.294Z</time>
      </trkpt>
      <trkpt lat="43.84634" lon="6.30696">
        <ele>1270</ele>
        <time>2020-03-21T15:43:33.294Z</time>
      </trkpt>
      <trkpt lat="43.84636" lon="6.30694">
        <ele>1270</ele>
        <time>2020-03-21T15:43:34.294Z</time>
      </trkpt>
      <trkpt lat="43.84654" lon="6.30686">
        <ele>1273</ele>
        <time>2020-03-21T15:43:35.294Z</time>
      </trkpt>
      <trkpt lat="43.84672" lon="6.3067">
        <ele>1276</ele>
        <time>2020-03-21T15:43:36.294Z</time>
      </trkpt>
      <trkpt lat="43.84691" lon="6.30645">
        <ele>1277</ele>
        <time>2020-03-21T15:43:37.294Z</time>
      </trkpt>
      <trkpt lat="43.8471" lon="6.30615">
        <ele>1279</ele>
        <time>2020-03-21T15:43:38.294Z</time>
      </trkpt>
      <trkpt lat="43.84722" lon="6.30595">
        <ele>1281</ele>
        <time>2020-03-21T15:43:39.294Z</time>
      </trkpt>
      <trkpt lat="43.84745" lon="6.3057">
        <ele>1283</ele>
        <time>2020-03-21T15:43:40.294Z</time>
      </trkpt>
      <trkpt lat="43.84762" lon="6.30557">
        <ele>1285</ele>
        <time>2020-03-21T15:43:41.294Z</time>
      </trkpt>
      <trkpt lat="43.84777" lon="6.30527">
        <ele>1289</ele>
        <time>2020-03-21T15:43:42.294Z</time>
      </trkpt>
      <trkpt lat="43.84783" lon="6.305">
        <ele>1292</ele>
        <time>2020-03-21T15:43:43.294Z</time>
      </trkpt>
      <trkpt lat="43.84791" lon="6.30474">
        <ele>1291</ele>
        <time>2020-03-21T15:43:44.294Z</time>
      </trkpt>
      <trkpt lat="43.8481" lon="6.30443">
        <ele>1290</ele>
        <time>2020-03-21T15:43:45.294Z</time>
      </trkpt>
      <trkpt lat="43.84823" lon="6.30426">
        <ele>1290</ele>
        <time>2020-03-21T15:43:46.294Z</time>
      </trkpt>
      <trkpt lat="43.84845" lon="6.30397">
        <ele>1291</ele>
        <time>2020-03-21T15:43:47.294Z</time>
      </trkpt>
      <trkpt lat="43.84868" lon="6.30367">
        <ele>1293</ele>
        <time>2020-03-21T15:43:48.294Z</time>
      </trkpt>
      <trkpt lat="43.84884" lon="6.30333">
        <ele>1293</ele>
        <time>2020-03-21T15:43:49.294Z</time>
      </trkpt>
      <trkpt lat="43.84894" lon="6.303">
        <ele>1291</ele>
        <time>2020-03-21T15:43:50.294Z</time>
      </trkpt>
      <trkpt lat="43.84908" lon="6.3026">
        <ele>1290</ele>
        <time>2020-03-21T15:43:51.294Z</time>
      </trkpt>
      <trkpt lat="43.84922" lon="6.30231">
        <ele>1291</ele>
        <time>2020-03-21T15:43:52.294Z</time>
      </trkpt>
      <trkpt lat="43.84941" lon="6.3019">
        <ele>1291</ele>
        <time>2020-03-21T15:43:53.294Z</time>
      </trkpt>
      <trkpt lat="43.84956" lon="6.3015">
        <ele>1291</ele>
        <time>2020-03-21T15:43:54.294Z</time>
      </trkpt>
      <trkpt lat="43.84974" lon="6.301">
        <ele>1292</ele>
        <time>2020-03-21T15:43:55.294Z</time>
      </trkpt>
      <trkpt lat="43.84985" lon="6.30064">
        <ele>1291</ele>
        <time>2020-03-21T15:43:56.294Z</time>
      </trkpt>
      <trkpt lat="43.84999" lon="6.30044">
        <ele>1290</ele>
        <time>2020-03-21T15:43:57.294Z</time>
      </trkpt>
      <trkpt lat="43.85008" lon="6.30036">
        <ele>1289</ele>
        <time>2020-03-21T15:43:58.294Z</time>
      </trkpt>
      <trkpt lat="43.85038" lon="6.30025">
        <ele>1287</ele>
        <time>2020-03-21T15:43:59.294Z</time>
      </trkpt>
      <trkpt lat="43.85071" lon="6.30015">
        <ele>1285</ele>
        <time>2020-03-21T15:44:00.294Z</time>
      </trkpt>
      <trkpt lat="43.85098" lon="6.30015">
        <ele>1285</ele>
        <time>2020-03-21T15:44:01.294Z</time>
      </trkpt>
      <trkpt lat="43.85123" lon="6.30006">
        <ele>1285</ele>
        <time>2020-03-21T15:44:02.294Z</time>
      </trkpt>
      <trkpt lat="43.85133" lon="6.29998">
        <ele>1285</ele>
        <time>2020-03-21T15:44:03.294Z</time>
      </trkpt>
      <trkpt lat="43.85171" lon="6.29978">
        <ele>1286</ele>
        <time>2020-03-21T15:44:04.294Z</time>
      </trkpt>
      <trkpt lat="43.85188" lon="6.2997">
        <ele>1287</ele>
        <time>2020-03-21T15:44:05.294Z</time>
      </trkpt>
      <trkpt lat="43.85209" lon="6.29945">
        <ele>1288</ele>
        <time>2020-03-21T15:44:06.294Z</time>
      </trkpt>
      <trkpt lat="43.85211" lon="6.29917">
        <ele>1286</ele>
        <time>2020-03-21T15:44:07.294Z</time>
      </trkpt>
      <trkpt lat="43.8521" lon="6.29886">
        <ele>1285</ele>
        <time>2020-03-21T15:44:08.294Z</time>
      </trkpt>
      <trkpt lat="43.85206" lon="6.29856">
        <ele>1283</ele>
        <time>2020-03-21T15:44:09.294Z</time>
      </trkpt>
      <trkpt lat="43.85212" lon="6.29829">
        <ele>1282</ele>
        <time>2020-03-21T15:44:10.294Z</time>
      </trkpt>
      <trkpt lat="43.85225" lon="6.29815">
        <ele>1284</ele>
        <time>2020-03-21T15:44:11.294Z</time>
      </trkpt>
      <trkpt lat="43.85265" lon="6.29788">
        <ele>1286</ele>
        <time>2020-03-21T15:44:12.294Z</time>
      </trkpt>
      <trkpt lat="43.8527" lon="6.29785">
        <ele>1286</ele>
        <time>2020-03-21T15:44:13.294Z</time>
      </trkpt>
      <trkpt lat="43.85301" lon="6.29762">
        <ele>1285</ele>
        <time>2020-03-21T15:44:14.294Z</time>
      </trkpt>
      <trkpt lat="43.85326" lon="6.29742">
        <ele>1285</ele>
        <time>2020-03-21T15:44:15.294Z</time>
      </trkpt>
      <trkpt lat="43.85334" lon="6.29727">
        <ele>1287</ele>
        <time>2020-03-21T15:44:16.294Z</time>
      </trkpt>
      <trkpt lat="43.85334" lon="6.29724">
        <ele>1287</ele>
        <time>2020-03-21T15:44:17.294Z</time>
      </trkpt>
      <trkpt lat="43.8534" lon="6.29727">
        <ele>1286</ele>
        <time>2020-03-21T15:44:18.294Z</time>
      </trkpt>
      <trkpt lat="43.8534" lon="6.29723">
        <ele>1286</ele>
        <time>2020-03-21T15:44:19.294Z</time>
      </trkpt>
      <trkpt lat="43.85336" lon="6.2972">
        <ele>1287</ele>
        <time>2020-03-21T15:44:20.294Z</time>
      </trkpt>
      <trkpt lat="43.85329" lon="6.29713">
        <ele>1288</ele>
        <time>2020-03-21T15:44:21.294Z</time>
      </trkpt>
      <trkpt lat="43.85321" lon="6.29708">
        <ele>1288</ele>
        <time>2020-03-21T15:44:22.294Z</time>
      </trkpt>
      <trkpt lat="43.85319" lon="6.29705">
        <ele>1288</ele>
        <time>2020-03-21T15:44:23.294Z</time>
      </trkpt>
      <trkpt lat="43.85323" lon="6.29693">
        <ele>1289</ele>
        <time>2020-03-21T15:44:24.294Z</time>
      </trkpt>
      <trkpt lat="43.85332" lon="6.29684">
        <ele>1290</ele>
        <time>2020-03-21T15:44:25.294Z</time>
      </trkpt>
      <trkpt lat="43.85336" lon="6.29673">
        <ele>1290</ele>
        <time>2020-03-21T15:44:26.294Z</time>
      </trkpt>
      <trkpt lat="43.85333" lon="6.2966">
        <ele>1292</ele>
        <time>2020-03-21T15:44:27.294Z</time>
      </trkpt>
      <trkpt lat="43.85331" lon="6.29657">
        <ele>1292</ele>
        <time>2020-03-21T15:44:28.294Z</time>
      </trkpt>
      <trkpt lat="43.85328" lon="6.29646">
        <ele>1293</ele>
        <time>2020-03-21T15:44:29.294Z</time>
      </trkpt>
      <trkpt lat="43.85328" lon="6.29643">
        <ele>1294</ele>
        <time>2020-03-21T15:44:30.294Z</time>
      </trkpt>
      <trkpt lat="43.85329" lon="6.29641">
        <ele>1294</ele>
        <time>2020-03-21T15:44:31.294Z</time>
      </trkpt>
      <trkpt lat="43.85331" lon="6.29633">
        <ele>1295</ele>
        <time>2020-03-21T15:44:32.294Z</time>
      </trkpt>
      <trkpt lat="43.85334" lon="6.29623">
        <ele>1296</ele>
        <time>2020-03-21T15:44:33.294Z</time>
      </trkpt>
      <trkpt lat="43.85339" lon="6.29616">
        <ele>1297</ele>
        <time>2020-03-21T15:44:34.294Z</time>
      </trkpt>
      <trkpt lat="43.85342" lon="6.29607">
        <ele>1298</ele>
        <time>2020-03-21T15:44:35.294Z</time>
      </trkpt>
      <trkpt lat="43.85344" lon="6.29602">
        <ele>1299</ele>
        <time>2020-03-21T15:44:36.294Z</time>
      </trkpt>
      <trkpt lat="43.85347" lon="6.296">
        <ele>1299</ele>
        <time>2020-03-21T15:44:37.294Z</time>
      </trkpt>
      <trkpt lat="43.8535" lon="6.29594">
        <ele>1300</ele>
        <time>2020-03-21T15:44:38.294Z</time>
      </trkpt>
      <trkpt lat="43.85358" lon="6.29579">
        <ele>1303</ele>
        <time>2020-03-21T15:44:39.294Z</time>
      </trkpt>
      <trkpt lat="43.85361" lon="6.29565">
        <ele>1305</ele>
        <time>2020-03-21T15:44:40.294Z</time>
      </trkpt>
      <trkpt lat="43.85364" lon="6.29552">
        <ele>1307</ele>
        <time>2020-03-21T15:44:41.294Z</time>
      </trkpt>
      <trkpt lat="43.85369" lon="6.29532">
        <ele>1310</ele>
        <time>2020-03-21T15:44:42.294Z</time>
      </trkpt>
      <trkpt lat="43.85375" lon="6.29518">
        <ele>1313</ele>
        <time>2020-03-21T15:44:43.294Z</time>
      </trkpt>
      <trkpt lat="43.85379" lon="6.29506">
        <ele>1315</ele>
        <time>2020-03-21T15:44:44.294Z</time>
      </trkpt>
      <trkpt lat="43.85383" lon="6.29497">
        <ele>1316</ele>
        <time>2020-03-21T15:44:45.294Z</time>
      </trkpt>
      <trkpt lat="43.85386" lon="6.29483">
        <ele>1319</ele>
        <time>2020-03-21T15:44:46.294Z</time>
      </trkpt>
      <trkpt lat="43.85388" lon="6.29475">
        <ele>1320</ele>
        <time>2020-03-21T15:44:47.294Z</time>
      </trkpt>
      <trkpt lat="43.85391" lon="6.29465">
        <ele>1321</ele>
        <time>2020-03-21T15:44:48.294Z</time>
      </trkpt>
      <trkpt lat="43.854" lon="6.2946">
        <ele>1322</ele>
        <time>2020-03-21T15:44:49.294Z</time>
      </trkpt>
      <trkpt lat="43.8541" lon="6.29457">
        <ele>1322</ele>
        <time>2020-03-21T15:44:50.294Z</time>
      </trkpt>
      <trkpt lat="43.85415" lon="6.2945">
        <ele>1323</ele>
        <time>2020-03-21T15:44:51.294Z</time>
      </trkpt>
      <trkpt lat="43.85424" lon="6.2944">
        <ele>1324</ele>
        <time>2020-03-21T15:44:52.294Z</time>
      </trkpt>
      <trkpt lat="43.85434" lon="6.2944">
        <ele>1325</ele>
        <time>2020-03-21T15:44:53.294Z</time>
      </trkpt>
      <trkpt lat="43.85442" lon="6.29439">
        <ele>1326</ele>
        <time>2020-03-21T15:44:54.294Z</time>
      </trkpt>
      <trkpt lat="43.85451" lon="6.29435">
        <ele>1327</ele>
        <time>2020-03-21T15:44:55.294Z</time>
      </trkpt>
      <trkpt lat="43.85457" lon="6.29428">
        <ele>1328</ele>
        <time>2020-03-21T15:44:56.294Z</time>
      </trkpt>
      <trkpt lat="43.85464" lon="6.2942">
        <ele>1330</ele>
        <time>2020-03-21T15:44:57.294Z</time>
      </trkpt>
      <trkpt lat="43.8547" lon="6.29409">
        <ele>1331</ele>
        <time>2020-03-21T15:44:58.294Z</time>
      </trkpt>
      <trkpt lat="43.85471" lon="6.29404">
        <ele>1332</ele>
        <time>2020-03-21T15:44:59.294Z</time>
      </trkpt>
      <trkpt lat="43.85474" lon="6.29398">
        <ele>1333</ele>
        <time>2020-03-21T15:45:00.294Z</time>
      </trkpt>
      <trkpt lat="43.85481" lon="6.29394">
        <ele>1334</ele>
        <time>2020-03-21T15:45:01.294Z</time>
      </trkpt>
      <trkpt lat="43.85488" lon="6.29387">
        <ele>1335</ele>
        <time>2020-03-21T15:45:02.294Z</time>
      </trkpt>
      <trkpt lat="43.85493" lon="6.29378">
        <ele>1336</ele>
        <time>2020-03-21T15:45:03.294Z</time>
      </trkpt>
      <trkpt lat="43.85501" lon="6.29368">
        <ele>1337</ele>
        <time>2020-03-21T15:45:04.294Z</time>
      </trkpt>
      <trkpt lat="43.85505" lon="6.29359">
        <ele>1338</ele>
        <time>2020-03-21T15:45:05.294Z</time>
      </trkpt>
      <trkpt lat="43.85512" lon="6.29341">
        <ele>1340</ele>
        <time>2020-03-21T15:45:06.294Z</time>
      </trkpt>
      <trkpt lat="43.85515" lon="6.29329">
        <ele>1341</ele>
        <time>2020-03-21T15:45:07.294Z</time>
      </trkpt>
      <trkpt lat="43.85513" lon="6.29315">
        <ele>1343</ele>
        <time>2020-03-21T15:45:08.294Z</time>
      </trkpt>
      <trkpt lat="43.85512" lon="6.29297">
        <ele>1345</ele>
        <time>2020-03-21T15:45:09.294Z</time>
      </trkpt>
      <trkpt lat="43.85511" lon="6.29286">
        <ele>1346</ele>
        <time>2020-03-21T15:45:10.294Z</time>
      </trkpt>
      <trkpt lat="43.85514" lon="6.29274">
        <ele>1347</ele>
        <time>2020-03-21T15:45:11.294Z</time>
      </trkpt>
      <trkpt lat="43.85526" lon="6.2926">
        <ele>1349</ele>
        <time>2020-03-21T15:45:12.294Z</time>
      </trkpt>
      <trkpt lat="43.85536" lon="6.29244">
        <ele>1350</ele>
        <time>2020-03-21T15:45:13.294Z</time>
      </trkpt>
      <trkpt lat="43.85547" lon="6.29222">
        <ele>1351</ele>
        <time>2020-03-21T15:45:14.294Z</time>
      </trkpt>
      <trkpt lat="43.85559" lon="6.29203">
        <ele>1351</ele>
        <time>2020-03-21T15:45:15.294Z</time>
      </trkpt>
      <trkpt lat="43.85567" lon="6.29188">
        <ele>1351</ele>
        <time>2020-03-21T15:45:16.294Z</time>
      </trkpt>
      <trkpt lat="43.85578" lon="6.29167">
        <ele>1352</ele>
        <time>2020-03-21T15:45:17.294Z</time>
      </trkpt>
      <trkpt lat="43.85588" lon="6.29151">
        <ele>1352</ele>
        <time>2020-03-21T15:45:18.294Z</time>
      </trkpt>
      <trkpt lat="43.85597" lon="6.29142">
        <ele>1351</ele>
        <time>2020-03-21T15:45:19.294Z</time>
      </trkpt>
      <trkpt lat="43.856" lon="6.29141">
        <ele>1351</ele>
        <time>2020-03-21T15:45:20.294Z</time>
      </trkpt>
      <trkpt lat="43.85615" lon="6.29127">
        <ele>1350</ele>
        <time>2020-03-21T15:45:21.294Z</time>
      </trkpt>
      <trkpt lat="43.85643" lon="6.29093">
        <ele>1346</ele>
        <time>2020-03-21T15:45:22.294Z</time>
      </trkpt>
      <trkpt lat="43.85656" lon="6.29077">
        <ele>1345</ele>
        <time>2020-03-21T15:45:23.294Z</time>
      </trkpt>
      <trkpt lat="43.85656" lon="6.29073">
        <ele>1345</ele>
        <time>2020-03-21T15:45:24.294Z</time>
      </trkpt>
      <trkpt lat="43.8566" lon="6.29041">
        <ele>1346</ele>
        <time>2020-03-21T15:45:25.294Z</time>
      </trkpt>
      <trkpt lat="43.85657" lon="6.29025">
        <ele>1347</ele>
        <time>2020-03-21T15:45:26.294Z</time>
      </trkpt>
      <trkpt lat="43.85645" lon="6.29006">
        <ele>1348</ele>
        <time>2020-03-21T15:45:27.294Z</time>
      </trkpt>
      <trkpt lat="43.8564" lon="6.28989">
        <ele>1349</ele>
        <time>2020-03-21T15:45:28.294Z</time>
      </trkpt>
      <trkpt lat="43.85639" lon="6.28988">
        <ele>1349</ele>
        <time>2020-03-21T15:45:29.294Z</time>
      </trkpt>
      <trkpt lat="43.85637" lon="6.28981">
        <ele>1349</ele>
        <time>2020-03-21T15:45:30.294Z</time>
      </trkpt>
      <trkpt lat="43.85632" lon="6.28967">
        <ele>1350</ele>
        <time>2020-03-21T15:45:31.294Z</time>
      </trkpt>
      <trkpt lat="43.85623" lon="6.28953">
        <ele>1350</ele>
        <time>2020-03-21T15:45:32.294Z</time>
      </trkpt>
      <trkpt lat="43.85602" lon="6.2894">
        <ele>1349</ele>
        <time>2020-03-21T15:45:33.294Z</time>
      </trkpt>
      <trkpt lat="43.85579" lon="6.28926">
        <ele>1348</ele>
        <time>2020-03-21T15:45:34.294Z</time>
      </trkpt>
      <trkpt lat="43.85555" lon="6.28913">
        <ele>1348</ele>
        <time>2020-03-21T15:45:35.294Z</time>
      </trkpt>
      <trkpt lat="43.85538" lon="6.28901">
        <ele>1350</ele>
        <time>2020-03-21T15:45:36.294Z</time>
      </trkpt>
      <trkpt lat="43.85525" lon="6.28898">
        <ele>1351</ele>
        <time>2020-03-21T15:45:37.294Z</time>
      </trkpt>
      <trkpt lat="43.85513" lon="6.28897">
        <ele>1351</ele>
        <time>2020-03-21T15:45:38.294Z</time>
      </trkpt>
      <trkpt lat="43.85504" lon="6.28893">
        <ele>1352</ele>
        <time>2020-03-21T15:45:39.294Z</time>
      </trkpt>
      <trkpt lat="43.85492" lon="6.28888">
        <ele>1354</ele>
        <time>2020-03-21T15:45:40.294Z</time>
      </trkpt>
      <trkpt lat="43.85484" lon="6.28885">
        <ele>1355</ele>
        <time>2020-03-21T15:45:41.294Z</time>
      </trkpt>
      <trkpt lat="43.85474" lon="6.28882">
        <ele>1357</ele>
        <time>2020-03-21T15:45:42.294Z</time>
      </trkpt>
      <trkpt lat="43.85463" lon="6.2888">
        <ele>1359</ele>
        <time>2020-03-21T15:45:43.294Z</time>
      </trkpt>
      <trkpt lat="43.85454" lon="6.28877">
        <ele>1361</ele>
        <time>2020-03-21T15:45:44.294Z</time>
      </trkpt>
      <trkpt lat="43.85445" lon="6.28876">
        <ele>1362</ele>
        <time>2020-03-21T15:45:45.294Z</time>
      </trkpt>
      <trkpt lat="43.85434" lon="6.28878">
        <ele>1363</ele>
        <time>2020-03-21T15:45:46.294Z</time>
      </trkpt>
      <trkpt lat="43.85425" lon="6.28879">
        <ele>1364</ele>
        <time>2020-03-21T15:45:47.294Z</time>
      </trkpt>
      <trkpt lat="43.85418" lon="6.2888">
        <ele>1364</ele>
        <time>2020-03-21T15:45:48.294Z</time>
      </trkpt>
      <trkpt lat="43.85404" lon="6.2888">
        <ele>1367</ele>
        <time>2020-03-21T15:45:49.294Z</time>
      </trkpt>
      <trkpt lat="43.85395" lon="6.28879">
        <ele>1370</ele>
        <time>2020-03-21T15:45:50.294Z</time>
      </trkpt>
      <trkpt lat="43.85383" lon="6.28878">
        <ele>1372</ele>
        <time>2020-03-21T15:45:51.294Z</time>
      </trkpt>
      <trkpt lat="43.85376" lon="6.2888">
        <ele>1373</ele>
        <time>2020-03-21T15:45:52.294Z</time>
      </trkpt>
      <trkpt lat="43.85364" lon="6.28881">
        <ele>1376</ele>
        <time>2020-03-21T15:45:53.294Z</time>
      </trkpt>
      <trkpt lat="43.85352" lon="6.28885">
        <ele>1377</ele>
        <time>2020-03-21T15:45:54.294Z</time>
      </trkpt>
      <trkpt lat="43.85342" lon="6.28887">
        <ele>1378</ele>
        <time>2020-03-21T15:45:55.294Z</time>
      </trkpt>
      <trkpt lat="43.85335" lon="6.28888">
        <ele>1379</ele>
        <time>2020-03-21T15:45:56.294Z</time>
      </trkpt>
      <trkpt lat="43.85332" lon="6.2889">
        <ele>1379</ele>
        <time>2020-03-21T15:45:57.294Z</time>
      </trkpt>
      <trkpt lat="43.85325" lon="6.28891">
        <ele>1381</ele>
        <time>2020-03-21T15:45:58.294Z</time>
      </trkpt>
      <trkpt lat="43.85323" lon="6.28891">
        <ele>1381</ele>
        <time>2020-03-21T15:45:59.294Z</time>
      </trkpt>
      <trkpt lat="43.85318" lon="6.28893">
        <ele>1382</ele>
        <time>2020-03-21T15:46:00.294Z</time>
      </trkpt>
      <trkpt lat="43.85311" lon="6.28893">
        <ele>1384</ele>
        <time>2020-03-21T15:46:01.294Z</time>
      </trkpt>
      <trkpt lat="43.85304" lon="6.28893">
        <ele>1386</ele>
        <time>2020-03-21T15:46:02.294Z</time>
      </trkpt>
      <trkpt lat="43.85299" lon="6.28895">
        <ele>1387</ele>
        <time>2020-03-21T15:46:03.294Z</time>
      </trkpt>
      <trkpt lat="43.85294" lon="6.28897">
        <ele>1387</ele>
        <time>2020-03-21T15:46:04.294Z</time>
      </trkpt>
      <trkpt lat="43.85289" lon="6.28898">
        <ele>1388</ele>
        <time>2020-03-21T15:46:05.294Z</time>
      </trkpt>
      <trkpt lat="43.85282" lon="6.28901">
        <ele>1389</ele>
        <time>2020-03-21T15:46:06.294Z</time>
      </trkpt>
      <trkpt lat="43.85276" lon="6.28903">
        <ele>1390</ele>
        <time>2020-03-21T15:46:07.294Z</time>
      </trkpt>
      <trkpt lat="43.85272" lon="6.28904">
        <ele>1391</ele>
        <time>2020-03-21T15:46:08.294Z</time>
      </trkpt>
      <trkpt lat="43.85265" lon="6.2891">
        <ele>1391</ele>
        <time>2020-03-21T15:46:09.294Z</time>
      </trkpt>
      <trkpt lat="43.85262" lon="6.28911">
        <ele>1391</ele>
        <time>2020-03-21T15:46:10.294Z</time>
      </trkpt>
      <trkpt lat="43.85258" lon="6.28913">
        <ele>1392</ele>
        <time>2020-03-21T15:46:11.294Z</time>
      </trkpt>
      <trkpt lat="43.85252" lon="6.28915">
        <ele>1393</ele>
        <time>2020-03-21T15:46:12.294Z</time>
      </trkpt>
      <trkpt lat="43.85241" lon="6.28919">
        <ele>1395</ele>
        <time>2020-03-21T15:46:13.294Z</time>
      </trkpt>
      <trkpt lat="43.85231" lon="6.28925">
        <ele>1397</ele>
        <time>2020-03-21T15:46:14.294Z</time>
      </trkpt>
      <trkpt lat="43.85223" lon="6.2893">
        <ele>1398</ele>
        <time>2020-03-21T15:46:15.294Z</time>
      </trkpt>
      <trkpt lat="43.85215" lon="6.28935">
        <ele>1398</ele>
        <time>2020-03-21T15:46:16.294Z</time>
      </trkpt>
      <trkpt lat="43.85203" lon="6.28942">
        <ele>1400</ele>
        <time>2020-03-21T15:46:17.294Z</time>
      </trkpt>
      <trkpt lat="43.85191" lon="6.28951">
        <ele>1400</ele>
        <time>2020-03-21T15:46:18.294Z</time>
      </trkpt>
      <trkpt lat="43.85181" lon="6.2896">
        <ele>1400</ele>
        <time>2020-03-21T15:46:19.294Z</time>
      </trkpt>
      <trkpt lat="43.85173" lon="6.28967">
        <ele>1400</ele>
        <time>2020-03-21T15:46:20.294Z</time>
      </trkpt>
      <trkpt lat="43.85164" lon="6.28974">
        <ele>1400</ele>
        <time>2020-03-21T15:46:21.294Z</time>
      </trkpt>
      <trkpt lat="43.85153" lon="6.28979">
        <ele>1401</ele>
        <time>2020-03-21T15:46:22.294Z</time>
      </trkpt>
      <trkpt lat="43.85143" lon="6.28982">
        <ele>1403</ele>
        <time>2020-03-21T15:46:23.294Z</time>
      </trkpt>
      <trkpt lat="43.85133" lon="6.28984">
        <ele>1404</ele>
        <time>2020-03-21T15:46:24.294Z</time>
      </trkpt>
      <trkpt lat="43.85124" lon="6.28985">
        <ele>1407</ele>
        <time>2020-03-21T15:46:25.294Z</time>
      </trkpt>
      <trkpt lat="43.85112" lon="6.28991">
        <ele>1408</ele>
        <time>2020-03-21T15:46:26.294Z</time>
      </trkpt>
      <trkpt lat="43.85101" lon="6.28996">
        <ele>1409</ele>
        <time>2020-03-21T15:46:27.294Z</time>
      </trkpt>
      <trkpt lat="43.85094" lon="6.28997">
        <ele>1410</ele>
        <time>2020-03-21T15:46:28.294Z</time>
      </trkpt>
      <trkpt lat="43.85083" lon="6.29">
        <ele>1412</ele>
        <time>2020-03-21T15:46:29.294Z</time>
      </trkpt>
      <trkpt lat="43.85068" lon="6.29002">
        <ele>1412</ele>
        <time>2020-03-21T15:46:30.294Z</time>
      </trkpt>
      <trkpt lat="43.85054" lon="6.29004">
        <ele>1413</ele>
        <time>2020-03-21T15:46:31.294Z</time>
      </trkpt>
      <trkpt lat="43.85042" lon="6.29001">
        <ele>1415</ele>
        <time>2020-03-21T15:46:32.294Z</time>
      </trkpt>
      <trkpt lat="43.85039" lon="6.29">
        <ele>1416</ele>
        <time>2020-03-21T15:46:33.294Z</time>
      </trkpt>
      <trkpt lat="43.85029" lon="6.29">
        <ele>1417</ele>
        <time>2020-03-21T15:46:34.294Z</time>
      </trkpt>
      <trkpt lat="43.85028" lon="6.28999">
        <ele>1417</ele>
        <time>2020-03-21T15:46:35.294Z</time>
      </trkpt>
      <trkpt lat="43.85024" lon="6.28998">
        <ele>1418</ele>
        <time>2020-03-21T15:46:36.294Z</time>
      </trkpt>
      <trkpt lat="43.85022" lon="6.28997">
        <ele>1418</ele>
        <time>2020-03-21T15:46:37.294Z</time>
      </trkpt>
      <trkpt lat="43.85015" lon="6.28997">
        <ele>1419</ele>
        <time>2020-03-21T15:46:38.294Z</time>
      </trkpt>
      <trkpt lat="43.85004" lon="6.28994">
        <ele>1421</ele>
        <time>2020-03-21T15:46:39.294Z</time>
      </trkpt>
      <trkpt lat="43.84992" lon="6.28992">
        <ele>1423</ele>
        <time>2020-03-21T15:46:40.294Z</time>
      </trkpt>
      <trkpt lat="43.84985" lon="6.28988">
        <ele>1425</ele>
        <time>2020-03-21T15:46:41.294Z</time>
      </trkpt>
      <trkpt lat="43.84972" lon="6.28983">
        <ele>1428</ele>
        <time>2020-03-21T15:46:42.294Z</time>
      </trkpt>
      <trkpt lat="43.84958" lon="6.28981">
        <ele>1430</ele>
        <time>2020-03-21T15:46:43.294Z</time>
      </trkpt>
      <trkpt lat="43.84946" lon="6.2898">
        <ele>1432</ele>
        <time>2020-03-21T15:46:44.294Z</time>
      </trkpt>
      <trkpt lat="43.84937" lon="6.28982">
        <ele>1432</ele>
        <time>2020-03-21T15:46:45.294Z</time>
      </trkpt>
      <trkpt lat="43.84926" lon="6.28985">
        <ele>1433</ele>
        <time>2020-03-21T15:46:46.294Z</time>
      </trkpt>
      <trkpt lat="43.84917" lon="6.28987">
        <ele>1433</ele>
        <time>2020-03-21T15:46:47.294Z</time>
      </trkpt>
      <trkpt lat="43.8491" lon="6.28987">
        <ele>1434</ele>
        <time>2020-03-21T15:46:48.294Z</time>
      </trkpt>
      <trkpt lat="43.84902" lon="6.28989">
        <ele>1435</ele>
        <time>2020-03-21T15:46:49.294Z</time>
      </trkpt>
      <trkpt lat="43.84893" lon="6.28992">
        <ele>1437</ele>
        <time>2020-03-21T15:46:50.294Z</time>
      </trkpt>
      <trkpt lat="43.84879" lon="6.28998">
        <ele>1438</ele>
        <time>2020-03-21T15:46:51.294Z</time>
      </trkpt>
      <trkpt lat="43.84864" lon="6.29007">
        <ele>1438</ele>
        <time>2020-03-21T15:46:52.294Z</time>
      </trkpt>
      <trkpt lat="43.84852" lon="6.29014">
        <ele>1439</ele>
        <time>2020-03-21T15:46:53.294Z</time>
      </trkpt>
      <trkpt lat="43.84841" lon="6.29022">
        <ele>1440</ele>
        <time>2020-03-21T15:46:54.294Z</time>
      </trkpt>
      <trkpt lat="43.84835" lon="6.2903">
        <ele>1440</ele>
        <time>2020-03-21T15:46:55.294Z</time>
      </trkpt>
      <trkpt lat="43.84827" lon="6.29037">
        <ele>1439</ele>
        <time>2020-03-21T15:46:56.294Z</time>
      </trkpt>
      <trkpt lat="43.84815" lon="6.29047">
        <ele>1438</ele>
        <time>2020-03-21T15:46:57.294Z</time>
      </trkpt>
      <trkpt lat="43.84807" lon="6.29049">
        <ele>1439</ele>
        <time>2020-03-21T15:46:58.294Z</time>
      </trkpt>
      <trkpt lat="43.84796" lon="6.29048">
        <ele>1440</ele>
        <time>2020-03-21T15:46:59.294Z</time>
      </trkpt>
      <trkpt lat="43.84791" lon="6.29047">
        <ele>1441</ele>
        <time>2020-03-21T15:47:00.294Z</time>
      </trkpt>
      <trkpt lat="43.8478" lon="6.29043">
        <ele>1443</ele>
        <time>2020-03-21T15:47:01.294Z</time>
      </trkpt>
      <trkpt lat="43.84771" lon="6.29035">
        <ele>1446</ele>
        <time>2020-03-21T15:47:02.294Z</time>
      </trkpt>
      <trkpt lat="43.84764" lon="6.2903">
        <ele>1448</ele>
        <time>2020-03-21T15:47:03.294Z</time>
      </trkpt>
      <trkpt lat="43.84761" lon="6.29021">
        <ele>1450</ele>
        <time>2020-03-21T15:47:04.294Z</time>
      </trkpt>
      <trkpt lat="43.84754" lon="6.29012">
        <ele>1453</ele>
        <time>2020-03-21T15:47:05.294Z</time>
      </trkpt>
      <trkpt lat="43.84749" lon="6.29005">
        <ele>1455</ele>
        <time>2020-03-21T15:47:06.294Z</time>
      </trkpt>
      <trkpt lat="43.84746" lon="6.29001">
        <ele>1456</ele>
        <time>2020-03-21T15:47:07.294Z</time>
      </trkpt>
      <trkpt lat="43.84742" lon="6.28987">
        <ele>1458</ele>
        <time>2020-03-21T15:47:08.294Z</time>
      </trkpt>
      <trkpt lat="43.84738" lon="6.28977">
        <ele>1460</ele>
        <time>2020-03-21T15:47:09.294Z</time>
      </trkpt>
      <trkpt lat="43.84731" lon="6.28962">
        <ele>1462</ele>
        <time>2020-03-21T15:47:10.294Z</time>
      </trkpt>
      <trkpt lat="43.84722" lon="6.28954">
        <ele>1464</ele>
        <time>2020-03-21T15:47:11.294Z</time>
      </trkpt>
      <trkpt lat="43.84717" lon="6.28945">
        <ele>1466</ele>
        <time>2020-03-21T15:47:12.294Z</time>
      </trkpt>
      <trkpt lat="43.84711" lon="6.28935">
        <ele>1468</ele>
        <time>2020-03-21T15:47:13.294Z</time>
      </trkpt>
      <trkpt lat="43.8471" lon="6.28935">
        <ele>1468</ele>
        <time>2020-03-21T15:47:14.294Z</time>
      </trkpt>
      <trkpt lat="43.84709" lon="6.2893">
        <ele>1469</ele>
        <time>2020-03-21T15:47:15.294Z</time>
      </trkpt>
      <trkpt lat="43.84717" lon="6.28925">
        <ele>1469</ele>
        <time>2020-03-21T15:47:16.294Z</time>
      </trkpt>
      <trkpt lat="43.84717" lon="6.28919">
        <ele>1470</ele>
        <time>2020-03-21T15:47:17.294Z</time>
      </trkpt>
      <trkpt lat="43.84717" lon="6.28905">
        <ele>1473</ele>
        <time>2020-03-21T15:47:18.294Z</time>
      </trkpt>
      <trkpt lat="43.84716" lon="6.28891">
        <ele>1476</ele>
        <time>2020-03-21T15:47:19.294Z</time>
      </trkpt>
      <trkpt lat="43.84717" lon="6.28882">
        <ele>1477</ele>
        <time>2020-03-21T15:47:20.294Z</time>
      </trkpt>
      <trkpt lat="43.84714" lon="6.28877">
        <ele>1478</ele>
        <time>2020-03-21T15:47:21.294Z</time>
      </trkpt>
      <trkpt lat="43.84708" lon="6.28863">
        <ele>1481</ele>
        <time>2020-03-21T15:47:22.294Z</time>
      </trkpt>
      <trkpt lat="43.84707" lon="6.28862">
        <ele>1481</ele>
        <time>2020-03-21T15:47:23.294Z</time>
      </trkpt>
      <trkpt lat="43.84698" lon="6.28857">
        <ele>1483</ele>
        <time>2020-03-21T15:47:24.294Z</time>
      </trkpt>
      <trkpt lat="43.84696" lon="6.28857">
        <ele>1483</ele>
        <time>2020-03-21T15:47:25.294Z</time>
      </trkpt>
      <trkpt lat="43.84695" lon="6.28858">
        <ele>1482</ele>
        <time>2020-03-21T15:47:26.294Z</time>
      </trkpt>
      <trkpt lat="43.84694" lon="6.2886">
        <ele>1482</ele>
        <time>2020-03-21T15:47:27.294Z</time>
      </trkpt>
      <trkpt lat="43.8469" lon="6.28857">
        <ele>1483</ele>
        <time>2020-03-21T15:47:28.294Z</time>
      </trkpt>
      <trkpt lat="43.84694" lon="6.28848">
        <ele>1484</ele>
        <time>2020-03-21T15:47:29.294Z</time>
      </trkpt>
      <trkpt lat="43.84697" lon="6.28833">
        <ele>1487</ele>
        <time>2020-03-21T15:47:30.294Z</time>
      </trkpt>
      <trkpt lat="43.84698" lon="6.28831">
        <ele>1487</ele>
        <time>2020-03-21T15:47:31.294Z</time>
      </trkpt>
      <trkpt lat="43.84701" lon="6.28812">
        <ele>1490</ele>
        <time>2020-03-21T15:47:32.294Z</time>
      </trkpt>
      <trkpt lat="43.84705" lon="6.288">
        <ele>1491</ele>
        <time>2020-03-21T15:47:33.294Z</time>
      </trkpt>
      <trkpt lat="43.84711" lon="6.28787">
        <ele>1493</ele>
        <time>2020-03-21T15:47:34.294Z</time>
      </trkpt>
      <trkpt lat="43.8472" lon="6.2878">
        <ele>1493</ele>
        <time>2020-03-21T15:47:35.294Z</time>
      </trkpt>
      <trkpt lat="43.84727" lon="6.28772">
        <ele>1494</ele>
        <time>2020-03-21T15:47:36.294Z</time>
      </trkpt>
      <trkpt lat="43.84735" lon="6.28763">
        <ele>1494</ele>
        <time>2020-03-21T15:47:37.294Z</time>
      </trkpt>
      <trkpt lat="43.84743" lon="6.28755">
        <ele>1495</ele>
        <time>2020-03-21T15:47:38.294Z</time>
      </trkpt>
      <trkpt lat="43.84749" lon="6.28748">
        <ele>1495</ele>
        <time>2020-03-21T15:47:39.294Z</time>
      </trkpt>
      <trkpt lat="43.84759" lon="6.28738">
        <ele>1497</ele>
        <time>2020-03-21T15:47:40.294Z</time>
      </trkpt>
      <trkpt lat="43.84767" lon="6.28729">
        <ele>1499</ele>
        <time>2020-03-21T15:47:41.294Z</time>
      </trkpt>
      <trkpt lat="43.84773" lon="6.2872">
        <ele>1501</ele>
        <time>2020-03-21T15:47:42.294Z</time>
      </trkpt>
      <trkpt lat="43.8478" lon="6.28711">
        <ele>1502</ele>
        <time>2020-03-21T15:47:43.294Z</time>
      </trkpt>
      <trkpt lat="43.84785" lon="6.28706">
        <ele>1503</ele>
        <time>2020-03-21T15:47:44.294Z</time>
      </trkpt>
      <trkpt lat="43.84793" lon="6.28696">
        <ele>1505</ele>
        <time>2020-03-21T15:47:45.294Z</time>
      </trkpt>
      <trkpt lat="43.84798" lon="6.28686">
        <ele>1506</ele>
        <time>2020-03-21T15:47:46.294Z</time>
      </trkpt>
      <trkpt lat="43.84807" lon="6.28678">
        <ele>1507</ele>
        <time>2020-03-21T15:47:47.294Z</time>
      </trkpt>
      <trkpt lat="43.84815" lon="6.28669">
        <ele>1508</ele>
        <time>2020-03-21T15:47:48.294Z</time>
      </trkpt>
      <trkpt lat="43.84822" lon="6.2866">
        <ele>1510</ele>
        <time>2020-03-21T15:47:49.294Z</time>
      </trkpt>
      <trkpt lat="43.84829" lon="6.28653">
        <ele>1511</ele>
        <time>2020-03-21T15:47:50.294Z</time>
      </trkpt>
      <trkpt lat="43.84835" lon="6.28644">
        <ele>1513</ele>
        <time>2020-03-21T15:47:51.294Z</time>
      </trkpt>
      <trkpt lat="43.84835" lon="6.28643">
        <ele>1513</ele>
        <time>2020-03-21T15:47:52.294Z</time>
      </trkpt>
      <trkpt lat="43.84837" lon="6.28635">
        <ele>1514</ele>
        <time>2020-03-21T15:47:53.294Z</time>
      </trkpt>
      <trkpt lat="43.84843" lon="6.28631">
        <ele>1515</ele>
        <time>2020-03-21T15:47:54.294Z</time>
      </trkpt>
      <trkpt lat="43.84857" lon="6.28624">
        <ele>1515</ele>
        <time>2020-03-21T15:47:55.294Z</time>
      </trkpt>
      <trkpt lat="43.8487" lon="6.28616">
        <ele>1516</ele>
        <time>2020-03-21T15:47:56.294Z</time>
      </trkpt>
      <trkpt lat="43.84886" lon="6.28602">
        <ele>1517</ele>
        <time>2020-03-21T15:47:57.294Z</time>
      </trkpt>
      <trkpt lat="43.849" lon="6.28581">
        <ele>1519</ele>
        <time>2020-03-21T15:47:58.294Z</time>
      </trkpt>
      <trkpt lat="43.84912" lon="6.2856">
        <ele>1522</ele>
        <time>2020-03-21T15:47:59.294Z</time>
      </trkpt>
      <trkpt lat="43.84927" lon="6.28547">
        <ele>1524</ele>
        <time>2020-03-21T15:48:00.294Z</time>
      </trkpt>
      <trkpt lat="43.84938" lon="6.28538">
        <ele>1525</ele>
        <time>2020-03-21T15:48:01.294Z</time>
      </trkpt>
      <trkpt lat="43.8495" lon="6.28523">
        <ele>1527</ele>
        <time>2020-03-21T15:48:02.294Z</time>
      </trkpt>
      <trkpt lat="43.84965" lon="6.285">
        <ele>1529</ele>
        <time>2020-03-21T15:48:03.294Z</time>
      </trkpt>
      <trkpt lat="43.84979" lon="6.2847">
        <ele>1531</ele>
        <time>2020-03-21T15:48:04.294Z</time>
      </trkpt>
      <trkpt lat="43.84988" lon="6.28444">
        <ele>1533</ele>
        <time>2020-03-21T15:48:05.294Z</time>
      </trkpt>
      <trkpt lat="43.85002" lon="6.28432">
        <ele>1532</ele>
        <time>2020-03-21T15:48:06.294Z</time>
      </trkpt>
      <trkpt lat="43.85019" lon="6.28416">
        <ele>1533</ele>
        <time>2020-03-21T15:48:07.294Z</time>
      </trkpt>
      <trkpt lat="43.85035" lon="6.28388">
        <ele>1536</ele>
        <time>2020-03-21T15:48:08.294Z</time>
      </trkpt>
      <trkpt lat="43.85054" lon="6.28363">
        <ele>1537</ele>
        <time>2020-03-21T15:48:09.294Z</time>
      </trkpt>
      <trkpt lat="43.85063" lon="6.2835">
        <ele>1538</ele>
        <time>2020-03-21T15:48:10.294Z</time>
      </trkpt>
      <trkpt lat="43.85072" lon="6.28343">
        <ele>1538</ele>
        <time>2020-03-21T15:48:11.294Z</time>
      </trkpt>
      <trkpt lat="43.85088" lon="6.2833">
        <ele>1537</ele>
        <time>2020-03-21T15:48:12.294Z</time>
      </trkpt>
      <trkpt lat="43.85098" lon="6.28322">
        <ele>1539</ele>
        <time>2020-03-21T15:48:13.294Z</time>
      </trkpt>
      <trkpt lat="43.85118" lon="6.28309">
        <ele>1539</ele>
        <time>2020-03-21T15:48:14.294Z</time>
      </trkpt>
      <trkpt lat="43.85137" lon="6.28303">
        <ele>1539</ele>
        <time>2020-03-21T15:48:15.294Z</time>
      </trkpt>
      <trkpt lat="43.85155" lon="6.28295">
        <ele>1539</ele>
        <time>2020-03-21T15:48:16.294Z</time>
      </trkpt>
      <trkpt lat="43.85167" lon="6.28276">
        <ele>1539</ele>
        <time>2020-03-21T15:48:17.294Z</time>
      </trkpt>
      <trkpt lat="43.85179" lon="6.28266">
        <ele>1539</ele>
        <time>2020-03-21T15:48:18.294Z</time>
      </trkpt>
      <trkpt lat="43.85201" lon="6.28254">
        <ele>1538</ele>
        <time>2020-03-21T15:48:19.294Z</time>
      </trkpt>
      <trkpt lat="43.8522" lon="6.28242">
        <ele>1537</ele>
        <time>2020-03-21T15:48:20.294Z</time>
      </trkpt>
      <trkpt lat="43.8523" lon="6.28234">
        <ele>1536</ele>
        <time>2020-03-21T15:48:21.294Z</time>
      </trkpt>
      <trkpt lat="43.8523" lon="6.28234">
        <ele>1536</ele>
        <time>2020-03-21T15:48:22.294Z</time>
      </trkpt>
      <trkpt lat="43.8523" lon="6.28234">
        <ele>1536</ele>
        <time>2020-03-21T15:48:23.294Z</time>
      </trkpt>
      <trkpt lat="43.8523" lon="6.28228">
        <ele>1536</ele>
        <time>2020-03-21T15:48:24.294Z</time>
      </trkpt>
      <trkpt lat="43.85228" lon="6.28225">
        <ele>1536</ele>
        <time>2020-03-21T15:48:25.294Z</time>
      </trkpt>
      <trkpt lat="43.85228" lon="6.28225">
        <ele>1536</ele>
        <time>2020-03-21T15:48:26.294Z</time>
      </trkpt>
      <trkpt lat="43.85228" lon="6.28224">
        <ele>1536</ele>
        <time>2020-03-21T15:48:27.294Z</time>
      </trkpt>
      <trkpt lat="43.85227" lon="6.28221">
        <ele>1536</ele>
        <time>2020-03-21T15:48:28.294Z</time>
      </trkpt>
      <trkpt lat="43.85232" lon="6.28209">
        <ele>1536</ele>
        <time>2020-03-21T15:48:29.294Z</time>
      </trkpt>
      <trkpt lat="43.85239" lon="6.28197">
        <ele>1535</ele>
        <time>2020-03-21T15:48:30.294Z</time>
      </trkpt>
      <trkpt lat="43.85248" lon="6.28176">
        <ele>1533</ele>
        <time>2020-03-21T15:48:31.294Z</time>
      </trkpt>
      <trkpt lat="43.85249" lon="6.28173">
        <ele>1533</ele>
        <time>2020-03-21T15:48:32.294Z</time>
      </trkpt>
      <trkpt lat="43.85255" lon="6.28154">
        <ele>1531</ele>
        <time>2020-03-21T15:48:33.294Z</time>
      </trkpt>
      <trkpt lat="43.85263" lon="6.28134">
        <ele>1529</ele>
        <time>2020-03-21T15:48:34.294Z</time>
      </trkpt>
      <trkpt lat="43.85266" lon="6.28129">
        <ele>1528</ele>
        <time>2020-03-21T15:48:35.294Z</time>
      </trkpt>
      <trkpt lat="43.85272" lon="6.28125">
        <ele>1528</ele>
        <time>2020-03-21T15:48:36.294Z</time>
      </trkpt>
      <trkpt lat="43.85274" lon="6.28124">
        <ele>1528</ele>
        <time>2020-03-21T15:48:37.294Z</time>
      </trkpt>
      <trkpt lat="43.85289" lon="6.28117">
        <ele>1527</ele>
        <time>2020-03-21T15:48:38.294Z</time>
      </trkpt>
      <trkpt lat="43.85292" lon="6.28116">
        <ele>1527</ele>
        <time>2020-03-21T15:48:39.294Z</time>
      </trkpt>
      <trkpt lat="43.85293" lon="6.28116">
        <ele>1527</ele>
        <time>2020-03-21T15:48:40.294Z</time>
      </trkpt>
      <trkpt lat="43.85301" lon="6.28105">
        <ele>1526</ele>
        <time>2020-03-21T15:48:41.294Z</time>
      </trkpt>
      <trkpt lat="43.85295" lon="6.28098">
        <ele>1525</ele>
        <time>2020-03-21T15:48:42.294Z</time>
      </trkpt>
      <trkpt lat="43.85293" lon="6.28098">
        <ele>1525</ele>
        <time>2020-03-21T15:48:43.294Z</time>
      </trkpt>
      <trkpt lat="43.8529" lon="6.28095">
        <ele>1524</ele>
        <time>2020-03-21T15:48:44.294Z</time>
      </trkpt>
      <trkpt lat="43.85281" lon="6.2809">
        <ele>1523</ele>
        <time>2020-03-21T15:48:45.294Z</time>
      </trkpt>
      <trkpt lat="43.85278" lon="6.28084">
        <ele>1522</ele>
        <time>2020-03-21T15:48:46.294Z</time>
      </trkpt>
      <trkpt lat="43.85279" lon="6.28084">
        <ele>1522</ele>
        <time>2020-03-21T15:48:47.294Z</time>
      </trkpt>
      <trkpt lat="43.8529" lon="6.28079">
        <ele>1521</ele>
        <time>2020-03-21T15:48:48.294Z</time>
      </trkpt>
      <trkpt lat="43.85302" lon="6.28069">
        <ele>1519</ele>
        <time>2020-03-21T15:48:49.294Z</time>
      </trkpt>
      <trkpt lat="43.85311" lon="6.28062">
        <ele>1518</ele>
        <time>2020-03-21T15:48:50.294Z</time>
      </trkpt>
      <trkpt lat="43.85324" lon="6.2805">
        <ele>1515</ele>
        <time>2020-03-21T15:48:51.294Z</time>
      </trkpt>
      <trkpt lat="43.8533" lon="6.28037">
        <ele>1511</ele>
        <time>2020-03-21T15:48:52.294Z</time>
      </trkpt>
      <trkpt lat="43.85324" lon="6.28037">
        <ele>1511</ele>
        <time>2020-03-21T15:48:53.294Z</time>
      </trkpt>
      <trkpt lat="43.85314" lon="6.28033">
        <ele>1510</ele>
        <time>2020-03-21T15:48:54.294Z</time>
      </trkpt>
      <trkpt lat="43.85296" lon="6.2802">
        <ele>1506</ele>
        <time>2020-03-21T15:48:55.294Z</time>
      </trkpt>
      <trkpt lat="43.85299" lon="6.28015">
        <ele>1505</ele>
        <time>2020-03-21T15:48:56.294Z</time>
      </trkpt>
      <trkpt lat="43.85307" lon="6.28004">
        <ele>1502</ele>
        <time>2020-03-21T15:48:57.294Z</time>
      </trkpt>
      <trkpt lat="43.85313" lon="6.28">
        <ele>1501</ele>
        <time>2020-03-21T15:48:58.294Z</time>
      </trkpt>
      <trkpt lat="43.85321" lon="6.27989">
        <ele>1498</ele>
        <time>2020-03-21T15:48:59.294Z</time>
      </trkpt>
      <trkpt lat="43.8533" lon="6.27971">
        <ele>1495</ele>
        <time>2020-03-21T15:49:00.294Z</time>
      </trkpt>
      <trkpt lat="43.85336" lon="6.2796">
        <ele>1493</ele>
        <time>2020-03-21T15:49:01.294Z</time>
      </trkpt>
      <trkpt lat="43.85342" lon="6.27946">
        <ele>1491</ele>
        <time>2020-03-21T15:49:02.294Z</time>
      </trkpt>
      <trkpt lat="43.85344" lon="6.2792">
        <ele>1485</ele>
        <time>2020-03-21T15:49:03.294Z</time>
      </trkpt>
      <trkpt lat="43.85343" lon="6.27899">
        <ele>1482</ele>
        <time>2020-03-21T15:49:04.294Z</time>
      </trkpt>
      <trkpt lat="43.85347" lon="6.27871">
        <ele>1479</ele>
        <time>2020-03-21T15:49:05.294Z</time>
      </trkpt>
      <trkpt lat="43.85351" lon="6.27861">
        <ele>1478</ele>
        <time>2020-03-21T15:49:06.294Z</time>
      </trkpt>
      <trkpt lat="43.85352" lon="6.27853">
        <ele>1476</ele>
        <time>2020-03-21T15:49:07.294Z</time>
      </trkpt>
      <trkpt lat="43.85362" lon="6.27832">
        <ele>1473</ele>
        <time>2020-03-21T15:49:08.294Z</time>
      </trkpt>
      <trkpt lat="43.85368" lon="6.27825">
        <ele>1472</ele>
        <time>2020-03-21T15:49:09.294Z</time>
      </trkpt>
      <trkpt lat="43.85377" lon="6.27813">
        <ele>1470</ele>
        <time>2020-03-21T15:49:10.294Z</time>
      </trkpt>
      <trkpt lat="43.85374" lon="6.27805">
        <ele>1469</ele>
        <time>2020-03-21T15:49:11.294Z</time>
      </trkpt>
      <trkpt lat="43.85365" lon="6.27791">
        <ele>1466</ele>
        <time>2020-03-21T15:49:12.294Z</time>
      </trkpt>
      <trkpt lat="43.85355" lon="6.27778">
        <ele>1463</ele>
        <time>2020-03-21T15:49:13.294Z</time>
      </trkpt>
      <trkpt lat="43.85351" lon="6.27771">
        <ele>1462</ele>
        <time>2020-03-21T15:49:14.294Z</time>
      </trkpt>
      <trkpt lat="43.85353" lon="6.27766">
        <ele>1461</ele>
        <time>2020-03-21T15:49:15.294Z</time>
      </trkpt>
      <trkpt lat="43.85358" lon="6.27763">
        <ele>1461</ele>
        <time>2020-03-21T15:49:16.294Z</time>
      </trkpt>
      <trkpt lat="43.85361" lon="6.27759">
        <ele>1460</ele>
        <time>2020-03-21T15:49:17.294Z</time>
      </trkpt>
      <trkpt lat="43.85371" lon="6.27756">
        <ele>1460</ele>
        <time>2020-03-21T15:49:18.294Z</time>
      </trkpt>
      <trkpt lat="43.85374" lon="6.27749">
        <ele>1458</ele>
        <time>2020-03-21T15:49:19.294Z</time>
      </trkpt>
      <trkpt lat="43.8537" lon="6.27741">
        <ele>1457</ele>
        <time>2020-03-21T15:49:20.294Z</time>
      </trkpt>
      <trkpt lat="43.85356" lon="6.27725">
        <ele>1454</ele>
        <time>2020-03-21T15:49:21.294Z</time>
      </trkpt>
      <trkpt lat="43.8536" lon="6.27719">
        <ele>1453</ele>
        <time>2020-03-21T15:49:22.294Z</time>
      </trkpt>
      <trkpt lat="43.85373" lon="6.27717">
        <ele>1452</ele>
        <time>2020-03-21T15:49:23.294Z</time>
      </trkpt>
      <trkpt lat="43.85377" lon="6.27717">
        <ele>1452</ele>
        <time>2020-03-21T15:49:24.294Z</time>
      </trkpt>
      <trkpt lat="43.85374" lon="6.27709">
        <ele>1451</ele>
        <time>2020-03-21T15:49:25.294Z</time>
      </trkpt>
      <trkpt lat="43.85371" lon="6.27702">
        <ele>1450</ele>
        <time>2020-03-21T15:49:26.294Z</time>
      </trkpt>
      <trkpt lat="43.85363" lon="6.27687">
        <ele>1447</ele>
        <time>2020-03-21T15:49:27.294Z</time>
      </trkpt>
      <trkpt lat="43.85367" lon="6.27678">
        <ele>1445</ele>
        <time>2020-03-21T15:49:28.294Z</time>
      </trkpt>
      <trkpt lat="43.8539" lon="6.27673">
        <ele>1443</ele>
        <time>2020-03-21T15:49:29.294Z</time>
      </trkpt>
      <trkpt lat="43.85412" lon="6.27681">
        <ele>1444</ele>
        <time>2020-03-21T15:49:30.294Z</time>
      </trkpt>
      <trkpt lat="43.85427" lon="6.27676">
        <ele>1445</ele>
        <time>2020-03-21T15:49:31.294Z</time>
      </trkpt>
      <trkpt lat="43.85425" lon="6.27675">
        <ele>1444</ele>
        <time>2020-03-21T15:49:32.294Z</time>
      </trkpt>
      <trkpt lat="43.8542" lon="6.27675">
        <ele>1443</ele>
        <time>2020-03-21T15:49:33.294Z</time>
      </trkpt>
      <trkpt lat="43.85411" lon="6.27666">
        <ele>1441</ele>
        <time>2020-03-21T15:49:34.294Z</time>
      </trkpt>
      <trkpt lat="43.85411" lon="6.2766">
        <ele>1440</ele>
        <time>2020-03-21T15:49:35.294Z</time>
      </trkpt>
      <trkpt lat="43.85421" lon="6.27651">
        <ele>1438</ele>
        <time>2020-03-21T15:49:36.294Z</time>
      </trkpt>
      <trkpt lat="43.85423" lon="6.27648">
        <ele>1438</ele>
        <time>2020-03-21T15:49:37.294Z</time>
      </trkpt>
      <trkpt lat="43.85427" lon="6.27645">
        <ele>1438</ele>
        <time>2020-03-21T15:49:38.294Z</time>
      </trkpt>
      <trkpt lat="43.85431" lon="6.27639">
        <ele>1437</ele>
        <time>2020-03-21T15:49:39.294Z</time>
      </trkpt>
      <trkpt lat="43.85432" lon="6.27631">
        <ele>1436</ele>
        <time>2020-03-21T15:49:40.294Z</time>
      </trkpt>
      <trkpt lat="43.85424" lon="6.27628">
        <ele>1434</ele>
        <time>2020-03-21T15:49:41.294Z</time>
      </trkpt>
      <trkpt lat="43.85428" lon="6.27621">
        <ele>1433</ele>
        <time>2020-03-21T15:49:42.294Z</time>
      </trkpt>
      <trkpt lat="43.85434" lon="6.27611">
        <ele>1431</ele>
        <time>2020-03-21T15:49:43.294Z</time>
      </trkpt>
      <trkpt lat="43.85439" lon="6.276">
        <ele>1429</ele>
        <time>2020-03-21T15:49:44.294Z</time>
      </trkpt>
      <trkpt lat="43.85442" lon="6.27593">
        <ele>1428</ele>
        <time>2020-03-21T15:49:45.294Z</time>
      </trkpt>
      <trkpt lat="43.85436" lon="6.27592">
        <ele>1427</ele>
        <time>2020-03-21T15:49:46.294Z</time>
      </trkpt>
      <trkpt lat="43.85434" lon="6.27587">
        <ele>1426</ele>
        <time>2020-03-21T15:49:47.294Z</time>
      </trkpt>
      <trkpt lat="43.85438" lon="6.27581">
        <ele>1425</ele>
        <time>2020-03-21T15:49:48.294Z</time>
      </trkpt>
      <trkpt lat="43.85447" lon="6.27565">
        <ele>1422</ele>
        <time>2020-03-21T15:49:49.294Z</time>
      </trkpt>
      <trkpt lat="43.85452" lon="6.27559">
        <ele>1421</ele>
        <time>2020-03-21T15:49:50.294Z</time>
      </trkpt>
      <trkpt lat="43.85458" lon="6.27547">
        <ele>1419</ele>
        <time>2020-03-21T15:49:51.294Z</time>
      </trkpt>
      <trkpt lat="43.85461" lon="6.27544">
        <ele>1418</ele>
        <time>2020-03-21T15:49:52.294Z</time>
      </trkpt>
      <trkpt lat="43.85476" lon="6.27529">
        <ele>1415</ele>
        <time>2020-03-21T15:49:53.294Z</time>
      </trkpt>
      <trkpt lat="43.85483" lon="6.27523">
        <ele>1414</ele>
        <time>2020-03-21T15:49:54.294Z</time>
      </trkpt>
      <trkpt lat="43.8549" lon="6.27514">
        <ele>1412</ele>
        <time>2020-03-21T15:49:55.294Z</time>
      </trkpt>
      <trkpt lat="43.85494" lon="6.27509">
        <ele>1410</ele>
        <time>2020-03-21T15:49:56.294Z</time>
      </trkpt>
      <trkpt lat="43.85487" lon="6.27503">
        <ele>1409</ele>
        <time>2020-03-21T15:49:57.294Z</time>
      </trkpt>
      <trkpt lat="43.85485" lon="6.27502">
        <ele>1408</ele>
        <time>2020-03-21T15:49:58.294Z</time>
      </trkpt>
      <trkpt lat="43.8549" lon="6.27494">
        <ele>1407</ele>
        <time>2020-03-21T15:49:59.294Z</time>
      </trkpt>
      <trkpt lat="43.85494" lon="6.27492">
        <ele>1407</ele>
        <time>2020-03-21T15:50:00.294Z</time>
      </trkpt>
      <trkpt lat="43.85519" lon="6.27476">
        <ele>1405</ele>
        <time>2020-03-21T15:50:01.294Z</time>
      </trkpt>
      <trkpt lat="43.85528" lon="6.27472">
        <ele>1405</ele>
        <time>2020-03-21T15:50:02.294Z</time>
      </trkpt>
      <trkpt lat="43.85537" lon="6.27467">
        <ele>1405</ele>
        <time>2020-03-21T15:50:03.294Z</time>
      </trkpt>
      <trkpt lat="43.85554" lon="6.27449">
        <ele>1402</ele>
        <time>2020-03-21T15:50:04.294Z</time>
      </trkpt>
      <trkpt lat="43.85576" lon="6.27432">
        <ele>1398</ele>
        <time>2020-03-21T15:50:05.294Z</time>
      </trkpt>
      <trkpt lat="43.85585" lon="6.27424">
        <ele>1396</ele>
        <time>2020-03-21T15:50:06.294Z</time>
      </trkpt>
      <trkpt lat="43.85603" lon="6.27405">
        <ele>1395</ele>
        <time>2020-03-21T15:50:07.294Z</time>
      </trkpt>
      <trkpt lat="43.85614" lon="6.27396">
        <ele>1395</ele>
        <time>2020-03-21T15:50:08.294Z</time>
      </trkpt>
      <trkpt lat="43.85629" lon="6.27384">
        <ele>1394</ele>
        <time>2020-03-21T15:50:09.294Z</time>
      </trkpt>
      <trkpt lat="43.8563" lon="6.27378">
        <ele>1394</ele>
        <time>2020-03-21T15:50:10.294Z</time>
      </trkpt>
      <trkpt lat="43.85629" lon="6.27376">
        <ele>1394</ele>
        <time>2020-03-21T15:50:11.294Z</time>
      </trkpt>
      <trkpt lat="43.85629" lon="6.27376">
        <ele>1394</ele>
        <time>2020-03-21T15:50:12.294Z</time>
      </trkpt>
      <trkpt lat="43.85629" lon="6.27362">
        <ele>1392</ele>
        <time>2020-03-21T15:50:13.294Z</time>
      </trkpt>
      <trkpt lat="43.85628" lon="6.27348">
        <ele>1391</ele>
        <time>2020-03-21T15:50:14.294Z</time>
      </trkpt>
      <trkpt lat="43.85635" lon="6.27337">
        <ele>1390</ele>
        <time>2020-03-21T15:50:15.294Z</time>
      </trkpt>
      <trkpt lat="43.85651" lon="6.27322">
        <ele>1390</ele>
        <time>2020-03-21T15:50:16.294Z</time>
      </trkpt>
      <trkpt lat="43.85667" lon="6.27316">
        <ele>1389</ele>
        <time>2020-03-21T15:50:17.294Z</time>
      </trkpt>
      <trkpt lat="43.85669" lon="6.27316">
        <ele>1389</ele>
        <time>2020-03-21T15:50:18.294Z</time>
      </trkpt>
      <trkpt lat="43.85679" lon="6.27315">
        <ele>1389</ele>
        <time>2020-03-21T15:50:19.294Z</time>
      </trkpt>
      <trkpt lat="43.85692" lon="6.27312">
        <ele>1388</ele>
        <time>2020-03-21T15:50:20.294Z</time>
      </trkpt>
      <trkpt lat="43.8571" lon="6.27302">
        <ele>1387</ele>
        <time>2020-03-21T15:50:21.294Z</time>
      </trkpt>
      <trkpt lat="43.8572" lon="6.27296">
        <ele>1385</ele>
        <time>2020-03-21T15:50:22.294Z</time>
      </trkpt>
      <trkpt lat="43.85727" lon="6.27294">
        <ele>1385</ele>
        <time>2020-03-21T15:50:23.294Z</time>
      </trkpt>
      <trkpt lat="43.85734" lon="6.27287">
        <ele>1384</ele>
        <time>2020-03-21T15:50:24.294Z</time>
      </trkpt>
      <trkpt lat="43.85743" lon="6.27282">
        <ele>1382</ele>
        <time>2020-03-21T15:50:25.294Z</time>
      </trkpt>
      <trkpt lat="43.85747" lon="6.27271">
        <ele>1381</ele>
        <time>2020-03-21T15:50:26.294Z</time>
      </trkpt>
      <trkpt lat="43.85746" lon="6.27265">
        <ele>1380</ele>
        <time>2020-03-21T15:50:27.294Z</time>
      </trkpt>
      <trkpt lat="43.85746" lon="6.27261">
        <ele>1380</ele>
        <time>2020-03-21T15:50:28.294Z</time>
      </trkpt>
      <trkpt lat="43.85746" lon="6.27259">
        <ele>1380</ele>
        <time>2020-03-21T15:50:29.294Z</time>
      </trkpt>
      <trkpt lat="43.85745" lon="6.27256">
        <ele>1379</ele>
        <time>2020-03-21T15:50:30.294Z</time>
      </trkpt>
      <trkpt lat="43.85746" lon="6.27253">
        <ele>1379</ele>
        <time>2020-03-21T15:50:31.294Z</time>
      </trkpt>
      <trkpt lat="43.85749" lon="6.27248">
        <ele>1378</ele>
        <time>2020-03-21T15:50:32.294Z</time>
      </trkpt>
      <trkpt lat="43.85759" lon="6.27234">
        <ele>1378</ele>
        <time>2020-03-21T15:50:33.294Z</time>
      </trkpt>
      <trkpt lat="43.85774" lon="6.27221">
        <ele>1378</ele>
        <time>2020-03-21T15:50:34.294Z</time>
      </trkpt>
      <trkpt lat="43.85785" lon="6.27211">
        <ele>1377</ele>
        <time>2020-03-21T15:50:35.294Z</time>
      </trkpt>
      <trkpt lat="43.85792" lon="6.27207">
        <ele>1377</ele>
        <time>2020-03-21T15:50:36.294Z</time>
      </trkpt>
      <trkpt lat="43.858" lon="6.27197">
        <ele>1376</ele>
        <time>2020-03-21T15:50:37.294Z</time>
      </trkpt>
      <trkpt lat="43.85801" lon="6.27196">
        <ele>1375</ele>
        <time>2020-03-21T15:50:38.294Z</time>
      </trkpt>
      <trkpt lat="43.85802" lon="6.27195">
        <ele>1375</ele>
        <time>2020-03-21T15:50:39.294Z</time>
      </trkpt>
      <trkpt lat="43.85806" lon="6.27192">
        <ele>1375</ele>
        <time>2020-03-21T15:50:40.294Z</time>
      </trkpt>
      <trkpt lat="43.85809" lon="6.27181">
        <ele>1373</ele>
        <time>2020-03-21T15:50:41.294Z</time>
      </trkpt>
      <trkpt lat="43.85813" lon="6.27176">
        <ele>1372</ele>
        <time>2020-03-21T15:50:42.294Z</time>
      </trkpt>
      <trkpt lat="43.85813" lon="6.27176">
        <ele>1372</ele>
        <time>2020-03-21T15:50:43.294Z</time>
      </trkpt>
      <trkpt lat="43.85815" lon="6.27173">
        <ele>1372</ele>
        <time>2020-03-21T15:50:44.294Z</time>
      </trkpt>
      <trkpt lat="43.85819" lon="6.27165">
        <ele>1370</ele>
        <time>2020-03-21T15:50:45.294Z</time>
      </trkpt>
      <trkpt lat="43.8582" lon="6.27156">
        <ele>1369</ele>
        <time>2020-03-21T15:50:46.294Z</time>
      </trkpt>
      <trkpt lat="43.85821" lon="6.27148">
        <ele>1369</ele>
        <time>2020-03-21T15:50:47.294Z</time>
      </trkpt>
      <trkpt lat="43.85825" lon="6.27132">
        <ele>1367</ele>
        <time>2020-03-21T15:50:48.294Z</time>
      </trkpt>
      <trkpt lat="43.85826" lon="6.27131">
        <ele>1366</ele>
        <time>2020-03-21T15:50:49.294Z</time>
      </trkpt>
      <trkpt lat="43.85832" lon="6.27124">
        <ele>1365</ele>
        <time>2020-03-21T15:50:50.294Z</time>
      </trkpt>
      <trkpt lat="43.85834" lon="6.2712">
        <ele>1365</ele>
        <time>2020-03-21T15:50:51.294Z</time>
      </trkpt>
      <trkpt lat="43.85832" lon="6.27106">
        <ele>1363</ele>
        <time>2020-03-21T15:50:52.294Z</time>
      </trkpt>
      <trkpt lat="43.85832" lon="6.27086">
        <ele>1361</ele>
        <time>2020-03-21T15:50:53.294Z</time>
      </trkpt>
      <trkpt lat="43.85833" lon="6.27066">
        <ele>1360</ele>
        <time>2020-03-21T15:50:54.294Z</time>
      </trkpt>
      <trkpt lat="43.8583" lon="6.27048">
        <ele>1359</ele>
        <time>2020-03-21T15:50:55.294Z</time>
      </trkpt>
      <trkpt lat="43.85826" lon="6.2704">
        <ele>1359</ele>
        <time>2020-03-21T15:50:56.294Z</time>
      </trkpt>
      <trkpt lat="43.85829" lon="6.27027">
        <ele>1358</ele>
        <time>2020-03-21T15:50:57.294Z</time>
      </trkpt>
      <trkpt lat="43.85829" lon="6.27022">
        <ele>1358</ele>
        <time>2020-03-21T15:50:58.294Z</time>
      </trkpt>
      <trkpt lat="43.85828" lon="6.2701">
        <ele>1357</ele>
        <time>2020-03-21T15:50:59.294Z</time>
      </trkpt>
      <trkpt lat="43.85823" lon="6.26977">
        <ele>1358</ele>
        <time>2020-03-21T15:51:00.294Z</time>
      </trkpt>
      <trkpt lat="43.85829" lon="6.26964">
        <ele>1359</ele>
        <time>2020-03-21T15:51:01.294Z</time>
      </trkpt>
      <trkpt lat="43.85842" lon="6.26954">
        <ele>1358</ele>
        <time>2020-03-21T15:51:02.294Z</time>
      </trkpt>
      <trkpt lat="43.85848" lon="6.26951">
        <ele>1357</ele>
        <time>2020-03-21T15:51:03.294Z</time>
      </trkpt>
      <trkpt lat="43.85857" lon="6.26945">
        <ele>1356</ele>
        <time>2020-03-21T15:51:04.294Z</time>
      </trkpt>
      <trkpt lat="43.85878" lon="6.26932">
        <ele>1353</ele>
        <time>2020-03-21T15:51:05.294Z</time>
      </trkpt>
      <trkpt lat="43.85894" lon="6.2692">
        <ele>1349</ele>
        <time>2020-03-21T15:51:06.294Z</time>
      </trkpt>
      <trkpt lat="43.85901" lon="6.26914">
        <ele>1347</ele>
        <time>2020-03-21T15:51:07.294Z</time>
      </trkpt>
      <trkpt lat="43.85914" lon="6.2691">
        <ele>1344</ele>
        <time>2020-03-21T15:51:08.294Z</time>
      </trkpt>
      <trkpt lat="43.85915" lon="6.26909">
        <ele>1343</ele>
        <time>2020-03-21T15:51:09.294Z</time>
      </trkpt>
      <trkpt lat="43.85919" lon="6.26908">
        <ele>1343</ele>
        <time>2020-03-21T15:51:10.294Z</time>
      </trkpt>
      <trkpt lat="43.85919" lon="6.26907">
        <ele>1343</ele>
        <time>2020-03-21T15:51:11.294Z</time>
      </trkpt>
      <trkpt lat="43.85923" lon="6.26904">
        <ele>1344</ele>
        <time>2020-03-21T15:51:12.294Z</time>
      </trkpt>
      <trkpt lat="43.85926" lon="6.26897">
        <ele>1344</ele>
        <time>2020-03-21T15:51:13.294Z</time>
      </trkpt>
      <trkpt lat="43.85926" lon="6.26895">
        <ele>1343</ele>
        <time>2020-03-21T15:51:14.294Z</time>
      </trkpt>
      <trkpt lat="43.85927" lon="6.26888">
        <ele>1343</ele>
        <time>2020-03-21T15:51:15.294Z</time>
      </trkpt>
      <trkpt lat="43.85927" lon="6.26878">
        <ele>1342</ele>
        <time>2020-03-21T15:51:16.294Z</time>
      </trkpt>
      <trkpt lat="43.85928" lon="6.26874">
        <ele>1341</ele>
        <time>2020-03-21T15:51:17.294Z</time>
      </trkpt>
      <trkpt lat="43.85929" lon="6.26857">
        <ele>1340</ele>
        <time>2020-03-21T15:51:18.294Z</time>
      </trkpt>
      <trkpt lat="43.85929" lon="6.26852">
        <ele>1339</ele>
        <time>2020-03-21T15:51:19.294Z</time>
      </trkpt>
      <trkpt lat="43.85925" lon="6.26835">
        <ele>1336</ele>
        <time>2020-03-21T15:51:20.294Z</time>
      </trkpt>
      <trkpt lat="43.85919" lon="6.2682">
        <ele>1332</ele>
        <time>2020-03-21T15:51:21.294Z</time>
      </trkpt>
      <trkpt lat="43.85914" lon="6.26811">
        <ele>1330</ele>
        <time>2020-03-21T15:51:22.294Z</time>
      </trkpt>
      <trkpt lat="43.85912" lon="6.26808">
        <ele>1330</ele>
        <time>2020-03-21T15:51:23.294Z</time>
      </trkpt>
      <trkpt lat="43.85911" lon="6.26805">
        <ele>1330</ele>
        <time>2020-03-21T15:51:24.294Z</time>
      </trkpt>
      <trkpt lat="43.85911" lon="6.26796">
        <ele>1328</ele>
        <time>2020-03-21T15:51:25.294Z</time>
      </trkpt>
      <trkpt lat="43.85909" lon="6.26789">
        <ele>1327</ele>
        <time>2020-03-21T15:51:26.294Z</time>
      </trkpt>
      <trkpt lat="43.85904" lon="6.26783">
        <ele>1327</ele>
        <time>2020-03-21T15:51:27.294Z</time>
      </trkpt>
      <trkpt lat="43.85894" lon="6.26772">
        <ele>1326</ele>
        <time>2020-03-21T15:51:28.294Z</time>
      </trkpt>
      <trkpt lat="43.85892" lon="6.26767">
        <ele>1326</ele>
        <time>2020-03-21T15:51:29.294Z</time>
      </trkpt>
      <trkpt lat="43.85886" lon="6.26751">
        <ele>1323</ele>
        <time>2020-03-21T15:51:30.294Z</time>
      </trkpt>
      <trkpt lat="43.85876" lon="6.26731">
        <ele>1320</ele>
        <time>2020-03-21T15:51:31.294Z</time>
      </trkpt>
      <trkpt lat="43.85871" lon="6.2672">
        <ele>1319</ele>
        <time>2020-03-21T15:51:32.294Z</time>
      </trkpt>
      <trkpt lat="43.85865" lon="6.26698">
        <ele>1314</ele>
        <time>2020-03-21T15:51:33.294Z</time>
      </trkpt>
      <trkpt lat="43.85858" lon="6.26674">
        <ele>1309</ele>
        <time>2020-03-21T15:51:34.294Z</time>
      </trkpt>
      <trkpt lat="43.85856" lon="6.26666">
        <ele>1307</ele>
        <time>2020-03-21T15:51:35.294Z</time>
      </trkpt>
      <trkpt lat="43.85859" lon="6.26662">
        <ele>1306</ele>
        <time>2020-03-21T15:51:36.294Z</time>
      </trkpt>
      <trkpt lat="43.85866" lon="6.26665">
        <ele>1307</ele>
        <time>2020-03-21T15:51:37.294Z</time>
      </trkpt>
      <trkpt lat="43.85871" lon="6.26669">
        <ele>1308</ele>
        <time>2020-03-21T15:51:38.294Z</time>
      </trkpt>
      <trkpt lat="43.85875" lon="6.26672">
        <ele>1309</ele>
        <time>2020-03-21T15:51:39.294Z</time>
      </trkpt>
      <trkpt lat="43.85883" lon="6.26681">
        <ele>1310</ele>
        <time>2020-03-21T15:51:40.294Z</time>
      </trkpt>
      <trkpt lat="43.85893" lon="6.26679">
        <ele>1310</ele>
        <time>2020-03-21T15:51:41.294Z</time>
      </trkpt>
      <trkpt lat="43.85893" lon="6.26671">
        <ele>1309</ele>
        <time>2020-03-21T15:51:42.294Z</time>
      </trkpt>
      <trkpt lat="43.8589" lon="6.26657">
        <ele>1306</ele>
        <time>2020-03-21T15:51:43.294Z</time>
      </trkpt>
      <trkpt lat="43.85889" lon="6.2665">
        <ele>1305</ele>
        <time>2020-03-21T15:51:44.294Z</time>
      </trkpt>
      <trkpt lat="43.85888" lon="6.26648">
        <ele>1304</ele>
        <time>2020-03-21T15:51:45.294Z</time>
      </trkpt>
      <trkpt lat="43.85885" lon="6.26643">
        <ele>1303</ele>
        <time>2020-03-21T15:51:46.294Z</time>
      </trkpt>
      <trkpt lat="43.85884" lon="6.26633">
        <ele>1301</ele>
        <time>2020-03-21T15:51:47.294Z</time>
      </trkpt>
      <trkpt lat="43.85882" lon="6.26616">
        <ele>1297</ele>
        <time>2020-03-21T15:51:48.294Z</time>
      </trkpt>
      <trkpt lat="43.85879" lon="6.2661">
        <ele>1295</ele>
        <time>2020-03-21T15:51:49.294Z</time>
      </trkpt>
      <trkpt lat="43.85877" lon="6.26609">
        <ele>1295</ele>
        <time>2020-03-21T15:51:50.294Z</time>
      </trkpt>
      <trkpt lat="43.8587" lon="6.26592">
        <ele>1289</ele>
        <time>2020-03-21T15:51:51.294Z</time>
      </trkpt>
      <trkpt lat="43.85866" lon="6.2657">
        <ele>1284</ele>
        <time>2020-03-21T15:51:52.294Z</time>
      </trkpt>
      <trkpt lat="43.85865" lon="6.26568">
        <ele>1284</ele>
        <time>2020-03-21T15:51:53.294Z</time>
      </trkpt>
      <trkpt lat="43.8586" lon="6.26563">
        <ele>1282</ele>
        <time>2020-03-21T15:51:54.294Z</time>
      </trkpt>
      <trkpt lat="43.85849" lon="6.26539">
        <ele>1275</ele>
        <time>2020-03-21T15:51:55.294Z</time>
      </trkpt>
      <trkpt lat="43.85847" lon="6.26534">
        <ele>1273</ele>
        <time>2020-03-21T15:51:56.294Z</time>
      </trkpt>
      <trkpt lat="43.85842" lon="6.26518">
        <ele>1268</ele>
        <time>2020-03-21T15:51:57.294Z</time>
      </trkpt>
      <trkpt lat="43.85839" lon="6.26503">
        <ele>1264</ele>
        <time>2020-03-21T15:51:58.294Z</time>
      </trkpt>
      <trkpt lat="43.85836" lon="6.26486">
        <ele>1260</ele>
        <time>2020-03-21T15:51:59.294Z</time>
      </trkpt>
      <trkpt lat="43.85833" lon="6.2647">
        <ele>1257</ele>
        <time>2020-03-21T15:52:00.294Z</time>
      </trkpt>
      <trkpt lat="43.85829" lon="6.26454">
        <ele>1256</ele>
        <time>2020-03-21T15:52:01.294Z</time>
      </trkpt>
      <trkpt lat="43.85826" lon="6.26444">
        <ele>1254</ele>
        <time>2020-03-21T15:52:02.294Z</time>
      </trkpt>
      <trkpt lat="43.85819" lon="6.26429">
        <ele>1251</ele>
        <time>2020-03-21T15:52:03.294Z</time>
      </trkpt>
      <trkpt lat="43.85818" lon="6.26427">
        <ele>1251</ele>
        <time>2020-03-21T15:52:04.294Z</time>
      </trkpt>
      <trkpt lat="43.85809" lon="6.26412">
        <ele>1247</ele>
        <time>2020-03-21T15:52:05.294Z</time>
      </trkpt>
      <trkpt lat="43.85803" lon="6.26404">
        <ele>1246</ele>
        <time>2020-03-21T15:52:06.294Z</time>
      </trkpt>
      <trkpt lat="43.85797" lon="6.26379">
        <ele>1242</ele>
        <time>2020-03-21T15:52:07.294Z</time>
      </trkpt>
      <trkpt lat="43.85796" lon="6.26364">
        <ele>1240</ele>
        <time>2020-03-21T15:52:08.294Z</time>
      </trkpt>
      <trkpt lat="43.85792" lon="6.26334">
        <ele>1236</ele>
        <time>2020-03-21T15:52:09.294Z</time>
      </trkpt>
      <trkpt lat="43.85786" lon="6.26305">
        <ele>1231</ele>
        <time>2020-03-21T15:52:10.294Z</time>
      </trkpt>
      <trkpt lat="43.85781" lon="6.26283">
        <ele>1226</ele>
        <time>2020-03-21T15:52:11.294Z</time>
      </trkpt>
      <trkpt lat="43.85777" lon="6.26261">
        <ele>1222</ele>
        <time>2020-03-21T15:52:12.294Z</time>
      </trkpt>
      <trkpt lat="43.85771" lon="6.26247">
        <ele>1218</ele>
        <time>2020-03-21T15:52:13.294Z</time>
      </trkpt>
      <trkpt lat="43.85763" lon="6.26227">
        <ele>1212</ele>
        <time>2020-03-21T15:52:14.294Z</time>
      </trkpt>
      <trkpt lat="43.85757" lon="6.26215">
        <ele>1209</ele>
        <time>2020-03-21T15:52:15.294Z</time>
      </trkpt>
      <trkpt lat="43.85755" lon="6.26202">
        <ele>1206</ele>
        <time>2020-03-21T15:52:16.294Z</time>
      </trkpt>
      <trkpt lat="43.85751" lon="6.26183">
        <ele>1203</ele>
        <time>2020-03-21T15:52:17.294Z</time>
      </trkpt>
      <trkpt lat="43.85751" lon="6.26176">
        <ele>1203</ele>
        <time>2020-03-21T15:52:18.294Z</time>
      </trkpt>
      <trkpt lat="43.85752" lon="6.26163">
        <ele>1202</ele>
        <time>2020-03-21T15:52:19.294Z</time>
      </trkpt>
      <trkpt lat="43.85759" lon="6.26148">
        <ele>1200</ele>
        <time>2020-03-21T15:52:20.294Z</time>
      </trkpt>
      <trkpt lat="43.85768" lon="6.26131">
        <ele>1197</ele>
        <time>2020-03-21T15:52:21.294Z</time>
      </trkpt>
      <trkpt lat="43.85774" lon="6.26121">
        <ele>1197</ele>
        <time>2020-03-21T15:52:22.294Z</time>
      </trkpt>
      <trkpt lat="43.85786" lon="6.26105">
        <ele>1195</ele>
        <time>2020-03-21T15:52:23.294Z</time>
      </trkpt>
      <trkpt lat="43.85796" lon="6.26092">
        <ele>1194</ele>
        <time>2020-03-21T15:52:24.294Z</time>
      </trkpt>
      <trkpt lat="43.85806" lon="6.26077">
        <ele>1192</ele>
        <time>2020-03-21T15:52:25.294Z</time>
      </trkpt>
      <trkpt lat="43.85814" lon="6.26064">
        <ele>1190</ele>
        <time>2020-03-21T15:52:26.294Z</time>
      </trkpt>
      <trkpt lat="43.85827" lon="6.26048">
        <ele>1187</ele>
        <time>2020-03-21T15:52:27.294Z</time>
      </trkpt>
      <trkpt lat="43.85843" lon="6.2603">
        <ele>1183</ele>
        <time>2020-03-21T15:52:28.294Z</time>
      </trkpt>
      <trkpt lat="43.85852" lon="6.26024">
        <ele>1180</ele>
        <time>2020-03-21T15:52:29.294Z</time>
      </trkpt>
      <trkpt lat="43.85854" lon="6.26021">
        <ele>1179</ele>
        <time>2020-03-21T15:52:30.294Z</time>
      </trkpt>
      <trkpt lat="43.85853" lon="6.26021">
        <ele>1179</ele>
        <time>2020-03-21T15:52:31.294Z</time>
      </trkpt>
      <trkpt lat="43.85841" lon="6.26021">
        <ele>1179</ele>
        <time>2020-03-21T15:52:32.294Z</time>
      </trkpt>
      <trkpt lat="43.85829" lon="6.26021">
        <ele>1179</ele>
        <time>2020-03-21T15:52:33.294Z</time>
      </trkpt>
      <trkpt lat="43.85818" lon="6.26021">
        <ele>1176</ele>
        <time>2020-03-21T15:52:34.294Z</time>
      </trkpt>
      <trkpt lat="43.85804" lon="6.26022">
        <ele>1172</ele>
        <time>2020-03-21T15:52:35.294Z</time>
      </trkpt>
      <trkpt lat="43.85793" lon="6.26023">
        <ele>1169</ele>
        <time>2020-03-21T15:52:36.294Z</time>
      </trkpt>
      <trkpt lat="43.85783" lon="6.26028">
        <ele>1168</ele>
        <time>2020-03-21T15:52:37.294Z</time>
      </trkpt>
      <trkpt lat="43.85774" lon="6.26032">
        <ele>1167</ele>
        <time>2020-03-21T15:52:38.294Z</time>
      </trkpt>
      <trkpt lat="43.85768" lon="6.26034">
        <ele>1166</ele>
        <time>2020-03-21T15:52:39.294Z</time>
      </trkpt>
      <trkpt lat="43.85759" lon="6.26036">
        <ele>1164</ele>
        <time>2020-03-21T15:52:40.294Z</time>
      </trkpt>
      <trkpt lat="43.85756" lon="6.26031">
        <ele>1162</ele>
        <time>2020-03-21T15:52:41.294Z</time>
      </trkpt>
      <trkpt lat="43.85762" lon="6.2602">
        <ele>1160</ele>
        <time>2020-03-21T15:52:42.294Z</time>
      </trkpt>
      <trkpt lat="43.85774" lon="6.26006">
        <ele>1158</ele>
        <time>2020-03-21T15:52:43.294Z</time>
      </trkpt>
      <trkpt lat="43.85785" lon="6.25995">
        <ele>1157</ele>
        <time>2020-03-21T15:52:44.294Z</time>
      </trkpt>
      <trkpt lat="43.85797" lon="6.25977">
        <ele>1154</ele>
        <time>2020-03-21T15:52:45.294Z</time>
      </trkpt>
      <trkpt lat="43.8581" lon="6.25967">
        <ele>1154</ele>
        <time>2020-03-21T15:52:46.294Z</time>
      </trkpt>
      <trkpt lat="43.85821" lon="6.25958">
        <ele>1153</ele>
        <time>2020-03-21T15:52:47.294Z</time>
      </trkpt>
      <trkpt lat="43.85827" lon="6.25953">
        <ele>1153</ele>
        <time>2020-03-21T15:52:48.294Z</time>
      </trkpt>
      <trkpt lat="43.85838" lon="6.2594">
        <ele>1149</ele>
        <time>2020-03-21T15:52:49.294Z</time>
      </trkpt>
      <trkpt lat="43.85843" lon="6.25936">
        <ele>1147</ele>
        <time>2020-03-21T15:52:50.294Z</time>
      </trkpt>
      <trkpt lat="43.85837" lon="6.25931">
        <ele>1146</ele>
        <time>2020-03-21T15:52:51.294Z</time>
      </trkpt>
      <trkpt lat="43.85822" lon="6.25929">
        <ele>1143</ele>
        <time>2020-03-21T15:52:52.294Z</time>
      </trkpt>
      <trkpt lat="43.85809" lon="6.25925">
        <ele>1139</ele>
        <time>2020-03-21T15:52:53.294Z</time>
      </trkpt>
      <trkpt lat="43.85803" lon="6.25924">
        <ele>1137</ele>
        <time>2020-03-21T15:52:54.294Z</time>
      </trkpt>
      <trkpt lat="43.85798" lon="6.25922">
        <ele>1135</ele>
        <time>2020-03-21T15:52:55.294Z</time>
      </trkpt>
      <trkpt lat="43.85792" lon="6.25913">
        <ele>1131</ele>
        <time>2020-03-21T15:52:56.294Z</time>
      </trkpt>
      <trkpt lat="43.85798" lon="6.259">
        <ele>1130</ele>
        <time>2020-03-21T15:52:57.294Z</time>
      </trkpt>
      <trkpt lat="43.85802" lon="6.25886">
        <ele>1128</ele>
        <time>2020-03-21T15:52:58.294Z</time>
      </trkpt>
      <trkpt lat="43.85803" lon="6.25868">
        <ele>1124</ele>
        <time>2020-03-21T15:52:59.294Z</time>
      </trkpt>
      <trkpt lat="43.85794" lon="6.2586">
        <ele>1120</ele>
        <time>2020-03-21T15:53:00.294Z</time>
      </trkpt>
      <trkpt lat="43.85792" lon="6.25858">
        <ele>1119</ele>
        <time>2020-03-21T15:53:01.294Z</time>
      </trkpt>
      <trkpt lat="43.85784" lon="6.2584">
        <ele>1114</ele>
        <time>2020-03-21T15:53:02.294Z</time>
      </trkpt>
      <trkpt lat="43.85781" lon="6.25835">
        <ele>1112</ele>
        <time>2020-03-21T15:53:03.294Z</time>
      </trkpt>
      <trkpt lat="43.85773" lon="6.25819">
        <ele>1109</ele>
        <time>2020-03-21T15:53:04.294Z</time>
      </trkpt>
      <trkpt lat="43.85768" lon="6.25806">
        <ele>1107</ele>
        <time>2020-03-21T15:53:05.294Z</time>
      </trkpt>
      <trkpt lat="43.85762" lon="6.25786">
        <ele>1104</ele>
        <time>2020-03-21T15:53:06.294Z</time>
      </trkpt>
      <trkpt lat="43.85759" lon="6.25755">
        <ele>1101</ele>
        <time>2020-03-21T15:53:07.294Z</time>
      </trkpt>
      <trkpt lat="43.85754" lon="6.25714">
        <ele>1094</ele>
        <time>2020-03-21T15:53:08.294Z</time>
      </trkpt>
      <trkpt lat="43.85747" lon="6.25692">
        <ele>1090</ele>
        <time>2020-03-21T15:53:09.294Z</time>
      </trkpt>
      <trkpt lat="43.85742" lon="6.25671">
        <ele>1086</ele>
        <time>2020-03-21T15:53:10.294Z</time>
      </trkpt>
      <trkpt lat="43.85728" lon="6.2565">
        <ele>1081</ele>
        <time>2020-03-21T15:53:11.294Z</time>
      </trkpt>
      <trkpt lat="43.85704" lon="6.2564">
        <ele>1076</ele>
        <time>2020-03-21T15:53:12.294Z</time>
      </trkpt>
      <trkpt lat="43.85688" lon="6.25622">
        <ele>1074</ele>
        <time>2020-03-21T15:53:13.294Z</time>
      </trkpt>
      <trkpt lat="43.85685" lon="6.25617">
        <ele>1073</ele>
        <time>2020-03-21T15:53:14.294Z</time>
      </trkpt>
      <trkpt lat="43.85675" lon="6.25602">
        <ele>1073</ele>
        <time>2020-03-21T15:53:15.294Z</time>
      </trkpt>
      <trkpt lat="43.85673" lon="6.25601">
        <ele>1073</ele>
        <time>2020-03-21T15:53:16.294Z</time>
      </trkpt>
      <trkpt lat="43.85674" lon="6.25602">
        <ele>1073</ele>
        <time>2020-03-21T15:53:17.294Z</time>
      </trkpt>
      <trkpt lat="43.85661" lon="6.25594">
        <ele>1073</ele>
        <time>2020-03-21T15:53:18.294Z</time>
      </trkpt>
      <trkpt lat="43.85644" lon="6.25582">
        <ele>1074</ele>
        <time>2020-03-21T15:53:19.294Z</time>
      </trkpt>
      <trkpt lat="43.85635" lon="6.25584">
        <ele>1074</ele>
        <time>2020-03-21T15:53:20.294Z</time>
      </trkpt>
      <trkpt lat="43.85618" lon="6.25592">
        <ele>1074</ele>
        <time>2020-03-21T15:53:21.294Z</time>
      </trkpt>
      <trkpt lat="43.85604" lon="6.25597">
        <ele>1074</ele>
        <time>2020-03-21T15:53:22.294Z</time>
      </trkpt>
      <trkpt lat="43.85587" lon="6.25602">
        <ele>1073</ele>
        <time>2020-03-21T15:53:23.294Z</time>
      </trkpt>
      <trkpt lat="43.8557" lon="6.25605">
        <ele>1073</ele>
        <time>2020-03-21T15:53:24.294Z</time>
      </trkpt>
      <trkpt lat="43.85558" lon="6.25608">
        <ele>1072</ele>
        <time>2020-03-21T15:53:25.294Z</time>
      </trkpt>
      <trkpt lat="43.85543" lon="6.25612">
        <ele>1072</ele>
        <time>2020-03-21T15:53:26.294Z</time>
      </trkpt>
      <trkpt lat="43.85519" lon="6.25607">
        <ele>1072</ele>
        <time>2020-03-21T15:53:27.294Z</time>
      </trkpt>
      <trkpt lat="43.85489" lon="6.25595">
        <ele>1072</ele>
        <time>2020-03-21T15:53:28.294Z</time>
      </trkpt>
      <trkpt lat="43.85475" lon="6.25591">
        <ele>1071</ele>
        <time>2020-03-21T15:53:29.294Z</time>
      </trkpt>
      <trkpt lat="43.85464" lon="6.25585">
        <ele>1071</ele>
        <time>2020-03-21T15:53:30.294Z</time>
      </trkpt>
      <trkpt lat="43.85446" lon="6.25577">
        <ele>1070</ele>
        <time>2020-03-21T15:53:31.294Z</time>
      </trkpt>
      <trkpt lat="43.85423" lon="6.25575">
        <ele>1068</ele>
        <time>2020-03-21T15:53:32.294Z</time>
      </trkpt>
      <trkpt lat="43.85417" lon="6.25574">
        <ele>1067</ele>
        <time>2020-03-21T15:53:33.294Z</time>
      </trkpt>
      <trkpt lat="43.8539" lon="6.25574">
        <ele>1066</ele>
        <time>2020-03-21T15:53:34.294Z</time>
      </trkpt>
      <trkpt lat="43.85376" lon="6.25562">
        <ele>1065</ele>
        <time>2020-03-21T15:53:35.294Z</time>
      </trkpt>
      <trkpt lat="43.85371" lon="6.25556">
        <ele>1064</ele>
        <time>2020-03-21T15:53:36.294Z</time>
      </trkpt>
      <trkpt lat="43.85369" lon="6.25554">
        <ele>1064</ele>
        <time>2020-03-21T15:53:37.294Z</time>
      </trkpt>
      <trkpt lat="43.8537" lon="6.25541">
        <ele>1064</ele>
        <time>2020-03-21T15:53:38.294Z</time>
      </trkpt>
      <trkpt lat="43.85371" lon="6.25532">
        <ele>1064</ele>
        <time>2020-03-21T15:53:39.294Z</time>
      </trkpt>
      <trkpt lat="43.85369" lon="6.25513">
        <ele>1064</ele>
        <time>2020-03-21T15:53:40.294Z</time>
      </trkpt>
      <trkpt lat="43.85358" lon="6.2548">
        <ele>1059</ele>
        <time>2020-03-21T15:53:41.294Z</time>
      </trkpt>
      <trkpt lat="43.85356" lon="6.25474">
        <ele>1058</ele>
        <time>2020-03-21T15:53:42.294Z</time>
      </trkpt>
      <trkpt lat="43.85349" lon="6.25452">
        <ele>1053</ele>
        <time>2020-03-21T15:53:43.294Z</time>
      </trkpt>
      <trkpt lat="43.85335" lon="6.25428">
        <ele>1046</ele>
        <time>2020-03-21T15:53:44.294Z</time>
      </trkpt>
      <trkpt lat="43.8532" lon="6.2541">
        <ele>1043</ele>
        <time>2020-03-21T15:53:45.294Z</time>
      </trkpt>
      <trkpt lat="43.8531" lon="6.25399">
        <ele>1043</ele>
        <time>2020-03-21T15:53:46.294Z</time>
      </trkpt>
      <trkpt lat="43.85299" lon="6.25387">
        <ele>1041</ele>
        <time>2020-03-21T15:53:47.294Z</time>
      </trkpt>
      <trkpt lat="43.85292" lon="6.25377">
        <ele>1040</ele>
        <time>2020-03-21T15:53:48.294Z</time>
      </trkpt>
      <trkpt lat="43.85274" lon="6.2535">
        <ele>1035</ele>
        <time>2020-03-21T15:53:49.294Z</time>
      </trkpt>
      <trkpt lat="43.8526" lon="6.25326">
        <ele>1031</ele>
        <time>2020-03-21T15:53:50.294Z</time>
      </trkpt>
      <trkpt lat="43.85252" lon="6.25294">
        <ele>1025</ele>
        <time>2020-03-21T15:53:51.294Z</time>
      </trkpt>
      <trkpt lat="43.85251" lon="6.25286">
        <ele>1024</ele>
        <time>2020-03-21T15:53:52.294Z</time>
      </trkpt>
      <trkpt lat="43.85241" lon="6.25252">
        <ele>1021</ele>
        <time>2020-03-21T15:53:53.294Z</time>
      </trkpt>
      <trkpt lat="43.85236" lon="6.25234">
        <ele>1020</ele>
        <time>2020-03-21T15:53:54.294Z</time>
      </trkpt>
      <trkpt lat="43.85228" lon="6.25213">
        <ele>1019</ele>
        <time>2020-03-21T15:53:55.294Z</time>
      </trkpt>
      <trkpt lat="43.85224" lon="6.25193">
        <ele>1018</ele>
        <time>2020-03-21T15:53:56.294Z</time>
      </trkpt>
      <trkpt lat="43.85221" lon="6.25179">
        <ele>1016</ele>
        <time>2020-03-21T15:53:57.294Z</time>
      </trkpt>
      <trkpt lat="43.85221" lon="6.25158">
        <ele>1014</ele>
        <time>2020-03-21T15:53:58.294Z</time>
      </trkpt>
      <trkpt lat="43.85215" lon="6.25127">
        <ele>1011</ele>
        <time>2020-03-21T15:53:59.294Z</time>
      </trkpt>
      <trkpt lat="43.85206" lon="6.25109">
        <ele>1010</ele>
        <time>2020-03-21T15:54:00.294Z</time>
      </trkpt>
      <trkpt lat="43.85192" lon="6.25078">
        <ele>1007</ele>
        <time>2020-03-21T15:54:01.294Z</time>
      </trkpt>
      <trkpt lat="43.85183" lon="6.2504">
        <ele>1000</ele>
        <time>2020-03-21T15:54:02.294Z</time>
      </trkpt>
      <trkpt lat="43.85177" lon="6.25022">
        <ele>997</ele>
        <time>2020-03-21T15:54:03.294Z</time>
      </trkpt>
      <trkpt lat="43.85164" lon="6.24999">
        <ele>993</ele>
        <time>2020-03-21T15:54:04.294Z</time>
      </trkpt>
      <trkpt lat="43.8515" lon="6.24971">
        <ele>989</ele>
        <time>2020-03-21T15:54:05.294Z</time>
      </trkpt>
      <trkpt lat="43.85134" lon="6.24946">
        <ele>985</ele>
        <time>2020-03-21T15:54:06.294Z</time>
      </trkpt>
      <trkpt lat="43.85123" lon="6.24924">
        <ele>982</ele>
        <time>2020-03-21T15:54:07.294Z</time>
      </trkpt>
      <trkpt lat="43.85106" lon="6.24906">
        <ele>980</ele>
        <time>2020-03-21T15:54:08.294Z</time>
      </trkpt>
      <trkpt lat="43.85077" lon="6.24881">
        <ele>980</ele>
        <time>2020-03-21T15:54:09.294Z</time>
      </trkpt>
      <trkpt lat="43.85063" lon="6.24879">
        <ele>979</ele>
        <time>2020-03-21T15:54:10.294Z</time>
      </trkpt>
      <trkpt lat="43.85051" lon="6.24868">
        <ele>979</ele>
        <time>2020-03-21T15:54:11.294Z</time>
      </trkpt>
      <trkpt lat="43.85045" lon="6.24862">
        <ele>978</ele>
        <time>2020-03-21T15:54:12.294Z</time>
      </trkpt>
      <trkpt lat="43.85036" lon="6.24854">
        <ele>978</ele>
        <time>2020-03-21T15:54:13.294Z</time>
      </trkpt>
      <trkpt lat="43.85036" lon="6.24854">
        <ele>978</ele>
        <time>2020-03-21T15:54:14.294Z</time>
      </trkpt>
      <trkpt lat="43.85038" lon="6.24842">
        <ele>977</ele>
        <time>2020-03-21T15:54:15.294Z</time>
      </trkpt>
      <trkpt lat="43.85032" lon="6.24836">
        <ele>976</ele>
        <time>2020-03-21T15:54:16.294Z</time>
      </trkpt>
      <trkpt lat="43.85019" lon="6.24821">
        <ele>976</ele>
        <time>2020-03-21T15:54:17.294Z</time>
      </trkpt>
      <trkpt lat="43.85002" lon="6.24807">
        <ele>976</ele>
        <time>2020-03-21T15:54:18.294Z</time>
      </trkpt>
      <trkpt lat="43.84983" lon="6.24789">
        <ele>975</ele>
        <time>2020-03-21T15:54:19.294Z</time>
      </trkpt>
      <trkpt lat="43.84959" lon="6.24738">
        <ele>973</ele>
        <time>2020-03-21T15:54:20.294Z</time>
      </trkpt>
      <trkpt lat="43.84958" lon="6.24736">
        <ele>973</ele>
        <time>2020-03-21T15:54:21.294Z</time>
      </trkpt>
      <trkpt lat="43.84958" lon="6.24736">
        <ele>973</ele>
        <time>2020-03-21T15:54:22.294Z</time>
      </trkpt>
      <trkpt lat="43.84957" lon="6.24737">
        <ele>973</ele>
        <time>2020-03-21T15:54:23.294Z</time>
      </trkpt>
      <trkpt lat="43.84957" lon="6.24735">
        <ele>973</ele>
        <time>2020-03-21T15:54:24.294Z</time>
      </trkpt>
      <trkpt lat="43.84956" lon="6.24732">
        <ele>973</ele>
        <time>2020-03-21T15:54:25.294Z</time>
      </trkpt>
      <trkpt lat="43.84953" lon="6.2473">
        <ele>973</ele>
        <time>2020-03-21T15:54:26.294Z</time>
      </trkpt>
      <trkpt lat="43.84952" lon="6.2473">
        <ele>973</ele>
        <time>2020-03-21T15:54:27.294Z</time>
      </trkpt>
      <trkpt lat="43.84953" lon="6.24729">
        <ele>973</ele>
        <time>2020-03-21T15:54:28.294Z</time>
      </trkpt>
      <trkpt lat="43.84953" lon="6.24729">
        <ele>973</ele>
        <time>2020-03-21T15:54:29.294Z</time>
      </trkpt>
      <trkpt lat="43.84963" lon="6.24722">
        <ele>973</ele>
        <time>2020-03-21T15:54:30.294Z</time>
      </trkpt>
      <trkpt lat="43.84983" lon="6.2471">
        <ele>972</ele>
        <time>2020-03-21T15:54:31.294Z</time>
      </trkpt>
      <trkpt lat="43.85017" lon="6.24687">
        <ele>969</ele>
        <time>2020-03-21T15:54:32.294Z</time>
      </trkpt>
      <trkpt lat="43.85049" lon="6.24668">
        <ele>965</ele>
        <time>2020-03-21T15:54:33.294Z</time>
      </trkpt>
      <trkpt lat="43.85067" lon="6.24655">
        <ele>963</ele>
        <time>2020-03-21T15:54:34.294Z</time>
      </trkpt>
      <trkpt lat="43.85096" lon="6.24637">
        <ele>961</ele>
        <time>2020-03-21T15:54:35.294Z</time>
      </trkpt>
      <trkpt lat="43.85115" lon="6.24625">
        <ele>961</ele>
        <time>2020-03-21T15:54:36.294Z</time>
      </trkpt>
      <trkpt lat="43.85129" lon="6.24612">
        <ele>960</ele>
        <time>2020-03-21T15:54:37.294Z</time>
      </trkpt>
      <trkpt lat="43.85137" lon="6.24606">
        <ele>960</ele>
        <time>2020-03-21T15:54:38.294Z</time>
      </trkpt>
      <trkpt lat="43.85159" lon="6.24586">
        <ele>958</ele>
        <time>2020-03-21T15:54:39.294Z</time>
      </trkpt>
      <trkpt lat="43.85184" lon="6.24564">
        <ele>959</ele>
        <time>2020-03-21T15:54:40.294Z</time>
      </trkpt>
      <trkpt lat="43.85207" lon="6.24544">
        <ele>961</ele>
        <time>2020-03-21T15:54:41.294Z</time>
      </trkpt>
      <trkpt lat="43.8523" lon="6.24532">
        <ele>963</ele>
        <time>2020-03-21T15:54:42.294Z</time>
      </trkpt>
      <trkpt lat="43.8525" lon="6.2452">
        <ele>965</ele>
        <time>2020-03-21T15:54:43.294Z</time>
      </trkpt>
      <trkpt lat="43.85274" lon="6.24506">
        <ele>964</ele>
        <time>2020-03-21T15:54:44.294Z</time>
      </trkpt>
      <trkpt lat="43.85282" lon="6.245">
        <ele>964</ele>
        <time>2020-03-21T15:54:45.294Z</time>
      </trkpt>
      <trkpt lat="43.85309" lon="6.2448">
        <ele>963</ele>
        <time>2020-03-21T15:54:46.294Z</time>
      </trkpt>
      <trkpt lat="43.85317" lon="6.24476">
        <ele>963</ele>
        <time>2020-03-21T15:54:47.294Z</time>
      </trkpt>
      <trkpt lat="43.85329" lon="6.24467">
        <ele>962</ele>
        <time>2020-03-21T15:54:48.294Z</time>
      </trkpt>
      <trkpt lat="43.85361" lon="6.24451">
        <ele>960</ele>
        <time>2020-03-21T15:54:49.294Z</time>
      </trkpt>
      <trkpt lat="43.8541" lon="6.24426">
        <ele>956</ele>
        <time>2020-03-21T15:54:50.294Z</time>
      </trkpt>
      <trkpt lat="43.85437" lon="6.24424">
        <ele>954</ele>
        <time>2020-03-21T15:54:51.294Z</time>
      </trkpt>
      <trkpt lat="43.85443" lon="6.24427">
        <ele>954</ele>
        <time>2020-03-21T15:54:52.294Z</time>
      </trkpt>
      <trkpt lat="43.85457" lon="6.24433">
        <ele>953</ele>
        <time>2020-03-21T15:54:53.294Z</time>
      </trkpt>
      <trkpt lat="43.8549" lon="6.24451">
        <ele>952</ele>
        <time>2020-03-21T15:54:54.294Z</time>
      </trkpt>
      <trkpt lat="43.85522" lon="6.24453">
        <ele>953</ele>
        <time>2020-03-21T15:54:55.294Z</time>
      </trkpt>
      <trkpt lat="43.85536" lon="6.24446">
        <ele>953</ele>
        <time>2020-03-21T15:54:56.294Z</time>
      </trkpt>
      <trkpt lat="43.85539" lon="6.24444">
        <ele>953</ele>
        <time>2020-03-21T15:54:57.294Z</time>
      </trkpt>
      <trkpt lat="43.85558" lon="6.24439">
        <ele>954</ele>
        <time>2020-03-21T15:54:58.294Z</time>
      </trkpt>
      <trkpt lat="43.85576" lon="6.24438">
        <ele>955</ele>
        <time>2020-03-21T15:54:59.294Z</time>
      </trkpt>
      <trkpt lat="43.85616" lon="6.24449">
        <ele>956</ele>
        <time>2020-03-21T15:55:00.294Z</time>
      </trkpt>
      <trkpt lat="43.85658" lon="6.24453">
        <ele>957</ele>
        <time>2020-03-21T15:55:01.294Z</time>
      </trkpt>
      <trkpt lat="43.85669" lon="6.24451">
        <ele>957</ele>
        <time>2020-03-21T15:55:02.294Z</time>
      </trkpt>
      <trkpt lat="43.85679" lon="6.2444">
        <ele>957</ele>
        <time>2020-03-21T15:55:03.294Z</time>
      </trkpt>
      <trkpt lat="43.85679" lon="6.24426">
        <ele>957</ele>
        <time>2020-03-21T15:55:04.294Z</time>
      </trkpt>
      <trkpt lat="43.8567" lon="6.24409">
        <ele>956</ele>
        <time>2020-03-21T15:55:05.294Z</time>
      </trkpt>
      <trkpt lat="43.85658" lon="6.24387">
        <ele>954</ele>
        <time>2020-03-21T15:55:06.294Z</time>
      </trkpt>
      <trkpt lat="43.85645" lon="6.24361">
        <ele>953</ele>
        <time>2020-03-21T15:55:07.294Z</time>
      </trkpt>
      <trkpt lat="43.85634" lon="6.24334">
        <ele>951</ele>
        <time>2020-03-21T15:55:08.294Z</time>
      </trkpt>
      <trkpt lat="43.85616" lon="6.24292">
        <ele>952</ele>
        <time>2020-03-21T15:55:09.294Z</time>
      </trkpt>
      <trkpt lat="43.85611" lon="6.2428">
        <ele>952</ele>
        <time>2020-03-21T15:55:10.294Z</time>
      </trkpt>
      <trkpt lat="43.85609" lon="6.24257">
        <ele>952</ele>
        <time>2020-03-21T15:55:11.294Z</time>
      </trkpt>
      <trkpt lat="43.85613" lon="6.24249">
        <ele>952</ele>
        <time>2020-03-21T15:55:12.294Z</time>
      </trkpt>
      <trkpt lat="43.8564" lon="6.24215">
        <ele>955</ele>
        <time>2020-03-21T15:55:13.294Z</time>
      </trkpt>
      <trkpt lat="43.85646" lon="6.24196">
        <ele>956</ele>
        <time>2020-03-21T15:55:14.294Z</time>
      </trkpt>
      <trkpt lat="43.85642" lon="6.2418">
        <ele>957</ele>
        <time>2020-03-21T15:55:15.294Z</time>
      </trkpt>
      <trkpt lat="43.85632" lon="6.24172">
        <ele>957</ele>
        <time>2020-03-21T15:55:16.294Z</time>
      </trkpt>
      <trkpt lat="43.85618" lon="6.24153">
        <ele>959</ele>
        <time>2020-03-21T15:55:17.294Z</time>
      </trkpt>
      <trkpt lat="43.85612" lon="6.2413">
        <ele>961</ele>
        <time>2020-03-21T15:55:18.294Z</time>
      </trkpt>
      <trkpt lat="43.85613" lon="6.24101">
        <ele>963</ele>
        <time>2020-03-21T15:55:19.294Z</time>
      </trkpt>
      <trkpt lat="43.85619" lon="6.24063">
        <ele>966</ele>
        <time>2020-03-21T15:55:20.294Z</time>
      </trkpt>
      <trkpt lat="43.85628" lon="6.24037">
        <ele>967</ele>
        <time>2020-03-21T15:55:21.294Z</time>
      </trkpt>
      <trkpt lat="43.85633" lon="6.24012">
        <ele>968</ele>
        <time>2020-03-21T15:55:22.294Z</time>
      </trkpt>
      <trkpt lat="43.8563" lon="6.23984">
        <ele>970</ele>
        <time>2020-03-21T15:55:23.294Z</time>
      </trkpt>
      <trkpt lat="43.85623" lon="6.23967">
        <ele>971</ele>
        <time>2020-03-21T15:55:24.294Z</time>
      </trkpt>
      <trkpt lat="43.85615" lon="6.23945">
        <ele>972</ele>
        <time>2020-03-21T15:55:25.294Z</time>
      </trkpt>
      <trkpt lat="43.85613" lon="6.23919">
        <ele>973</ele>
        <time>2020-03-21T15:55:26.294Z</time>
      </trkpt>
      <trkpt lat="43.85616" lon="6.2389">
        <ele>974</ele>
        <time>2020-03-21T15:55:27.294Z</time>
      </trkpt>
      <trkpt lat="43.85618" lon="6.23845">
        <ele>974</ele>
        <time>2020-03-21T15:55:28.294Z</time>
      </trkpt>
      <trkpt lat="43.85621" lon="6.23814">
        <ele>975</ele>
        <time>2020-03-21T15:55:29.294Z</time>
      </trkpt>
      <trkpt lat="43.85623" lon="6.2378">
        <ele>975</ele>
        <time>2020-03-21T15:55:30.294Z</time>
      </trkpt>
      <trkpt lat="43.85625" lon="6.23748">
        <ele>975</ele>
        <time>2020-03-21T15:55:31.294Z</time>
      </trkpt>
      <trkpt lat="43.85633" lon="6.23715">
        <ele>975</ele>
        <time>2020-03-21T15:55:32.294Z</time>
      </trkpt>
      <trkpt lat="43.85648" lon="6.23669">
        <ele>975</ele>
        <time>2020-03-21T15:55:33.294Z</time>
      </trkpt>
      <trkpt lat="43.85671" lon="6.23632">
        <ele>976</ele>
        <time>2020-03-21T15:55:34.294Z</time>
      </trkpt>
      <trkpt lat="43.85685" lon="6.23599">
        <ele>976</ele>
        <time>2020-03-21T15:55:35.294Z</time>
      </trkpt>
      <trkpt lat="43.85693" lon="6.23583">
        <ele>976</ele>
        <time>2020-03-21T15:55:36.294Z</time>
      </trkpt>
      <trkpt lat="43.85699" lon="6.23574">
        <ele>976</ele>
        <time>2020-03-21T15:55:37.294Z</time>
      </trkpt>
      <trkpt lat="43.8572" lon="6.2355">
        <ele>976</ele>
        <time>2020-03-21T15:55:38.294Z</time>
      </trkpt>
      <trkpt lat="43.8573" lon="6.23539">
        <ele>976</ele>
        <time>2020-03-21T15:55:39.294Z</time>
      </trkpt>
      <trkpt lat="43.85741" lon="6.23532">
        <ele>976</ele>
        <time>2020-03-21T15:55:40.294Z</time>
      </trkpt>
      <trkpt lat="43.85776" lon="6.23528">
        <ele>974</ele>
        <time>2020-03-21T15:55:41.294Z</time>
      </trkpt>
      <trkpt lat="43.85787" lon="6.23526">
        <ele>974</ele>
        <time>2020-03-21T15:55:42.294Z</time>
      </trkpt>
      <trkpt lat="43.85815" lon="6.23522">
        <ele>972</ele>
        <time>2020-03-21T15:55:43.294Z</time>
      </trkpt>
      <trkpt lat="43.85852" lon="6.23533">
        <ele>970</ele>
        <time>2020-03-21T15:55:44.294Z</time>
      </trkpt>
      <trkpt lat="43.85858" lon="6.23534">
        <ele>970</ele>
        <time>2020-03-21T15:55:45.294Z</time>
      </trkpt>
      <trkpt lat="43.85866" lon="6.23537">
        <ele>969</ele>
        <time>2020-03-21T15:55:46.294Z</time>
      </trkpt>
      <trkpt lat="43.85872" lon="6.23529">
        <ele>967</ele>
        <time>2020-03-21T15:55:47.294Z</time>
      </trkpt>
      <trkpt lat="43.85864" lon="6.23507">
        <ele>963</ele>
        <time>2020-03-21T15:55:48.294Z</time>
      </trkpt>
      <trkpt lat="43.85868" lon="6.23496">
        <ele>961</ele>
        <time>2020-03-21T15:55:49.294Z</time>
      </trkpt>
      <trkpt lat="43.85876" lon="6.23501">
        <ele>960</ele>
        <time>2020-03-21T15:55:50.294Z</time>
      </trkpt>
      <trkpt lat="43.85888" lon="6.23508">
        <ele>960</ele>
        <time>2020-03-21T15:55:51.294Z</time>
      </trkpt>
      <trkpt lat="43.8591" lon="6.23519">
        <ele>960</ele>
        <time>2020-03-21T15:55:52.294Z</time>
      </trkpt>
      <trkpt lat="43.85937" lon="6.23529">
        <ele>957</ele>
        <time>2020-03-21T15:55:53.294Z</time>
      </trkpt>
      <trkpt lat="43.85962" lon="6.23537">
        <ele>955</ele>
        <time>2020-03-21T15:55:54.294Z</time>
      </trkpt>
      <trkpt lat="43.85973" lon="6.23539">
        <ele>953</ele>
        <time>2020-03-21T15:55:55.294Z</time>
      </trkpt>
      <trkpt lat="43.85974" lon="6.23537">
        <ele>953</ele>
        <time>2020-03-21T15:55:56.294Z</time>
      </trkpt>
      <trkpt lat="43.85967" lon="6.23516">
        <ele>951</ele>
        <time>2020-03-21T15:55:57.294Z</time>
      </trkpt>
      <trkpt lat="43.85962" lon="6.23506">
        <ele>949</ele>
        <time>2020-03-21T15:55:58.294Z</time>
      </trkpt>
      <trkpt lat="43.85949" lon="6.23481">
        <ele>947</ele>
        <time>2020-03-21T15:55:59.294Z</time>
      </trkpt>
      <trkpt lat="43.85945" lon="6.23474">
        <ele>946</ele>
        <time>2020-03-21T15:56:00.294Z</time>
      </trkpt>
      <trkpt lat="43.8594" lon="6.23454">
        <ele>944</ele>
        <time>2020-03-21T15:56:01.294Z</time>
      </trkpt>
      <trkpt lat="43.85949" lon="6.23452">
        <ele>942</ele>
        <time>2020-03-21T15:56:02.294Z</time>
      </trkpt>
      <trkpt lat="43.85963" lon="6.23461">
        <ele>942</ele>
        <time>2020-03-21T15:56:03.294Z</time>
      </trkpt>
      <trkpt lat="43.85991" lon="6.23488">
        <ele>943</ele>
        <time>2020-03-21T15:56:04.294Z</time>
      </trkpt>
      <trkpt lat="43.85995" lon="6.23492">
        <ele>943</ele>
        <time>2020-03-21T15:56:05.294Z</time>
      </trkpt>
      <trkpt lat="43.86002" lon="6.23487">
        <ele>942</ele>
        <time>2020-03-21T15:56:06.294Z</time>
      </trkpt>
      <trkpt lat="43.85996" lon="6.23454">
        <ele>938</ele>
        <time>2020-03-21T15:56:07.294Z</time>
      </trkpt>
      <trkpt lat="43.8599" lon="6.23429">
        <ele>936</ele>
        <time>2020-03-21T15:56:08.294Z</time>
      </trkpt>
      <trkpt lat="43.85984" lon="6.23417">
        <ele>935</ele>
        <time>2020-03-21T15:56:09.294Z</time>
      </trkpt>
      <trkpt lat="43.85983" lon="6.23408">
        <ele>935</ele>
        <time>2020-03-21T15:56:10.294Z</time>
      </trkpt>
      <trkpt lat="43.85989" lon="6.23386">
        <ele>934</ele>
        <time>2020-03-21T15:56:11.294Z</time>
      </trkpt>
      <trkpt lat="43.85998" lon="6.23378">
        <ele>934</ele>
        <time>2020-03-21T15:56:12.294Z</time>
      </trkpt>
      <trkpt lat="43.8602" lon="6.23366">
        <ele>935</ele>
        <time>2020-03-21T15:56:13.294Z</time>
      </trkpt>
      <trkpt lat="43.86019" lon="6.23361">
        <ele>935</ele>
        <time>2020-03-21T15:56:14.294Z</time>
      </trkpt>
      <trkpt lat="43.86017" lon="6.23361">
        <ele>934</ele>
        <time>2020-03-21T15:56:15.294Z</time>
      </trkpt>
      <trkpt lat="43.85992" lon="6.23369">
        <ele>934</ele>
        <time>2020-03-21T15:56:16.294Z</time>
      </trkpt>
      <trkpt lat="43.85966" lon="6.23372">
        <ele>934</ele>
        <time>2020-03-21T15:56:17.294Z</time>
      </trkpt>
      <trkpt lat="43.85954" lon="6.23382">
        <ele>935</ele>
        <time>2020-03-21T15:56:18.294Z</time>
      </trkpt>
      <trkpt lat="43.85952" lon="6.23382">
        <ele>935</ele>
        <time>2020-03-21T15:56:19.294Z</time>
      </trkpt>
      <trkpt lat="43.85947" lon="6.23378">
        <ele>935</ele>
        <time>2020-03-21T15:56:20.294Z</time>
      </trkpt>
      <trkpt lat="43.85941" lon="6.23375">
        <ele>935</ele>
        <time>2020-03-21T15:56:21.294Z</time>
      </trkpt>
      <trkpt lat="43.85934" lon="6.23364">
        <ele>935</ele>
        <time>2020-03-21T15:56:22.294Z</time>
      </trkpt>
      <trkpt lat="43.8593" lon="6.23362">
        <ele>934</ele>
        <time>2020-03-21T15:56:23.294Z</time>
      </trkpt>
      <trkpt lat="43.85928" lon="6.23362">
        <ele>935</ele>
        <time>2020-03-21T15:56:24.294Z</time>
      </trkpt>
      <trkpt lat="43.85908" lon="6.23359">
        <ele>935</ele>
        <time>2020-03-21T15:56:25.294Z</time>
      </trkpt>
      <trkpt lat="43.85892" lon="6.23352">
        <ele>934</ele>
        <time>2020-03-21T15:56:26.294Z</time>
      </trkpt>
      <trkpt lat="43.85887" lon="6.23351">
        <ele>934</ele>
        <time>2020-03-21T15:56:27.294Z</time>
      </trkpt>
      <trkpt lat="43.85882" lon="6.23348">
        <ele>934</ele>
        <time>2020-03-21T15:56:28.294Z</time>
      </trkpt>
      <trkpt lat="43.85882" lon="6.23344">
        <ele>933</ele>
        <time>2020-03-21T15:56:29.294Z</time>
      </trkpt>
      <trkpt lat="43.85883" lon="6.23341">
        <ele>933</ele>
        <time>2020-03-21T15:56:30.294Z</time>
      </trkpt>
      <trkpt lat="43.85876" lon="6.23338">
        <ele>933</ele>
        <time>2020-03-21T15:56:31.294Z</time>
      </trkpt>
      <trkpt lat="43.85869" lon="6.23321">
        <ele>933</ele>
        <time>2020-03-21T15:56:32.294Z</time>
      </trkpt>
      <trkpt lat="43.85866" lon="6.23306">
        <ele>935</ele>
        <time>2020-03-21T15:56:33.294Z</time>
      </trkpt>
      <trkpt lat="43.85862" lon="6.233">
        <ele>936</ele>
        <time>2020-03-21T15:56:34.294Z</time>
      </trkpt>
      <trkpt lat="43.8586" lon="6.23294">
        <ele>936</ele>
        <time>2020-03-21T15:56:35.294Z</time>
      </trkpt>
      <trkpt lat="43.85859" lon="6.23289">
        <ele>937</ele>
        <time>2020-03-21T15:56:36.294Z</time>
      </trkpt>
      <trkpt lat="43.85858" lon="6.23281">
        <ele>937</ele>
        <time>2020-03-21T15:56:37.294Z</time>
      </trkpt>
      <trkpt lat="43.85858" lon="6.23275">
        <ele>938</ele>
        <time>2020-03-21T15:56:38.294Z</time>
      </trkpt>
      <trkpt lat="43.85856" lon="6.2327">
        <ele>938</ele>
        <time>2020-03-21T15:56:39.294Z</time>
      </trkpt>
      <trkpt lat="43.85858" lon="6.23266">
        <ele>939</ele>
        <time>2020-03-21T15:56:40.294Z</time>
      </trkpt>
      <trkpt lat="43.85858" lon="6.23263">
        <ele>939</ele>
        <time>2020-03-21T15:56:41.294Z</time>
      </trkpt>
      <trkpt lat="43.8586" lon="6.23261">
        <ele>940</ele>
        <time>2020-03-21T15:56:42.294Z</time>
      </trkpt>
      <trkpt lat="43.8586" lon="6.23257">
        <ele>940</ele>
        <time>2020-03-21T15:56:43.294Z</time>
      </trkpt>
      <trkpt lat="43.8586" lon="6.23253">
        <ele>941</ele>
        <time>2020-03-21T15:56:44.294Z</time>
      </trkpt>
      <trkpt lat="43.85861" lon="6.23251">
        <ele>941</ele>
        <time>2020-03-21T15:56:45.294Z</time>
      </trkpt>
      <trkpt lat="43.8586" lon="6.23248">
        <ele>942</ele>
        <time>2020-03-21T15:56:46.294Z</time>
      </trkpt>
      <trkpt lat="43.85859" lon="6.23247">
        <ele>942</ele>
        <time>2020-03-21T15:56:47.294Z</time>
      </trkpt>
      <trkpt lat="43.85856" lon="6.23242">
        <ele>942</ele>
        <time>2020-03-21T15:56:48.294Z</time>
      </trkpt>
      <trkpt lat="43.85848" lon="6.23233">
        <ele>943</ele>
        <time>2020-03-21T15:56:49.294Z</time>
      </trkpt>
      <trkpt lat="43.85834" lon="6.23222">
        <ele>942</ele>
        <time>2020-03-21T15:56:50.294Z</time>
      </trkpt>
      <trkpt lat="43.85829" lon="6.23218">
        <ele>942</ele>
        <time>2020-03-21T15:56:51.294Z</time>
      </trkpt>
      <trkpt lat="43.85822" lon="6.23203">
        <ele>945</ele>
        <time>2020-03-21T15:56:52.294Z</time>
      </trkpt>
      <trkpt lat="43.85817" lon="6.23192">
        <ele>946</ele>
        <time>2020-03-21T15:56:53.294Z</time>
      </trkpt>
      <trkpt lat="43.85814" lon="6.23183">
        <ele>947</ele>
        <time>2020-03-21T15:56:54.294Z</time>
      </trkpt>
      <trkpt lat="43.85812" lon="6.23177">
        <ele>947</ele>
        <time>2020-03-21T15:56:55.294Z</time>
      </trkpt>
      <trkpt lat="43.85804" lon="6.23161">
        <ele>948</ele>
        <time>2020-03-21T15:56:56.294Z</time>
      </trkpt>
      <trkpt lat="43.85798" lon="6.23153">
        <ele>947</ele>
        <time>2020-03-21T15:56:57.294Z</time>
      </trkpt>
      <trkpt lat="43.85794" lon="6.23146">
        <ele>947</ele>
        <time>2020-03-21T15:56:58.294Z</time>
      </trkpt>
      <trkpt lat="43.85793" lon="6.23141">
        <ele>947</ele>
        <time>2020-03-21T15:56:59.294Z</time>
      </trkpt>
      <trkpt lat="43.85791" lon="6.23135">
        <ele>948</ele>
        <time>2020-03-21T15:57:00.294Z</time>
      </trkpt>
      <trkpt lat="43.85791" lon="6.23126">
        <ele>949</ele>
        <time>2020-03-21T15:57:01.294Z</time>
      </trkpt>
      <trkpt lat="43.85789" lon="6.23117">
        <ele>949</ele>
        <time>2020-03-21T15:57:02.294Z</time>
      </trkpt>
      <trkpt lat="43.85787" lon="6.23107">
        <ele>950</ele>
        <time>2020-03-21T15:57:03.294Z</time>
      </trkpt>
      <trkpt lat="43.85787" lon="6.23104">
        <ele>950</ele>
        <time>2020-03-21T15:57:04.294Z</time>
      </trkpt>
      <trkpt lat="43.85788" lon="6.23095">
        <ele>951</ele>
        <time>2020-03-21T15:57:05.294Z</time>
      </trkpt>
      <trkpt lat="43.85789" lon="6.23082">
        <ele>953</ele>
        <time>2020-03-21T15:57:06.294Z</time>
      </trkpt>
      <trkpt lat="43.85789" lon="6.23075">
        <ele>954</ele>
        <time>2020-03-21T15:57:07.294Z</time>
      </trkpt>
      <trkpt lat="43.85785" lon="6.2307">
        <ele>953</ele>
        <time>2020-03-21T15:57:08.294Z</time>
      </trkpt>
      <trkpt lat="43.85783" lon="6.2306">
        <ele>954</ele>
        <time>2020-03-21T15:57:09.294Z</time>
      </trkpt>
      <trkpt lat="43.8578" lon="6.23053">
        <ele>955</ele>
        <time>2020-03-21T15:57:10.294Z</time>
      </trkpt>
      <trkpt lat="43.85779" lon="6.23047">
        <ele>955</ele>
        <time>2020-03-21T15:57:11.294Z</time>
      </trkpt>
      <trkpt lat="43.85779" lon="6.23046">
        <ele>955</ele>
        <time>2020-03-21T15:57:12.294Z</time>
      </trkpt>
      <trkpt lat="43.85778" lon="6.23041">
        <ele>956</ele>
        <time>2020-03-21T15:57:13.294Z</time>
      </trkpt>
      <trkpt lat="43.8578" lon="6.23034">
        <ele>958</ele>
        <time>2020-03-21T15:57:14.294Z</time>
      </trkpt>
      <trkpt lat="43.8578" lon="6.2303">
        <ele>958</ele>
        <time>2020-03-21T15:57:15.294Z</time>
      </trkpt>
      <trkpt lat="43.85779" lon="6.23028">
        <ele>959</ele>
        <time>2020-03-21T15:57:16.294Z</time>
      </trkpt>
      <trkpt lat="43.85779" lon="6.23027">
        <ele>959</ele>
        <time>2020-03-21T15:57:17.294Z</time>
      </trkpt>
      <trkpt lat="43.85776" lon="6.23022">
        <ele>958</ele>
        <time>2020-03-21T15:57:18.294Z</time>
      </trkpt>
      <trkpt lat="43.85774" lon="6.23013">
        <ele>959</ele>
        <time>2020-03-21T15:57:19.294Z</time>
      </trkpt>
      <trkpt lat="43.85775" lon="6.23002">
        <ele>961</ele>
        <time>2020-03-21T15:57:20.294Z</time>
      </trkpt>
      <trkpt lat="43.85775" lon="6.22992">
        <ele>963</ele>
        <time>2020-03-21T15:57:21.294Z</time>
      </trkpt>
      <trkpt lat="43.85775" lon="6.22982">
        <ele>965</ele>
        <time>2020-03-21T15:57:22.294Z</time>
      </trkpt>
      <trkpt lat="43.85776" lon="6.22974">
        <ele>967</ele>
        <time>2020-03-21T15:57:23.294Z</time>
      </trkpt>
      <trkpt lat="43.85776" lon="6.22971">
        <ele>967</ele>
        <time>2020-03-21T15:57:24.294Z</time>
      </trkpt>
      <trkpt lat="43.85773" lon="6.22961">
        <ele>968</ele>
        <time>2020-03-21T15:57:25.294Z</time>
      </trkpt>
      <trkpt lat="43.85767" lon="6.22952">
        <ele>968</ele>
        <time>2020-03-21T15:57:26.294Z</time>
      </trkpt>
      <trkpt lat="43.85759" lon="6.22945">
        <ele>967</ele>
        <time>2020-03-21T15:57:27.294Z</time>
      </trkpt>
      <trkpt lat="43.85751" lon="6.22934">
        <ele>967</ele>
        <time>2020-03-21T15:57:28.294Z</time>
      </trkpt>
      <trkpt lat="43.85748" lon="6.22932">
        <ele>967</ele>
        <time>2020-03-21T15:57:29.294Z</time>
      </trkpt>
      <trkpt lat="43.85742" lon="6.22924">
        <ele>967</ele>
        <time>2020-03-21T15:57:30.294Z</time>
      </trkpt>
      <trkpt lat="43.8574" lon="6.2292">
        <ele>967</ele>
        <time>2020-03-21T15:57:31.294Z</time>
      </trkpt>
      <trkpt lat="43.85737" lon="6.22912">
        <ele>968</ele>
        <time>2020-03-21T15:57:32.294Z</time>
      </trkpt>
      <trkpt lat="43.85727" lon="6.22897">
        <ele>969</ele>
        <time>2020-03-21T15:57:33.294Z</time>
      </trkpt>
      <trkpt lat="43.85721" lon="6.22886">
        <ele>970</ele>
        <time>2020-03-21T15:57:34.294Z</time>
      </trkpt>
      <trkpt lat="43.85717" lon="6.22875">
        <ele>972</ele>
        <time>2020-03-21T15:57:35.294Z</time>
      </trkpt>
      <trkpt lat="43.85717" lon="6.22869">
        <ele>973</ele>
        <time>2020-03-21T15:57:36.294Z</time>
      </trkpt>
      <trkpt lat="43.85718" lon="6.2287">
        <ele>973</ele>
        <time>2020-03-21T15:57:37.294Z</time>
      </trkpt>
      <trkpt lat="43.85722" lon="6.2287">
        <ele>974</ele>
        <time>2020-03-21T15:57:38.294Z</time>
      </trkpt>
      <trkpt lat="43.85737" lon="6.22872">
        <ele>975</ele>
        <time>2020-03-21T15:57:39.294Z</time>
      </trkpt>
      <trkpt lat="43.8575" lon="6.22873">
        <ele>977</ele>
        <time>2020-03-21T15:57:40.294Z</time>
      </trkpt>
      <trkpt lat="43.85769" lon="6.22873">
        <ele>980</ele>
        <time>2020-03-21T15:57:41.294Z</time>
      </trkpt>
      <trkpt lat="43.85783" lon="6.22875">
        <ele>982</ele>
        <time>2020-03-21T15:57:42.294Z</time>
      </trkpt>
      <trkpt lat="43.85785" lon="6.22875">
        <ele>982</ele>
        <time>2020-03-21T15:57:43.294Z</time>
      </trkpt>
      <trkpt lat="43.85797" lon="6.22877">
        <ele>984</ele>
        <time>2020-03-21T15:57:44.294Z</time>
      </trkpt>
      <trkpt lat="43.85803" lon="6.22878">
        <ele>984</ele>
        <time>2020-03-21T15:57:45.294Z</time>
      </trkpt>
      <trkpt lat="43.85804" lon="6.22865">
        <ele>986</ele>
        <time>2020-03-21T15:57:46.294Z</time>
      </trkpt>
      <trkpt lat="43.858" lon="6.22857">
        <ele>986</ele>
        <time>2020-03-21T15:57:47.294Z</time>
      </trkpt>
      <trkpt lat="43.85778" lon="6.22834">
        <ele>985</ele>
        <time>2020-03-21T15:57:48.294Z</time>
      </trkpt>
      <trkpt lat="43.85765" lon="6.22812">
        <ele>985</ele>
        <time>2020-03-21T15:57:49.294Z</time>
      </trkpt>
      <trkpt lat="43.85756" lon="6.22795">
        <ele>984</ele>
        <time>2020-03-21T15:57:50.294Z</time>
      </trkpt>
      <trkpt lat="43.85749" lon="6.22773">
        <ele>984</ele>
        <time>2020-03-21T15:57:51.294Z</time>
      </trkpt>
      <trkpt lat="43.85736" lon="6.22739">
        <ele>983</ele>
        <time>2020-03-21T15:57:52.294Z</time>
      </trkpt>
      <trkpt lat="43.85723" lon="6.22703">
        <ele>980</ele>
        <time>2020-03-21T15:57:53.294Z</time>
      </trkpt>
      <trkpt lat="43.85722" lon="6.22698">
        <ele>980</ele>
        <time>2020-03-21T15:57:54.294Z</time>
      </trkpt>
      <trkpt lat="43.85708" lon="6.22684">
        <ele>978</ele>
        <time>2020-03-21T15:57:55.294Z</time>
      </trkpt>
      <trkpt lat="43.85704" lon="6.22682">
        <ele>978</ele>
        <time>2020-03-21T15:57:56.294Z</time>
      </trkpt>
      <trkpt lat="43.85693" lon="6.22671">
        <ele>976</ele>
        <time>2020-03-21T15:57:57.294Z</time>
      </trkpt>
      <trkpt lat="43.85684" lon="6.22664">
        <ele>975</ele>
        <time>2020-03-21T15:57:58.294Z</time>
      </trkpt>
      <trkpt lat="43.8566" lon="6.22631">
        <ele>969</ele>
        <time>2020-03-21T15:57:59.294Z</time>
      </trkpt>
      <trkpt lat="43.85653" lon="6.22599">
        <ele>964</ele>
        <time>2020-03-21T15:58:00.294Z</time>
      </trkpt>
      <trkpt lat="43.85654" lon="6.2259">
        <ele>964</ele>
        <time>2020-03-21T15:58:01.294Z</time>
      </trkpt>
      <trkpt lat="43.85657" lon="6.22572">
        <ele>964</ele>
        <time>2020-03-21T15:58:02.294Z</time>
      </trkpt>
      <trkpt lat="43.85659" lon="6.22562">
        <ele>964</ele>
        <time>2020-03-21T15:58:03.294Z</time>
      </trkpt>
      <trkpt lat="43.85658" lon="6.22524">
        <ele>961</ele>
        <time>2020-03-21T15:58:04.294Z</time>
      </trkpt>
      <trkpt lat="43.85655" lon="6.22501">
        <ele>959</ele>
        <time>2020-03-21T15:58:05.294Z</time>
      </trkpt>
      <trkpt lat="43.85659" lon="6.22464">
        <ele>960</ele>
        <time>2020-03-21T15:58:06.294Z</time>
      </trkpt>
      <trkpt lat="43.85672" lon="6.22418">
        <ele>960</ele>
        <time>2020-03-21T15:58:07.294Z</time>
      </trkpt>
      <trkpt lat="43.85681" lon="6.22384">
        <ele>961</ele>
        <time>2020-03-21T15:58:08.294Z</time>
      </trkpt>
      <trkpt lat="43.85692" lon="6.22349">
        <ele>960</ele>
        <time>2020-03-21T15:58:09.294Z</time>
      </trkpt>
      <trkpt lat="43.85708" lon="6.22312">
        <ele>957</ele>
        <time>2020-03-21T15:58:10.294Z</time>
      </trkpt>
      <trkpt lat="43.85719" lon="6.22271">
        <ele>954</ele>
        <time>2020-03-21T15:58:11.294Z</time>
      </trkpt>
      <trkpt lat="43.85725" lon="6.22249">
        <ele>952</ele>
        <time>2020-03-21T15:58:12.294Z</time>
      </trkpt>
      <trkpt lat="43.85731" lon="6.22232">
        <ele>949</ele>
        <time>2020-03-21T15:58:13.294Z</time>
      </trkpt>
      <trkpt lat="43.85738" lon="6.22195">
        <ele>946</ele>
        <time>2020-03-21T15:58:14.294Z</time>
      </trkpt>
      <trkpt lat="43.85739" lon="6.22179">
        <ele>945</ele>
        <time>2020-03-21T15:58:15.294Z</time>
      </trkpt>
      <trkpt lat="43.8574" lon="6.2215">
        <ele>945</ele>
        <time>2020-03-21T15:58:16.294Z</time>
      </trkpt>
      <trkpt lat="43.85753" lon="6.22107">
        <ele>941</ele>
        <time>2020-03-21T15:58:17.294Z</time>
      </trkpt>
      <trkpt lat="43.85759" lon="6.22098">
        <ele>940</ele>
        <time>2020-03-21T15:58:18.294Z</time>
      </trkpt>
      <trkpt lat="43.85775" lon="6.22077">
        <ele>938</ele>
        <time>2020-03-21T15:58:19.294Z</time>
      </trkpt>
      <trkpt lat="43.858" lon="6.22033">
        <ele>934</ele>
        <time>2020-03-21T15:58:20.294Z</time>
      </trkpt>
      <trkpt lat="43.85829" lon="6.21988">
        <ele>925</ele>
        <time>2020-03-21T15:58:21.294Z</time>
      </trkpt>
      <trkpt lat="43.85845" lon="6.21963">
        <ele>925</ele>
        <time>2020-03-21T15:58:22.294Z</time>
      </trkpt>
      <trkpt lat="43.85861" lon="6.21922">
        <ele>922</ele>
        <time>2020-03-21T15:58:23.294Z</time>
      </trkpt>
      <trkpt lat="43.85868" lon="6.21882">
        <ele>919</ele>
        <time>2020-03-21T15:58:24.294Z</time>
      </trkpt>
      <trkpt lat="43.85873" lon="6.21827">
        <ele>915</ele>
        <time>2020-03-21T15:58:25.294Z</time>
      </trkpt>
      <trkpt lat="43.85876" lon="6.21796">
        <ele>911</ele>
        <time>2020-03-21T15:58:26.294Z</time>
      </trkpt>
      <trkpt lat="43.85876" lon="6.21779">
        <ele>909</ele>
        <time>2020-03-21T15:58:27.294Z</time>
      </trkpt>
      <trkpt lat="43.85876" lon="6.2176">
        <ele>907</ele>
        <time>2020-03-21T15:58:28.294Z</time>
      </trkpt>
      <trkpt lat="43.85876" lon="6.21746">
        <ele>905</ele>
        <time>2020-03-21T15:58:29.294Z</time>
      </trkpt>
      <trkpt lat="43.85869" lon="6.21727">
        <ele>903</ele>
        <time>2020-03-21T15:58:30.294Z</time>
      </trkpt>
      <trkpt lat="43.85854" lon="6.2171">
        <ele>904</ele>
        <time>2020-03-21T15:58:31.294Z</time>
      </trkpt>
      <trkpt lat="43.8584" lon="6.21699">
        <ele>906</ele>
        <time>2020-03-21T15:58:32.294Z</time>
      </trkpt>
      <trkpt lat="43.85829" lon="6.21688">
        <ele>907</ele>
        <time>2020-03-21T15:58:33.294Z</time>
      </trkpt>
      <trkpt lat="43.85808" lon="6.21662">
        <ele>904</ele>
        <time>2020-03-21T15:58:34.294Z</time>
      </trkpt>
      <trkpt lat="43.85795" lon="6.21647">
        <ele>901</ele>
        <time>2020-03-21T15:58:35.294Z</time>
      </trkpt>
      <trkpt lat="43.85784" lon="6.21636">
        <ele>899</ele>
        <time>2020-03-21T15:58:36.294Z</time>
      </trkpt>
      <trkpt lat="43.8577" lon="6.2162">
        <ele>896</ele>
        <time>2020-03-21T15:58:37.294Z</time>
      </trkpt>
      <trkpt lat="43.85752" lon="6.21603">
        <ele>894</ele>
        <time>2020-03-21T15:58:38.294Z</time>
      </trkpt>
      <trkpt lat="43.85745" lon="6.21599">
        <ele>891</ele>
        <time>2020-03-21T15:58:39.294Z</time>
      </trkpt>
      <trkpt lat="43.85738" lon="6.21598">
        <ele>889</ele>
        <time>2020-03-21T15:58:40.294Z</time>
      </trkpt>
      <trkpt lat="43.85734" lon="6.21599">
        <ele>888</ele>
        <time>2020-03-21T15:58:41.294Z</time>
      </trkpt>
      <trkpt lat="43.85732" lon="6.21601">
        <ele>888</ele>
        <time>2020-03-21T15:58:42.294Z</time>
      </trkpt>
      <trkpt lat="43.85723" lon="6.21604">
        <ele>887</ele>
        <time>2020-03-21T15:58:43.294Z</time>
      </trkpt>
      <trkpt lat="43.85715" lon="6.216">
        <ele>883</ele>
        <time>2020-03-21T15:58:44.294Z</time>
      </trkpt>
      <trkpt lat="43.85719" lon="6.21594">
        <ele>882</ele>
        <time>2020-03-21T15:58:45.294Z</time>
      </trkpt>
      <trkpt lat="43.85728" lon="6.21582">
        <ele>881</ele>
        <time>2020-03-21T15:58:46.294Z</time>
      </trkpt>
      <trkpt lat="43.85727" lon="6.21576">
        <ele>879</ele>
        <time>2020-03-21T15:58:47.294Z</time>
      </trkpt>
      <trkpt lat="43.85719" lon="6.21573">
        <ele>876</ele>
        <time>2020-03-21T15:58:48.294Z</time>
      </trkpt>
      <trkpt lat="43.85722" lon="6.21569">
        <ele>875</ele>
        <time>2020-03-21T15:58:49.294Z</time>
      </trkpt>
      <trkpt lat="43.85727" lon="6.21566">
        <ele>875</ele>
        <time>2020-03-21T15:58:50.294Z</time>
      </trkpt>
      <trkpt lat="43.85728" lon="6.21563">
        <ele>875</ele>
        <time>2020-03-21T15:58:51.294Z</time>
      </trkpt>
      <trkpt lat="43.85727" lon="6.21562">
        <ele>874</ele>
        <time>2020-03-21T15:58:52.294Z</time>
      </trkpt>
      <trkpt lat="43.85719" lon="6.2156">
        <ele>871</ele>
        <time>2020-03-21T15:58:53.294Z</time>
      </trkpt>
      <trkpt lat="43.85722" lon="6.21552">
        <ele>869</ele>
        <time>2020-03-21T15:58:54.294Z</time>
      </trkpt>
      <trkpt lat="43.85724" lon="6.21551">
        <ele>870</ele>
        <time>2020-03-21T15:58:55.294Z</time>
      </trkpt>
      <trkpt lat="43.85729" lon="6.21551">
        <ele>870</ele>
        <time>2020-03-21T15:58:56.294Z</time>
      </trkpt>
      <trkpt lat="43.8573" lon="6.21551">
        <ele>871</ele>
        <time>2020-03-21T15:58:57.294Z</time>
      </trkpt>
      <trkpt lat="43.85735" lon="6.21551">
        <ele>872</ele>
        <time>2020-03-21T15:58:58.294Z</time>
      </trkpt>
      <trkpt lat="43.85738" lon="6.21549">
        <ele>872</ele>
        <time>2020-03-21T15:58:59.294Z</time>
      </trkpt>
      <trkpt lat="43.85738" lon="6.21548">
        <ele>871</ele>
        <time>2020-03-21T15:59:00.294Z</time>
      </trkpt>
      <trkpt lat="43.85738" lon="6.2154">
        <ele>868</ele>
        <time>2020-03-21T15:59:01.294Z</time>
      </trkpt>
      <trkpt lat="43.85727" lon="6.21528">
        <ele>862</ele>
        <time>2020-03-21T15:59:02.294Z</time>
      </trkpt>
      <trkpt lat="43.8572" lon="6.21525">
        <ele>860</ele>
        <time>2020-03-21T15:59:03.294Z</time>
      </trkpt>
      <trkpt lat="43.85715" lon="6.21525">
        <ele>859</ele>
        <time>2020-03-21T15:59:04.294Z</time>
      </trkpt>
      <trkpt lat="43.857" lon="6.21525">
        <ele>856</ele>
        <time>2020-03-21T15:59:05.294Z</time>
      </trkpt>
      <trkpt lat="43.85697" lon="6.21526">
        <ele>856</ele>
        <time>2020-03-21T15:59:06.294Z</time>
      </trkpt>
      <trkpt lat="43.85681" lon="6.21534">
        <ele>855</ele>
        <time>2020-03-21T15:59:07.294Z</time>
      </trkpt>
      <trkpt lat="43.85673" lon="6.21537">
        <ele>855</ele>
        <time>2020-03-21T15:59:08.294Z</time>
      </trkpt>
      <trkpt lat="43.85657" lon="6.21546">
        <ele>852</ele>
        <time>2020-03-21T15:59:09.294Z</time>
      </trkpt>
      <trkpt lat="43.85639" lon="6.21568">
        <ele>850</ele>
        <time>2020-03-21T15:59:10.294Z</time>
      </trkpt>
      <trkpt lat="43.85632" lon="6.21577">
        <ele>849</ele>
        <time>2020-03-21T15:59:11.294Z</time>
      </trkpt>
      <trkpt lat="43.85614" lon="6.21598">
        <ele>848</ele>
        <time>2020-03-21T15:59:12.294Z</time>
      </trkpt>
      <trkpt lat="43.8559" lon="6.21618">
        <ele>846</ele>
        <time>2020-03-21T15:59:13.294Z</time>
      </trkpt>
      <trkpt lat="43.85579" lon="6.21621">
        <ele>843</ele>
        <time>2020-03-21T15:59:14.294Z</time>
      </trkpt>
      <trkpt lat="43.85564" lon="6.21626">
        <ele>842</ele>
        <time>2020-03-21T15:59:15.294Z</time>
      </trkpt>
      <trkpt lat="43.85561" lon="6.21626">
        <ele>841</ele>
        <time>2020-03-21T15:59:16.294Z</time>
      </trkpt>
      <trkpt lat="43.85545" lon="6.21618">
        <ele>835</ele>
        <time>2020-03-21T15:59:17.294Z</time>
      </trkpt>
      <trkpt lat="43.85539" lon="6.21615">
        <ele>833</ele>
        <time>2020-03-21T15:59:18.294Z</time>
      </trkpt>
      <trkpt lat="43.85521" lon="6.21608">
        <ele>828</ele>
        <time>2020-03-21T15:59:19.294Z</time>
      </trkpt>
      <trkpt lat="43.85519" lon="6.21606">
        <ele>827</ele>
        <time>2020-03-21T15:59:20.294Z</time>
      </trkpt>
      <trkpt lat="43.85515" lon="6.21602">
        <ele>826</ele>
        <time>2020-03-21T15:59:21.294Z</time>
      </trkpt>
      <trkpt lat="43.85512" lon="6.21594">
        <ele>824</ele>
        <time>2020-03-21T15:59:22.294Z</time>
      </trkpt>
      <trkpt lat="43.85498" lon="6.21575">
        <ele>818</ele>
        <time>2020-03-21T15:59:23.294Z</time>
      </trkpt>
      <trkpt lat="43.85485" lon="6.2156">
        <ele>813</ele>
        <time>2020-03-21T15:59:24.294Z</time>
      </trkpt>
      <trkpt lat="43.85482" lon="6.21558">
        <ele>812</ele>
        <time>2020-03-21T15:59:25.294Z</time>
      </trkpt>
      <trkpt lat="43.85473" lon="6.21558">
        <ele>810</ele>
        <time>2020-03-21T15:59:26.294Z</time>
      </trkpt>
      <trkpt lat="43.85467" lon="6.21559">
        <ele>809</ele>
        <time>2020-03-21T15:59:27.294Z</time>
      </trkpt>
      <trkpt lat="43.85465" lon="6.21559">
        <ele>809</ele>
        <time>2020-03-21T15:59:28.294Z</time>
      </trkpt>
      <trkpt lat="43.85455" lon="6.21561">
        <ele>808</ele>
        <time>2020-03-21T15:59:29.294Z</time>
      </trkpt>
      <trkpt lat="43.85436" lon="6.21574">
        <ele>806</ele>
        <time>2020-03-21T15:59:30.294Z</time>
      </trkpt>
      <trkpt lat="43.85428" lon="6.21572">
        <ele>804</ele>
        <time>2020-03-21T15:59:31.294Z</time>
      </trkpt>
      <trkpt lat="43.85405" lon="6.21555">
        <ele>797</ele>
        <time>2020-03-21T15:59:32.294Z</time>
      </trkpt>
      <trkpt lat="43.85394" lon="6.2154">
        <ele>792</ele>
        <time>2020-03-21T15:59:33.294Z</time>
      </trkpt>
      <trkpt lat="43.85391" lon="6.21537">
        <ele>791</ele>
        <time>2020-03-21T15:59:34.294Z</time>
      </trkpt>
      <trkpt lat="43.85388" lon="6.21535">
        <ele>790</ele>
        <time>2020-03-21T15:59:35.294Z</time>
      </trkpt>
      <trkpt lat="43.85365" lon="6.21512">
        <ele>781</ele>
        <time>2020-03-21T15:59:36.294Z</time>
      </trkpt>
      <trkpt lat="43.85351" lon="6.215">
        <ele>776</ele>
        <time>2020-03-21T15:59:37.294Z</time>
      </trkpt>
      <trkpt lat="43.85349" lon="6.21492">
        <ele>775</ele>
        <time>2020-03-21T15:59:38.294Z</time>
      </trkpt>
      <trkpt lat="43.85345" lon="6.21477">
        <ele>773</ele>
        <time>2020-03-21T15:59:39.294Z</time>
      </trkpt>
      <trkpt lat="43.85345" lon="6.21471">
        <ele>772</ele>
        <time>2020-03-21T15:59:40.294Z</time>
      </trkpt>
      <trkpt lat="43.8534" lon="6.21442">
        <ele>769</ele>
        <time>2020-03-21T15:59:41.294Z</time>
      </trkpt>
      <trkpt lat="43.85336" lon="6.21428">
        <ele>767</ele>
        <time>2020-03-21T15:59:42.294Z</time>
      </trkpt>
      <trkpt lat="43.85337" lon="6.21422">
        <ele>767</ele>
        <time>2020-03-21T15:59:43.294Z</time>
      </trkpt>
      <trkpt lat="43.85343" lon="6.21408">
        <ele>766</ele>
        <time>2020-03-21T15:59:44.294Z</time>
      </trkpt>
      <trkpt lat="43.85333" lon="6.21398">
        <ele>763</ele>
        <time>2020-03-21T15:59:45.294Z</time>
      </trkpt>
      <trkpt lat="43.85319" lon="6.21383">
        <ele>756</ele>
        <time>2020-03-21T15:59:46.294Z</time>
      </trkpt>
      <trkpt lat="43.85317" lon="6.2138">
        <ele>755</ele>
        <time>2020-03-21T15:59:47.294Z</time>
      </trkpt>
      <trkpt lat="43.85317" lon="6.2138">
        <ele>755</ele>
        <time>2020-03-21T15:59:48.294Z</time>
      </trkpt>
      <trkpt lat="43.85312" lon="6.21369">
        <ele>751</ele>
        <time>2020-03-21T15:59:49.294Z</time>
      </trkpt>
      <trkpt lat="43.85314" lon="6.2135">
        <ele>750</ele>
        <time>2020-03-21T15:59:50.294Z</time>
      </trkpt>
      <trkpt lat="43.85312" lon="6.21341">
        <ele>748</ele>
        <time>2020-03-21T15:59:51.294Z</time>
      </trkpt>
      <trkpt lat="43.85307" lon="6.21329">
        <ele>745</ele>
        <time>2020-03-21T15:59:52.294Z</time>
      </trkpt>
      <trkpt lat="43.85313" lon="6.21304">
        <ele>744</ele>
        <time>2020-03-21T15:59:53.294Z</time>
      </trkpt>
      <trkpt lat="43.85314" lon="6.21298">
        <ele>743</ele>
        <time>2020-03-21T15:59:54.294Z</time>
      </trkpt>
      <trkpt lat="43.85306" lon="6.21275">
        <ele>738</ele>
        <time>2020-03-21T15:59:55.294Z</time>
      </trkpt>
      <trkpt lat="43.85293" lon="6.21252">
        <ele>732</ele>
        <time>2020-03-21T15:59:56.294Z</time>
      </trkpt>
      <trkpt lat="43.85285" lon="6.21239">
        <ele>727</ele>
        <time>2020-03-21T15:59:57.294Z</time>
      </trkpt>
      <trkpt lat="43.85275" lon="6.21231">
        <ele>724</ele>
        <time>2020-03-21T15:59:58.294Z</time>
      </trkpt>
      <trkpt lat="43.85271" lon="6.21221">
        <ele>721</ele>
        <time>2020-03-21T15:59:59.294Z</time>
      </trkpt>
      <trkpt lat="43.85265" lon="6.21219">
        <ele>719</ele>
        <time>2020-03-21T16:00:00.294Z</time>
      </trkpt>
      <trkpt lat="43.85251" lon="6.21225">
        <ele>717</ele>
        <time>2020-03-21T16:00:01.294Z</time>
      </trkpt>
      <trkpt lat="43.85245" lon="6.2123">
        <ele>716</ele>
        <time>2020-03-21T16:00:02.294Z</time>
      </trkpt>
      <trkpt lat="43.85238" lon="6.21242">
        <ele>714</ele>
        <time>2020-03-21T16:00:03.294Z</time>
      </trkpt>
      <trkpt lat="43.85222" lon="6.21262">
        <ele>711</ele>
        <time>2020-03-21T16:00:04.294Z</time>
      </trkpt>
      <trkpt lat="43.85209" lon="6.21282">
        <ele>708</ele>
        <time>2020-03-21T16:00:05.294Z</time>
      </trkpt>
      <trkpt lat="43.85199" lon="6.21294">
        <ele>705</ele>
        <time>2020-03-21T16:00:06.294Z</time>
      </trkpt>
      <trkpt lat="43.85189" lon="6.21308">
        <ele>703</ele>
        <time>2020-03-21T16:00:07.294Z</time>
      </trkpt>
      <trkpt lat="43.85173" lon="6.21335">
        <ele>699</ele>
        <time>2020-03-21T16:00:08.294Z</time>
      </trkpt>
      <trkpt lat="43.85158" lon="6.21353">
        <ele>694</ele>
        <time>2020-03-21T16:00:09.294Z</time>
      </trkpt>
      <trkpt lat="43.85154" lon="6.21363">
        <ele>693</ele>
        <time>2020-03-21T16:00:10.294Z</time>
      </trkpt>
      <trkpt lat="43.85151" lon="6.21375">
        <ele>693</ele>
        <time>2020-03-21T16:00:11.294Z</time>
      </trkpt>
      <trkpt lat="43.85142" lon="6.21407">
        <ele>690</ele>
        <time>2020-03-21T16:00:12.294Z</time>
      </trkpt>
      <trkpt lat="43.85132" lon="6.21411">
        <ele>687</ele>
        <time>2020-03-21T16:00:13.294Z</time>
      </trkpt>
      <trkpt lat="43.85122" lon="6.21416">
        <ele>684</ele>
        <time>2020-03-21T16:00:14.294Z</time>
      </trkpt>
      <trkpt lat="43.85115" lon="6.21423">
        <ele>682</ele>
        <time>2020-03-21T16:00:15.294Z</time>
      </trkpt>
      <trkpt lat="43.85111" lon="6.21431">
        <ele>682</ele>
        <time>2020-03-21T16:00:16.294Z</time>
      </trkpt>
      <trkpt lat="43.85104" lon="6.21422">
        <ele>679</ele>
        <time>2020-03-21T16:00:17.294Z</time>
      </trkpt>
      <trkpt lat="43.85101" lon="6.2142">
        <ele>678</ele>
        <time>2020-03-21T16:00:18.294Z</time>
      </trkpt>
      <trkpt lat="43.85088" lon="6.21423">
        <ele>673</ele>
        <time>2020-03-21T16:00:19.294Z</time>
      </trkpt>
      <trkpt lat="43.8508" lon="6.21429">
        <ele>672</ele>
        <time>2020-03-21T16:00:20.294Z</time>
      </trkpt>
      <trkpt lat="43.85049" lon="6.21459">
        <ele>668</ele>
        <time>2020-03-21T16:00:21.294Z</time>
      </trkpt>
      <trkpt lat="43.85044" lon="6.21465">
        <ele>667</ele>
        <time>2020-03-21T16:00:22.294Z</time>
      </trkpt>
      <trkpt lat="43.85027" lon="6.21468">
        <ele>663</ele>
        <time>2020-03-21T16:00:23.294Z</time>
      </trkpt>
      <trkpt lat="43.85022" lon="6.21466">
        <ele>661</ele>
        <time>2020-03-21T16:00:24.294Z</time>
      </trkpt>
      <trkpt lat="43.8501" lon="6.21477">
        <ele>659</ele>
        <time>2020-03-21T16:00:25.294Z</time>
      </trkpt>
      <trkpt lat="43.85006" lon="6.2148">
        <ele>658</ele>
        <time>2020-03-21T16:00:26.294Z</time>
      </trkpt>
      <trkpt lat="43.85005" lon="6.21478">
        <ele>658</ele>
        <time>2020-03-21T16:00:27.294Z</time>
      </trkpt>
      <trkpt lat="43.84989" lon="6.21453">
        <ele>653</ele>
        <time>2020-03-21T16:00:28.294Z</time>
      </trkpt>
      <trkpt lat="43.84983" lon="6.21448">
        <ele>653</ele>
        <time>2020-03-21T16:00:29.294Z</time>
      </trkpt>
      <trkpt lat="43.84985" lon="6.21445">
        <ele>653</ele>
        <time>2020-03-21T16:00:30.294Z</time>
      </trkpt>
      <trkpt lat="43.84981" lon="6.21442">
        <ele>652</ele>
        <time>2020-03-21T16:00:31.294Z</time>
      </trkpt>
      <trkpt lat="43.84968" lon="6.21441">
        <ele>651</ele>
        <time>2020-03-21T16:00:32.294Z</time>
      </trkpt>
      <trkpt lat="43.8494" lon="6.21443">
        <ele>648</ele>
        <time>2020-03-21T16:00:33.294Z</time>
      </trkpt>
      <trkpt lat="43.8493" lon="6.21445">
        <ele>648</ele>
        <time>2020-03-21T16:00:34.294Z</time>
      </trkpt>
      <trkpt lat="43.8492" lon="6.21449">
        <ele>647</ele>
        <time>2020-03-21T16:00:35.294Z</time>
      </trkpt>
      <trkpt lat="43.84911" lon="6.21449">
        <ele>646</ele>
        <time>2020-03-21T16:00:36.294Z</time>
      </trkpt>
      <trkpt lat="43.84893" lon="6.21461">
        <ele>643</ele>
        <time>2020-03-21T16:00:37.294Z</time>
      </trkpt>
      <trkpt lat="43.84859" lon="6.21491">
        <ele>640</ele>
        <time>2020-03-21T16:00:38.294Z</time>
      </trkpt>
      <trkpt lat="43.84844" lon="6.21506">
        <ele>638</ele>
        <time>2020-03-21T16:00:39.294Z</time>
      </trkpt>
      <trkpt lat="43.84824" lon="6.21517">
        <ele>634</ele>
        <time>2020-03-21T16:00:40.294Z</time>
      </trkpt>
      <trkpt lat="43.84818" lon="6.21519">
        <ele>633</ele>
        <time>2020-03-21T16:00:41.294Z</time>
      </trkpt>
      <trkpt lat="43.84804" lon="6.21538">
        <ele>630</ele>
        <time>2020-03-21T16:00:42.294Z</time>
      </trkpt>
      <trkpt lat="43.84799" lon="6.21543">
        <ele>629</ele>
        <time>2020-03-21T16:00:43.294Z</time>
      </trkpt>
      <trkpt lat="43.84793" lon="6.21548">
        <ele>628</ele>
        <time>2020-03-21T16:00:44.294Z</time>
      </trkpt>
      <trkpt lat="43.84759" lon="6.21582">
        <ele>624</ele>
        <time>2020-03-21T16:00:45.294Z</time>
      </trkpt>
      <trkpt lat="43.84754" lon="6.21587">
        <ele>623</ele>
        <time>2020-03-21T16:00:46.294Z</time>
      </trkpt>
      <trkpt lat="43.84734" lon="6.2159">
        <ele>618</ele>
        <time>2020-03-21T16:00:47.294Z</time>
      </trkpt>
      <trkpt lat="43.84728" lon="6.21587">
        <ele>617</ele>
        <time>2020-03-21T16:00:48.294Z</time>
      </trkpt>
      <trkpt lat="43.84709" lon="6.21569">
        <ele>613</ele>
        <time>2020-03-21T16:00:49.294Z</time>
      </trkpt>
      <trkpt lat="43.84701" lon="6.21548">
        <ele>611</ele>
        <time>2020-03-21T16:00:50.294Z</time>
      </trkpt>
      <trkpt lat="43.84692" lon="6.21535">
        <ele>608</ele>
        <time>2020-03-21T16:00:51.294Z</time>
      </trkpt>
      <trkpt lat="43.8469" lon="6.21535">
        <ele>608</ele>
        <time>2020-03-21T16:00:52.294Z</time>
      </trkpt>
      <trkpt lat="43.84689" lon="6.21535">
        <ele>608</ele>
        <time>2020-03-21T16:00:53.294Z</time>
      </trkpt>
      <trkpt lat="43.84687" lon="6.21549">
        <ele>607</ele>
        <time>2020-03-21T16:00:54.294Z</time>
      </trkpt>
      <trkpt lat="43.84685" lon="6.21553">
        <ele>607</ele>
        <time>2020-03-21T16:00:55.294Z</time>
      </trkpt>
      <trkpt lat="43.84676" lon="6.2156">
        <ele>604</ele>
        <time>2020-03-21T16:00:56.294Z</time>
      </trkpt>
      <trkpt lat="43.84657" lon="6.21572">
        <ele>600</ele>
        <time>2020-03-21T16:00:57.294Z</time>
      </trkpt>
      <trkpt lat="43.84639" lon="6.21593">
        <ele>596</ele>
        <time>2020-03-21T16:00:58.294Z</time>
      </trkpt>
      <trkpt lat="43.84622" lon="6.21624">
        <ele>591</ele>
        <time>2020-03-21T16:00:59.294Z</time>
      </trkpt>
      <trkpt lat="43.84596" lon="6.2166">
        <ele>585</ele>
        <time>2020-03-21T16:01:00.294Z</time>
      </trkpt>
      <trkpt lat="43.84581" lon="6.21678">
        <ele>582</ele>
        <time>2020-03-21T16:01:01.294Z</time>
      </trkpt>
      <trkpt lat="43.84577" lon="6.21684">
        <ele>581</ele>
        <time>2020-03-21T16:01:02.294Z</time>
      </trkpt>
      <trkpt lat="43.84577" lon="6.21684">
        <ele>581</ele>
        <time>2020-03-21T16:01:03.294Z</time>
      </trkpt>
    </trkseg>
  </trk>
</gpx>